<?xml version='1.0' encoding='UTF-8'?><gpx version="1.1" creator="JPX - https://github.com/jenetics/jpx" xmlns="http://www.topografix.com/GPX/1/1"><trk><trkseg><trkpt lat="44.7408735" lon="10.6210787"><ele>38.6</ele><time>2026-04-06T07:41:33.696Z</time></trkpt><trkpt lat="44.7409718" lon="10.6212579"><ele>38.2</ele><time>2026-04-06T07:41:35.196Z</time></trkpt><trkpt lat="44.7409993" lon="10.6213432"><ele>37.800000000000004</ele><time>2026-04-06T07:41:37.196Z</time></trkpt><trkpt lat="44.7410684" lon="10.6213184"><ele>37.4</ele><time>2026-04-06T07:41:41.982Z</time></trkpt><trkpt lat="44.7411298" lon="10.6212959"><ele>37.0</ele><time>2026-04-06T07:41:47.982Z</time></trkpt><trkpt lat="44.7411799" lon="10.6211496"><ele>37.0</ele><time>2026-04-06T07:42:22.982Z</time></trkpt><trkpt lat="44.7412321" lon="10.6210423"><ele>37.0</ele><time>2026-04-06T07:42:24.981Z</time></trkpt><trkpt lat="44.7412907" lon="10.6209006"><ele>37.0</ele><time>2026-04-06T07:42:26.981Z</time></trkpt><trkpt lat="44.7413428" lon="10.6207513"><ele>37.0</ele><time>2026-04-06T07:42:28.981Z</time></trkpt><trkpt lat="44.7413789" lon="10.6206481"><ele>37.0</ele><time>2026-04-06T07:42:30.981Z</time></trkpt><trkpt lat="44.7413767" lon="10.6205233"><ele>37.0</ele><time>2026-04-06T07:43:54.982Z</time></trkpt><trkpt lat="44.7412967" lon="10.6204567"><ele>37.0</ele><time>2026-04-06T07:43:56.981Z</time></trkpt><trkpt lat="44.7411917" lon="10.6204"><ele>37.0</ele><time>2026-04-06T07:43:58.982Z</time></trkpt><trkpt lat="44.7411267" lon="10.620365"><ele>37.0</ele><time>2026-04-06T07:43:59.981Z</time></trkpt><trkpt lat="44.7410567" lon="10.6203317"><ele>37.0</ele><time>2026-04-06T07:44:00.982Z</time></trkpt><trkpt lat="44.7409783" lon="10.6202933"><ele>37.0</ele><time>2026-04-06T07:44:01.981Z</time></trkpt><trkpt lat="44.7408983" lon="10.62026"><ele>37.66666666666667</ele><time>2026-04-06T07:44:02.982Z</time></trkpt><trkpt lat="44.7408217" lon="10.6202217"><ele>38.333333333333336</ele><time>2026-04-06T07:44:03.982Z</time></trkpt><trkpt lat="44.740745" lon="10.6201767"><ele>39.0</ele><time>2026-04-06T07:44:04.982Z</time></trkpt><trkpt lat="44.740665" lon="10.6201333"><ele>39.666666666666664</ele><time>2026-04-06T07:44:05.982Z</time></trkpt><trkpt lat="44.7405833" lon="10.62009"><ele>40.33333333333333</ele><time>2026-04-06T07:44:06.981Z</time></trkpt><trkpt lat="44.7405017" lon="10.6200417"><ele>41.0</ele><time>2026-04-06T07:44:07.981Z</time></trkpt><trkpt lat="44.7404233" lon="10.6199983"><ele>41.0</ele><time>2026-04-06T07:44:08.981Z</time></trkpt><trkpt lat="44.7403533" lon="10.61996"><ele>41.0</ele><time>2026-04-06T07:44:09.981Z</time></trkpt><trkpt lat="44.740275" lon="10.6199133"><ele>41.0</ele><time>2026-04-06T07:44:10.981Z</time></trkpt><trkpt lat="44.7401867" lon="10.6198617"><ele>41.0</ele><time>2026-04-06T07:44:11.981Z</time></trkpt><trkpt lat="44.740105" lon="10.6198117"><ele>41.0</ele><time>2026-04-06T07:44:12.982Z</time></trkpt><trkpt lat="44.7400217" lon="10.6197567"><ele>41.0</ele><time>2026-04-06T07:44:13.982Z</time></trkpt><trkpt lat="44.7399333" lon="10.6197"><ele>41.0</ele><time>2026-04-06T07:44:14.981Z</time></trkpt><trkpt lat="44.739835" lon="10.619635"><ele>41.0</ele><time>2026-04-06T07:44:15.981Z</time></trkpt><trkpt lat="44.73974" lon="10.6195733"><ele>41.0</ele><time>2026-04-06T07:44:16.982Z</time></trkpt><trkpt lat="44.73964" lon="10.6195167"><ele>41.0</ele><time>2026-04-06T07:44:17.982Z</time></trkpt><trkpt lat="44.7395333" lon="10.6194833"><ele>41.0</ele><time>2026-04-06T07:44:18.982Z</time></trkpt><trkpt lat="44.7394217" lon="10.619445"><ele>40.8</ele><time>2026-04-06T07:44:19.981Z</time></trkpt><trkpt lat="44.7393117" lon="10.619425"><ele>40.599999999999994</ele><time>2026-04-06T07:44:20.981Z</time></trkpt><trkpt lat="44.7392033" lon="10.6194067"><ele>40.4</ele><time>2026-04-06T07:44:21.982Z</time></trkpt><trkpt lat="44.739095" lon="10.6193783"><ele>40.2</ele><time>2026-04-06T07:44:22.981Z</time></trkpt><trkpt lat="44.7389883" lon="10.61934"><ele>40.0</ele><time>2026-04-06T07:44:23.981Z</time></trkpt><trkpt lat="44.7388817" lon="10.6193017"><ele>40.0</ele><time>2026-04-06T07:44:24.982Z</time></trkpt><trkpt lat="44.7387733" lon="10.619255"><ele>40.0</ele><time>2026-04-06T07:44:25.982Z</time></trkpt><trkpt lat="44.73867" lon="10.619215"><ele>40.0</ele><time>2026-04-06T07:44:26.982Z</time></trkpt><trkpt lat="44.7385683" lon="10.6191717"><ele>40.0</ele><time>2026-04-06T07:44:27.982Z</time></trkpt><trkpt lat="44.738455" lon="10.6191283"><ele>40.0</ele><time>2026-04-06T07:44:28.981Z</time></trkpt><trkpt lat="44.7383483" lon="10.6190767"><ele>39.8</ele><time>2026-04-06T07:44:29.981Z</time></trkpt><trkpt lat="44.7382483" lon="10.6190317"><ele>39.6</ele><time>2026-04-06T07:44:30.981Z</time></trkpt><trkpt lat="44.7381483" lon="10.61897"><ele>39.4</ele><time>2026-04-06T07:44:31.981Z</time></trkpt><trkpt lat="44.7380533" lon="10.6189133"><ele>39.2</ele><time>2026-04-06T07:44:32.981Z</time></trkpt><trkpt lat="44.7379417" lon="10.618855"><ele>39.0</ele><time>2026-04-06T07:44:33.981Z</time></trkpt><trkpt lat="44.73784" lon="10.61878"><ele>39.0</ele><time>2026-04-06T07:44:34.981Z</time></trkpt><trkpt lat="44.7377433" lon="10.6187083"><ele>39.0</ele><time>2026-04-06T07:44:35.981Z</time></trkpt><trkpt lat="44.7376433" lon="10.61864"><ele>39.0</ele><time>2026-04-06T07:44:36.981Z</time></trkpt><trkpt lat="44.7375467" lon="10.618565"><ele>39.0</ele><time>2026-04-06T07:44:37.982Z</time></trkpt><trkpt lat="44.7374533" lon="10.6184917"><ele>39.0</ele><time>2026-04-06T07:44:38.982Z</time></trkpt><trkpt lat="44.7373517" lon="10.6184367"><ele>39.0</ele><time>2026-04-06T07:44:39.981Z</time></trkpt><trkpt lat="44.7372483" lon="10.61839"><ele>39.0</ele><time>2026-04-06T07:44:40.982Z</time></trkpt><trkpt lat="44.7371433" lon="10.6183483"><ele>39.0</ele><time>2026-04-06T07:44:41.981Z</time></trkpt><trkpt lat="44.737035" lon="10.6183117"><ele>39.0</ele><time>2026-04-06T07:44:42.981Z</time></trkpt><trkpt lat="44.7369233" lon="10.618285"><ele>39.0</ele><time>2026-04-06T07:44:43.981Z</time></trkpt><trkpt lat="44.7368067" lon="10.618255"><ele>39.25</ele><time>2026-04-06T07:44:44.981Z</time></trkpt><trkpt lat="44.7366917" lon="10.61823"><ele>39.5</ele><time>2026-04-06T07:44:45.981Z</time></trkpt><trkpt lat="44.7365767" lon="10.6182"><ele>39.75</ele><time>2026-04-06T07:44:46.981Z</time></trkpt><trkpt lat="44.7364583" lon="10.61817"><ele>40.0</ele><time>2026-04-06T07:44:47.981Z</time></trkpt><trkpt lat="44.7363517" lon="10.6181267"><ele>40.0</ele><time>2026-04-06T07:44:48.981Z</time></trkpt><trkpt lat="44.7362367" lon="10.618075"><ele>40.0</ele><time>2026-04-06T07:44:49.981Z</time></trkpt><trkpt lat="44.7361283" lon="10.6180017"><ele>40.0</ele><time>2026-04-06T07:44:50.981Z</time></trkpt><trkpt lat="44.7360233" lon="10.6179133"><ele>40.0</ele><time>2026-04-06T07:44:51.982Z</time></trkpt><trkpt lat="44.7359217" lon="10.6178233"><ele>40.0</ele><time>2026-04-06T07:44:52.981Z</time></trkpt><trkpt lat="44.7358167" lon="10.6177317"><ele>40.0</ele><time>2026-04-06T07:44:53.981Z</time></trkpt><trkpt lat="44.735705" lon="10.617645"><ele>40.0</ele><time>2026-04-06T07:44:54.981Z</time></trkpt><trkpt lat="44.735595" lon="10.61756"><ele>40.0</ele><time>2026-04-06T07:44:55.982Z</time></trkpt><trkpt lat="44.7354817" lon="10.6174767"><ele>40.0</ele><time>2026-04-06T07:44:56.982Z</time></trkpt><trkpt lat="44.73537" lon="10.6173917"><ele>40.0</ele><time>2026-04-06T07:44:57.982Z</time></trkpt><trkpt lat="44.73526" lon="10.6173"><ele>40.0</ele><time>2026-04-06T07:44:58.981Z</time></trkpt><trkpt lat="44.7351483" lon="10.6172133"><ele>40.0</ele><time>2026-04-06T07:44:59.981Z</time></trkpt><trkpt lat="44.7350333" lon="10.6171383"><ele>40.0</ele><time>2026-04-06T07:45:00.981Z</time></trkpt><trkpt lat="44.73491" lon="10.6170683"><ele>40.0</ele><time>2026-04-06T07:45:01.981Z</time></trkpt><trkpt lat="44.7347867" lon="10.617005"><ele>40.0</ele><time>2026-04-06T07:45:02.981Z</time></trkpt><trkpt lat="44.7346683" lon="10.6169383"><ele>40.0</ele><time>2026-04-06T07:45:03.981Z</time></trkpt><trkpt lat="44.7345517" lon="10.616875"><ele>40.25</ele><time>2026-04-06T07:45:04.981Z</time></trkpt><trkpt lat="44.7344433" lon="10.6168017"><ele>40.5</ele><time>2026-04-06T07:45:05.982Z</time></trkpt><trkpt lat="44.7343283" lon="10.6167367"><ele>40.75</ele><time>2026-04-06T07:45:06.981Z</time></trkpt><trkpt lat="44.7342167" lon="10.61667"><ele>41.0</ele><time>2026-04-06T07:45:07.981Z</time></trkpt><trkpt lat="44.7341183" lon="10.6166167"><ele>41.199999999999996</ele><time>2026-04-06T07:45:08.981Z</time></trkpt><trkpt lat="44.7340383" lon="10.616565"><ele>41.4</ele><time>2026-04-06T07:45:09.981Z</time></trkpt><trkpt lat="44.7339667" lon="10.616525"><ele>41.6</ele><time>2026-04-06T07:45:10.981Z</time></trkpt><trkpt lat="44.7338883" lon="10.6164667"><ele>41.8</ele><time>2026-04-06T07:45:12.981Z</time></trkpt><trkpt lat="44.7339167" lon="10.6163183"><ele>42.0</ele><time>2026-04-06T07:45:16.981Z</time></trkpt><trkpt lat="44.7339917" lon="10.6161583"><ele>42.0</ele><time>2026-04-06T07:45:18.981Z</time></trkpt><trkpt lat="44.7340383" lon="10.6160717"><ele>42.0</ele><time>2026-04-06T07:45:19.981Z</time></trkpt><trkpt lat="44.734095" lon="10.6159667"><ele>42.0</ele><time>2026-04-06T07:45:20.981Z</time></trkpt><trkpt lat="44.7341517" lon="10.6158633"><ele>42.0</ele><time>2026-04-06T07:45:21.981Z</time></trkpt><trkpt lat="44.7342" lon="10.615755"><ele>42.0</ele><time>2026-04-06T07:45:22.982Z</time></trkpt><trkpt lat="44.7342517" lon="10.61564"><ele>42.0</ele><time>2026-04-06T07:45:23.981Z</time></trkpt><trkpt lat="44.7343017" lon="10.61551"><ele>42.0</ele><time>2026-04-06T07:45:24.982Z</time></trkpt><trkpt lat="44.7343483" lon="10.61538"><ele>42.0</ele><time>2026-04-06T07:45:25.981Z</time></trkpt><trkpt lat="44.7343917" lon="10.61525"><ele>42.0</ele><time>2026-04-06T07:45:26.981Z</time></trkpt><trkpt lat="44.734425" lon="10.6151333"><ele>42.0</ele><time>2026-04-06T07:45:27.981Z</time></trkpt><trkpt lat="44.7344483" lon="10.61503"><ele>42.0</ele><time>2026-04-06T07:45:28.981Z</time></trkpt><trkpt lat="44.7344733" lon="10.6149267"><ele>42.0</ele><time>2026-04-06T07:45:29.981Z</time></trkpt><trkpt lat="44.734495" lon="10.6148317"><ele>42.0</ele><time>2026-04-06T07:45:30.981Z</time></trkpt><trkpt lat="44.7345383" lon="10.6146733"><ele>42.0</ele><time>2026-04-06T07:45:32.981Z</time></trkpt><trkpt lat="44.7345217" lon="10.6145233"><ele>42.0</ele><time>2026-04-06T07:45:34.981Z</time></trkpt><trkpt lat="44.7344617" lon="10.6144917"><ele>42.0</ele><time>2026-04-06T07:45:35.981Z</time></trkpt><trkpt lat="44.7343617" lon="10.614505"><ele>42.0</ele><time>2026-04-06T07:45:36.981Z</time></trkpt><trkpt lat="44.7342483" lon="10.6145367"><ele>42.0</ele><time>2026-04-06T07:45:37.981Z</time></trkpt><trkpt lat="44.73414" lon="10.614565"><ele>42.0</ele><time>2026-04-06T07:45:38.981Z</time></trkpt><trkpt lat="44.73402" lon="10.614615"><ele>42.0</ele><time>2026-04-06T07:45:39.982Z</time></trkpt><trkpt lat="44.7338967" lon="10.614665"><ele>42.0</ele><time>2026-04-06T07:45:40.981Z</time></trkpt><trkpt lat="44.7337767" lon="10.6147167"><ele>42.0</ele><time>2026-04-06T07:45:41.981Z</time></trkpt><trkpt lat="44.7336483" lon="10.61478"><ele>42.0</ele><time>2026-04-06T07:45:42.981Z</time></trkpt><trkpt lat="44.733515" lon="10.61484"><ele>42.0</ele><time>2026-04-06T07:45:43.981Z</time></trkpt><trkpt lat="44.7333767" lon="10.6149067"><ele>42.666666666666664</ele><time>2026-04-06T07:45:44.98Z</time></trkpt><trkpt lat="44.7332283" lon="10.614955"><ele>43.33333333333333</ele><time>2026-04-06T07:45:45.98Z</time></trkpt><trkpt lat="44.733085" lon="10.6150333"><ele>44.0</ele><time>2026-04-06T07:45:46.98Z</time></trkpt><trkpt lat="44.7329417" lon="10.6151133"><ele>44.0</ele><time>2026-04-06T07:45:47.98Z</time></trkpt><trkpt lat="44.732795" lon="10.6152017"><ele>44.0</ele><time>2026-04-06T07:45:48.98Z</time></trkpt><trkpt lat="44.7326717" lon="10.6152883"><ele>44.0</ele><time>2026-04-06T07:45:49.98Z</time></trkpt><trkpt lat="44.7325383" lon="10.6153717"><ele>44.0</ele><time>2026-04-06T07:45:50.98Z</time></trkpt><trkpt lat="44.7324083" lon="10.61547"><ele>44.666666666666664</ele><time>2026-04-06T07:45:51.98Z</time></trkpt><trkpt lat="44.7322733" lon="10.6155667"><ele>45.333333333333336</ele><time>2026-04-06T07:45:52.981Z</time></trkpt><trkpt lat="44.73214" lon="10.6156617"><ele>46.0</ele><time>2026-04-06T07:45:53.98Z</time></trkpt><trkpt lat="44.73199" lon="10.6157817"><ele>46.333333333333336</ele><time>2026-04-06T07:45:54.98Z</time></trkpt><trkpt lat="44.7317917" lon="10.6158933"><ele>46.666666666666664</ele><time>2026-04-06T07:45:55.981Z</time></trkpt><trkpt lat="44.731605" lon="10.6159733"><ele>47.0</ele><time>2026-04-06T07:45:56.98Z</time></trkpt><trkpt lat="44.7314433" lon="10.61603"><ele>47.0</ele><time>2026-04-06T07:45:57.981Z</time></trkpt><trkpt lat="44.7312817" lon="10.6160783"><ele>47.0</ele><time>2026-04-06T07:45:58.98Z</time></trkpt><trkpt lat="44.731115" lon="10.616135"><ele>47.0</ele><time>2026-04-06T07:45:59.98Z</time></trkpt><trkpt lat="44.7309767" lon="10.6161983"><ele>46.0</ele><time>2026-04-06T07:46:00.98Z</time></trkpt><trkpt lat="44.7308333" lon="10.61626"><ele>45.0</ele><time>2026-04-06T07:46:01.981Z</time></trkpt><trkpt lat="44.7306967" lon="10.616305"><ele>44.0</ele><time>2026-04-06T07:46:02.98Z</time></trkpt><trkpt lat="44.7305733" lon="10.61633"><ele>43.0</ele><time>2026-04-06T07:46:03.981Z</time></trkpt><trkpt lat="44.7304617" lon="10.616355"><ele>43.0</ele><time>2026-04-06T07:46:04.98Z</time></trkpt><trkpt lat="44.730355" lon="10.6163583"><ele>43.0</ele><time>2026-04-06T07:46:05.981Z</time></trkpt><trkpt lat="44.7302667" lon="10.6163483"><ele>43.0</ele><time>2026-04-06T07:46:06.98Z</time></trkpt><trkpt lat="44.7301833" lon="10.6163117"><ele>43.0</ele><time>2026-04-06T07:46:07.98Z</time></trkpt><trkpt lat="44.7300967" lon="10.61627"><ele>43.0</ele><time>2026-04-06T07:46:08.981Z</time></trkpt><trkpt lat="44.7300183" lon="10.61624"><ele>43.0</ele><time>2026-04-06T07:46:09.98Z</time></trkpt><trkpt lat="44.7299433" lon="10.61625"><ele>43.0</ele><time>2026-04-06T07:46:10.98Z</time></trkpt><trkpt lat="44.729875" lon="10.6163067"><ele>43.0</ele><time>2026-04-06T07:46:11.98Z</time></trkpt><trkpt lat="44.7298217" lon="10.6164133"><ele>43.0</ele><time>2026-04-06T07:46:12.98Z</time></trkpt><trkpt lat="44.72979" lon="10.6165617"><ele>43.0</ele><time>2026-04-06T07:46:13.98Z</time></trkpt><trkpt lat="44.7297433" lon="10.6167233"><ele>43.0</ele><time>2026-04-06T07:46:14.981Z</time></trkpt><trkpt lat="44.7296683" lon="10.6168467"><ele>43.0</ele><time>2026-04-06T07:46:15.98Z</time></trkpt><trkpt lat="44.7295667" lon="10.6169283"><ele>43.0</ele><time>2026-04-06T07:46:16.981Z</time></trkpt><trkpt lat="44.7294633" lon="10.6170033"><ele>43.0</ele><time>2026-04-06T07:46:17.98Z</time></trkpt><trkpt lat="44.7293367" lon="10.6170633"><ele>43.4</ele><time>2026-04-06T07:46:18.98Z</time></trkpt><trkpt lat="44.72923" lon="10.6171267"><ele>43.8</ele><time>2026-04-06T07:46:19.98Z</time></trkpt><trkpt lat="44.7291233" lon="10.61718"><ele>44.2</ele><time>2026-04-06T07:46:20.98Z</time></trkpt><trkpt lat="44.7290283" lon="10.61723"><ele>44.6</ele><time>2026-04-06T07:46:21.98Z</time></trkpt><trkpt lat="44.7289417" lon="10.6172917"><ele>45.0</ele><time>2026-04-06T07:46:22.98Z</time></trkpt><trkpt lat="44.7288483" lon="10.6173517"><ele>45.0</ele><time>2026-04-06T07:46:23.98Z</time></trkpt><trkpt lat="44.7287433" lon="10.61741"><ele>45.0</ele><time>2026-04-06T07:46:24.98Z</time></trkpt><trkpt lat="44.7286267" lon="10.6174617"><ele>45.0</ele><time>2026-04-06T07:46:25.98Z</time></trkpt><trkpt lat="44.7284983" lon="10.6175283"><ele>45.0</ele><time>2026-04-06T07:46:26.98Z</time></trkpt><trkpt lat="44.7283683" lon="10.6176117"><ele>45.25</ele><time>2026-04-06T07:46:27.981Z</time></trkpt><trkpt lat="44.72824" lon="10.6176967"><ele>45.5</ele><time>2026-04-06T07:46:28.98Z</time></trkpt><trkpt lat="44.7281083" lon="10.61777"><ele>45.75</ele><time>2026-04-06T07:46:29.98Z</time></trkpt><trkpt lat="44.7279733" lon="10.6178517"><ele>46.0</ele><time>2026-04-06T07:46:30.98Z</time></trkpt><trkpt lat="44.727835" lon="10.6179267"><ele>45.66666666666667</ele><time>2026-04-06T07:46:31.98Z</time></trkpt><trkpt lat="44.7276967" lon="10.618005"><ele>45.333333333333336</ele><time>2026-04-06T07:46:32.981Z</time></trkpt><trkpt lat="44.7275533" lon="10.618095"><ele>45.0</ele><time>2026-04-06T07:46:33.98Z</time></trkpt><trkpt lat="44.7274133" lon="10.6181717"><ele>45.0</ele><time>2026-04-06T07:46:34.981Z</time></trkpt><trkpt lat="44.72728" lon="10.6182467"><ele>45.0</ele><time>2026-04-06T07:46:35.98Z</time></trkpt><trkpt lat="44.7271417" lon="10.6183217"><ele>45.0</ele><time>2026-04-06T07:46:36.981Z</time></trkpt><trkpt lat="44.727" lon="10.6183933"><ele>45.0</ele><time>2026-04-06T07:46:37.981Z</time></trkpt><trkpt lat="44.7268567" lon="10.6184633"><ele>45.333333333333336</ele><time>2026-04-06T07:46:38.98Z</time></trkpt><trkpt lat="44.7267117" lon="10.61853"><ele>45.66666666666667</ele><time>2026-04-06T07:46:39.98Z</time></trkpt><trkpt lat="44.7265617" lon="10.6186017"><ele>46.0</ele><time>2026-04-06T07:46:40.981Z</time></trkpt><trkpt lat="44.726415" lon="10.6186767"><ele>46.0</ele><time>2026-04-06T07:46:41.98Z</time></trkpt><trkpt lat="44.7262683" lon="10.6187533"><ele>46.0</ele><time>2026-04-06T07:46:42.98Z</time></trkpt><trkpt lat="44.726125" lon="10.6188217"><ele>46.0</ele><time>2026-04-06T07:46:43.98Z</time></trkpt><trkpt lat="44.7259917" lon="10.6188883"><ele>46.0</ele><time>2026-04-06T07:46:44.981Z</time></trkpt><trkpt lat="44.725865" lon="10.6189567"><ele>46.0</ele><time>2026-04-06T07:46:45.98Z</time></trkpt><trkpt lat="44.725745" lon="10.619015"><ele>46.0</ele><time>2026-04-06T07:46:46.981Z</time></trkpt><trkpt lat="44.7256117" lon="10.6190583"><ele>46.0</ele><time>2026-04-06T07:46:47.98Z</time></trkpt><trkpt lat="44.7254817" lon="10.6191083"><ele>46.0</ele><time>2026-04-06T07:46:48.981Z</time></trkpt><trkpt lat="44.7253483" lon="10.6191867"><ele>45.333333333333336</ele><time>2026-04-06T07:46:49.98Z</time></trkpt><trkpt lat="44.725215" lon="10.619275"><ele>44.666666666666664</ele><time>2026-04-06T07:46:50.98Z</time></trkpt><trkpt lat="44.7250783" lon="10.6193583"><ele>44.0</ele><time>2026-04-06T07:46:51.981Z</time></trkpt><trkpt lat="44.7249283" lon="10.61943"><ele>44.666666666666664</ele><time>2026-04-06T07:46:52.98Z</time></trkpt><trkpt lat="44.724775" lon="10.6195"><ele>45.333333333333336</ele><time>2026-04-06T07:46:53.98Z</time></trkpt><trkpt lat="44.7246217" lon="10.6195817"><ele>46.0</ele><time>2026-04-06T07:46:54.98Z</time></trkpt><trkpt lat="44.724465" lon="10.6196667"><ele>46.0</ele><time>2026-04-06T07:46:55.98Z</time></trkpt><trkpt lat="44.7243017" lon="10.6197433"><ele>46.0</ele><time>2026-04-06T07:46:56.98Z</time></trkpt><trkpt lat="44.7241467" lon="10.619815"><ele>46.0</ele><time>2026-04-06T07:46:57.98Z</time></trkpt><trkpt lat="44.72399" lon="10.6198633"><ele>46.0</ele><time>2026-04-06T07:46:58.98Z</time></trkpt><trkpt lat="44.7238317" lon="10.61993"><ele>46.0</ele><time>2026-04-06T07:46:59.98Z</time></trkpt><trkpt lat="44.7236783" lon="10.6199967"><ele>46.0</ele><time>2026-04-06T07:47:00.98Z</time></trkpt><trkpt lat="44.72353" lon="10.6200567"><ele>45.333333333333336</ele><time>2026-04-06T07:47:01.98Z</time></trkpt><trkpt lat="44.72338" lon="10.6201233"><ele>44.666666666666664</ele><time>2026-04-06T07:47:02.98Z</time></trkpt><trkpt lat="44.7232317" lon="10.6201883"><ele>44.0</ele><time>2026-04-06T07:47:03.98Z</time></trkpt><trkpt lat="44.72308" lon="10.6202467"><ele>44.0</ele><time>2026-04-06T07:47:04.98Z</time></trkpt><trkpt lat="44.72294" lon="10.6202933"><ele>44.0</ele><time>2026-04-06T07:47:05.98Z</time></trkpt><trkpt lat="44.722785" lon="10.62034"><ele>44.0</ele><time>2026-04-06T07:47:06.98Z</time></trkpt><trkpt lat="44.722635" lon="10.6203867"><ele>44.666666666666664</ele><time>2026-04-06T07:47:07.981Z</time></trkpt><trkpt lat="44.7224817" lon="10.6204417"><ele>45.333333333333336</ele><time>2026-04-06T07:47:08.98Z</time></trkpt><trkpt lat="44.7223333" lon="10.6204933"><ele>46.0</ele><time>2026-04-06T07:47:09.981Z</time></trkpt><trkpt lat="44.7221867" lon="10.6205467"><ele>46.0</ele><time>2026-04-06T07:47:10.98Z</time></trkpt><trkpt lat="44.7220617" lon="10.6205883"><ele>46.0</ele><time>2026-04-06T07:47:11.98Z</time></trkpt><trkpt lat="44.7219383" lon="10.62063"><ele>46.0</ele><time>2026-04-06T07:47:12.98Z</time></trkpt><trkpt lat="44.7218117" lon="10.62066"><ele>46.0</ele><time>2026-04-06T07:47:13.98Z</time></trkpt><trkpt lat="44.7217033" lon="10.620665"><ele>46.16666666666667</ele><time>2026-04-06T07:47:14.98Z</time></trkpt><trkpt lat="44.7216083" lon="10.6206467"><ele>46.333333333333336</ele><time>2026-04-06T07:47:15.981Z</time></trkpt><trkpt lat="44.721525" lon="10.620595"><ele>46.5</ele><time>2026-04-06T07:47:16.98Z</time></trkpt><trkpt lat="44.721455" lon="10.6205183"><ele>46.666666666666664</ele><time>2026-04-06T07:47:17.98Z</time></trkpt><trkpt lat="44.7213883" lon="10.62044"><ele>46.83333333333333</ele><time>2026-04-06T07:47:18.98Z</time></trkpt><trkpt lat="44.721325" lon="10.6203567"><ele>47.0</ele><time>2026-04-06T07:47:19.98Z</time></trkpt><trkpt lat="44.7212583" lon="10.6203117"><ele>47.0</ele><time>2026-04-06T07:47:20.98Z</time></trkpt><trkpt lat="44.72119" lon="10.62031"><ele>47.0</ele><time>2026-04-06T07:47:21.981Z</time></trkpt><trkpt lat="44.7211167" lon="10.62035"><ele>47.0</ele><time>2026-04-06T07:47:22.981Z</time></trkpt><trkpt lat="44.7210533" lon="10.6204317"><ele>47.0</ele><time>2026-04-06T07:47:23.981Z</time></trkpt><trkpt lat="44.7209933" lon="10.6205633"><ele>47.0</ele><time>2026-04-06T07:47:24.98Z</time></trkpt><trkpt lat="44.7209283" lon="10.6207083"><ele>47.5</ele><time>2026-04-06T07:47:25.98Z</time></trkpt><trkpt lat="44.7208617" lon="10.6208583"><ele>48.0</ele><time>2026-04-06T07:47:26.981Z</time></trkpt><trkpt lat="44.7207783" lon="10.6209683"><ele>48.5</ele><time>2026-04-06T07:47:27.981Z</time></trkpt><trkpt lat="44.720685" lon="10.6210767"><ele>49.0</ele><time>2026-04-06T07:47:28.98Z</time></trkpt><trkpt lat="44.7205783" lon="10.6211483"><ele>48.75</ele><time>2026-04-06T07:47:29.98Z</time></trkpt><trkpt lat="44.7204733" lon="10.6212083"><ele>48.5</ele><time>2026-04-06T07:47:30.98Z</time></trkpt><trkpt lat="44.7203533" lon="10.6212417"><ele>48.25</ele><time>2026-04-06T07:47:31.98Z</time></trkpt><trkpt lat="44.7202317" lon="10.621275"><ele>48.0</ele><time>2026-04-06T07:47:32.98Z</time></trkpt><trkpt lat="44.72011" lon="10.6213083"><ele>48.0</ele><time>2026-04-06T07:47:33.98Z</time></trkpt><trkpt lat="44.7199867" lon="10.6213567"><ele>48.0</ele><time>2026-04-06T07:47:34.98Z</time></trkpt><trkpt lat="44.719875" lon="10.6213967"><ele>48.0</ele><time>2026-04-06T07:47:35.981Z</time></trkpt><trkpt lat="44.7197683" lon="10.6214267"><ele>48.0</ele><time>2026-04-06T07:47:36.98Z</time></trkpt><trkpt lat="44.719665" lon="10.621475"><ele>48.0</ele><time>2026-04-06T07:47:37.98Z</time></trkpt><trkpt lat="44.7195733" lon="10.6215283"><ele>48.0</ele><time>2026-04-06T07:47:38.981Z</time></trkpt><trkpt lat="44.719505" lon="10.6215917"><ele>48.0</ele><time>2026-04-06T07:47:39.98Z</time></trkpt><trkpt lat="44.7194517" lon="10.621645"><ele>48.0</ele><time>2026-04-06T07:47:40.98Z</time></trkpt><trkpt lat="44.7193733" lon="10.62171"><ele>48.0</ele><time>2026-04-06T07:47:42.98Z</time></trkpt><trkpt lat="44.7193083" lon="10.6217"><ele>48.0</ele><time>2026-04-06T07:51:39.98Z</time></trkpt><trkpt lat="44.7192267" lon="10.6217233"><ele>47.666666666666664</ele><time>2026-04-06T07:51:41.981Z</time></trkpt><trkpt lat="44.7191567" lon="10.6217133"><ele>47.333333333333336</ele><time>2026-04-06T07:51:43.98Z</time></trkpt><trkpt lat="44.7190783" lon="10.6217283"><ele>47.0</ele><time>2026-04-06T07:52:01.98Z</time></trkpt><trkpt lat="44.7189783" lon="10.6217217"><ele>46.66666666666667</ele><time>2026-04-06T07:52:03.98Z</time></trkpt><trkpt lat="44.718905" lon="10.6217267"><ele>46.333333333333336</ele><time>2026-04-06T07:52:04.981Z</time></trkpt><trkpt lat="44.71882" lon="10.6217383"><ele>46.0</ele><time>2026-04-06T07:52:05.98Z</time></trkpt><trkpt lat="44.7187217" lon="10.621755"><ele>46.0</ele><time>2026-04-06T07:52:06.981Z</time></trkpt><trkpt lat="44.7186133" lon="10.6217883"><ele>46.0</ele><time>2026-04-06T07:52:07.981Z</time></trkpt><trkpt lat="44.7185" lon="10.6218283"><ele>46.0</ele><time>2026-04-06T07:52:08.98Z</time></trkpt><trkpt lat="44.71838" lon="10.6218717"><ele>46.0</ele><time>2026-04-06T07:52:09.981Z</time></trkpt><trkpt lat="44.7182567" lon="10.6219117"><ele>46.25</ele><time>2026-04-06T07:52:10.98Z</time></trkpt><trkpt lat="44.71813" lon="10.6219567"><ele>46.5</ele><time>2026-04-06T07:52:11.981Z</time></trkpt><trkpt lat="44.7179983" lon="10.6219967"><ele>46.75</ele><time>2026-04-06T07:52:12.981Z</time></trkpt><trkpt lat="44.7178733" lon="10.6220383"><ele>47.0</ele><time>2026-04-06T07:52:13.981Z</time></trkpt><trkpt lat="44.7177617" lon="10.6220883"><ele>47.2</ele><time>2026-04-06T07:52:14.981Z</time></trkpt><trkpt lat="44.7176517" lon="10.6221233"><ele>47.400000000000006</ele><time>2026-04-06T07:52:15.98Z</time></trkpt><trkpt lat="44.7175417" lon="10.6221533"><ele>47.599999999999994</ele><time>2026-04-06T07:52:16.98Z</time></trkpt><trkpt lat="44.71743" lon="10.6221833"><ele>47.8</ele><time>2026-04-06T07:52:17.981Z</time></trkpt><trkpt lat="44.717325" lon="10.6222183"><ele>48.0</ele><time>2026-04-06T07:52:18.98Z</time></trkpt><trkpt lat="44.7172233" lon="10.622245"><ele>48.0</ele><time>2026-04-06T07:52:19.98Z</time></trkpt><trkpt lat="44.7171283" lon="10.622275"><ele>48.0</ele><time>2026-04-06T07:52:20.981Z</time></trkpt><trkpt lat="44.7170367" lon="10.6222983"><ele>48.0</ele><time>2026-04-06T07:52:21.98Z</time></trkpt><trkpt lat="44.7169517" lon="10.62231"><ele>48.0</ele><time>2026-04-06T07:52:22.98Z</time></trkpt><trkpt lat="44.716875" lon="10.62231"><ele>48.0</ele><time>2026-04-06T07:52:23.981Z</time></trkpt><trkpt lat="44.716805" lon="10.6223033"><ele>48.0</ele><time>2026-04-06T07:52:24.98Z</time></trkpt><trkpt lat="44.7167367" lon="10.6223033"><ele>48.333333333333336</ele><time>2026-04-06T07:52:25.98Z</time></trkpt><trkpt lat="44.7166583" lon="10.62233"><ele>48.66666666666667</ele><time>2026-04-06T07:52:26.98Z</time></trkpt><trkpt lat="44.7165783" lon="10.6223883"><ele>49.0</ele><time>2026-04-06T07:52:27.98Z</time></trkpt><trkpt lat="44.7164967" lon="10.6224567"><ele>49.333333333333336</ele><time>2026-04-06T07:52:28.98Z</time></trkpt><trkpt lat="44.7164083" lon="10.6224967"><ele>49.66666666666667</ele><time>2026-04-06T07:52:29.981Z</time></trkpt><trkpt lat="44.7163217" lon="10.6225333"><ele>50.0</ele><time>2026-04-06T07:52:30.98Z</time></trkpt><trkpt lat="44.7162267" lon="10.6225817"><ele>50.0</ele><time>2026-04-06T07:52:31.98Z</time></trkpt><trkpt lat="44.7161183" lon="10.6225967"><ele>50.0</ele><time>2026-04-06T07:52:32.98Z</time></trkpt><trkpt lat="44.7160067" lon="10.6226117"><ele>50.0</ele><time>2026-04-06T07:52:33.981Z</time></trkpt><trkpt lat="44.7158883" lon="10.6226183"><ele>50.0</ele><time>2026-04-06T07:52:34.981Z</time></trkpt><trkpt lat="44.7157533" lon="10.62265"><ele>49.75</ele><time>2026-04-06T07:52:35.98Z</time></trkpt><trkpt lat="44.715615" lon="10.6226983"><ele>49.5</ele><time>2026-04-06T07:52:36.981Z</time></trkpt><trkpt lat="44.715475" lon="10.6227517"><ele>49.25</ele><time>2026-04-06T07:52:37.98Z</time></trkpt><trkpt lat="44.7153267" lon="10.6228033"><ele>49.0</ele><time>2026-04-06T07:52:38.98Z</time></trkpt><trkpt lat="44.7151767" lon="10.622855"><ele>48.666666666666664</ele><time>2026-04-06T07:52:39.981Z</time></trkpt><trkpt lat="44.7150183" lon="10.6229067"><ele>48.33333333333333</ele><time>2026-04-06T07:52:40.98Z</time></trkpt><trkpt lat="44.714855" lon="10.6229617"><ele>48.0</ele><time>2026-04-06T07:52:41.98Z</time></trkpt><trkpt lat="44.714685" lon="10.623025"><ele>48.0</ele><time>2026-04-06T07:52:42.98Z</time></trkpt><trkpt lat="44.7145233" lon="10.62307"><ele>48.0</ele><time>2026-04-06T07:52:43.98Z</time></trkpt><trkpt lat="44.7143617" lon="10.6231267"><ele>48.0</ele><time>2026-04-06T07:52:44.981Z</time></trkpt><trkpt lat="44.7141883" lon="10.6232017"><ele>48.0</ele><time>2026-04-06T07:52:45.98Z</time></trkpt><trkpt lat="44.7140133" lon="10.6232583"><ele>48.0</ele><time>2026-04-06T07:52:46.98Z</time></trkpt><trkpt lat="44.713855" lon="10.6233217"><ele>48.0</ele><time>2026-04-06T07:52:47.98Z</time></trkpt><trkpt lat="44.7136967" lon="10.6233617"><ele>47.666666666666664</ele><time>2026-04-06T07:52:48.981Z</time></trkpt><trkpt lat="44.7135433" lon="10.6234233"><ele>47.33333333333333</ele><time>2026-04-06T07:52:49.98Z</time></trkpt><trkpt lat="44.7133983" lon="10.6234767"><ele>47.0</ele><time>2026-04-06T07:52:50.98Z</time></trkpt><trkpt lat="44.7132567" lon="10.6235333"><ele>47.0</ele><time>2026-04-06T07:52:51.98Z</time></trkpt><trkpt lat="44.7131217" lon="10.6235917"><ele>47.0</ele><time>2026-04-06T07:52:52.98Z</time></trkpt><trkpt lat="44.7129867" lon="10.6236367"><ele>47.0</ele><time>2026-04-06T07:52:53.981Z</time></trkpt><trkpt lat="44.71285" lon="10.62368"><ele>47.0</ele><time>2026-04-06T07:52:54.981Z</time></trkpt><trkpt lat="44.7127083" lon="10.623715"><ele>47.75</ele><time>2026-04-06T07:52:55.981Z</time></trkpt><trkpt lat="44.7125817" lon="10.6237483"><ele>48.5</ele><time>2026-04-06T07:52:56.98Z</time></trkpt><trkpt lat="44.712455" lon="10.6237917"><ele>49.25</ele><time>2026-04-06T07:52:57.981Z</time></trkpt><trkpt lat="44.7123233" lon="10.623835"><ele>50.0</ele><time>2026-04-06T07:52:58.98Z</time></trkpt><trkpt lat="44.7122033" lon="10.623865"><ele>50.0</ele><time>2026-04-06T07:52:59.98Z</time></trkpt><trkpt lat="44.7120867" lon="10.6239"><ele>50.0</ele><time>2026-04-06T07:53:00.98Z</time></trkpt><trkpt lat="44.7119767" lon="10.62394"><ele>50.0</ele><time>2026-04-06T07:53:01.98Z</time></trkpt><trkpt lat="44.7118633" lon="10.623975"><ele>50.0</ele><time>2026-04-06T07:53:02.981Z</time></trkpt><trkpt lat="44.7117533" lon="10.624015"><ele>50.4</ele><time>2026-04-06T07:53:03.981Z</time></trkpt><trkpt lat="44.7116517" lon="10.62405"><ele>50.8</ele><time>2026-04-06T07:53:04.98Z</time></trkpt><trkpt lat="44.7115467" lon="10.6240867"><ele>51.2</ele><time>2026-04-06T07:53:05.98Z</time></trkpt><trkpt lat="44.711445" lon="10.624125"><ele>51.6</ele><time>2026-04-06T07:53:06.98Z</time></trkpt><trkpt lat="44.7113467" lon="10.6241567"><ele>52.0</ele><time>2026-04-06T07:53:07.98Z</time></trkpt><trkpt lat="44.7112383" lon="10.624185"><ele>52.0</ele><time>2026-04-06T07:53:08.98Z</time></trkpt><trkpt lat="44.7111333" lon="10.6242083"><ele>52.0</ele><time>2026-04-06T07:53:09.981Z</time></trkpt><trkpt lat="44.71102" lon="10.62424"><ele>52.0</ele><time>2026-04-06T07:53:10.98Z</time></trkpt><trkpt lat="44.7109033" lon="10.6242783"><ele>52.0</ele><time>2026-04-06T07:53:11.98Z</time></trkpt><trkpt lat="44.7107967" lon="10.62431"><ele>51.75</ele><time>2026-04-06T07:53:12.98Z</time></trkpt><trkpt lat="44.710685" lon="10.6243467"><ele>51.5</ele><time>2026-04-06T07:53:13.98Z</time></trkpt><trkpt lat="44.7105717" lon="10.6243833"><ele>51.25</ele><time>2026-04-06T07:53:14.981Z</time></trkpt><trkpt lat="44.7104567" lon="10.6244167"><ele>51.0</ele><time>2026-04-06T07:53:15.98Z</time></trkpt><trkpt lat="44.7103283" lon="10.6244517"><ele>50.75</ele><time>2026-04-06T07:53:16.98Z</time></trkpt><trkpt lat="44.7102083" lon="10.624505"><ele>50.5</ele><time>2026-04-06T07:53:17.981Z</time></trkpt><trkpt lat="44.7100933" lon="10.6245583"><ele>50.25</ele><time>2026-04-06T07:53:18.98Z</time></trkpt><trkpt lat="44.7099633" lon="10.6246083"><ele>50.0</ele><time>2026-04-06T07:53:19.98Z</time></trkpt><trkpt lat="44.7098333" lon="10.6246483"><ele>50.0</ele><time>2026-04-06T07:53:20.981Z</time></trkpt><trkpt lat="44.7097167" lon="10.6246833"><ele>50.0</ele><time>2026-04-06T07:53:21.98Z</time></trkpt><trkpt lat="44.7096067" lon="10.6247067"><ele>50.0</ele><time>2026-04-06T07:53:22.981Z</time></trkpt><trkpt lat="44.7094983" lon="10.6247433"><ele>50.0</ele><time>2026-04-06T07:53:23.98Z</time></trkpt><trkpt lat="44.7093983" lon="10.6247783"><ele>50.0</ele><time>2026-04-06T07:53:24.98Z</time></trkpt><trkpt lat="44.7092967" lon="10.6248167"><ele>50.00000000000001</ele><time>2026-04-06T07:53:25.98Z</time></trkpt><trkpt lat="44.709195" lon="10.6248433"><ele>50.0</ele><time>2026-04-06T07:53:26.98Z</time></trkpt><trkpt lat="44.7091017" lon="10.6248683"><ele>50.0</ele><time>2026-04-06T07:53:27.98Z</time></trkpt><trkpt lat="44.7090183" lon="10.6248883"><ele>50.0</ele><time>2026-04-06T07:53:28.981Z</time></trkpt><trkpt lat="44.7089383" lon="10.624895"><ele>50.00000000000001</ele><time>2026-04-06T07:53:29.98Z</time></trkpt><trkpt lat="44.70886" lon="10.6249083"><ele>50.0</ele><time>2026-04-06T07:53:30.981Z</time></trkpt><trkpt lat="44.7087833" lon="10.62492"><ele>50.00000000000001</ele><time>2026-04-06T07:53:31.98Z</time></trkpt><trkpt lat="44.7087083" lon="10.62493"><ele>50.0</ele><time>2026-04-06T07:53:32.98Z</time></trkpt><trkpt lat="44.7086417" lon="10.624925"><ele>50.0</ele><time>2026-04-06T07:53:33.981Z</time></trkpt><trkpt lat="44.7085717" lon="10.62488"><ele>50.0</ele><time>2026-04-06T07:53:34.981Z</time></trkpt><trkpt lat="44.7085183" lon="10.62479"><ele>50.00000000000001</ele><time>2026-04-06T07:53:35.98Z</time></trkpt><trkpt lat="44.70849" lon="10.6246717"><ele>50.0</ele><time>2026-04-06T07:53:36.98Z</time></trkpt><trkpt lat="44.70848" lon="10.624525"><ele>50.0</ele><time>2026-04-06T07:53:37.98Z</time></trkpt><trkpt lat="44.7084783" lon="10.624365"><ele>50.0</ele><time>2026-04-06T07:53:38.981Z</time></trkpt><trkpt lat="44.7084683" lon="10.624225"><ele>50.0</ele><time>2026-04-06T07:53:39.98Z</time></trkpt><trkpt lat="44.7084783" lon="10.624095"><ele>50.0</ele><time>2026-04-06T07:53:40.98Z</time></trkpt><trkpt lat="44.7084967" lon="10.6239817"><ele>50.0</ele><time>2026-04-06T07:53:41.98Z</time></trkpt><trkpt lat="44.708515" lon="10.62389"><ele>50.00000000000001</ele><time>2026-04-06T07:53:42.98Z</time></trkpt><trkpt lat="44.7085067" lon="10.6238"><ele>50.0</ele><time>2026-04-06T07:53:43.98Z</time></trkpt><trkpt lat="44.7084683" lon="10.6237183"><ele>50.0</ele><time>2026-04-06T07:53:44.98Z</time></trkpt><trkpt lat="44.7084117" lon="10.6236633"><ele>50.0</ele><time>2026-04-06T07:53:45.981Z</time></trkpt><trkpt lat="44.7083217" lon="10.6236183"><ele>50.00000000000001</ele><time>2026-04-06T07:53:46.98Z</time></trkpt><trkpt lat="44.708225" lon="10.6235617"><ele>50.0</ele><time>2026-04-06T07:53:47.98Z</time></trkpt><trkpt lat="44.70813" lon="10.6234867"><ele>50.0</ele><time>2026-04-06T07:53:48.98Z</time></trkpt><trkpt lat="44.7080333" lon="10.6233867"><ele>50.0</ele><time>2026-04-06T07:53:49.981Z</time></trkpt><trkpt lat="44.7079383" lon="10.62328"><ele>50.0</ele><time>2026-04-06T07:53:50.98Z</time></trkpt><trkpt lat="44.7078517" lon="10.6231533"><ele>50.0</ele><time>2026-04-06T07:53:51.98Z</time></trkpt><trkpt lat="44.7077717" lon="10.6230317"><ele>50.0</ele><time>2026-04-06T07:53:52.981Z</time></trkpt><trkpt lat="44.7077017" lon="10.6228933"><ele>50.0</ele><time>2026-04-06T07:53:53.98Z</time></trkpt><trkpt lat="44.7076317" lon="10.6227467"><ele>50.0</ele><time>2026-04-06T07:53:54.98Z</time></trkpt><trkpt lat="44.7075467" lon="10.6226067"><ele>50.0</ele><time>2026-04-06T07:53:55.98Z</time></trkpt><trkpt lat="44.7074533" lon="10.6224633"><ele>50.0</ele><time>2026-04-06T07:53:56.98Z</time></trkpt><trkpt lat="44.70736" lon="10.6223083"><ele>50.0</ele><time>2026-04-06T07:53:57.98Z</time></trkpt><trkpt lat="44.7072683" lon="10.6221517"><ele>50.0</ele><time>2026-04-06T07:53:58.98Z</time></trkpt><trkpt lat="44.70717" lon="10.6219933"><ele>50.0</ele><time>2026-04-06T07:53:59.98Z</time></trkpt><trkpt lat="44.707075" lon="10.6218283"><ele>51.0</ele><time>2026-04-06T07:54:00.98Z</time></trkpt><trkpt lat="44.7069733" lon="10.621665"><ele>52.0</ele><time>2026-04-06T07:54:01.98Z</time></trkpt><trkpt lat="44.706875" lon="10.6214983"><ele>53.0</ele><time>2026-04-06T07:54:02.98Z</time></trkpt><trkpt lat="44.7067783" lon="10.621335"><ele>53.0</ele><time>2026-04-06T07:54:03.98Z</time></trkpt><trkpt lat="44.70668" lon="10.621175"><ele>53.0</ele><time>2026-04-06T07:54:04.98Z</time></trkpt><trkpt lat="44.7065917" lon="10.6210283"><ele>53.0</ele><time>2026-04-06T07:54:05.98Z</time></trkpt><trkpt lat="44.7064933" lon="10.620895"><ele>53.0</ele><time>2026-04-06T07:54:06.981Z</time></trkpt><trkpt lat="44.7064317" lon="10.6207683"><ele>53.00000000000001</ele><time>2026-04-06T07:54:07.98Z</time></trkpt><trkpt lat="44.7063933" lon="10.6206583"><ele>53.0</ele><time>2026-04-06T07:54:08.981Z</time></trkpt><trkpt lat="44.7063767" lon="10.6205467"><ele>53.0</ele><time>2026-04-06T07:54:09.98Z</time></trkpt><trkpt lat="44.7063767" lon="10.6204467"><ele>53.0</ele><time>2026-04-06T07:54:10.981Z</time></trkpt><trkpt lat="44.7063867" lon="10.6203517"><ele>53.00000000000001</ele><time>2026-04-06T07:54:11.98Z</time></trkpt><trkpt lat="44.7064167" lon="10.620195"><ele>53.0</ele><time>2026-04-06T07:54:13.98Z</time></trkpt><trkpt lat="44.7064567" lon="10.6200717"><ele>52.8</ele><time>2026-04-06T07:54:15.981Z</time></trkpt><trkpt lat="44.7064517" lon="10.6199267"><ele>52.599999999999994</ele><time>2026-04-06T07:54:17.98Z</time></trkpt><trkpt lat="44.7064133" lon="10.6198533"><ele>52.400000000000006</ele><time>2026-04-06T07:54:18.981Z</time></trkpt><trkpt lat="44.70634" lon="10.619795"><ele>52.2</ele><time>2026-04-06T07:54:19.981Z</time></trkpt><trkpt lat="44.7062417" lon="10.6197583"><ele>52.0</ele><time>2026-04-06T07:54:20.98Z</time></trkpt><trkpt lat="44.70613" lon="10.6197267"><ele>52.25</ele><time>2026-04-06T07:54:21.98Z</time></trkpt><trkpt lat="44.7060117" lon="10.6196833"><ele>52.5</ele><time>2026-04-06T07:54:22.98Z</time></trkpt><trkpt lat="44.70588" lon="10.6196433"><ele>52.75</ele><time>2026-04-06T07:54:23.98Z</time></trkpt><trkpt lat="44.7057383" lon="10.6195867"><ele>53.0</ele><time>2026-04-06T07:54:24.981Z</time></trkpt><trkpt lat="44.70561" lon="10.619525"><ele>53.0</ele><time>2026-04-06T07:54:25.98Z</time></trkpt><trkpt lat="44.70547" lon="10.6194717"><ele>53.0</ele><time>2026-04-06T07:54:26.98Z</time></trkpt><trkpt lat="44.7053283" lon="10.6194183"><ele>53.0</ele><time>2026-04-06T07:54:27.981Z</time></trkpt><trkpt lat="44.7051883" lon="10.61936"><ele>53.0</ele><time>2026-04-06T07:54:28.981Z</time></trkpt><trkpt lat="44.70505" lon="10.619295"><ele>53.0</ele><time>2026-04-06T07:54:29.98Z</time></trkpt><trkpt lat="44.7049033" lon="10.6192483"><ele>53.0</ele><time>2026-04-06T07:54:30.98Z</time></trkpt><trkpt lat="44.70475" lon="10.6191833"><ele>53.0</ele><time>2026-04-06T07:54:31.98Z</time></trkpt><trkpt lat="44.7046017" lon="10.6191367"><ele>53.0</ele><time>2026-04-06T07:54:32.981Z</time></trkpt><trkpt lat="44.7044467" lon="10.6190867"><ele>53.0</ele><time>2026-04-06T07:54:33.98Z</time></trkpt><trkpt lat="44.7042933" lon="10.619015"><ele>53.0</ele><time>2026-04-06T07:54:34.981Z</time></trkpt><trkpt lat="44.7041367" lon="10.6189417"><ele>53.333333333333336</ele><time>2026-04-06T07:54:35.98Z</time></trkpt><trkpt lat="44.7039733" lon="10.6188617"><ele>53.66666666666667</ele><time>2026-04-06T07:54:36.98Z</time></trkpt><trkpt lat="44.7038017" lon="10.618785"><ele>54.0</ele><time>2026-04-06T07:54:37.98Z</time></trkpt><trkpt lat="44.7036467" lon="10.618725"><ele>54.0</ele><time>2026-04-06T07:54:38.981Z</time></trkpt><trkpt lat="44.703495" lon="10.6186567"><ele>54.0</ele><time>2026-04-06T07:54:39.98Z</time></trkpt><trkpt lat="44.7033567" lon="10.6185883"><ele>54.0</ele><time>2026-04-06T07:54:40.98Z</time></trkpt><trkpt lat="44.70323" lon="10.6185217"><ele>54.0</ele><time>2026-04-06T07:54:41.98Z</time></trkpt><trkpt lat="44.7031133" lon="10.618445"><ele>54.0</ele><time>2026-04-06T07:54:42.98Z</time></trkpt><trkpt lat="44.7029933" lon="10.618385"><ele>54.0</ele><time>2026-04-06T07:54:43.98Z</time></trkpt><trkpt lat="44.7028633" lon="10.6183167"><ele>54.0</ele><time>2026-04-06T07:54:44.98Z</time></trkpt><trkpt lat="44.70273" lon="10.618245"><ele>54.0</ele><time>2026-04-06T07:54:45.98Z</time></trkpt><trkpt lat="44.7025867" lon="10.6181583"><ele>54.5</ele><time>2026-04-06T07:54:46.98Z</time></trkpt><trkpt lat="44.70245" lon="10.6180817"><ele>55.0</ele><time>2026-04-06T07:54:47.98Z</time></trkpt><trkpt lat="44.7023117" lon="10.61802"><ele>55.5</ele><time>2026-04-06T07:54:48.98Z</time></trkpt><trkpt lat="44.7021883" lon="10.617945"><ele>56.0</ele><time>2026-04-06T07:54:49.98Z</time></trkpt><trkpt lat="44.7020583" lon="10.6178883"><ele>56.0</ele><time>2026-04-06T07:54:50.981Z</time></trkpt><trkpt lat="44.70193" lon="10.617825"><ele>56.0</ele><time>2026-04-06T07:54:51.98Z</time></trkpt><trkpt lat="44.7018067" lon="10.617765"><ele>56.0</ele><time>2026-04-06T07:54:52.981Z</time></trkpt><trkpt lat="44.7016917" lon="10.61772"><ele>56.0</ele><time>2026-04-06T07:54:53.98Z</time></trkpt><trkpt lat="44.70158" lon="10.6176633"><ele>56.0</ele><time>2026-04-06T07:54:54.98Z</time></trkpt><trkpt lat="44.701465" lon="10.6176233"><ele>56.0</ele><time>2026-04-06T07:54:55.98Z</time></trkpt><trkpt lat="44.701355" lon="10.617595"><ele>56.0</ele><time>2026-04-06T07:54:56.98Z</time></trkpt><trkpt lat="44.7012417" lon="10.6175567"><ele>56.0</ele><time>2026-04-06T07:54:57.98Z</time></trkpt><trkpt lat="44.701135" lon="10.6175317"><ele>56.0</ele><time>2026-04-06T07:54:58.981Z</time></trkpt><trkpt lat="44.7010317" lon="10.61751"><ele>55.99999999999999</ele><time>2026-04-06T07:54:59.98Z</time></trkpt><trkpt lat="44.7009317" lon="10.6175067"><ele>55.99999999999999</ele><time>2026-04-06T07:55:00.981Z</time></trkpt><trkpt lat="44.7008267" lon="10.6175033"><ele>56.0</ele><time>2026-04-06T07:55:01.98Z</time></trkpt><trkpt lat="44.700715" lon="10.6175183"><ele>56.0</ele><time>2026-04-06T07:55:02.98Z</time></trkpt><trkpt lat="44.7006067" lon="10.6175383"><ele>56.0</ele><time>2026-04-06T07:55:03.981Z</time></trkpt><trkpt lat="44.7004833" lon="10.6175533"><ele>56.0</ele><time>2026-04-06T07:55:04.98Z</time></trkpt><trkpt lat="44.70036" lon="10.617575"><ele>56.0</ele><time>2026-04-06T07:55:05.98Z</time></trkpt><trkpt lat="44.7002267" lon="10.617605"><ele>56.0</ele><time>2026-04-06T07:55:06.98Z</time></trkpt><trkpt lat="44.7001" lon="10.6176417"><ele>56.0</ele><time>2026-04-06T07:55:07.98Z</time></trkpt><trkpt lat="44.6999767" lon="10.6176617"><ele>56.0</ele><time>2026-04-06T07:55:08.98Z</time></trkpt><trkpt lat="44.6998583" lon="10.617685"><ele>56.0</ele><time>2026-04-06T07:55:09.979Z</time></trkpt><trkpt lat="44.69975" lon="10.61772"><ele>56.0</ele><time>2026-04-06T07:55:10.979Z</time></trkpt><trkpt lat="44.6996333" lon="10.6177583"><ele>56.0</ele><time>2026-04-06T07:55:11.979Z</time></trkpt><trkpt lat="44.6995167" lon="10.6177883"><ele>56.0</ele><time>2026-04-06T07:55:12.979Z</time></trkpt><trkpt lat="44.699395" lon="10.6178167"><ele>56.0</ele><time>2026-04-06T07:55:13.979Z</time></trkpt><trkpt lat="44.6992683" lon="10.6178533"><ele>56.0</ele><time>2026-04-06T07:55:14.979Z</time></trkpt><trkpt lat="44.6991367" lon="10.6178933"><ele>56.199999999999996</ele><time>2026-04-06T07:55:15.979Z</time></trkpt><trkpt lat="44.69902" lon="10.617935"><ele>56.39999999999999</ele><time>2026-04-06T07:55:16.979Z</time></trkpt><trkpt lat="44.6989033" lon="10.6179617"><ele>56.6</ele><time>2026-04-06T07:55:17.98Z</time></trkpt><trkpt lat="44.6988033" lon="10.61799"><ele>56.8</ele><time>2026-04-06T07:55:18.979Z</time></trkpt><trkpt lat="44.6987083" lon="10.6180217"><ele>57.0</ele><time>2026-04-06T07:55:19.98Z</time></trkpt><trkpt lat="44.6986183" lon="10.6180467"><ele>57.8</ele><time>2026-04-06T07:55:20.98Z</time></trkpt><trkpt lat="44.698525" lon="10.6180717"><ele>58.6</ele><time>2026-04-06T07:55:21.98Z</time></trkpt><trkpt lat="44.6984283" lon="10.6181"><ele>59.39999999999999</ele><time>2026-04-06T07:55:22.98Z</time></trkpt><trkpt lat="44.698325" lon="10.6181167"><ele>60.199999999999996</ele><time>2026-04-06T07:55:23.979Z</time></trkpt><trkpt lat="44.698215" lon="10.61814"><ele>61.0</ele><time>2026-04-06T07:55:24.979Z</time></trkpt><trkpt lat="44.6981017" lon="10.6181617"><ele>61.0</ele><time>2026-04-06T07:55:25.98Z</time></trkpt><trkpt lat="44.6979833" lon="10.618185"><ele>61.0</ele><time>2026-04-06T07:55:26.979Z</time></trkpt><trkpt lat="44.6978633" lon="10.618215"><ele>61.0</ele><time>2026-04-06T07:55:27.979Z</time></trkpt><trkpt lat="44.697735" lon="10.6182583"><ele>61.0</ele><time>2026-04-06T07:55:28.98Z</time></trkpt><trkpt lat="44.6976067" lon="10.6182883"><ele>59.75</ele><time>2026-04-06T07:55:29.98Z</time></trkpt><trkpt lat="44.69747" lon="10.6183267"><ele>58.5</ele><time>2026-04-06T07:55:30.979Z</time></trkpt><trkpt lat="44.6973367" lon="10.618365"><ele>57.25</ele><time>2026-04-06T07:55:31.979Z</time></trkpt><trkpt lat="44.6972033" lon="10.6184233"><ele>56.0</ele><time>2026-04-06T07:55:32.979Z</time></trkpt><trkpt lat="44.6970683" lon="10.6184633"><ele>56.0</ele><time>2026-04-06T07:55:33.98Z</time></trkpt><trkpt lat="44.6969267" lon="10.6185017"><ele>56.0</ele><time>2026-04-06T07:55:34.979Z</time></trkpt><trkpt lat="44.6967833" lon="10.6185367"><ele>56.0</ele><time>2026-04-06T07:55:35.98Z</time></trkpt><trkpt lat="44.696635" lon="10.6185867"><ele>56.0</ele><time>2026-04-06T07:55:36.98Z</time></trkpt><trkpt lat="44.6964833" lon="10.6186317"><ele>56.333333333333336</ele><time>2026-04-06T07:55:37.979Z</time></trkpt><trkpt lat="44.6963367" lon="10.61868"><ele>56.66666666666667</ele><time>2026-04-06T07:55:38.98Z</time></trkpt><trkpt lat="44.696185" lon="10.618725"><ele>57.0</ele><time>2026-04-06T07:55:39.98Z</time></trkpt><trkpt lat="44.696035" lon="10.6187683"><ele>56.0</ele><time>2026-04-06T07:55:40.979Z</time></trkpt><trkpt lat="44.6958833" lon="10.6188117"><ele>55.0</ele><time>2026-04-06T07:55:41.979Z</time></trkpt><trkpt lat="44.69574" lon="10.6188583"><ele>54.0</ele><time>2026-04-06T07:55:42.979Z</time></trkpt><trkpt lat="44.6955917" lon="10.6188967"><ele>54.0</ele><time>2026-04-06T07:55:43.979Z</time></trkpt><trkpt lat="44.69545" lon="10.61893"><ele>54.0</ele><time>2026-04-06T07:55:44.979Z</time></trkpt><trkpt lat="44.6953133" lon="10.61896"><ele>54.0</ele><time>2026-04-06T07:55:45.979Z</time></trkpt><trkpt lat="44.695175" lon="10.619"><ele>54.0</ele><time>2026-04-06T07:55:46.979Z</time></trkpt><trkpt lat="44.695035" lon="10.619045"><ele>54.5</ele><time>2026-04-06T07:55:47.979Z</time></trkpt><trkpt lat="44.6948933" lon="10.6190883"><ele>55.0</ele><time>2026-04-06T07:55:48.979Z</time></trkpt><trkpt lat="44.6947483" lon="10.61914"><ele>55.5</ele><time>2026-04-06T07:55:49.979Z</time></trkpt><trkpt lat="44.6946067" lon="10.6191867"><ele>56.0</ele><time>2026-04-06T07:55:50.979Z</time></trkpt><trkpt lat="44.6944533" lon="10.6192267"><ele>56.66666666666667</ele><time>2026-04-06T07:55:51.979Z</time></trkpt><trkpt lat="44.694305" lon="10.6192733"><ele>57.33333333333333</ele><time>2026-04-06T07:55:52.979Z</time></trkpt><trkpt lat="44.6941567" lon="10.6193217"><ele>58.0</ele><time>2026-04-06T07:55:53.98Z</time></trkpt><trkpt lat="44.69401" lon="10.6193667"><ele>58.0</ele><time>2026-04-06T07:55:54.98Z</time></trkpt><trkpt lat="44.6938683" lon="10.6194183"><ele>58.0</ele><time>2026-04-06T07:55:55.979Z</time></trkpt><trkpt lat="44.6937233" lon="10.6194567"><ele>58.0</ele><time>2026-04-06T07:55:56.98Z</time></trkpt><trkpt lat="44.6935883" lon="10.6194917"><ele>58.0</ele><time>2026-04-06T07:55:57.98Z</time></trkpt><trkpt lat="44.6934467" lon="10.619525"><ele>57.5</ele><time>2026-04-06T07:55:58.979Z</time></trkpt><trkpt lat="44.693305" lon="10.6195733"><ele>57.0</ele><time>2026-04-06T07:55:59.979Z</time></trkpt><trkpt lat="44.69317" lon="10.6196133"><ele>56.5</ele><time>2026-04-06T07:56:00.979Z</time></trkpt><trkpt lat="44.6930467" lon="10.619665"><ele>56.0</ele><time>2026-04-06T07:56:01.979Z</time></trkpt><trkpt lat="44.692915" lon="10.619695"><ele>56.0</ele><time>2026-04-06T07:56:02.979Z</time></trkpt><trkpt lat="44.6927833" lon="10.6197333"><ele>56.0</ele><time>2026-04-06T07:56:03.979Z</time></trkpt><trkpt lat="44.69265" lon="10.6197833"><ele>56.0</ele><time>2026-04-06T07:56:04.979Z</time></trkpt><trkpt lat="44.6925167" lon="10.6198367"><ele>56.0</ele><time>2026-04-06T07:56:05.979Z</time></trkpt><trkpt lat="44.692385" lon="10.6198883"><ele>56.75</ele><time>2026-04-06T07:56:06.98Z</time></trkpt><trkpt lat="44.6922517" lon="10.6199367"><ele>57.5</ele><time>2026-04-06T07:56:07.98Z</time></trkpt><trkpt lat="44.692135" lon="10.6199867"><ele>58.25</ele><time>2026-04-06T07:56:08.979Z</time></trkpt><trkpt lat="44.6920167" lon="10.6200267"><ele>59.0</ele><time>2026-04-06T07:56:09.979Z</time></trkpt><trkpt lat="44.6919083" lon="10.62005"><ele>59.2</ele><time>2026-04-06T07:56:10.979Z</time></trkpt><trkpt lat="44.69181" lon="10.6200633"><ele>59.400000000000006</ele><time>2026-04-06T07:56:11.979Z</time></trkpt><trkpt lat="44.6917083" lon="10.6200633"><ele>59.6</ele><time>2026-04-06T07:56:12.979Z</time></trkpt><trkpt lat="44.6916067" lon="10.6200433"><ele>59.8</ele><time>2026-04-06T07:56:13.979Z</time></trkpt><trkpt lat="44.691505" lon="10.6199933"><ele>60.0</ele><time>2026-04-06T07:56:14.98Z</time></trkpt><trkpt lat="44.6914133" lon="10.6199483"><ele>60.0</ele><time>2026-04-06T07:56:15.979Z</time></trkpt><trkpt lat="44.691315" lon="10.61989"><ele>60.0</ele><time>2026-04-06T07:56:16.979Z</time></trkpt><trkpt lat="44.6912283" lon="10.6198267"><ele>60.0</ele><time>2026-04-06T07:56:17.979Z</time></trkpt><trkpt lat="44.6911417" lon="10.6197717"><ele>60.0</ele><time>2026-04-06T07:56:18.979Z</time></trkpt><trkpt lat="44.69107" lon="10.619715"><ele>60.0</ele><time>2026-04-06T07:56:19.979Z</time></trkpt><trkpt lat="44.6910083" lon="10.6196567"><ele>60.0</ele><time>2026-04-06T07:56:20.979Z</time></trkpt><trkpt lat="44.6909033" lon="10.6195583"><ele>60.0</ele><time>2026-04-06T07:56:22.979Z</time></trkpt><trkpt lat="44.6908467" lon="10.6194717"><ele>60.0</ele><time>2026-04-06T07:56:23.979Z</time></trkpt><trkpt lat="44.6907883" lon="10.6193917"><ele>60.0</ele><time>2026-04-06T07:56:24.979Z</time></trkpt><trkpt lat="44.6907267" lon="10.6193283"><ele>60.0</ele><time>2026-04-06T07:56:25.979Z</time></trkpt><trkpt lat="44.6906567" lon="10.6192967"><ele>60.0</ele><time>2026-04-06T07:56:26.979Z</time></trkpt><trkpt lat="44.6905817" lon="10.6193117"><ele>60.0</ele><time>2026-04-06T07:56:27.979Z</time></trkpt><trkpt lat="44.6905" lon="10.6193367"><ele>60.0</ele><time>2026-04-06T07:56:28.98Z</time></trkpt><trkpt lat="44.69042" lon="10.6193367"><ele>60.0</ele><time>2026-04-06T07:56:29.979Z</time></trkpt><trkpt lat="44.690345" lon="10.6193083"><ele>60.0</ele><time>2026-04-06T07:56:30.979Z</time></trkpt><trkpt lat="44.6902733" lon="10.619265"><ele>60.0</ele><time>2026-04-06T07:56:31.979Z</time></trkpt><trkpt lat="44.690205" lon="10.6191983"><ele>60.0</ele><time>2026-04-06T07:56:32.98Z</time></trkpt><trkpt lat="44.690165" lon="10.619105"><ele>59.8</ele><time>2026-04-06T07:56:33.979Z</time></trkpt><trkpt lat="44.6901467" lon="10.6189833"><ele>59.6</ele><time>2026-04-06T07:56:34.979Z</time></trkpt><trkpt lat="44.69013" lon="10.6188467"><ele>59.400000000000006</ele><time>2026-04-06T07:56:35.979Z</time></trkpt><trkpt lat="44.69011" lon="10.6187033"><ele>59.2</ele><time>2026-04-06T07:56:36.979Z</time></trkpt><trkpt lat="44.690075" lon="10.618555"><ele>59.0</ele><time>2026-04-06T07:56:37.979Z</time></trkpt><trkpt lat="44.6900383" lon="10.61838"><ele>59.5</ele><time>2026-04-06T07:56:38.979Z</time></trkpt><trkpt lat="44.6899983" lon="10.6182033"><ele>60.0</ele><time>2026-04-06T07:56:39.979Z</time></trkpt><trkpt lat="44.689965" lon="10.6180367"><ele>60.5</ele><time>2026-04-06T07:56:40.98Z</time></trkpt><trkpt lat="44.689925" lon="10.61786"><ele>61.0</ele><time>2026-04-06T07:56:41.98Z</time></trkpt><trkpt lat="44.689885" lon="10.6177017"><ele>60.99999999999999</ele><time>2026-04-06T07:56:42.979Z</time></trkpt><trkpt lat="44.68985" lon="10.6175667"><ele>61.0</ele><time>2026-04-06T07:56:43.98Z</time></trkpt><trkpt lat="44.689825" lon="10.6174383"><ele>61.0</ele><time>2026-04-06T07:56:44.979Z</time></trkpt><trkpt lat="44.6898" lon="10.617335"><ele>61.0</ele><time>2026-04-06T07:56:45.98Z</time></trkpt><trkpt lat="44.6897767" lon="10.617225"><ele>60.99999999999999</ele><time>2026-04-06T07:56:46.979Z</time></trkpt><trkpt lat="44.6897467" lon="10.61711"><ele>61.0</ele><time>2026-04-06T07:56:47.98Z</time></trkpt><trkpt lat="44.689725" lon="10.617"><ele>61.0</ele><time>2026-04-06T07:56:48.98Z</time></trkpt><trkpt lat="44.6897067" lon="10.6168733"><ele>60.99999999999999</ele><time>2026-04-06T07:56:49.979Z</time></trkpt><trkpt lat="44.6896783" lon="10.6167417"><ele>60.99999999999999</ele><time>2026-04-06T07:56:50.98Z</time></trkpt><trkpt lat="44.6896383" lon="10.6165917"><ele>61.0</ele><time>2026-04-06T07:56:51.98Z</time></trkpt><trkpt lat="44.6895933" lon="10.6164283"><ele>61.0</ele><time>2026-04-06T07:56:52.979Z</time></trkpt><trkpt lat="44.6895517" lon="10.61627"><ele>61.0</ele><time>2026-04-06T07:56:53.979Z</time></trkpt><trkpt lat="44.6895167" lon="10.6161083"><ele>61.0</ele><time>2026-04-06T07:56:54.98Z</time></trkpt><trkpt lat="44.68948" lon="10.6159383"><ele>61.0</ele><time>2026-04-06T07:56:55.979Z</time></trkpt><trkpt lat="44.6894433" lon="10.6157883"><ele>61.0</ele><time>2026-04-06T07:56:56.979Z</time></trkpt><trkpt lat="44.689405" lon="10.6156133"><ele>61.0</ele><time>2026-04-06T07:56:57.979Z</time></trkpt><trkpt lat="44.6893733" lon="10.61544"><ele>61.0</ele><time>2026-04-06T07:56:58.979Z</time></trkpt><trkpt lat="44.6893417" lon="10.61527"><ele>61.0</ele><time>2026-04-06T07:56:59.979Z</time></trkpt><trkpt lat="44.6893017" lon="10.6151017"><ele>61.0</ele><time>2026-04-06T07:57:00.979Z</time></trkpt><trkpt lat="44.6892567" lon="10.6149317"><ele>61.0</ele><time>2026-04-06T07:57:01.979Z</time></trkpt><trkpt lat="44.68921" lon="10.61474"><ele>61.0</ele><time>2026-04-06T07:57:02.98Z</time></trkpt><trkpt lat="44.6891667" lon="10.6145617"><ele>61.0</ele><time>2026-04-06T07:57:03.979Z</time></trkpt><trkpt lat="44.6891233" lon="10.614375"><ele>61.0</ele><time>2026-04-06T07:57:04.979Z</time></trkpt><trkpt lat="44.68908" lon="10.6141917"><ele>61.0</ele><time>2026-04-06T07:57:05.979Z</time></trkpt><trkpt lat="44.6890417" lon="10.6140183"><ele>61.0</ele><time>2026-04-06T07:57:06.979Z</time></trkpt><trkpt lat="44.6890067" lon="10.6138667"><ele>61.0</ele><time>2026-04-06T07:57:07.979Z</time></trkpt><trkpt lat="44.6889767" lon="10.6137133"><ele>61.0</ele><time>2026-04-06T07:57:08.98Z</time></trkpt><trkpt lat="44.6889467" lon="10.6135683"><ele>60.8</ele><time>2026-04-06T07:57:09.979Z</time></trkpt><trkpt lat="44.688915" lon="10.6134317"><ele>60.599999999999994</ele><time>2026-04-06T07:57:10.979Z</time></trkpt><trkpt lat="44.6888833" lon="10.61329"><ele>60.4</ele><time>2026-04-06T07:57:11.979Z</time></trkpt><trkpt lat="44.688845" lon="10.61315"><ele>60.2</ele><time>2026-04-06T07:57:12.979Z</time></trkpt><trkpt lat="44.68881" lon="10.6129883"><ele>60.0</ele><time>2026-04-06T07:57:13.979Z</time></trkpt><trkpt lat="44.688765" lon="10.6127983"><ele>60.0</ele><time>2026-04-06T07:57:14.98Z</time></trkpt><trkpt lat="44.6887267" lon="10.6126383"><ele>60.0</ele><time>2026-04-06T07:57:15.979Z</time></trkpt><trkpt lat="44.6886917" lon="10.6125033"><ele>60.0</ele><time>2026-04-06T07:57:16.979Z</time></trkpt><trkpt lat="44.68867" lon="10.612415"><ele>60.0</ele><time>2026-04-06T07:57:17.979Z</time></trkpt><trkpt lat="44.6886633" lon="10.6123117"><ele>60.0</ele><time>2026-04-06T07:58:06.98Z</time></trkpt><trkpt lat="44.6886217" lon="10.61213"><ele>60.0</ele><time>2026-04-06T07:58:08.979Z</time></trkpt><trkpt lat="44.6885933" lon="10.6120133"><ele>60.0</ele><time>2026-04-06T07:58:09.979Z</time></trkpt><trkpt lat="44.6885517" lon="10.6118683"><ele>60.0</ele><time>2026-04-06T07:58:10.979Z</time></trkpt><trkpt lat="44.6885117" lon="10.6117183"><ele>60.0</ele><time>2026-04-06T07:58:11.979Z</time></trkpt><trkpt lat="44.6884667" lon="10.611555"><ele>60.0</ele><time>2026-04-06T07:58:12.979Z</time></trkpt><trkpt lat="44.68843" lon="10.6113983"><ele>60.4</ele><time>2026-04-06T07:58:13.98Z</time></trkpt><trkpt lat="44.6883933" lon="10.6112417"><ele>60.8</ele><time>2026-04-06T07:58:14.979Z</time></trkpt><trkpt lat="44.6883617" lon="10.6110983"><ele>61.2</ele><time>2026-04-06T07:58:15.979Z</time></trkpt><trkpt lat="44.6883283" lon="10.61096"><ele>61.6</ele><time>2026-04-06T07:58:16.979Z</time></trkpt><trkpt lat="44.6882967" lon="10.610825"><ele>62.0</ele><time>2026-04-06T07:58:17.979Z</time></trkpt><trkpt lat="44.6882667" lon="10.610675"><ele>62.0</ele><time>2026-04-06T07:58:18.979Z</time></trkpt><trkpt lat="44.68823" lon="10.6105"><ele>62.0</ele><time>2026-04-06T07:58:19.979Z</time></trkpt><trkpt lat="44.6881867" lon="10.61033"><ele>62.0</ele><time>2026-04-06T07:58:20.979Z</time></trkpt><trkpt lat="44.6881417" lon="10.6101467"><ele>62.0</ele><time>2026-04-06T07:58:21.98Z</time></trkpt><trkpt lat="44.688095" lon="10.6099417"><ele>62.0</ele><time>2026-04-06T07:58:22.98Z</time></trkpt><trkpt lat="44.688045" lon="10.6097333"><ele>62.0</ele><time>2026-04-06T07:58:23.979Z</time></trkpt><trkpt lat="44.688005" lon="10.6095267"><ele>62.0</ele><time>2026-04-06T07:58:24.979Z</time></trkpt><trkpt lat="44.68796" lon="10.6093117"><ele>62.0</ele><time>2026-04-06T07:58:25.979Z</time></trkpt><trkpt lat="44.6879133" lon="10.6091317"><ele>62.0</ele><time>2026-04-06T07:58:26.979Z</time></trkpt><trkpt lat="44.6878733" lon="10.6089483"><ele>62.0</ele><time>2026-04-06T07:58:27.98Z</time></trkpt><trkpt lat="44.6878267" lon="10.6087817"><ele>62.0</ele><time>2026-04-06T07:58:28.979Z</time></trkpt><trkpt lat="44.6878" lon="10.6086183"><ele>62.0</ele><time>2026-04-06T07:58:29.979Z</time></trkpt><trkpt lat="44.687775" lon="10.60846"><ele>62.0</ele><time>2026-04-06T07:58:30.979Z</time></trkpt><trkpt lat="44.6877617" lon="10.6083217"><ele>62.0</ele><time>2026-04-06T07:58:31.98Z</time></trkpt><trkpt lat="44.6877483" lon="10.608175"><ele>62.0</ele><time>2026-04-06T07:58:32.979Z</time></trkpt><trkpt lat="44.6877233" lon="10.6080283"><ele>62.0</ele><time>2026-04-06T07:58:33.979Z</time></trkpt><trkpt lat="44.687675" lon="10.6078733"><ele>61.75</ele><time>2026-04-06T07:58:34.98Z</time></trkpt><trkpt lat="44.6876067" lon="10.6077117"><ele>61.5</ele><time>2026-04-06T07:58:35.979Z</time></trkpt><trkpt lat="44.687545" lon="10.6075333"><ele>61.25</ele><time>2026-04-06T07:58:36.979Z</time></trkpt><trkpt lat="44.68749" lon="10.6073467"><ele>61.0</ele><time>2026-04-06T07:58:37.979Z</time></trkpt><trkpt lat="44.6874383" lon="10.607155"><ele>61.25</ele><time>2026-04-06T07:58:38.98Z</time></trkpt><trkpt lat="44.6873933" lon="10.6069667"><ele>61.5</ele><time>2026-04-06T07:58:39.979Z</time></trkpt><trkpt lat="44.687345" lon="10.60678"><ele>61.75</ele><time>2026-04-06T07:58:40.979Z</time></trkpt><trkpt lat="44.6872933" lon="10.6065967"><ele>62.0</ele><time>2026-04-06T07:58:41.98Z</time></trkpt><trkpt lat="44.687245" lon="10.6064"><ele>62.0</ele><time>2026-04-06T07:58:42.979Z</time></trkpt><trkpt lat="44.687195" lon="10.6062033"><ele>62.0</ele><time>2026-04-06T07:58:43.979Z</time></trkpt><trkpt lat="44.6871467" lon="10.6059867"><ele>62.0</ele><time>2026-04-06T07:58:44.979Z</time></trkpt><trkpt lat="44.6870967" lon="10.6057633"><ele>62.333333333333336</ele><time>2026-04-06T07:58:45.979Z</time></trkpt><trkpt lat="44.6870467" lon="10.6055283"><ele>62.66666666666667</ele><time>2026-04-06T07:58:46.98Z</time></trkpt><trkpt lat="44.6869917" lon="10.605315"><ele>63.0</ele><time>2026-04-06T07:58:47.979Z</time></trkpt><trkpt lat="44.6869433" lon="10.6050917"><ele>63.25</ele><time>2026-04-06T07:58:48.979Z</time></trkpt><trkpt lat="44.6868917" lon="10.6048867"><ele>63.5</ele><time>2026-04-06T07:58:49.98Z</time></trkpt><trkpt lat="44.686845" lon="10.604695"><ele>63.75</ele><time>2026-04-06T07:58:50.979Z</time></trkpt><trkpt lat="44.6868" lon="10.60451"><ele>64.0</ele><time>2026-04-06T07:58:51.979Z</time></trkpt><trkpt lat="44.6867567" lon="10.6043567"><ele>64.4</ele><time>2026-04-06T07:58:52.979Z</time></trkpt><trkpt lat="44.6867217" lon="10.604205"><ele>64.80000000000001</ele><time>2026-04-06T07:58:53.979Z</time></trkpt><trkpt lat="44.6866933" lon="10.6040633"><ele>65.19999999999999</ele><time>2026-04-06T07:58:54.98Z</time></trkpt><trkpt lat="44.68667" lon="10.60394"><ele>65.6</ele><time>2026-04-06T07:58:55.979Z</time></trkpt><trkpt lat="44.6866467" lon="10.6038033"><ele>66.0</ele><time>2026-04-06T07:58:56.98Z</time></trkpt><trkpt lat="44.6866067" lon="10.6036733"><ele>66.0</ele><time>2026-04-06T07:58:57.98Z</time></trkpt><trkpt lat="44.6865467" lon="10.6035567"><ele>66.0</ele><time>2026-04-06T07:58:58.979Z</time></trkpt><trkpt lat="44.6864733" lon="10.6034483"><ele>66.0</ele><time>2026-04-06T07:58:59.979Z</time></trkpt><trkpt lat="44.686385" lon="10.60335"><ele>66.0</ele><time>2026-04-06T07:59:00.979Z</time></trkpt><trkpt lat="44.6862933" lon="10.6032583"><ele>66.0</ele><time>2026-04-06T07:59:01.979Z</time></trkpt><trkpt lat="44.6861917" lon="10.603145"><ele>66.0</ele><time>2026-04-06T07:59:02.979Z</time></trkpt><trkpt lat="44.686085" lon="10.603025"><ele>66.0</ele><time>2026-04-06T07:59:03.98Z</time></trkpt><trkpt lat="44.6859633" lon="10.602905"><ele>66.0</ele><time>2026-04-06T07:59:04.979Z</time></trkpt><trkpt lat="44.6858483" lon="10.6027733"><ele>66.0</ele><time>2026-04-06T07:59:05.98Z</time></trkpt><trkpt lat="44.6857233" lon="10.6026467"><ele>66.0</ele><time>2026-04-06T07:59:06.979Z</time></trkpt><trkpt lat="44.6856067" lon="10.6025233"><ele>66.0</ele><time>2026-04-06T07:59:07.979Z</time></trkpt><trkpt lat="44.6854833" lon="10.6023783"><ele>66.0</ele><time>2026-04-06T07:59:08.979Z</time></trkpt><trkpt lat="44.68537" lon="10.60225"><ele>66.0</ele><time>2026-04-06T07:59:09.979Z</time></trkpt><trkpt lat="44.68526" lon="10.6021167"><ele>66.0</ele><time>2026-04-06T07:59:10.979Z</time></trkpt><trkpt lat="44.6851583" lon="10.6019967"><ele>66.0</ele><time>2026-04-06T07:59:11.979Z</time></trkpt><trkpt lat="44.6850567" lon="10.601875"><ele>66.0</ele><time>2026-04-06T07:59:12.979Z</time></trkpt><trkpt lat="44.6849667" lon="10.60176"><ele>66.0</ele><time>2026-04-06T07:59:13.979Z</time></trkpt><trkpt lat="44.6848983" lon="10.60165"><ele>66.0</ele><time>2026-04-06T07:59:14.979Z</time></trkpt><trkpt lat="44.6848433" lon="10.6015267"><ele>66.0</ele><time>2026-04-06T07:59:15.98Z</time></trkpt><trkpt lat="44.6847883" lon="10.6014133"><ele>66.0</ele><time>2026-04-06T07:59:16.979Z</time></trkpt><trkpt lat="44.6847183" lon="10.6013333"><ele>66.0</ele><time>2026-04-06T07:59:17.979Z</time></trkpt><trkpt lat="44.6846167" lon="10.601275"><ele>66.0</ele><time>2026-04-06T07:59:18.979Z</time></trkpt><trkpt lat="44.6844967" lon="10.60121"><ele>66.0</ele><time>2026-04-06T07:59:19.98Z</time></trkpt><trkpt lat="44.6843817" lon="10.6011083"><ele>66.0</ele><time>2026-04-06T07:59:20.98Z</time></trkpt><trkpt lat="44.684255" lon="10.600975"><ele>66.0</ele><time>2026-04-06T07:59:21.979Z</time></trkpt><trkpt lat="44.6841317" lon="10.600835"><ele>66.0</ele><time>2026-04-06T07:59:22.979Z</time></trkpt><trkpt lat="44.6840067" lon="10.600695"><ele>66.0</ele><time>2026-04-06T07:59:23.979Z</time></trkpt><trkpt lat="44.68388" lon="10.6005517"><ele>66.0</ele><time>2026-04-06T07:59:24.979Z</time></trkpt><trkpt lat="44.6837417" lon="10.6004067"><ele>66.0</ele><time>2026-04-06T07:59:25.98Z</time></trkpt><trkpt lat="44.6836133" lon="10.60026"><ele>66.0</ele><time>2026-04-06T07:59:26.979Z</time></trkpt><trkpt lat="44.6834817" lon="10.6001"><ele>66.0</ele><time>2026-04-06T07:59:27.979Z</time></trkpt><trkpt lat="44.68335" lon="10.5999433"><ele>66.0</ele><time>2026-04-06T07:59:28.98Z</time></trkpt><trkpt lat="44.68323" lon="10.5997933"><ele>66.0</ele><time>2026-04-06T07:59:29.979Z</time></trkpt><trkpt lat="44.683115" lon="10.5996567"><ele>66.0</ele><time>2026-04-06T07:59:30.979Z</time></trkpt><trkpt lat="44.6830133" lon="10.5995283"><ele>66.0</ele><time>2026-04-06T07:59:31.98Z</time></trkpt><trkpt lat="44.6829233" lon="10.59941"><ele>66.2</ele><time>2026-04-06T07:59:32.98Z</time></trkpt><trkpt lat="44.682845" lon="10.5992883"><ele>66.39999999999999</ele><time>2026-04-06T07:59:33.979Z</time></trkpt><trkpt lat="44.682795" lon="10.599175"><ele>66.6</ele><time>2026-04-06T07:59:34.979Z</time></trkpt><trkpt lat="44.6827483" lon="10.59905"><ele>66.8</ele><time>2026-04-06T07:59:35.979Z</time></trkpt><trkpt lat="44.6826917" lon="10.5989483"><ele>67.0</ele><time>2026-04-06T07:59:36.979Z</time></trkpt><trkpt lat="44.6826117" lon="10.5988867"><ele>67.25</ele><time>2026-04-06T07:59:37.979Z</time></trkpt><trkpt lat="44.682505" lon="10.5988383"><ele>67.5</ele><time>2026-04-06T07:59:38.979Z</time></trkpt><trkpt lat="44.6823883" lon="10.5987717"><ele>67.75</ele><time>2026-04-06T07:59:39.979Z</time></trkpt><trkpt lat="44.6822683" lon="10.5986783"><ele>68.0</ele><time>2026-04-06T07:59:40.979Z</time></trkpt><trkpt lat="44.682145" lon="10.5985467"><ele>68.33333333333334</ele><time>2026-04-06T07:59:41.979Z</time></trkpt><trkpt lat="44.6820233" lon="10.5984033"><ele>68.66666666666667</ele><time>2026-04-06T07:59:42.979Z</time></trkpt><trkpt lat="44.6818917" lon="10.5982583"><ele>69.0</ele><time>2026-04-06T07:59:43.979Z</time></trkpt><trkpt lat="44.681765" lon="10.5981"><ele>69.0</ele><time>2026-04-06T07:59:44.98Z</time></trkpt><trkpt lat="44.6816233" lon="10.597935"><ele>69.0</ele><time>2026-04-06T07:59:45.979Z</time></trkpt><trkpt lat="44.6814783" lon="10.5977683"><ele>69.0</ele><time>2026-04-06T07:59:46.98Z</time></trkpt><trkpt lat="44.6813367" lon="10.5976033"><ele>69.0</ele><time>2026-04-06T07:59:47.979Z</time></trkpt><trkpt lat="44.6811933" lon="10.59744"><ele>69.0</ele><time>2026-04-06T07:59:48.979Z</time></trkpt><trkpt lat="44.6810467" lon="10.5972683"><ele>69.0</ele><time>2026-04-06T07:59:49.979Z</time></trkpt><trkpt lat="44.6809017" lon="10.5971117"><ele>69.33333333333333</ele><time>2026-04-06T07:59:50.979Z</time></trkpt><trkpt lat="44.680755" lon="10.5969483"><ele>69.66666666666666</ele><time>2026-04-06T07:59:51.979Z</time></trkpt><trkpt lat="44.680615" lon="10.5967683"><ele>70.0</ele><time>2026-04-06T07:59:52.979Z</time></trkpt><trkpt lat="44.6804683" lon="10.5965917"><ele>70.0</ele><time>2026-04-06T07:59:53.98Z</time></trkpt><trkpt lat="44.680325" lon="10.5964283"><ele>70.0</ele><time>2026-04-06T07:59:54.98Z</time></trkpt><trkpt lat="44.6801917" lon="10.5962833"><ele>70.0</ele><time>2026-04-06T07:59:55.979Z</time></trkpt><trkpt lat="44.6800783" lon="10.5961517"><ele>70.25</ele><time>2026-04-06T07:59:56.979Z</time></trkpt><trkpt lat="44.6799783" lon="10.5960283"><ele>70.5</ele><time>2026-04-06T07:59:57.979Z</time></trkpt><trkpt lat="44.6798883" lon="10.5959133"><ele>70.75</ele><time>2026-04-06T07:59:58.98Z</time></trkpt><trkpt lat="44.6798067" lon="10.5958117"><ele>71.0</ele><time>2026-04-06T07:59:59.979Z</time></trkpt><trkpt lat="44.6797217" lon="10.59571"><ele>71.0</ele><time>2026-04-06T08:00:00.979Z</time></trkpt><trkpt lat="44.679635" lon="10.5956267"><ele>71.0</ele><time>2026-04-06T08:00:01.979Z</time></trkpt><trkpt lat="44.6795567" lon="10.5955333"><ele>71.0</ele><time>2026-04-06T08:00:02.979Z</time></trkpt><trkpt lat="44.6794917" lon="10.5954517"><ele>71.0</ele><time>2026-04-06T08:00:03.979Z</time></trkpt><trkpt lat="44.6794217" lon="10.595385"><ele>71.0</ele><time>2026-04-06T08:00:04.979Z</time></trkpt><trkpt lat="44.6793567" lon="10.595315"><ele>71.33333333333334</ele><time>2026-04-06T08:00:05.98Z</time></trkpt><trkpt lat="44.6792917" lon="10.59525"><ele>71.66666666666667</ele><time>2026-04-06T08:00:06.979Z</time></trkpt><trkpt lat="44.67924" lon="10.59517"><ele>72.0</ele><time>2026-04-06T08:00:07.979Z</time></trkpt><trkpt lat="44.6791917" lon="10.5950983"><ele>72.33333333333333</ele><time>2026-04-06T08:00:08.979Z</time></trkpt><trkpt lat="44.6791367" lon="10.5950367"><ele>72.66666666666666</ele><time>2026-04-06T08:00:09.98Z</time></trkpt><trkpt lat="44.6790317" lon="10.594935"><ele>73.0</ele><time>2026-04-06T08:00:11.979Z</time></trkpt><trkpt lat="44.6789833" lon="10.5948767"><ele>73.0</ele><time>2026-04-06T08:00:12.979Z</time></trkpt><trkpt lat="44.678925" lon="10.59482"><ele>73.0</ele><time>2026-04-06T08:00:13.979Z</time></trkpt><trkpt lat="44.6788667" lon="10.594745"><ele>73.0</ele><time>2026-04-06T08:00:14.979Z</time></trkpt><trkpt lat="44.6787917" lon="10.5946433"><ele>73.0</ele><time>2026-04-06T08:00:15.98Z</time></trkpt><trkpt lat="44.6787067" lon="10.5945433"><ele>73.0</ele><time>2026-04-06T08:00:16.979Z</time></trkpt><trkpt lat="44.6786117" lon="10.5944483"><ele>73.25</ele><time>2026-04-06T08:00:17.979Z</time></trkpt><trkpt lat="44.6785133" lon="10.5943433"><ele>73.5</ele><time>2026-04-06T08:00:18.979Z</time></trkpt><trkpt lat="44.6784117" lon="10.59423"><ele>73.75</ele><time>2026-04-06T08:00:19.979Z</time></trkpt><trkpt lat="44.6783117" lon="10.5941083"><ele>74.0</ele><time>2026-04-06T08:00:20.979Z</time></trkpt><trkpt lat="44.678215" lon="10.594"><ele>74.0</ele><time>2026-04-06T08:00:21.979Z</time></trkpt><trkpt lat="44.6781267" lon="10.5938833"><ele>74.0</ele><time>2026-04-06T08:00:22.98Z</time></trkpt><trkpt lat="44.67804" lon="10.5937733"><ele>74.0</ele><time>2026-04-06T08:00:23.979Z</time></trkpt><trkpt lat="44.6779667" lon="10.5936833"><ele>74.0</ele><time>2026-04-06T08:00:24.98Z</time></trkpt><trkpt lat="44.67789" lon="10.5935817"><ele>74.0</ele><time>2026-04-06T08:00:25.98Z</time></trkpt><trkpt lat="44.67781" lon="10.5934867"><ele>74.60000000000001</ele><time>2026-04-06T08:00:26.98Z</time></trkpt><trkpt lat="44.6777317" lon="10.59338"><ele>75.2</ele><time>2026-04-06T08:00:27.979Z</time></trkpt><trkpt lat="44.67765" lon="10.5932733"><ele>75.80000000000001</ele><time>2026-04-06T08:00:28.98Z</time></trkpt><trkpt lat="44.6775683" lon="10.5931717"><ele>76.4</ele><time>2026-04-06T08:00:29.979Z</time></trkpt><trkpt lat="44.6774933" lon="10.59307"><ele>77.0</ele><time>2026-04-06T08:00:30.979Z</time></trkpt><trkpt lat="44.677415" lon="10.5929833"><ele>77.0</ele><time>2026-04-06T08:00:31.98Z</time></trkpt><trkpt lat="44.6773383" lon="10.5928983"><ele>77.0</ele><time>2026-04-06T08:00:32.979Z</time></trkpt><trkpt lat="44.6772667" lon="10.5928167"><ele>77.0</ele><time>2026-04-06T08:00:33.979Z</time></trkpt><trkpt lat="44.6771833" lon="10.5927217"><ele>77.0</ele><time>2026-04-06T08:00:34.98Z</time></trkpt><trkpt lat="44.6770967" lon="10.592615"><ele>77.0</ele><time>2026-04-06T08:00:35.979Z</time></trkpt><trkpt lat="44.6770067" lon="10.5925017"><ele>77.0</ele><time>2026-04-06T08:00:36.98Z</time></trkpt><trkpt lat="44.67691" lon="10.5923783"><ele>77.0</ele><time>2026-04-06T08:00:37.979Z</time></trkpt><trkpt lat="44.676805" lon="10.5922433"><ele>77.0</ele><time>2026-04-06T08:00:38.98Z</time></trkpt><trkpt lat="44.6766967" lon="10.592115"><ele>77.0</ele><time>2026-04-06T08:00:39.98Z</time></trkpt><trkpt lat="44.6765767" lon="10.59199"><ele>77.0</ele><time>2026-04-06T08:00:40.979Z</time></trkpt><trkpt lat="44.6764533" lon="10.59186"><ele>77.0</ele><time>2026-04-06T08:00:41.98Z</time></trkpt><trkpt lat="44.67633" lon="10.59173"><ele>77.0</ele><time>2026-04-06T08:00:42.979Z</time></trkpt><trkpt lat="44.6762033" lon="10.5915917"><ele>77.33333333333334</ele><time>2026-04-06T08:00:43.979Z</time></trkpt><trkpt lat="44.67607" lon="10.59146"><ele>77.66666666666667</ele><time>2026-04-06T08:00:44.979Z</time></trkpt><trkpt lat="44.6759383" lon="10.5913383"><ele>78.0</ele><time>2026-04-06T08:00:45.979Z</time></trkpt><trkpt lat="44.675805" lon="10.591215"><ele>78.33333333333333</ele><time>2026-04-06T08:00:46.98Z</time></trkpt><trkpt lat="44.6756667" lon="10.5910983"><ele>78.66666666666666</ele><time>2026-04-06T08:00:47.979Z</time></trkpt><trkpt lat="44.6755417" lon="10.5909917"><ele>79.0</ele><time>2026-04-06T08:00:48.979Z</time></trkpt><trkpt lat="44.6754117" lon="10.5909033"><ele>79.0</ele><time>2026-04-06T08:00:49.979Z</time></trkpt><trkpt lat="44.675285" lon="10.5908133"><ele>79.0</ele><time>2026-04-06T08:00:50.979Z</time></trkpt><trkpt lat="44.6751683" lon="10.59072"><ele>79.0</ele><time>2026-04-06T08:00:51.98Z</time></trkpt><trkpt lat="44.675045" lon="10.59063"><ele>79.0</ele><time>2026-04-06T08:00:52.979Z</time></trkpt><trkpt lat="44.6749333" lon="10.5905517"><ele>78.60000000000001</ele><time>2026-04-06T08:00:53.979Z</time></trkpt><trkpt lat="44.674835" lon="10.590485"><ele>78.2</ele><time>2026-04-06T08:00:54.979Z</time></trkpt><trkpt lat="44.6747483" lon="10.5904317"><ele>77.80000000000001</ele><time>2026-04-06T08:00:55.98Z</time></trkpt><trkpt lat="44.6746733" lon="10.59038"><ele>77.4</ele><time>2026-04-06T08:00:56.98Z</time></trkpt><trkpt lat="44.6745983" lon="10.5903367"><ele>77.0</ele><time>2026-04-06T08:00:57.98Z</time></trkpt><trkpt lat="44.6745167" lon="10.590285"><ele>77.0</ele><time>2026-04-06T08:00:58.979Z</time></trkpt><trkpt lat="44.6744267" lon="10.59023"><ele>77.0</ele><time>2026-04-06T08:00:59.979Z</time></trkpt><trkpt lat="44.6743383" lon="10.5901683"><ele>77.0</ele><time>2026-04-06T08:01:00.979Z</time></trkpt><trkpt lat="44.6742433" lon="10.590105"><ele>77.0</ele><time>2026-04-06T08:01:01.979Z</time></trkpt><trkpt lat="44.674145" lon="10.59004"><ele>77.0</ele><time>2026-04-06T08:01:02.979Z</time></trkpt><trkpt lat="44.674045" lon="10.5899733"><ele>77.0</ele><time>2026-04-06T08:01:03.979Z</time></trkpt><trkpt lat="44.6739483" lon="10.5898967"><ele>77.0</ele><time>2026-04-06T08:01:04.979Z</time></trkpt><trkpt lat="44.673855" lon="10.5898133"><ele>77.0</ele><time>2026-04-06T08:01:05.979Z</time></trkpt><trkpt lat="44.673785" lon="10.5896933"><ele>77.0</ele><time>2026-04-06T08:01:06.979Z</time></trkpt><trkpt lat="44.6737467" lon="10.58956"><ele>77.0</ele><time>2026-04-06T08:01:07.979Z</time></trkpt><trkpt lat="44.6737517" lon="10.58941"><ele>76.75</ele><time>2026-04-06T08:01:08.979Z</time></trkpt><trkpt lat="44.6737667" lon="10.5892433"><ele>76.5</ele><time>2026-04-06T08:01:09.979Z</time></trkpt><trkpt lat="44.67379" lon="10.5890817"><ele>76.25</ele><time>2026-04-06T08:01:10.979Z</time></trkpt><trkpt lat="44.6737983" lon="10.58892"><ele>76.0</ele><time>2026-04-06T08:01:11.979Z</time></trkpt><trkpt lat="44.6738017" lon="10.5887817"><ele>75.39999999999999</ele><time>2026-04-06T08:01:12.98Z</time></trkpt><trkpt lat="44.6738083" lon="10.5886467"><ele>74.8</ele><time>2026-04-06T08:01:13.979Z</time></trkpt><trkpt lat="44.6738183" lon="10.58852"><ele>74.19999999999999</ele><time>2026-04-06T08:01:14.98Z</time></trkpt><trkpt lat="44.673825" lon="10.5883817"><ele>73.6</ele><time>2026-04-06T08:01:15.98Z</time></trkpt><trkpt lat="44.6738317" lon="10.5882167"><ele>73.0</ele><time>2026-04-06T08:01:16.979Z</time></trkpt><trkpt lat="44.6738333" lon="10.5880183"><ele>72.75</ele><time>2026-04-06T08:01:17.98Z</time></trkpt><trkpt lat="44.67385" lon="10.5878183"><ele>72.5</ele><time>2026-04-06T08:01:18.979Z</time></trkpt><trkpt lat="44.6738583" lon="10.5876017"><ele>72.25</ele><time>2026-04-06T08:01:19.98Z</time></trkpt><trkpt lat="44.6738667" lon="10.587395"><ele>72.0</ele><time>2026-04-06T08:01:20.98Z</time></trkpt><trkpt lat="44.673875" lon="10.5871817"><ele>73.33333333333333</ele><time>2026-04-06T08:01:21.979Z</time></trkpt><trkpt lat="44.6738683" lon="10.5869733"><ele>74.66666666666666</ele><time>2026-04-06T08:01:22.979Z</time></trkpt><trkpt lat="44.67384" lon="10.58675"><ele>76.0</ele><time>2026-04-06T08:01:23.979Z</time></trkpt><trkpt lat="44.6737883" lon="10.586535"><ele>76.0</ele><time>2026-04-06T08:01:24.979Z</time></trkpt><trkpt lat="44.6737533" lon="10.5863267"><ele>76.0</ele><time>2026-04-06T08:01:25.98Z</time></trkpt><trkpt lat="44.6737183" lon="10.58611"><ele>76.0</ele><time>2026-04-06T08:01:26.979Z</time></trkpt><trkpt lat="44.6736967" lon="10.5858817"><ele>77.0</ele><time>2026-04-06T08:01:27.979Z</time></trkpt><trkpt lat="44.673695" lon="10.5856467"><ele>78.0</ele><time>2026-04-06T08:01:28.98Z</time></trkpt><trkpt lat="44.6737217" lon="10.5854133"><ele>79.0</ele><time>2026-04-06T08:01:29.979Z</time></trkpt><trkpt lat="44.6737533" lon="10.5851667"><ele>79.66666666666666</ele><time>2026-04-06T08:01:30.98Z</time></trkpt><trkpt lat="44.6737967" lon="10.584905"><ele>80.33333333333333</ele><time>2026-04-06T08:01:31.979Z</time></trkpt><trkpt lat="44.67385" lon="10.5846617"><ele>81.0</ele><time>2026-04-06T08:01:32.979Z</time></trkpt><trkpt lat="44.6739167" lon="10.5844167"><ele>81.0</ele><time>2026-04-06T08:01:33.979Z</time></trkpt><trkpt lat="44.67398" lon="10.5841767"><ele>81.0</ele><time>2026-04-06T08:01:34.98Z</time></trkpt><trkpt lat="44.6740433" lon="10.5839333"><ele>81.0</ele><time>2026-04-06T08:01:35.979Z</time></trkpt><trkpt lat="44.674085" lon="10.5836917"><ele>80.66666666666667</ele><time>2026-04-06T08:01:36.979Z</time></trkpt><trkpt lat="44.6741033" lon="10.5834533"><ele>80.33333333333334</ele><time>2026-04-06T08:01:37.979Z</time></trkpt><trkpt lat="44.6740917" lon="10.5832283"><ele>80.0</ele><time>2026-04-06T08:01:38.979Z</time></trkpt><trkpt lat="44.6740483" lon="10.58299"><ele>79.66666666666667</ele><time>2026-04-06T08:01:39.979Z</time></trkpt><trkpt lat="44.6739983" lon="10.5827417"><ele>79.33333333333333</ele><time>2026-04-06T08:01:40.98Z</time></trkpt><trkpt lat="44.673945" lon="10.58248"><ele>79.0</ele><time>2026-04-06T08:01:41.979Z</time></trkpt><trkpt lat="44.67392" lon="10.5822133"><ele>79.0</ele><time>2026-04-06T08:01:42.98Z</time></trkpt><trkpt lat="44.67394" lon="10.58198"><ele>79.0</ele><time>2026-04-06T08:01:43.979Z</time></trkpt><trkpt lat="44.6739933" lon="10.5817883"><ele>79.0</ele><time>2026-04-06T08:01:44.98Z</time></trkpt><trkpt lat="44.6740633" lon="10.5816233"><ele>79.0</ele><time>2026-04-06T08:01:45.98Z</time></trkpt><trkpt lat="44.674145" lon="10.5814833"><ele>79.0</ele><time>2026-04-06T08:01:46.979Z</time></trkpt><trkpt lat="44.6742133" lon="10.5813733"><ele>79.0</ele><time>2026-04-06T08:01:47.979Z</time></trkpt><trkpt lat="44.67428" lon="10.5812783"><ele>79.0</ele><time>2026-04-06T08:01:48.979Z</time></trkpt><trkpt lat="44.674335" lon="10.581195"><ele>79.0</ele><time>2026-04-06T08:01:49.98Z</time></trkpt><trkpt lat="44.6743783" lon="10.5811267"><ele>79.0</ele><time>2026-04-06T08:01:50.98Z</time></trkpt><trkpt lat="44.6744033" lon="10.5810067"><ele>79.0</ele><time>2026-04-06T08:01:52.979Z</time></trkpt><trkpt lat="44.6743183" lon="10.5808967"><ele>79.0</ele><time>2026-04-06T08:01:54.98Z</time></trkpt><trkpt lat="44.6742317" lon="10.5808617"><ele>79.0</ele><time>2026-04-06T08:01:55.979Z</time></trkpt><trkpt lat="44.6741233" lon="10.580805"><ele>79.0</ele><time>2026-04-06T08:01:56.979Z</time></trkpt><trkpt lat="44.6740017" lon="10.5807433"><ele>79.0</ele><time>2026-04-06T08:01:57.979Z</time></trkpt><trkpt lat="44.673875" lon="10.5806717"><ele>79.0</ele><time>2026-04-06T08:01:58.979Z</time></trkpt><trkpt lat="44.673735" lon="10.5805983"><ele>79.0</ele><time>2026-04-06T08:01:59.979Z</time></trkpt><trkpt lat="44.6735883" lon="10.58051"><ele>79.0</ele><time>2026-04-06T08:02:00.979Z</time></trkpt><trkpt lat="44.673445" lon="10.5804167"><ele>78.0</ele><time>2026-04-06T08:02:01.979Z</time></trkpt><trkpt lat="44.6733" lon="10.5803233"><ele>77.0</ele><time>2026-04-06T08:02:02.98Z</time></trkpt><trkpt lat="44.6731467" lon="10.58023"><ele>76.0</ele><time>2026-04-06T08:02:03.979Z</time></trkpt><trkpt lat="44.672995" lon="10.5801317"><ele>76.0</ele><time>2026-04-06T08:02:04.979Z</time></trkpt><trkpt lat="44.6728433" lon="10.580025"><ele>76.0</ele><time>2026-04-06T08:02:05.979Z</time></trkpt><trkpt lat="44.6727017" lon="10.579885"><ele>76.0</ele><time>2026-04-06T08:02:06.979Z</time></trkpt><trkpt lat="44.67257" lon="10.5797233"><ele>76.66666666666666</ele><time>2026-04-06T08:02:07.979Z</time></trkpt><trkpt lat="44.672435" lon="10.5795583"><ele>77.33333333333333</ele><time>2026-04-06T08:02:08.98Z</time></trkpt><trkpt lat="44.6723067" lon="10.5793983"><ele>78.0</ele><time>2026-04-06T08:02:09.979Z</time></trkpt><trkpt lat="44.6721817" lon="10.57925"><ele>78.0</ele><time>2026-04-06T08:02:10.98Z</time></trkpt><trkpt lat="44.6720683" lon="10.5791117"><ele>78.0</ele><time>2026-04-06T08:02:11.98Z</time></trkpt><trkpt lat="44.6719667" lon="10.57896"><ele>78.0</ele><time>2026-04-06T08:02:12.98Z</time></trkpt><trkpt lat="44.67188" lon="10.578785"><ele>78.66666666666667</ele><time>2026-04-06T08:02:13.979Z</time></trkpt><trkpt lat="44.67181" lon="10.5785983"><ele>79.33333333333334</ele><time>2026-04-06T08:02:14.979Z</time></trkpt><trkpt lat="44.6717733" lon="10.5783867"><ele>80.0</ele><time>2026-04-06T08:02:15.979Z</time></trkpt><trkpt lat="44.67175" lon="10.578145"><ele>80.0</ele><time>2026-04-06T08:02:16.979Z</time></trkpt><trkpt lat="44.6717267" lon="10.57789"><ele>80.0</ele><time>2026-04-06T08:02:17.979Z</time></trkpt><trkpt lat="44.6716883" lon="10.577635"><ele>80.0</ele><time>2026-04-06T08:02:18.98Z</time></trkpt><trkpt lat="44.6716567" lon="10.5773867"><ele>80.66666666666667</ele><time>2026-04-06T08:02:19.98Z</time></trkpt><trkpt lat="44.67164" lon="10.5771367"><ele>81.33333333333333</ele><time>2026-04-06T08:02:20.98Z</time></trkpt><trkpt lat="44.6716317" lon="10.5768917"><ele>82.0</ele><time>2026-04-06T08:02:21.979Z</time></trkpt><trkpt lat="44.67164" lon="10.5766383"><ele>82.33333333333333</ele><time>2026-04-06T08:02:22.979Z</time></trkpt><trkpt lat="44.6716433" lon="10.5763867"><ele>82.66666666666667</ele><time>2026-04-06T08:02:23.98Z</time></trkpt><trkpt lat="44.6716417" lon="10.57615"><ele>83.0</ele><time>2026-04-06T08:02:24.979Z</time></trkpt><trkpt lat="44.67164" lon="10.5759167"><ele>82.33333333333334</ele><time>2026-04-06T08:02:25.979Z</time></trkpt><trkpt lat="44.6716217" lon="10.5756867"><ele>81.66666666666667</ele><time>2026-04-06T08:02:26.979Z</time></trkpt><trkpt lat="44.671585" lon="10.57545"><ele>81.0</ele><time>2026-04-06T08:02:27.979Z</time></trkpt><trkpt lat="44.6715267" lon="10.5752117"><ele>81.0</ele><time>2026-04-06T08:02:28.979Z</time></trkpt><trkpt lat="44.67146" lon="10.57497"><ele>81.0</ele><time>2026-04-06T08:02:29.98Z</time></trkpt><trkpt lat="44.671395" lon="10.5747233"><ele>81.0</ele><time>2026-04-06T08:02:30.979Z</time></trkpt><trkpt lat="44.6713167" lon="10.5744767"><ele>81.66666666666667</ele><time>2026-04-06T08:02:31.979Z</time></trkpt><trkpt lat="44.6712417" lon="10.5742183"><ele>82.33333333333334</ele><time>2026-04-06T08:02:32.979Z</time></trkpt><trkpt lat="44.671165" lon="10.5739517"><ele>83.0</ele><time>2026-04-06T08:02:33.979Z</time></trkpt><trkpt lat="44.6710883" lon="10.5736967"><ele>83.0</ele><time>2026-04-06T08:02:34.979Z</time></trkpt><trkpt lat="44.6710167" lon="10.57343"><ele>83.0</ele><time>2026-04-06T08:02:35.979Z</time></trkpt><trkpt lat="44.670945" lon="10.5731617"><ele>83.0</ele><time>2026-04-06T08:02:36.979Z</time></trkpt><trkpt lat="44.6708767" lon="10.572895"><ele>83.0</ele><time>2026-04-06T08:02:37.98Z</time></trkpt><trkpt lat="44.670815" lon="10.5726183"><ele>83.0</ele><time>2026-04-06T08:02:38.979Z</time></trkpt><trkpt lat="44.6707417" lon="10.572355"><ele>83.0</ele><time>2026-04-06T08:02:39.979Z</time></trkpt><trkpt lat="44.67067" lon="10.5720883"><ele>83.33333333333334</ele><time>2026-04-06T08:02:40.979Z</time></trkpt><trkpt lat="44.6706017" lon="10.571815"><ele>83.66666666666667</ele><time>2026-04-06T08:02:41.979Z</time></trkpt><trkpt lat="44.6705467" lon="10.5715567"><ele>84.0</ele><time>2026-04-06T08:02:42.98Z</time></trkpt><trkpt lat="44.6704883" lon="10.5712933"><ele>85.66666666666667</ele><time>2026-04-06T08:02:43.979Z</time></trkpt><trkpt lat="44.6704383" lon="10.57104"><ele>87.33333333333334</ele><time>2026-04-06T08:02:44.979Z</time></trkpt><trkpt lat="44.6703983" lon="10.5708033"><ele>89.0</ele><time>2026-04-06T08:02:45.979Z</time></trkpt><trkpt lat="44.6703833" lon="10.5705933"><ele>89.0</ele><time>2026-04-06T08:02:46.98Z</time></trkpt><trkpt lat="44.6703833" lon="10.5703983"><ele>89.0</ele><time>2026-04-06T08:02:47.979Z</time></trkpt><trkpt lat="44.6704083" lon="10.5702283"><ele>89.0</ele><time>2026-04-06T08:02:48.979Z</time></trkpt><trkpt lat="44.6704667" lon="10.5700683"><ele>89.0</ele><time>2026-04-06T08:02:49.979Z</time></trkpt><trkpt lat="44.6705383" lon="10.5699383"><ele>89.0</ele><time>2026-04-06T08:02:50.979Z</time></trkpt><trkpt lat="44.6706017" lon="10.569815"><ele>89.0</ele><time>2026-04-06T08:02:51.979Z</time></trkpt><trkpt lat="44.6706583" lon="10.5697167"><ele>89.0</ele><time>2026-04-06T08:02:52.979Z</time></trkpt><trkpt lat="44.6707017" lon="10.5696367"><ele>89.0</ele><time>2026-04-06T08:02:53.979Z</time></trkpt><trkpt lat="44.6707417" lon="10.56956"><ele>89.0</ele><time>2026-04-06T08:02:54.979Z</time></trkpt><trkpt lat="44.67079" lon="10.5694633"><ele>89.0</ele><time>2026-04-06T08:02:55.979Z</time></trkpt><trkpt lat="44.6708417" lon="10.5693417"><ele>89.0</ele><time>2026-04-06T08:02:56.979Z</time></trkpt><trkpt lat="44.6708883" lon="10.5692083"><ele>89.0</ele><time>2026-04-06T08:02:57.979Z</time></trkpt><trkpt lat="44.6709367" lon="10.5690533"><ele>89.0</ele><time>2026-04-06T08:02:58.979Z</time></trkpt><trkpt lat="44.6709867" lon="10.5688817"><ele>89.0</ele><time>2026-04-06T08:02:59.978Z</time></trkpt><trkpt lat="44.67102" lon="10.568695"><ele>89.0</ele><time>2026-04-06T08:03:00.978Z</time></trkpt><trkpt lat="44.6710533" lon="10.56849"><ele>89.0</ele><time>2026-04-06T08:03:01.978Z</time></trkpt><trkpt lat="44.67109" lon="10.5682917"><ele>89.0</ele><time>2026-04-06T08:03:02.978Z</time></trkpt><trkpt lat="44.67113" lon="10.5681"><ele>89.0</ele><time>2026-04-06T08:03:03.978Z</time></trkpt><trkpt lat="44.671165" lon="10.5679017"><ele>89.5</ele><time>2026-04-06T08:03:04.979Z</time></trkpt><trkpt lat="44.6711917" lon="10.5677033"><ele>90.0</ele><time>2026-04-06T08:03:05.978Z</time></trkpt><trkpt lat="44.6712217" lon="10.5675133"><ele>90.5</ele><time>2026-04-06T08:03:06.978Z</time></trkpt><trkpt lat="44.67125" lon="10.56734"><ele>91.0</ele><time>2026-04-06T08:03:07.978Z</time></trkpt><trkpt lat="44.6712817" lon="10.5671783"><ele>91.5</ele><time>2026-04-06T08:03:08.978Z</time></trkpt><trkpt lat="44.6713167" lon="10.5670133"><ele>92.0</ele><time>2026-04-06T08:03:09.979Z</time></trkpt><trkpt lat="44.6713417" lon="10.56685"><ele>92.5</ele><time>2026-04-06T08:03:10.978Z</time></trkpt><trkpt lat="44.67136" lon="10.5666767"><ele>93.0</ele><time>2026-04-06T08:03:11.978Z</time></trkpt><trkpt lat="44.67139" lon="10.5665017"><ele>93.0</ele><time>2026-04-06T08:03:12.978Z</time></trkpt><trkpt lat="44.6714183" lon="10.566345"><ele>93.0</ele><time>2026-04-06T08:03:13.979Z</time></trkpt><trkpt lat="44.6714467" lon="10.5661867"><ele>93.0</ele><time>2026-04-06T08:03:14.979Z</time></trkpt><trkpt lat="44.6714717" lon="10.5660283"><ele>93.0</ele><time>2026-04-06T08:03:15.978Z</time></trkpt><trkpt lat="44.6714867" lon="10.5658533"><ele>93.25</ele><time>2026-04-06T08:03:16.978Z</time></trkpt><trkpt lat="44.6715017" lon="10.5656583"><ele>93.5</ele><time>2026-04-06T08:03:17.978Z</time></trkpt><trkpt lat="44.6715233" lon="10.56544"><ele>93.75</ele><time>2026-04-06T08:03:18.978Z</time></trkpt><trkpt lat="44.67154" lon="10.56523"><ele>94.0</ele><time>2026-04-06T08:03:19.978Z</time></trkpt><trkpt lat="44.6715617" lon="10.56502"><ele>94.0</ele><time>2026-04-06T08:03:20.979Z</time></trkpt><trkpt lat="44.6715867" lon="10.564805"><ele>94.0</ele><time>2026-04-06T08:03:21.978Z</time></trkpt><trkpt lat="44.6716217" lon="10.5645683"><ele>94.0</ele><time>2026-04-06T08:03:22.978Z</time></trkpt><trkpt lat="44.67166" lon="10.5643283"><ele>93.33333333333333</ele><time>2026-04-06T08:03:23.978Z</time></trkpt><trkpt lat="44.6717017" lon="10.56409"><ele>92.66666666666667</ele><time>2026-04-06T08:03:24.978Z</time></trkpt><trkpt lat="44.671745" lon="10.563835"><ele>92.0</ele><time>2026-04-06T08:03:25.978Z</time></trkpt><trkpt lat="44.6717883" lon="10.5635767"><ele>90.66666666666667</ele><time>2026-04-06T08:03:26.978Z</time></trkpt><trkpt lat="44.6718133" lon="10.5633083"><ele>89.33333333333333</ele><time>2026-04-06T08:03:27.978Z</time></trkpt><trkpt lat="44.6718383" lon="10.5630367"><ele>88.0</ele><time>2026-04-06T08:03:28.978Z</time></trkpt><trkpt lat="44.6718483" lon="10.5627567"><ele>88.0</ele><time>2026-04-06T08:03:29.979Z</time></trkpt><trkpt lat="44.6718433" lon="10.562475"><ele>88.0</ele><time>2026-04-06T08:03:30.979Z</time></trkpt><trkpt lat="44.6718383" lon="10.5622083"><ele>88.0</ele><time>2026-04-06T08:03:31.978Z</time></trkpt><trkpt lat="44.6718467" lon="10.5619317"><ele>88.0</ele><time>2026-04-06T08:03:32.978Z</time></trkpt><trkpt lat="44.6718633" lon="10.5616617"><ele>88.0</ele><time>2026-04-06T08:03:33.978Z</time></trkpt><trkpt lat="44.671885" lon="10.5614033"><ele>88.0</ele><time>2026-04-06T08:03:34.978Z</time></trkpt><trkpt lat="44.6719083" lon="10.5611483"><ele>88.66666666666666</ele><time>2026-04-06T08:03:35.979Z</time></trkpt><trkpt lat="44.6719517" lon="10.5609067"><ele>89.33333333333333</ele><time>2026-04-06T08:03:36.979Z</time></trkpt><trkpt lat="44.6719883" lon="10.5606517"><ele>90.0</ele><time>2026-04-06T08:03:37.978Z</time></trkpt><trkpt lat="44.6720283" lon="10.5603917"><ele>90.0</ele><time>2026-04-06T08:03:38.978Z</time></trkpt><trkpt lat="44.672075" lon="10.5601367"><ele>90.0</ele><time>2026-04-06T08:03:39.979Z</time></trkpt><trkpt lat="44.6721333" lon="10.55989"><ele>90.0</ele><time>2026-04-06T08:03:40.978Z</time></trkpt><trkpt lat="44.6722033" lon="10.559645"><ele>90.66666666666667</ele><time>2026-04-06T08:03:41.979Z</time></trkpt><trkpt lat="44.6722783" lon="10.5594017"><ele>91.33333333333334</ele><time>2026-04-06T08:03:42.978Z</time></trkpt><trkpt lat="44.6723567" lon="10.5591667"><ele>92.0</ele><time>2026-04-06T08:03:43.978Z</time></trkpt><trkpt lat="44.6724383" lon="10.558935"><ele>92.0</ele><time>2026-04-06T08:03:44.978Z</time></trkpt><trkpt lat="44.6725167" lon="10.5587217"><ele>92.0</ele><time>2026-04-06T08:03:45.978Z</time></trkpt><trkpt lat="44.672595" lon="10.5585083"><ele>92.0</ele><time>2026-04-06T08:03:46.979Z</time></trkpt><trkpt lat="44.67268" lon="10.5582867"><ele>91.66666666666667</ele><time>2026-04-06T08:03:47.978Z</time></trkpt><trkpt lat="44.6727733" lon="10.5580733"><ele>91.33333333333333</ele><time>2026-04-06T08:03:48.978Z</time></trkpt><trkpt lat="44.6728717" lon="10.5578667"><ele>91.0</ele><time>2026-04-06T08:03:49.979Z</time></trkpt><trkpt lat="44.6729683" lon="10.5576717"><ele>90.66666666666666</ele><time>2026-04-06T08:03:50.979Z</time></trkpt><trkpt lat="44.6730667" lon="10.5574783"><ele>90.33333333333333</ele><time>2026-04-06T08:03:51.978Z</time></trkpt><trkpt lat="44.673165" lon="10.5572817"><ele>90.0</ele><time>2026-04-06T08:03:52.978Z</time></trkpt><trkpt lat="44.6732583" lon="10.55707"><ele>89.0</ele><time>2026-04-06T08:03:53.979Z</time></trkpt><trkpt lat="44.6733333" lon="10.5568583"><ele>88.0</ele><time>2026-04-06T08:03:54.978Z</time></trkpt><trkpt lat="44.673405" lon="10.5566417"><ele>87.0</ele><time>2026-04-06T08:03:55.978Z</time></trkpt><trkpt lat="44.6734683" lon="10.55643"><ele>87.0</ele><time>2026-04-06T08:03:56.978Z</time></trkpt><trkpt lat="44.6735167" lon="10.556215"><ele>87.0</ele><time>2026-04-06T08:03:57.979Z</time></trkpt><trkpt lat="44.6735483" lon="10.555975"><ele>87.0</ele><time>2026-04-06T08:03:58.978Z</time></trkpt><trkpt lat="44.673575" lon="10.5557283"><ele>86.33333333333333</ele><time>2026-04-06T08:03:59.978Z</time></trkpt><trkpt lat="44.673595" lon="10.5554883"><ele>85.66666666666666</ele><time>2026-04-06T08:04:00.978Z</time></trkpt><trkpt lat="44.6736183" lon="10.55527"><ele>85.0</ele><time>2026-04-06T08:04:01.978Z</time></trkpt><trkpt lat="44.6736417" lon="10.5550583"><ele>86.33333333333333</ele><time>2026-04-06T08:04:02.979Z</time></trkpt><trkpt lat="44.673655" lon="10.5548517"><ele>87.66666666666667</ele><time>2026-04-06T08:04:03.979Z</time></trkpt><trkpt lat="44.6736683" lon="10.554625"><ele>89.0</ele><time>2026-04-06T08:04:04.978Z</time></trkpt><trkpt lat="44.673685" lon="10.5543967"><ele>89.5</ele><time>2026-04-06T08:04:05.979Z</time></trkpt><trkpt lat="44.673705" lon="10.5541783"><ele>90.0</ele><time>2026-04-06T08:04:06.978Z</time></trkpt><trkpt lat="44.67372" lon="10.55397"><ele>90.5</ele><time>2026-04-06T08:04:07.978Z</time></trkpt><trkpt lat="44.673735" lon="10.5537717"><ele>91.0</ele><time>2026-04-06T08:04:08.978Z</time></trkpt><trkpt lat="44.6737583" lon="10.5535667"><ele>91.0</ele><time>2026-04-06T08:04:09.978Z</time></trkpt><trkpt lat="44.6737767" lon="10.5533733"><ele>91.0</ele><time>2026-04-06T08:04:10.978Z</time></trkpt><trkpt lat="44.6738" lon="10.5531983"><ele>91.0</ele><time>2026-04-06T08:04:11.978Z</time></trkpt><trkpt lat="44.6738317" lon="10.553035"><ele>91.0</ele><time>2026-04-06T08:04:12.978Z</time></trkpt><trkpt lat="44.6738683" lon="10.5528933"><ele>91.75</ele><time>2026-04-06T08:04:13.978Z</time></trkpt><trkpt lat="44.6739183" lon="10.5527533"><ele>92.5</ele><time>2026-04-06T08:04:14.978Z</time></trkpt><trkpt lat="44.6739833" lon="10.5526017"><ele>93.25</ele><time>2026-04-06T08:04:15.978Z</time></trkpt><trkpt lat="44.6740733" lon="10.5524567"><ele>94.0</ele><time>2026-04-06T08:04:16.978Z</time></trkpt><trkpt lat="44.6741667" lon="10.5523017"><ele>94.0</ele><time>2026-04-06T08:04:17.978Z</time></trkpt><trkpt lat="44.6742633" lon="10.55215"><ele>94.0</ele><time>2026-04-06T08:04:18.979Z</time></trkpt><trkpt lat="44.6743667" lon="10.552"><ele>94.0</ele><time>2026-04-06T08:04:19.978Z</time></trkpt><trkpt lat="44.6744733" lon="10.5518467"><ele>94.0</ele><time>2026-04-06T08:04:20.978Z</time></trkpt><trkpt lat="44.6745783" lon="10.5516933"><ele>94.66666666666666</ele><time>2026-04-06T08:04:21.979Z</time></trkpt><trkpt lat="44.6746817" lon="10.5515217"><ele>95.33333333333333</ele><time>2026-04-06T08:04:22.978Z</time></trkpt><trkpt lat="44.6747683" lon="10.5513467"><ele>96.0</ele><time>2026-04-06T08:04:23.979Z</time></trkpt><trkpt lat="44.6748383" lon="10.5511533"><ele>96.0</ele><time>2026-04-06T08:04:24.978Z</time></trkpt><trkpt lat="44.6749033" lon="10.5509617"><ele>96.0</ele><time>2026-04-06T08:04:25.978Z</time></trkpt><trkpt lat="44.6749617" lon="10.55076"><ele>96.0</ele><time>2026-04-06T08:04:26.979Z</time></trkpt><trkpt lat="44.6750183" lon="10.5505517"><ele>96.0</ele><time>2026-04-06T08:04:27.979Z</time></trkpt><trkpt lat="44.6750633" lon="10.55033"><ele>96.0</ele><time>2026-04-06T08:04:28.978Z</time></trkpt><trkpt lat="44.6751167" lon="10.5501017"><ele>96.0</ele><time>2026-04-06T08:04:29.979Z</time></trkpt><trkpt lat="44.67517" lon="10.5498767"><ele>96.0</ele><time>2026-04-06T08:04:30.978Z</time></trkpt><trkpt lat="44.6752217" lon="10.54965"><ele>96.0</ele><time>2026-04-06T08:04:31.978Z</time></trkpt><trkpt lat="44.675255" lon="10.5494183"><ele>96.0</ele><time>2026-04-06T08:04:32.978Z</time></trkpt><trkpt lat="44.6752883" lon="10.549195"><ele>95.0</ele><time>2026-04-06T08:04:33.979Z</time></trkpt><trkpt lat="44.67532" lon="10.548975"><ele>94.0</ele><time>2026-04-06T08:04:34.979Z</time></trkpt><trkpt lat="44.67534" lon="10.5487483"><ele>93.0</ele><time>2026-04-06T08:04:35.979Z</time></trkpt><trkpt lat="44.6753583" lon="10.5485167"><ele>93.0</ele><time>2026-04-06T08:04:36.978Z</time></trkpt><trkpt lat="44.6753767" lon="10.5482667"><ele>93.0</ele><time>2026-04-06T08:04:37.978Z</time></trkpt><trkpt lat="44.6753983" lon="10.54802"><ele>93.0</ele><time>2026-04-06T08:04:38.978Z</time></trkpt><trkpt lat="44.67544" lon="10.5477833"><ele>92.33333333333333</ele><time>2026-04-06T08:04:39.978Z</time></trkpt><trkpt lat="44.6755017" lon="10.5475583"><ele>91.66666666666666</ele><time>2026-04-06T08:04:40.978Z</time></trkpt><trkpt lat="44.675585" lon="10.5473517"><ele>91.0</ele><time>2026-04-06T08:04:41.979Z</time></trkpt><trkpt lat="44.67568" lon="10.54716"><ele>92.0</ele><time>2026-04-06T08:04:42.979Z</time></trkpt><trkpt lat="44.6757917" lon="10.54698"><ele>93.0</ele><time>2026-04-06T08:04:43.979Z</time></trkpt><trkpt lat="44.6759083" lon="10.546805"><ele>94.0</ele><time>2026-04-06T08:04:44.978Z</time></trkpt><trkpt lat="44.6760267" lon="10.5466217"><ele>94.0</ele><time>2026-04-06T08:04:45.978Z</time></trkpt><trkpt lat="44.676155" lon="10.5464317"><ele>94.0</ele><time>2026-04-06T08:04:46.978Z</time></trkpt><trkpt lat="44.6762817" lon="10.54625"><ele>94.0</ele><time>2026-04-06T08:04:47.978Z</time></trkpt><trkpt lat="44.6764" lon="10.5460633"><ele>95.0</ele><time>2026-04-06T08:04:48.979Z</time></trkpt><trkpt lat="44.6765167" lon="10.5458933"><ele>96.0</ele><time>2026-04-06T08:04:49.978Z</time></trkpt><trkpt lat="44.67664" lon="10.5457217"><ele>97.0</ele><time>2026-04-06T08:04:50.979Z</time></trkpt><trkpt lat="44.67676" lon="10.545545"><ele>96.33333333333334</ele><time>2026-04-06T08:04:51.979Z</time></trkpt><trkpt lat="44.6768767" lon="10.545365"><ele>95.66666666666667</ele><time>2026-04-06T08:04:52.978Z</time></trkpt><trkpt lat="44.676995" lon="10.545175"><ele>95.0</ele><time>2026-04-06T08:04:53.979Z</time></trkpt><trkpt lat="44.6771" lon="10.54495"><ele>95.0</ele><time>2026-04-06T08:04:54.978Z</time></trkpt><trkpt lat="44.6772067" lon="10.5447017"><ele>95.0</ele><time>2026-04-06T08:04:55.978Z</time></trkpt><trkpt lat="44.6773183" lon="10.5444483"><ele>95.0</ele><time>2026-04-06T08:04:56.978Z</time></trkpt><trkpt lat="44.67743" lon="10.5442017"><ele>94.66666666666667</ele><time>2026-04-06T08:04:57.978Z</time></trkpt><trkpt lat="44.6775433" lon="10.5439517"><ele>94.33333333333333</ele><time>2026-04-06T08:04:58.979Z</time></trkpt><trkpt lat="44.677665" lon="10.5436983"><ele>94.0</ele><time>2026-04-06T08:04:59.978Z</time></trkpt><trkpt lat="44.677785" lon="10.5434483"><ele>93.33333333333333</ele><time>2026-04-06T08:05:00.978Z</time></trkpt><trkpt lat="44.6778933" lon="10.5432167"><ele>92.66666666666667</ele><time>2026-04-06T08:05:01.978Z</time></trkpt><trkpt lat="44.6780017" lon="10.54299"><ele>92.0</ele><time>2026-04-06T08:05:02.979Z</time></trkpt><trkpt lat="44.6780983" lon="10.5427867"><ele>91.75</ele><time>2026-04-06T08:05:03.978Z</time></trkpt><trkpt lat="44.6781883" lon="10.5426067"><ele>91.5</ele><time>2026-04-06T08:05:04.978Z</time></trkpt><trkpt lat="44.6782667" lon="10.54246"><ele>91.25</ele><time>2026-04-06T08:05:05.979Z</time></trkpt><trkpt lat="44.6783383" lon="10.5423467"><ele>91.0</ele><time>2026-04-06T08:05:06.978Z</time></trkpt><trkpt lat="44.6784" lon="10.5422583"><ele>91.0</ele><time>2026-04-06T08:05:07.978Z</time></trkpt><trkpt lat="44.678445" lon="10.5421667"><ele>91.0</ele><time>2026-04-06T08:05:08.978Z</time></trkpt><trkpt lat="44.6784883" lon="10.5420833"><ele>91.0</ele><time>2026-04-06T08:05:09.979Z</time></trkpt><trkpt lat="44.678545" lon="10.5419817"><ele>91.0</ele><time>2026-04-06T08:05:10.978Z</time></trkpt><trkpt lat="44.678595" lon="10.541885"><ele>91.0</ele><time>2026-04-06T08:05:11.979Z</time></trkpt><trkpt lat="44.67865" lon="10.5418017"><ele>91.0</ele><time>2026-04-06T08:05:12.978Z</time></trkpt><trkpt lat="44.6786917" lon="10.5417217"><ele>91.19999999999999</ele><time>2026-04-06T08:05:13.978Z</time></trkpt><trkpt lat="44.6787217" lon="10.5415633"><ele>91.39999999999999</ele><time>2026-04-06T08:05:15.978Z</time></trkpt><trkpt lat="44.678695" lon="10.54148"><ele>91.6</ele><time>2026-04-06T08:05:16.979Z</time></trkpt><trkpt lat="44.678635" lon="10.5414117"><ele>91.8</ele><time>2026-04-06T08:05:17.978Z</time></trkpt><trkpt lat="44.6785383" lon="10.5413433"><ele>92.0</ele><time>2026-04-06T08:05:18.979Z</time></trkpt><trkpt lat="44.67843" lon="10.5412533"><ele>92.0</ele><time>2026-04-06T08:05:19.978Z</time></trkpt><trkpt lat="44.6783217" lon="10.5411333"><ele>92.0</ele><time>2026-04-06T08:05:20.978Z</time></trkpt><trkpt lat="44.678215" lon="10.5409967"><ele>92.0</ele><time>2026-04-06T08:05:21.978Z</time></trkpt><trkpt lat="44.6780967" lon="10.5408533"><ele>92.0</ele><time>2026-04-06T08:05:22.978Z</time></trkpt><trkpt lat="44.677985" lon="10.5407217"><ele>92.0</ele><time>2026-04-06T08:05:23.978Z</time></trkpt><trkpt lat="44.677865" lon="10.5405867"><ele>92.0</ele><time>2026-04-06T08:05:24.978Z</time></trkpt><trkpt lat="44.67773" lon="10.540455"><ele>92.0</ele><time>2026-04-06T08:05:25.978Z</time></trkpt><trkpt lat="44.6775983" lon="10.5403067"><ele>92.33333333333334</ele><time>2026-04-06T08:05:26.978Z</time></trkpt><trkpt lat="44.6774733" lon="10.5401467"><ele>92.66666666666667</ele><time>2026-04-06T08:05:27.978Z</time></trkpt><trkpt lat="44.6773433" lon="10.539985"><ele>93.0</ele><time>2026-04-06T08:05:28.979Z</time></trkpt><trkpt lat="44.6772167" lon="10.5398233"><ele>93.0</ele><time>2026-04-06T08:05:29.978Z</time></trkpt><trkpt lat="44.6770883" lon="10.5396617"><ele>93.0</ele><time>2026-04-06T08:05:30.978Z</time></trkpt><trkpt lat="44.6769533" lon="10.539505"><ele>93.0</ele><time>2026-04-06T08:05:31.979Z</time></trkpt><trkpt lat="44.6768133" lon="10.539345"><ele>93.66666666666667</ele><time>2026-04-06T08:05:32.978Z</time></trkpt><trkpt lat="44.6766733" lon="10.5391783"><ele>94.33333333333334</ele><time>2026-04-06T08:05:33.978Z</time></trkpt><trkpt lat="44.6765283" lon="10.5390267"><ele>95.0</ele><time>2026-04-06T08:05:34.978Z</time></trkpt><trkpt lat="44.676385" lon="10.5388633"><ele>95.0</ele><time>2026-04-06T08:05:35.978Z</time></trkpt><trkpt lat="44.6762433" lon="10.5387033"><ele>95.0</ele><time>2026-04-06T08:05:36.978Z</time></trkpt><trkpt lat="44.6761133" lon="10.5385617"><ele>95.0</ele><time>2026-04-06T08:05:37.978Z</time></trkpt><trkpt lat="44.6759767" lon="10.53844"><ele>95.0</ele><time>2026-04-06T08:05:38.978Z</time></trkpt><trkpt lat="44.6758233" lon="10.538365"><ele>95.0</ele><time>2026-04-06T08:05:39.979Z</time></trkpt><trkpt lat="44.6756617" lon="10.53833"><ele>95.0</ele><time>2026-04-06T08:05:40.978Z</time></trkpt><trkpt lat="44.67549" lon="10.53834"><ele>95.0</ele><time>2026-04-06T08:05:41.978Z</time></trkpt><trkpt lat="44.6753117" lon="10.5383783"><ele>95.0</ele><time>2026-04-06T08:05:42.979Z</time></trkpt><trkpt lat="44.6751383" lon="10.5384117"><ele>95.0</ele><time>2026-04-06T08:05:43.978Z</time></trkpt><trkpt lat="44.674965" lon="10.53844"><ele>96.0</ele><time>2026-04-06T08:05:44.978Z</time></trkpt><trkpt lat="44.6748" lon="10.5384767"><ele>97.0</ele><time>2026-04-06T08:05:45.978Z</time></trkpt><trkpt lat="44.6746483" lon="10.5385117"><ele>98.0</ele><time>2026-04-06T08:05:46.978Z</time></trkpt><trkpt lat="44.6745183" lon="10.5385267"><ele>99.60000000000001</ele><time>2026-04-06T08:05:47.978Z</time></trkpt><trkpt lat="44.6744033" lon="10.53854"><ele>101.2</ele><time>2026-04-06T08:05:48.978Z</time></trkpt><trkpt lat="44.6742983" lon="10.5385117"><ele>102.8</ele><time>2026-04-06T08:05:49.978Z</time></trkpt><trkpt lat="44.6742117" lon="10.5384467"><ele>104.4</ele><time>2026-04-06T08:05:50.978Z</time></trkpt><trkpt lat="44.6741267" lon="10.5383467"><ele>106.0</ele><time>2026-04-06T08:05:51.979Z</time></trkpt><trkpt lat="44.6740417" lon="10.5382117"><ele>106.0</ele><time>2026-04-06T08:05:52.978Z</time></trkpt><trkpt lat="44.6739483" lon="10.5380783"><ele>106.0</ele><time>2026-04-06T08:05:53.978Z</time></trkpt><trkpt lat="44.6738483" lon="10.5379217"><ele>106.0</ele><time>2026-04-06T08:05:54.979Z</time></trkpt><trkpt lat="44.6737633" lon="10.5377867"><ele>106.0</ele><time>2026-04-06T08:05:55.978Z</time></trkpt><trkpt lat="44.673685" lon="10.5376467"><ele>105.75</ele><time>2026-04-06T08:05:56.978Z</time></trkpt><trkpt lat="44.673615" lon="10.5375267"><ele>105.5</ele><time>2026-04-06T08:05:57.978Z</time></trkpt><trkpt lat="44.67354" lon="10.537415"><ele>105.25</ele><time>2026-04-06T08:05:58.979Z</time></trkpt><trkpt lat="44.6734567" lon="10.5373033"><ele>105.0</ele><time>2026-04-06T08:05:59.978Z</time></trkpt><trkpt lat="44.6733683" lon="10.537165"><ele>106.0</ele><time>2026-04-06T08:06:00.978Z</time></trkpt><trkpt lat="44.6732717" lon="10.5369917"><ele>107.0</ele><time>2026-04-06T08:06:01.979Z</time></trkpt><trkpt lat="44.6731733" lon="10.5368283"><ele>108.0</ele><time>2026-04-06T08:06:02.978Z</time></trkpt><trkpt lat="44.6730667" lon="10.5366817"><ele>108.0</ele><time>2026-04-06T08:06:03.978Z</time></trkpt><trkpt lat="44.6729433" lon="10.536535"><ele>108.0</ele><time>2026-04-06T08:06:04.978Z</time></trkpt><trkpt lat="44.672815" lon="10.536385"><ele>108.0</ele><time>2026-04-06T08:06:05.978Z</time></trkpt><trkpt lat="44.6726683" lon="10.5362633"><ele>107.66666666666666</ele><time>2026-04-06T08:06:06.978Z</time></trkpt><trkpt lat="44.672515" lon="10.53615"><ele>107.33333333333333</ele><time>2026-04-06T08:06:07.979Z</time></trkpt><trkpt lat="44.6723583" lon="10.5360533"><ele>107.0</ele><time>2026-04-06T08:06:08.979Z</time></trkpt><trkpt lat="44.6721883" lon="10.5359767"><ele>107.0</ele><time>2026-04-06T08:06:09.978Z</time></trkpt><trkpt lat="44.6720067" lon="10.5359067"><ele>107.0</ele><time>2026-04-06T08:06:10.978Z</time></trkpt><trkpt lat="44.67182" lon="10.5358733"><ele>107.0</ele><time>2026-04-06T08:06:11.978Z</time></trkpt><trkpt lat="44.671625" lon="10.5358683"><ele>108.0</ele><time>2026-04-06T08:06:12.978Z</time></trkpt><trkpt lat="44.6714217" lon="10.5358917"><ele>109.0</ele><time>2026-04-06T08:06:13.978Z</time></trkpt><trkpt lat="44.6712233" lon="10.5359383"><ele>110.0</ele><time>2026-04-06T08:06:14.978Z</time></trkpt><trkpt lat="44.67102" lon="10.535975"><ele>110.0</ele><time>2026-04-06T08:06:15.978Z</time></trkpt><trkpt lat="44.6708183" lon="10.536005"><ele>110.0</ele><time>2026-04-06T08:06:16.978Z</time></trkpt><trkpt lat="44.6706217" lon="10.5360333"><ele>110.0</ele><time>2026-04-06T08:06:17.978Z</time></trkpt><trkpt lat="44.6704317" lon="10.536025"><ele>110.66666666666666</ele><time>2026-04-06T08:06:18.978Z</time></trkpt><trkpt lat="44.6702433" lon="10.5359817"><ele>111.33333333333334</ele><time>2026-04-06T08:06:19.978Z</time></trkpt><trkpt lat="44.6700517" lon="10.5359117"><ele>112.0</ele><time>2026-04-06T08:06:20.979Z</time></trkpt><trkpt lat="44.66987" lon="10.5358183"><ele>112.0</ele><time>2026-04-06T08:06:21.978Z</time></trkpt><trkpt lat="44.6697" lon="10.5356867"><ele>112.0</ele><time>2026-04-06T08:06:22.979Z</time></trkpt><trkpt lat="44.6695267" lon="10.5355367"><ele>112.0</ele><time>2026-04-06T08:06:23.979Z</time></trkpt><trkpt lat="44.6693717" lon="10.5353583"><ele>112.0</ele><time>2026-04-06T08:06:24.979Z</time></trkpt><trkpt lat="44.6692267" lon="10.5351517"><ele>112.0</ele><time>2026-04-06T08:06:25.978Z</time></trkpt><trkpt lat="44.6690917" lon="10.534925"><ele>112.0</ele><time>2026-04-06T08:06:26.978Z</time></trkpt><trkpt lat="44.668975" lon="10.53467"><ele>112.0</ele><time>2026-04-06T08:06:27.978Z</time></trkpt><trkpt lat="44.6688683" lon="10.5344233"><ele>112.0</ele><time>2026-04-06T08:06:28.978Z</time></trkpt><trkpt lat="44.6687717" lon="10.53416"><ele>112.0</ele><time>2026-04-06T08:06:29.978Z</time></trkpt><trkpt lat="44.66867" lon="10.5339017"><ele>112.33333333333334</ele><time>2026-04-06T08:06:30.978Z</time></trkpt><trkpt lat="44.6685683" lon="10.533635"><ele>112.66666666666666</ele><time>2026-04-06T08:06:31.978Z</time></trkpt><trkpt lat="44.6684617" lon="10.533385"><ele>113.0</ele><time>2026-04-06T08:06:32.978Z</time></trkpt><trkpt lat="44.6683417" lon="10.53315"><ele>113.0</ele><time>2026-04-06T08:06:33.978Z</time></trkpt><trkpt lat="44.66821" lon="10.5329183"><ele>113.0</ele><time>2026-04-06T08:06:34.978Z</time></trkpt><trkpt lat="44.6680617" lon="10.5327167"><ele>113.0</ele><time>2026-04-06T08:06:35.978Z</time></trkpt><trkpt lat="44.6678983" lon="10.5325317"><ele>113.33333333333333</ele><time>2026-04-06T08:06:36.978Z</time></trkpt><trkpt lat="44.6677183" lon="10.5323667"><ele>113.66666666666666</ele><time>2026-04-06T08:06:37.979Z</time></trkpt><trkpt lat="44.667525" lon="10.5322217"><ele>114.0</ele><time>2026-04-06T08:06:38.978Z</time></trkpt><trkpt lat="44.66733" lon="10.532065"><ele>113.66666666666666</ele><time>2026-04-06T08:06:39.978Z</time></trkpt><trkpt lat="44.66714" lon="10.5319117"><ele>113.33333333333333</ele><time>2026-04-06T08:06:40.978Z</time></trkpt><trkpt lat="44.6669483" lon="10.5317617"><ele>113.0</ele><time>2026-04-06T08:06:41.978Z</time></trkpt><trkpt lat="44.6667583" lon="10.5316067"><ele>112.66666666666666</ele><time>2026-04-06T08:06:42.978Z</time></trkpt><trkpt lat="44.6665767" lon="10.53145"><ele>112.33333333333334</ele><time>2026-04-06T08:06:43.979Z</time></trkpt><trkpt lat="44.6663933" lon="10.5313017"><ele>112.0</ele><time>2026-04-06T08:06:44.979Z</time></trkpt><trkpt lat="44.6662117" lon="10.5311517"><ele>113.0</ele><time>2026-04-06T08:06:45.978Z</time></trkpt><trkpt lat="44.6660267" lon="10.5309967"><ele>114.0</ele><time>2026-04-06T08:06:46.979Z</time></trkpt><trkpt lat="44.6658367" lon="10.5308333"><ele>115.0</ele><time>2026-04-06T08:06:47.978Z</time></trkpt><trkpt lat="44.6656567" lon="10.53067"><ele>115.0</ele><time>2026-04-06T08:06:48.978Z</time></trkpt><trkpt lat="44.6654717" lon="10.5304933"><ele>115.0</ele><time>2026-04-06T08:06:49.978Z</time></trkpt><trkpt lat="44.6652967" lon="10.530315"><ele>115.0</ele><time>2026-04-06T08:06:50.978Z</time></trkpt><trkpt lat="44.665125" lon="10.53013"><ele>115.66666666666667</ele><time>2026-04-06T08:06:51.978Z</time></trkpt><trkpt lat="44.66496" lon="10.5299467"><ele>116.33333333333334</ele><time>2026-04-06T08:06:52.978Z</time></trkpt><trkpt lat="44.6647867" lon="10.529775"><ele>117.0</ele><time>2026-04-06T08:06:53.979Z</time></trkpt><trkpt lat="44.664605" lon="10.5296"><ele>117.33333333333334</ele><time>2026-04-06T08:06:54.978Z</time></trkpt><trkpt lat="44.66442" lon="10.5294417"><ele>117.66666666666667</ele><time>2026-04-06T08:06:55.978Z</time></trkpt><trkpt lat="44.6642333" lon="10.5292883"><ele>118.0</ele><time>2026-04-06T08:06:56.978Z</time></trkpt><trkpt lat="44.66405" lon="10.52914"><ele>118.0</ele><time>2026-04-06T08:06:57.978Z</time></trkpt><trkpt lat="44.663865" lon="10.5289917"><ele>118.0</ele><time>2026-04-06T08:06:58.978Z</time></trkpt><trkpt lat="44.663675" lon="10.5288233"><ele>118.0</ele><time>2026-04-06T08:06:59.978Z</time></trkpt><trkpt lat="44.6634867" lon="10.5286483"><ele>118.33333333333334</ele><time>2026-04-06T08:07:00.978Z</time></trkpt><trkpt lat="44.6633183" lon="10.5284583"><ele>118.66666666666666</ele><time>2026-04-06T08:07:01.978Z</time></trkpt><trkpt lat="44.66315" lon="10.5282567"><ele>119.0</ele><time>2026-04-06T08:07:02.978Z</time></trkpt><trkpt lat="44.662975" lon="10.5280517"><ele>119.0</ele><time>2026-04-06T08:07:03.978Z</time></trkpt><trkpt lat="44.6628133" lon="10.5278483"><ele>119.0</ele><time>2026-04-06T08:07:04.978Z</time></trkpt><trkpt lat="44.66265" lon="10.5276483"><ele>119.0</ele><time>2026-04-06T08:07:05.978Z</time></trkpt><trkpt lat="44.6624933" lon="10.52745"><ele>119.0</ele><time>2026-04-06T08:07:06.978Z</time></trkpt><trkpt lat="44.6623417" lon="10.5272417"><ele>119.0</ele><time>2026-04-06T08:07:07.978Z</time></trkpt><trkpt lat="44.6622067" lon="10.5270333"><ele>119.0</ele><time>2026-04-06T08:07:08.978Z</time></trkpt><trkpt lat="44.662085" lon="10.5268317"><ele>119.0</ele><time>2026-04-06T08:07:09.978Z</time></trkpt><trkpt lat="44.6619667" lon="10.5266417"><ele>119.0</ele><time>2026-04-06T08:07:10.979Z</time></trkpt><trkpt lat="44.6618617" lon="10.52647"><ele>119.0</ele><time>2026-04-06T08:07:11.978Z</time></trkpt><trkpt lat="44.6617633" lon="10.52632"><ele>119.4</ele><time>2026-04-06T08:07:12.979Z</time></trkpt><trkpt lat="44.66168" lon="10.526195"><ele>119.80000000000001</ele><time>2026-04-06T08:07:13.978Z</time></trkpt><trkpt lat="44.6616083" lon="10.52608"><ele>120.19999999999999</ele><time>2026-04-06T08:07:14.978Z</time></trkpt><trkpt lat="44.6615567" lon="10.5259733"><ele>120.6</ele><time>2026-04-06T08:07:15.978Z</time></trkpt><trkpt lat="44.6615117" lon="10.5258633"><ele>121.0</ele><time>2026-04-06T08:07:16.978Z</time></trkpt><trkpt lat="44.6614567" lon="10.52578"><ele>121.0</ele><time>2026-04-06T08:07:17.978Z</time></trkpt><trkpt lat="44.6613817" lon="10.525725"><ele>121.0</ele><time>2026-04-06T08:07:18.978Z</time></trkpt><trkpt lat="44.6612867" lon="10.5257133"><ele>121.0</ele><time>2026-04-06T08:07:19.978Z</time></trkpt><trkpt lat="44.6611733" lon="10.5256983"><ele>121.0</ele><time>2026-04-06T08:07:20.979Z</time></trkpt><trkpt lat="44.6610367" lon="10.5256617"><ele>121.0</ele><time>2026-04-06T08:07:21.978Z</time></trkpt><trkpt lat="44.66088" lon="10.5255983"><ele>121.0</ele><time>2026-04-06T08:07:22.978Z</time></trkpt><trkpt lat="44.6607333" lon="10.52552"><ele>121.0</ele><time>2026-04-06T08:07:23.978Z</time></trkpt><trkpt lat="44.660575" lon="10.5254433"><ele>121.0</ele><time>2026-04-06T08:07:24.978Z</time></trkpt><trkpt lat="44.6604083" lon="10.5253733"><ele>121.0</ele><time>2026-04-06T08:07:25.978Z</time></trkpt><trkpt lat="44.6602333" lon="10.5252983"><ele>121.0</ele><time>2026-04-06T08:07:26.978Z</time></trkpt><trkpt lat="44.6600583" lon="10.5252233"><ele>121.0</ele><time>2026-04-06T08:07:27.978Z</time></trkpt><trkpt lat="44.659885" lon="10.525145"><ele>121.0</ele><time>2026-04-06T08:07:28.978Z</time></trkpt><trkpt lat="44.6597033" lon="10.5250833"><ele>121.0</ele><time>2026-04-06T08:07:29.978Z</time></trkpt><trkpt lat="44.659525" lon="10.52502"><ele>121.0</ele><time>2026-04-06T08:07:30.979Z</time></trkpt><trkpt lat="44.65934" lon="10.52497"><ele>121.66666666666667</ele><time>2026-04-06T08:07:31.978Z</time></trkpt><trkpt lat="44.6591483" lon="10.524935"><ele>122.33333333333334</ele><time>2026-04-06T08:07:32.979Z</time></trkpt><trkpt lat="44.6589633" lon="10.5249067"><ele>123.0</ele><time>2026-04-06T08:07:33.978Z</time></trkpt><trkpt lat="44.6587733" lon="10.5248967"><ele>123.66666666666666</ele><time>2026-04-06T08:07:34.978Z</time></trkpt><trkpt lat="44.658585" lon="10.52489"><ele>124.33333333333333</ele><time>2026-04-06T08:07:35.978Z</time></trkpt><trkpt lat="44.658395" lon="10.5248917"><ele>125.0</ele><time>2026-04-06T08:07:36.978Z</time></trkpt><trkpt lat="44.6582" lon="10.5248933"><ele>125.0</ele><time>2026-04-06T08:07:37.979Z</time></trkpt><trkpt lat="44.658005" lon="10.5248867"><ele>125.0</ele><time>2026-04-06T08:07:38.978Z</time></trkpt><trkpt lat="44.6578083" lon="10.5248967"><ele>125.0</ele><time>2026-04-06T08:07:39.979Z</time></trkpt><trkpt lat="44.6575967" lon="10.5249"><ele>125.33333333333333</ele><time>2026-04-06T08:07:40.979Z</time></trkpt><trkpt lat="44.6574017" lon="10.5249133"><ele>125.66666666666666</ele><time>2026-04-06T08:07:41.978Z</time></trkpt><trkpt lat="44.6572" lon="10.52493"><ele>126.0</ele><time>2026-04-06T08:07:42.978Z</time></trkpt><trkpt lat="44.65699" lon="10.5249583"><ele>126.0</ele><time>2026-04-06T08:07:43.978Z</time></trkpt><trkpt lat="44.65678" lon="10.5249817"><ele>126.0</ele><time>2026-04-06T08:07:44.978Z</time></trkpt><trkpt lat="44.6565767" lon="10.5250083"><ele>126.0</ele><time>2026-04-06T08:07:45.978Z</time></trkpt><trkpt lat="44.6563783" lon="10.52503"><ele>126.0</ele><time>2026-04-06T08:07:46.978Z</time></trkpt><trkpt lat="44.656175" lon="10.52505"><ele>126.0</ele><time>2026-04-06T08:07:47.978Z</time></trkpt><trkpt lat="44.6559767" lon="10.5250817"><ele>126.0</ele><time>2026-04-06T08:07:48.978Z</time></trkpt><trkpt lat="44.6557717" lon="10.525105"><ele>126.33333333333334</ele><time>2026-04-06T08:07:49.978Z</time></trkpt><trkpt lat="44.655565" lon="10.525115"><ele>126.66666666666667</ele><time>2026-04-06T08:07:50.978Z</time></trkpt><trkpt lat="44.655365" lon="10.5251267"><ele>127.0</ele><time>2026-04-06T08:07:51.979Z</time></trkpt><trkpt lat="44.655165" lon="10.5251367"><ele>127.66666666666667</ele><time>2026-04-06T08:07:52.978Z</time></trkpt><trkpt lat="44.6549533" lon="10.5251417"><ele>128.33333333333334</ele><time>2026-04-06T08:07:53.978Z</time></trkpt><trkpt lat="44.65475" lon="10.525145"><ele>129.0</ele><time>2026-04-06T08:07:54.978Z</time></trkpt><trkpt lat="44.6545433" lon="10.52515"><ele>129.0</ele><time>2026-04-06T08:07:55.978Z</time></trkpt><trkpt lat="44.654345" lon="10.52516"><ele>129.0</ele><time>2026-04-06T08:07:56.979Z</time></trkpt><trkpt lat="44.6541533" lon="10.52517"><ele>129.0</ele><time>2026-04-06T08:07:57.978Z</time></trkpt><trkpt lat="44.65397" lon="10.5251867"><ele>129.0</ele><time>2026-04-06T08:07:58.978Z</time></trkpt><trkpt lat="44.6538017" lon="10.5251933"><ele>129.0</ele><time>2026-04-06T08:07:59.978Z</time></trkpt><trkpt lat="44.653635" lon="10.5252"><ele>129.0</ele><time>2026-04-06T08:08:00.978Z</time></trkpt><trkpt lat="44.6534783" lon="10.5252067"><ele>129.5</ele><time>2026-04-06T08:08:01.978Z</time></trkpt><trkpt lat="44.6533333" lon="10.5252167"><ele>130.0</ele><time>2026-04-06T08:08:02.979Z</time></trkpt><trkpt lat="44.653195" lon="10.5252217"><ele>130.5</ele><time>2026-04-06T08:08:03.979Z</time></trkpt><trkpt lat="44.65307" lon="10.5252283"><ele>131.0</ele><time>2026-04-06T08:08:04.978Z</time></trkpt><trkpt lat="44.6529533" lon="10.525235"><ele>131.0</ele><time>2026-04-06T08:08:05.979Z</time></trkpt><trkpt lat="44.6528367" lon="10.5252383"><ele>131.0</ele><time>2026-04-06T08:08:06.978Z</time></trkpt><trkpt lat="44.6527367" lon="10.5252367"><ele>131.0</ele><time>2026-04-06T08:08:07.978Z</time></trkpt><trkpt lat="44.65263" lon="10.525235"><ele>131.0</ele><time>2026-04-06T08:08:08.979Z</time></trkpt><trkpt lat="44.6525167" lon="10.5252317"><ele>131.0</ele><time>2026-04-06T08:08:09.978Z</time></trkpt><trkpt lat="44.6523983" lon="10.525215"><ele>131.2</ele><time>2026-04-06T08:08:10.978Z</time></trkpt><trkpt lat="44.652285" lon="10.52522"><ele>131.39999999999998</ele><time>2026-04-06T08:08:11.978Z</time></trkpt><trkpt lat="44.652175" lon="10.5252183"><ele>131.6</ele><time>2026-04-06T08:08:12.978Z</time></trkpt><trkpt lat="44.652075" lon="10.5252333"><ele>131.79999999999998</ele><time>2026-04-06T08:08:13.979Z</time></trkpt><trkpt lat="44.6519767" lon="10.5252417"><ele>132.0</ele><time>2026-04-06T08:08:14.978Z</time></trkpt><trkpt lat="44.6518883" lon="10.5252483"><ele>132.16666666666666</ele><time>2026-04-06T08:08:15.978Z</time></trkpt><trkpt lat="44.6518117" lon="10.5252517"><ele>132.33333333333334</ele><time>2026-04-06T08:08:16.979Z</time></trkpt><trkpt lat="44.651745" lon="10.5252567"><ele>132.5</ele><time>2026-04-06T08:08:17.978Z</time></trkpt><trkpt lat="44.65167" lon="10.525265"><ele>132.66666666666669</ele><time>2026-04-06T08:08:18.978Z</time></trkpt><trkpt lat="44.6515783" lon="10.5252783"><ele>132.83333333333334</ele><time>2026-04-06T08:08:19.978Z</time></trkpt><trkpt lat="44.6514733" lon="10.5252933"><ele>133.0</ele><time>2026-04-06T08:08:20.978Z</time></trkpt><trkpt lat="44.6513583" lon="10.5253117"><ele>133.0</ele><time>2026-04-06T08:08:21.979Z</time></trkpt><trkpt lat="44.6512367" lon="10.5253317"><ele>133.0</ele><time>2026-04-06T08:08:22.979Z</time></trkpt><trkpt lat="44.6511067" lon="10.5253433"><ele>133.0</ele><time>2026-04-06T08:08:23.978Z</time></trkpt><trkpt lat="44.6509633" lon="10.525355"><ele>133.0</ele><time>2026-04-06T08:08:24.978Z</time></trkpt><trkpt lat="44.650825" lon="10.5253717"><ele>133.25</ele><time>2026-04-06T08:08:25.978Z</time></trkpt><trkpt lat="44.6506817" lon="10.5253867"><ele>133.5</ele><time>2026-04-06T08:08:26.979Z</time></trkpt><trkpt lat="44.65053" lon="10.5254"><ele>133.75</ele><time>2026-04-06T08:08:27.978Z</time></trkpt><trkpt lat="44.6503833" lon="10.5254183"><ele>134.0</ele><time>2026-04-06T08:08:28.978Z</time></trkpt><trkpt lat="44.6502367" lon="10.5254417"><ele>134.5</ele><time>2026-04-06T08:08:29.978Z</time></trkpt><trkpt lat="44.6500883" lon="10.5254667"><ele>135.0</ele><time>2026-04-06T08:08:30.978Z</time></trkpt><trkpt lat="44.6499533" lon="10.5254817"><ele>135.5</ele><time>2026-04-06T08:08:31.978Z</time></trkpt><trkpt lat="44.649825" lon="10.5254933"><ele>136.0</ele><time>2026-04-06T08:08:32.978Z</time></trkpt><trkpt lat="44.6496983" lon="10.52551"><ele>136.0</ele><time>2026-04-06T08:08:33.979Z</time></trkpt><trkpt lat="44.6495883" lon="10.5255383"><ele>136.0</ele><time>2026-04-06T08:08:34.978Z</time></trkpt><trkpt lat="44.6494817" lon="10.525555"><ele>136.0</ele><time>2026-04-06T08:08:35.979Z</time></trkpt><trkpt lat="44.64938" lon="10.5255733"><ele>136.0</ele><time>2026-04-06T08:08:36.978Z</time></trkpt><trkpt lat="44.6492667" lon="10.5255917"><ele>136.0</ele><time>2026-04-06T08:08:37.978Z</time></trkpt><trkpt lat="44.64915" lon="10.5256083"><ele>136.0</ele><time>2026-04-06T08:08:38.978Z</time></trkpt><trkpt lat="44.6490117" lon="10.525625"><ele>136.0</ele><time>2026-04-06T08:08:39.978Z</time></trkpt><trkpt lat="44.6488633" lon="10.5256417"><ele>136.0</ele><time>2026-04-06T08:08:40.979Z</time></trkpt><trkpt lat="44.64871" lon="10.5256667"><ele>136.0</ele><time>2026-04-06T08:08:41.978Z</time></trkpt><trkpt lat="44.6485483" lon="10.525675"><ele>135.66666666666669</ele><time>2026-04-06T08:08:42.978Z</time></trkpt><trkpt lat="44.6483833" lon="10.5256983"><ele>135.33333333333334</ele><time>2026-04-06T08:08:43.978Z</time></trkpt><trkpt lat="44.6482117" lon="10.52572"><ele>135.0</ele><time>2026-04-06T08:08:44.978Z</time></trkpt><trkpt lat="44.648035" lon="10.52574"><ele>135.0</ele><time>2026-04-06T08:08:45.978Z</time></trkpt><trkpt lat="44.647855" lon="10.5257683"><ele>135.0</ele><time>2026-04-06T08:08:46.978Z</time></trkpt><trkpt lat="44.6476717" lon="10.52579"><ele>135.0</ele><time>2026-04-06T08:08:47.979Z</time></trkpt><trkpt lat="44.6474933" lon="10.5258083"><ele>135.33333333333334</ele><time>2026-04-06T08:08:48.978Z</time></trkpt><trkpt lat="44.6473" lon="10.5258267"><ele>135.66666666666669</ele><time>2026-04-06T08:08:49.979Z</time></trkpt><trkpt lat="44.6471133" lon="10.5258467"><ele>136.0</ele><time>2026-04-06T08:08:50.978Z</time></trkpt><trkpt lat="44.6469317" lon="10.525865"><ele>136.33333333333334</ele><time>2026-04-06T08:08:51.978Z</time></trkpt><trkpt lat="44.6467433" lon="10.5258867"><ele>136.66666666666666</ele><time>2026-04-06T08:08:52.979Z</time></trkpt><trkpt lat="44.64656" lon="10.5259067"><ele>137.0</ele><time>2026-04-06T08:08:53.978Z</time></trkpt><trkpt lat="44.6463733" lon="10.5259317"><ele>137.0</ele><time>2026-04-06T08:08:54.979Z</time></trkpt><trkpt lat="44.6461833" lon="10.5259467"><ele>137.0</ele><time>2026-04-06T08:08:55.978Z</time></trkpt><trkpt lat="44.64598" lon="10.525965"><ele>137.0</ele><time>2026-04-06T08:08:56.978Z</time></trkpt><trkpt lat="44.6457817" lon="10.5259917"><ele>137.33333333333331</ele><time>2026-04-06T08:08:57.979Z</time></trkpt><trkpt lat="44.645585" lon="10.5260217"><ele>137.66666666666666</ele><time>2026-04-06T08:08:58.978Z</time></trkpt><trkpt lat="44.64539" lon="10.5260533"><ele>138.0</ele><time>2026-04-06T08:08:59.978Z</time></trkpt><trkpt lat="44.6451967" lon="10.5260833"><ele>137.33333333333334</ele><time>2026-04-06T08:09:00.978Z</time></trkpt><trkpt lat="44.645" lon="10.5261033"><ele>136.66666666666669</ele><time>2026-04-06T08:09:01.978Z</time></trkpt><trkpt lat="44.644805" lon="10.5261267"><ele>136.0</ele><time>2026-04-06T08:09:02.978Z</time></trkpt><trkpt lat="44.64461" lon="10.52615"><ele>136.66666666666669</ele><time>2026-04-06T08:09:03.978Z</time></trkpt><trkpt lat="44.6444217" lon="10.52617"><ele>137.33333333333334</ele><time>2026-04-06T08:09:04.978Z</time></trkpt><trkpt lat="44.64423" lon="10.5261933"><ele>138.0</ele><time>2026-04-06T08:09:05.978Z</time></trkpt><trkpt lat="44.6440367" lon="10.5262217"><ele>138.0</ele><time>2026-04-06T08:09:06.979Z</time></trkpt><trkpt lat="44.6438367" lon="10.526245"><ele>138.0</ele><time>2026-04-06T08:09:07.978Z</time></trkpt><trkpt lat="44.64364" lon="10.52627"><ele>138.0</ele><time>2026-04-06T08:09:08.978Z</time></trkpt><trkpt lat="44.6434467" lon="10.5262933"><ele>138.66666666666666</ele><time>2026-04-06T08:09:09.978Z</time></trkpt><trkpt lat="44.643245" lon="10.5263117"><ele>139.33333333333331</ele><time>2026-04-06T08:09:10.978Z</time></trkpt><trkpt lat="44.643045" lon="10.52632"><ele>140.0</ele><time>2026-04-06T08:09:11.978Z</time></trkpt><trkpt lat="44.642845" lon="10.5263083"><ele>139.66666666666666</ele><time>2026-04-06T08:09:12.978Z</time></trkpt><trkpt lat="44.6426467" lon="10.5262617"><ele>139.33333333333334</ele><time>2026-04-06T08:09:13.978Z</time></trkpt><trkpt lat="44.6424483" lon="10.5261867"><ele>139.0</ele><time>2026-04-06T08:09:14.979Z</time></trkpt><trkpt lat="44.642245" lon="10.526095"><ele>139.66666666666669</ele><time>2026-04-06T08:09:15.978Z</time></trkpt><trkpt lat="44.64203" lon="10.5260217"><ele>140.33333333333334</ele><time>2026-04-06T08:09:16.978Z</time></trkpt><trkpt lat="44.64181" lon="10.5259633"><ele>141.0</ele><time>2026-04-06T08:09:17.979Z</time></trkpt><trkpt lat="44.641585" lon="10.5259217"><ele>141.66666666666666</ele><time>2026-04-06T08:09:18.979Z</time></trkpt><trkpt lat="44.6413583" lon="10.5258833"><ele>142.33333333333331</ele><time>2026-04-06T08:09:19.979Z</time></trkpt><trkpt lat="44.6411383" lon="10.525855"><ele>143.0</ele><time>2026-04-06T08:09:20.978Z</time></trkpt><trkpt lat="44.6409167" lon="10.5258283"><ele>143.0</ele><time>2026-04-06T08:09:21.978Z</time></trkpt><trkpt lat="44.6406917" lon="10.5257967"><ele>143.0</ele><time>2026-04-06T08:09:22.978Z</time></trkpt><trkpt lat="44.6404717" lon="10.5257583"><ele>143.0</ele><time>2026-04-06T08:09:23.978Z</time></trkpt><trkpt lat="44.6402533" lon="10.5257317"><ele>143.0</ele><time>2026-04-06T08:09:24.978Z</time></trkpt><trkpt lat="44.6400333" lon="10.5256983"><ele>143.0</ele><time>2026-04-06T08:09:25.978Z</time></trkpt><trkpt lat="44.639815" lon="10.52567"><ele>143.0</ele><time>2026-04-06T08:09:26.979Z</time></trkpt><trkpt lat="44.63959" lon="10.5256267"><ele>143.0</ele><time>2026-04-06T08:09:27.978Z</time></trkpt><trkpt lat="44.6393733" lon="10.5255967"><ele>143.0</ele><time>2026-04-06T08:09:28.978Z</time></trkpt><trkpt lat="44.639155" lon="10.5255733"><ele>143.0</ele><time>2026-04-06T08:09:29.979Z</time></trkpt><trkpt lat="44.6389433" lon="10.5255317"><ele>143.0</ele><time>2026-04-06T08:09:30.979Z</time></trkpt><trkpt lat="44.6387317" lon="10.5255067"><ele>143.0</ele><time>2026-04-06T08:09:31.978Z</time></trkpt><trkpt lat="44.6385117" lon="10.525465"><ele>143.0</ele><time>2026-04-06T08:09:32.979Z</time></trkpt><trkpt lat="44.6382883" lon="10.5254417"><ele>143.0</ele><time>2026-04-06T08:09:33.978Z</time></trkpt><trkpt lat="44.6380617" lon="10.525405"><ele>143.0</ele><time>2026-04-06T08:09:34.979Z</time></trkpt><trkpt lat="44.6378383" lon="10.525375"><ele>143.33333333333331</ele><time>2026-04-06T08:09:35.978Z</time></trkpt><trkpt lat="44.63762" lon="10.525335"><ele>143.66666666666666</ele><time>2026-04-06T08:09:36.979Z</time></trkpt><trkpt lat="44.6373967" lon="10.5253"><ele>144.0</ele><time>2026-04-06T08:09:37.978Z</time></trkpt><trkpt lat="44.6371767" lon="10.5252667"><ele>143.33333333333334</ele><time>2026-04-06T08:09:38.979Z</time></trkpt><trkpt lat="44.636955" lon="10.5252367"><ele>142.66666666666669</ele><time>2026-04-06T08:09:39.978Z</time></trkpt><trkpt lat="44.636735" lon="10.52521"><ele>142.0</ele><time>2026-04-06T08:09:40.978Z</time></trkpt><trkpt lat="44.6365133" lon="10.5251867"><ele>142.0</ele><time>2026-04-06T08:09:41.979Z</time></trkpt><trkpt lat="44.6362983" lon="10.5251533"><ele>142.0</ele><time>2026-04-06T08:09:42.978Z</time></trkpt><trkpt lat="44.636085" lon="10.5251233"><ele>142.0</ele><time>2026-04-06T08:09:43.978Z</time></trkpt><trkpt lat="44.6358733" lon="10.5250983"><ele>142.33333333333334</ele><time>2026-04-06T08:09:44.979Z</time></trkpt><trkpt lat="44.635675" lon="10.52507"><ele>142.66666666666666</ele><time>2026-04-06T08:09:45.979Z</time></trkpt><trkpt lat="44.635495" lon="10.525035"><ele>143.0</ele><time>2026-04-06T08:09:46.978Z</time></trkpt><trkpt lat="44.6353167" lon="10.52501"><ele>143.66666666666666</ele><time>2026-04-06T08:09:47.978Z</time></trkpt><trkpt lat="44.63515" lon="10.524985"><ele>144.33333333333334</ele><time>2026-04-06T08:09:48.979Z</time></trkpt><trkpt lat="44.6349967" lon="10.5249583"><ele>145.0</ele><time>2026-04-06T08:09:49.978Z</time></trkpt><trkpt lat="44.6348533" lon="10.5249383"><ele>145.0</ele><time>2026-04-06T08:09:50.978Z</time></trkpt><trkpt lat="44.6347067" lon="10.5249233"><ele>145.0</ele><time>2026-04-06T08:09:51.978Z</time></trkpt><trkpt lat="44.6345733" lon="10.5249033"><ele>145.0</ele><time>2026-04-06T08:09:52.978Z</time></trkpt><trkpt lat="44.6344517" lon="10.5248867"><ele>145.0</ele><time>2026-04-06T08:09:53.979Z</time></trkpt><trkpt lat="44.6343433" lon="10.5248767"><ele>145.2</ele><time>2026-04-06T08:09:54.978Z</time></trkpt><trkpt lat="44.63425" lon="10.5248883"><ele>145.4</ele><time>2026-04-06T08:09:55.978Z</time></trkpt><trkpt lat="44.6341717" lon="10.524895"><ele>145.6</ele><time>2026-04-06T08:09:56.978Z</time></trkpt><trkpt lat="44.6340833" lon="10.5248933"><ele>145.8</ele><time>2026-04-06T08:09:58.979Z</time></trkpt><trkpt lat="44.6339933" lon="10.5249033"><ele>146.0</ele><time>2026-04-06T08:10:02.978Z</time></trkpt><trkpt lat="44.6338717" lon="10.5248467"><ele>146.0</ele><time>2026-04-06T08:10:04.979Z</time></trkpt><trkpt lat="44.6337983" lon="10.5247783"><ele>146.0</ele><time>2026-04-06T08:10:05.979Z</time></trkpt><trkpt lat="44.63373" lon="10.52468"><ele>146.0</ele><time>2026-04-06T08:10:06.978Z</time></trkpt><trkpt lat="44.633675" lon="10.5245333"><ele>146.0</ele><time>2026-04-06T08:10:07.978Z</time></trkpt><trkpt lat="44.6336433" lon="10.52437"><ele>146.0</ele><time>2026-04-06T08:10:08.979Z</time></trkpt><trkpt lat="44.633605" lon="10.5242033"><ele>146.25</ele><time>2026-04-06T08:10:09.978Z</time></trkpt><trkpt lat="44.6335633" lon="10.5240217"><ele>146.5</ele><time>2026-04-06T08:10:10.979Z</time></trkpt><trkpt lat="44.6335217" lon="10.523835"><ele>146.75</ele><time>2026-04-06T08:10:11.978Z</time></trkpt><trkpt lat="44.6334783" lon="10.52365"><ele>147.0</ele><time>2026-04-06T08:10:12.978Z</time></trkpt><trkpt lat="44.63343" lon="10.5234617"><ele>147.0</ele><time>2026-04-06T08:10:13.979Z</time></trkpt><trkpt lat="44.6333833" lon="10.523275"><ele>147.0</ele><time>2026-04-06T08:10:14.978Z</time></trkpt><trkpt lat="44.6333317" lon="10.5230733"><ele>147.0</ele><time>2026-04-06T08:10:15.978Z</time></trkpt><trkpt lat="44.6332867" lon="10.5228833"><ele>147.0</ele><time>2026-04-06T08:10:16.978Z</time></trkpt><trkpt lat="44.6332433" lon="10.5226983"><ele>146.25</ele><time>2026-04-06T08:10:17.979Z</time></trkpt><trkpt lat="44.6331933" lon="10.5225083"><ele>145.5</ele><time>2026-04-06T08:10:18.978Z</time></trkpt><trkpt lat="44.6331383" lon="10.522325"><ele>144.75</ele><time>2026-04-06T08:10:19.979Z</time></trkpt><trkpt lat="44.633095" lon="10.5221533"><ele>144.0</ele><time>2026-04-06T08:10:20.978Z</time></trkpt><trkpt lat="44.63306" lon="10.5219867"><ele>144.0</ele><time>2026-04-06T08:10:21.978Z</time></trkpt><trkpt lat="44.6330267" lon="10.5218133"><ele>144.0</ele><time>2026-04-06T08:10:22.978Z</time></trkpt><trkpt lat="44.6329867" lon="10.5216333"><ele>144.0</ele><time>2026-04-06T08:10:23.978Z</time></trkpt><trkpt lat="44.6329433" lon="10.5214517"><ele>144.0</ele><time>2026-04-06T08:10:24.978Z</time></trkpt><trkpt lat="44.6329083" lon="10.5212667"><ele>144.25</ele><time>2026-04-06T08:10:25.978Z</time></trkpt><trkpt lat="44.6328767" lon="10.521075"><ele>144.5</ele><time>2026-04-06T08:10:26.978Z</time></trkpt><trkpt lat="44.63285" lon="10.52088"><ele>144.75</ele><time>2026-04-06T08:10:27.979Z</time></trkpt><trkpt lat="44.6328267" lon="10.520685"><ele>145.0</ele><time>2026-04-06T08:10:28.978Z</time></trkpt><trkpt lat="44.6328083" lon="10.5204983"><ele>145.75</ele><time>2026-04-06T08:10:29.978Z</time></trkpt><trkpt lat="44.6327883" lon="10.520315"><ele>146.5</ele><time>2026-04-06T08:10:30.978Z</time></trkpt><trkpt lat="44.63276" lon="10.5201167"><ele>147.25</ele><time>2026-04-06T08:10:31.978Z</time></trkpt><trkpt lat="44.6327367" lon="10.51993"><ele>148.0</ele><time>2026-04-06T08:10:32.979Z</time></trkpt><trkpt lat="44.6327183" lon="10.5197383"><ele>147.5</ele><time>2026-04-06T08:10:33.978Z</time></trkpt><trkpt lat="44.6327" lon="10.5195367"><ele>147.0</ele><time>2026-04-06T08:10:34.978Z</time></trkpt><trkpt lat="44.6326683" lon="10.51934"><ele>146.5</ele><time>2026-04-06T08:10:35.978Z</time></trkpt><trkpt lat="44.6326417" lon="10.5191483"><ele>146.0</ele><time>2026-04-06T08:10:36.979Z</time></trkpt><trkpt lat="44.6326167" lon="10.5189433"><ele>145.33333333333331</ele><time>2026-04-06T08:10:37.979Z</time></trkpt><trkpt lat="44.6325867" lon="10.518725"><ele>144.66666666666666</ele><time>2026-04-06T08:10:38.978Z</time></trkpt><trkpt lat="44.6325567" lon="10.5185183"><ele>144.0</ele><time>2026-04-06T08:10:39.978Z</time></trkpt><trkpt lat="44.6325333" lon="10.5183217"><ele>144.0</ele><time>2026-04-06T08:10:40.978Z</time></trkpt><trkpt lat="44.63251" lon="10.51812"><ele>144.0</ele><time>2026-04-06T08:10:41.978Z</time></trkpt><trkpt lat="44.6324833" lon="10.5179017"><ele>144.0</ele><time>2026-04-06T08:10:42.978Z</time></trkpt><trkpt lat="44.632455" lon="10.51769"><ele>144.0</ele><time>2026-04-06T08:10:43.978Z</time></trkpt><trkpt lat="44.632425" lon="10.5174833"><ele>144.0</ele><time>2026-04-06T08:10:44.978Z</time></trkpt><trkpt lat="44.6323933" lon="10.517275"><ele>144.0</ele><time>2026-04-06T08:10:45.979Z</time></trkpt><trkpt lat="44.6323633" lon="10.5170683"><ele>143.5</ele><time>2026-04-06T08:10:46.979Z</time></trkpt><trkpt lat="44.63233" lon="10.5168617"><ele>143.0</ele><time>2026-04-06T08:10:47.978Z</time></trkpt><trkpt lat="44.632305" lon="10.516655"><ele>142.5</ele><time>2026-04-06T08:10:48.978Z</time></trkpt><trkpt lat="44.6322783" lon="10.5164517"><ele>142.0</ele><time>2026-04-06T08:10:49.978Z</time></trkpt><trkpt lat="44.6322517" lon="10.51624"><ele>142.33333333333334</ele><time>2026-04-06T08:10:50.978Z</time></trkpt><trkpt lat="44.6322217" lon="10.5160283"><ele>142.66666666666666</ele><time>2026-04-06T08:10:51.978Z</time></trkpt><trkpt lat="44.6321917" lon="10.5158133"><ele>143.0</ele><time>2026-04-06T08:10:52.978Z</time></trkpt><trkpt lat="44.6321717" lon="10.5155933"><ele>143.0</ele><time>2026-04-06T08:10:53.978Z</time></trkpt><trkpt lat="44.6321567" lon="10.5153767"><ele>143.0</ele><time>2026-04-06T08:10:54.979Z</time></trkpt><trkpt lat="44.6321633" lon="10.51515"><ele>143.0</ele><time>2026-04-06T08:10:55.979Z</time></trkpt><trkpt lat="44.6321783" lon="10.514925"><ele>143.0</ele><time>2026-04-06T08:10:56.978Z</time></trkpt><trkpt lat="44.6322017" lon="10.514705"><ele>143.0</ele><time>2026-04-06T08:10:57.978Z</time></trkpt><trkpt lat="44.6322367" lon="10.5144733"><ele>143.0</ele><time>2026-04-06T08:10:58.979Z</time></trkpt><trkpt lat="44.6322683" lon="10.5142433"><ele>143.0</ele><time>2026-04-06T08:10:59.979Z</time></trkpt><trkpt lat="44.6323017" lon="10.514015"><ele>143.0</ele><time>2026-04-06T08:11:00.978Z</time></trkpt><trkpt lat="44.6323317" lon="10.5137883"><ele>143.0</ele><time>2026-04-06T08:11:01.978Z</time></trkpt><trkpt lat="44.6323633" lon="10.5135567"><ele>142.33333333333331</ele><time>2026-04-06T08:11:02.979Z</time></trkpt><trkpt lat="44.6323917" lon="10.5133333"><ele>141.66666666666666</ele><time>2026-04-06T08:11:03.978Z</time></trkpt><trkpt lat="44.6324283" lon="10.5131033"><ele>141.0</ele><time>2026-04-06T08:11:04.978Z</time></trkpt><trkpt lat="44.632475" lon="10.51288"><ele>141.0</ele><time>2026-04-06T08:11:05.978Z</time></trkpt><trkpt lat="44.6325167" lon="10.5126533"><ele>141.0</ele><time>2026-04-06T08:11:06.978Z</time></trkpt><trkpt lat="44.63257" lon="10.5124417"><ele>141.0</ele><time>2026-04-06T08:11:07.979Z</time></trkpt><trkpt lat="44.632635" lon="10.5122333"><ele>141.0</ele><time>2026-04-06T08:11:08.978Z</time></trkpt><trkpt lat="44.632715" lon="10.5120333"><ele>141.0</ele><time>2026-04-06T08:11:09.978Z</time></trkpt><trkpt lat="44.6328" lon="10.511825"><ele>141.0</ele><time>2026-04-06T08:11:10.978Z</time></trkpt><trkpt lat="44.6328917" lon="10.511615"><ele>140.66666666666666</ele><time>2026-04-06T08:11:11.979Z</time></trkpt><trkpt lat="44.632975" lon="10.5114017"><ele>140.33333333333331</ele><time>2026-04-06T08:11:12.978Z</time></trkpt><trkpt lat="44.6330583" lon="10.511185"><ele>140.0</ele><time>2026-04-06T08:11:13.979Z</time></trkpt><trkpt lat="44.6331433" lon="10.5109617"><ele>140.0</ele><time>2026-04-06T08:11:14.978Z</time></trkpt><trkpt lat="44.63324" lon="10.5107117"><ele>140.0</ele><time>2026-04-06T08:11:15.978Z</time></trkpt><trkpt lat="44.633355" lon="10.5104517"><ele>140.0</ele><time>2026-04-06T08:11:16.979Z</time></trkpt><trkpt lat="44.6334617" lon="10.51019"><ele>140.0</ele><time>2026-04-06T08:11:17.978Z</time></trkpt><trkpt lat="44.6335717" lon="10.5099417"><ele>140.0</ele><time>2026-04-06T08:11:18.978Z</time></trkpt><trkpt lat="44.63368" lon="10.5096883"><ele>140.0</ele><time>2026-04-06T08:11:19.978Z</time></trkpt><trkpt lat="44.6337817" lon="10.5094433"><ele>138.33333333333331</ele><time>2026-04-06T08:11:20.979Z</time></trkpt><trkpt lat="44.6338817" lon="10.5092017"><ele>136.66666666666666</ele><time>2026-04-06T08:11:21.978Z</time></trkpt><trkpt lat="44.6339733" lon="10.508975"><ele>135.0</ele><time>2026-04-06T08:11:22.978Z</time></trkpt><trkpt lat="44.63406" lon="10.508765"><ele>135.66666666666666</ele><time>2026-04-06T08:11:23.978Z</time></trkpt><trkpt lat="44.6341533" lon="10.5085617"><ele>136.33333333333331</ele><time>2026-04-06T08:11:24.979Z</time></trkpt><trkpt lat="44.6342533" lon="10.5083817"><ele>137.0</ele><time>2026-04-06T08:11:25.978Z</time></trkpt><trkpt lat="44.634355" lon="10.50821"><ele>137.0</ele><time>2026-04-06T08:11:26.978Z</time></trkpt><trkpt lat="44.6344533" lon="10.5080517"><ele>137.0</ele><time>2026-04-06T08:11:27.978Z</time></trkpt><trkpt lat="44.63455" lon="10.5079117"><ele>137.0</ele><time>2026-04-06T08:11:28.978Z</time></trkpt><trkpt lat="44.63465" lon="10.50778"><ele>137.0</ele><time>2026-04-06T08:11:29.978Z</time></trkpt><trkpt lat="44.6347433" lon="10.50768"><ele>136.2</ele><time>2026-04-06T08:11:30.979Z</time></trkpt><trkpt lat="44.6348367" lon="10.507595"><ele>135.39999999999998</ele><time>2026-04-06T08:11:31.979Z</time></trkpt><trkpt lat="44.63493" lon="10.507525"><ele>134.60000000000002</ele><time>2026-04-06T08:11:32.978Z</time></trkpt><trkpt lat="44.6350233" lon="10.5074783"><ele>133.8</ele><time>2026-04-06T08:11:33.978Z</time></trkpt><trkpt lat="44.6350967" lon="10.5074383"><ele>133.0</ele><time>2026-04-06T08:11:34.978Z</time></trkpt><trkpt lat="44.6351533" lon="10.5073617"><ele>133.0</ele><time>2026-04-06T08:11:35.978Z</time></trkpt><trkpt lat="44.6351833" lon="10.50727"><ele>133.0</ele><time>2026-04-06T08:11:36.978Z</time></trkpt><trkpt lat="44.63512" lon="10.507085"><ele>133.0</ele><time>2026-04-06T08:11:38.979Z</time></trkpt><trkpt lat="44.6350383" lon="10.5069767"><ele>133.0</ele><time>2026-04-06T08:11:39.978Z</time></trkpt><trkpt lat="44.6349917" lon="10.5068433"><ele>133.0</ele><time>2026-04-06T08:11:40.978Z</time></trkpt><trkpt lat="44.6349967" lon="10.5067067"><ele>133.75</ele><time>2026-04-06T08:11:41.978Z</time></trkpt><trkpt lat="44.6350283" lon="10.5065833"><ele>134.5</ele><time>2026-04-06T08:11:42.978Z</time></trkpt><trkpt lat="44.635085" lon="10.5064333"><ele>135.25</ele><time>2026-04-06T08:11:43.978Z</time></trkpt><trkpt lat="44.6351517" lon="10.506265"><ele>136.0</ele><time>2026-04-06T08:11:44.979Z</time></trkpt><trkpt lat="44.635205" lon="10.5060717"><ele>136.0</ele><time>2026-04-06T08:11:45.979Z</time></trkpt><trkpt lat="44.6352317" lon="10.505875"><ele>136.0</ele><time>2026-04-06T08:11:46.979Z</time></trkpt><trkpt lat="44.63524" lon="10.5056617"><ele>136.0</ele><time>2026-04-06T08:11:47.978Z</time></trkpt><trkpt lat="44.635235" lon="10.505445"><ele>136.0</ele><time>2026-04-06T08:11:48.979Z</time></trkpt><trkpt lat="44.6352183" lon="10.5052333"><ele>136.0</ele><time>2026-04-06T08:11:49.978Z</time></trkpt><trkpt lat="44.6352" lon="10.5050233"><ele>136.0</ele><time>2026-04-06T08:11:50.979Z</time></trkpt><trkpt lat="44.63518" lon="10.50483"><ele>136.0</ele><time>2026-04-06T08:11:51.978Z</time></trkpt><trkpt lat="44.635155" lon="10.50465"><ele>136.0</ele><time>2026-04-06T08:11:52.978Z</time></trkpt><trkpt lat="44.63513" lon="10.5044833"><ele>135.8</ele><time>2026-04-06T08:11:53.978Z</time></trkpt><trkpt lat="44.6351167" lon="10.5043417"><ele>135.6</ele><time>2026-04-06T08:11:54.978Z</time></trkpt><trkpt lat="44.6351017" lon="10.5042083"><ele>135.4</ele><time>2026-04-06T08:11:55.979Z</time></trkpt><trkpt lat="44.6350867" lon="10.504085"><ele>135.2</ele><time>2026-04-06T08:11:56.979Z</time></trkpt><trkpt lat="44.63507" lon="10.50396"><ele>135.0</ele><time>2026-04-06T08:11:57.979Z</time></trkpt><trkpt lat="44.6350583" lon="10.50382"><ele>134.75</ele><time>2026-04-06T08:11:58.977Z</time></trkpt><trkpt lat="44.635045" lon="10.50368"><ele>134.5</ele><time>2026-04-06T08:11:59.977Z</time></trkpt><trkpt lat="44.6350333" lon="10.5035333"><ele>134.25</ele><time>2026-04-06T08:12:00.978Z</time></trkpt><trkpt lat="44.635025" lon="10.503365"><ele>134.0</ele><time>2026-04-06T08:12:01.977Z</time></trkpt><trkpt lat="44.6350083" lon="10.5031783"><ele>134.0</ele><time>2026-04-06T08:12:02.977Z</time></trkpt><trkpt lat="44.63499" lon="10.502985"><ele>134.0</ele><time>2026-04-06T08:12:03.977Z</time></trkpt><trkpt lat="44.6349733" lon="10.5027917"><ele>134.0</ele><time>2026-04-06T08:12:04.978Z</time></trkpt><trkpt lat="44.6349483" lon="10.5025917"><ele>134.0</ele><time>2026-04-06T08:12:05.977Z</time></trkpt><trkpt lat="44.63493" lon="10.50239"><ele>135.0</ele><time>2026-04-06T08:12:06.978Z</time></trkpt><trkpt lat="44.63491" lon="10.5022017"><ele>136.0</ele><time>2026-04-06T08:12:07.977Z</time></trkpt><trkpt lat="44.6348833" lon="10.5020283"><ele>137.0</ele><time>2026-04-06T08:12:08.977Z</time></trkpt><trkpt lat="44.6348617" lon="10.5018667"><ele>138.0</ele><time>2026-04-06T08:12:09.978Z</time></trkpt><trkpt lat="44.6348433" lon="10.50171"><ele>138.20000000000002</ele><time>2026-04-06T08:12:10.977Z</time></trkpt><trkpt lat="44.6348233" lon="10.501575"><ele>138.4</ele><time>2026-04-06T08:12:11.977Z</time></trkpt><trkpt lat="44.6348117" lon="10.5014433"><ele>138.60000000000002</ele><time>2026-04-06T08:12:12.977Z</time></trkpt><trkpt lat="44.63481" lon="10.5013033"><ele>138.8</ele><time>2026-04-06T08:12:13.977Z</time></trkpt><trkpt lat="44.6348117" lon="10.50115"><ele>139.0</ele><time>2026-04-06T08:12:14.977Z</time></trkpt><trkpt lat="44.6348117" lon="10.50097"><ele>139.0</ele><time>2026-04-06T08:12:15.977Z</time></trkpt><trkpt lat="44.63481" lon="10.5007883"><ele>139.0</ele><time>2026-04-06T08:12:16.977Z</time></trkpt><trkpt lat="44.6348117" lon="10.5005917"><ele>139.0</ele><time>2026-04-06T08:12:17.977Z</time></trkpt><trkpt lat="44.63481" lon="10.5003917"><ele>139.0</ele><time>2026-04-06T08:12:18.977Z</time></trkpt><trkpt lat="44.6348133" lon="10.5002167"><ele>139.2</ele><time>2026-04-06T08:12:19.977Z</time></trkpt><trkpt lat="44.6348117" lon="10.5000567"><ele>139.4</ele><time>2026-04-06T08:12:20.978Z</time></trkpt><trkpt lat="44.6348083" lon="10.4999017"><ele>139.6</ele><time>2026-04-06T08:12:21.978Z</time></trkpt><trkpt lat="44.6348133" lon="10.49976"><ele>139.8</ele><time>2026-04-06T08:12:22.977Z</time></trkpt><trkpt lat="44.6348183" lon="10.4996467"><ele>140.0</ele><time>2026-04-06T08:12:23.977Z</time></trkpt><trkpt lat="44.63482" lon="10.4995467"><ele>140.2</ele><time>2026-04-06T08:12:24.977Z</time></trkpt><trkpt lat="44.6348183" lon="10.499435"><ele>140.4</ele><time>2026-04-06T08:12:25.977Z</time></trkpt><trkpt lat="44.6348167" lon="10.4992967"><ele>140.6</ele><time>2026-04-06T08:12:26.978Z</time></trkpt><trkpt lat="44.6348183" lon="10.49914"><ele>140.8</ele><time>2026-04-06T08:12:27.977Z</time></trkpt><trkpt lat="44.634815" lon="10.4989783"><ele>141.0</ele><time>2026-04-06T08:12:28.977Z</time></trkpt><trkpt lat="44.6348117" lon="10.4988"><ele>141.0</ele><time>2026-04-06T08:12:29.978Z</time></trkpt><trkpt lat="44.6348083" lon="10.4986117"><ele>141.0</ele><time>2026-04-06T08:12:30.978Z</time></trkpt><trkpt lat="44.6348" lon="10.498415"><ele>141.0</ele><time>2026-04-06T08:12:31.978Z</time></trkpt><trkpt lat="44.634795" lon="10.4982167"><ele>141.0</ele><time>2026-04-06T08:12:32.977Z</time></trkpt><trkpt lat="44.63479" lon="10.4980167"><ele>141.25</ele><time>2026-04-06T08:12:33.978Z</time></trkpt><trkpt lat="44.6347933" lon="10.4978383"><ele>141.5</ele><time>2026-04-06T08:12:34.977Z</time></trkpt><trkpt lat="44.6347967" lon="10.49767"><ele>141.75</ele><time>2026-04-06T08:12:35.977Z</time></trkpt><trkpt lat="44.6347983" lon="10.4975183"><ele>142.0</ele><time>2026-04-06T08:12:36.977Z</time></trkpt><trkpt lat="44.6348033" lon="10.497385"><ele>142.0</ele><time>2026-04-06T08:12:37.978Z</time></trkpt><trkpt lat="44.6348" lon="10.4972633"><ele>142.0</ele><time>2026-04-06T08:12:38.977Z</time></trkpt><trkpt lat="44.6348" lon="10.497155"><ele>142.0</ele><time>2026-04-06T08:12:39.977Z</time></trkpt><trkpt lat="44.6348033" lon="10.49705"><ele>142.0</ele><time>2026-04-06T08:12:40.977Z</time></trkpt><trkpt lat="44.634805" lon="10.4969333"><ele>142.0</ele><time>2026-04-06T08:12:41.977Z</time></trkpt><trkpt lat="44.6348" lon="10.4967933"><ele>142.0</ele><time>2026-04-06T08:12:42.977Z</time></trkpt><trkpt lat="44.6347983" lon="10.4966367"><ele>142.25</ele><time>2026-04-06T08:12:43.978Z</time></trkpt><trkpt lat="44.6348017" lon="10.496475"><ele>142.5</ele><time>2026-04-06T08:12:44.977Z</time></trkpt><trkpt lat="44.6347967" lon="10.4962933"><ele>142.75</ele><time>2026-04-06T08:12:45.977Z</time></trkpt><trkpt lat="44.6347983" lon="10.4961067"><ele>143.0</ele><time>2026-04-06T08:12:46.977Z</time></trkpt><trkpt lat="44.6347933" lon="10.4958967"><ele>143.0</ele><time>2026-04-06T08:12:47.977Z</time></trkpt><trkpt lat="44.6347967" lon="10.4956983"><ele>143.0</ele><time>2026-04-06T08:12:48.977Z</time></trkpt><trkpt lat="44.634805" lon="10.4955017"><ele>143.0</ele><time>2026-04-06T08:12:49.977Z</time></trkpt><trkpt lat="44.63481" lon="10.4953067"><ele>143.0</ele><time>2026-04-06T08:12:50.977Z</time></trkpt><trkpt lat="44.6348083" lon="10.4950983"><ele>143.33333333333331</ele><time>2026-04-06T08:12:51.978Z</time></trkpt><trkpt lat="44.6348067" lon="10.4948867"><ele>143.66666666666666</ele><time>2026-04-06T08:12:52.978Z</time></trkpt><trkpt lat="44.6348133" lon="10.4946717"><ele>144.0</ele><time>2026-04-06T08:12:53.977Z</time></trkpt><trkpt lat="44.6348083" lon="10.49446"><ele>144.0</ele><time>2026-04-06T08:12:54.977Z</time></trkpt><trkpt lat="44.6348083" lon="10.4942433"><ele>144.0</ele><time>2026-04-06T08:12:55.977Z</time></trkpt><trkpt lat="44.6348067" lon="10.4940133"><ele>144.0</ele><time>2026-04-06T08:12:56.977Z</time></trkpt><trkpt lat="44.6347883" lon="10.4937833"><ele>144.66666666666666</ele><time>2026-04-06T08:12:57.977Z</time></trkpt><trkpt lat="44.634755" lon="10.493555"><ele>145.33333333333331</ele><time>2026-04-06T08:12:58.977Z</time></trkpt><trkpt lat="44.6347267" lon="10.49333"><ele>146.0</ele><time>2026-04-06T08:12:59.978Z</time></trkpt><trkpt lat="44.6346833" lon="10.4931017"><ele>146.0</ele><time>2026-04-06T08:13:00.977Z</time></trkpt><trkpt lat="44.634635" lon="10.492875"><ele>146.0</ele><time>2026-04-06T08:13:01.978Z</time></trkpt><trkpt lat="44.6345867" lon="10.4926567"><ele>146.0</ele><time>2026-04-06T08:13:02.977Z</time></trkpt><trkpt lat="44.6345367" lon="10.4924417"><ele>146.0</ele><time>2026-04-06T08:13:03.978Z</time></trkpt><trkpt lat="44.6344817" lon="10.4922217"><ele>146.0</ele><time>2026-04-06T08:13:04.977Z</time></trkpt><trkpt lat="44.63443" lon="10.4919933"><ele>146.0</ele><time>2026-04-06T08:13:05.977Z</time></trkpt><trkpt lat="44.6343767" lon="10.4917633"><ele>147.66666666666666</ele><time>2026-04-06T08:13:06.978Z</time></trkpt><trkpt lat="44.63434" lon="10.4915167"><ele>149.33333333333334</ele><time>2026-04-06T08:13:07.977Z</time></trkpt><trkpt lat="44.6343" lon="10.4912833"><ele>151.0</ele><time>2026-04-06T08:13:08.977Z</time></trkpt><trkpt lat="44.6342817" lon="10.49106"><ele>151.0</ele><time>2026-04-06T08:13:09.977Z</time></trkpt><trkpt lat="44.6342733" lon="10.4908633"><ele>151.0</ele><time>2026-04-06T08:13:10.978Z</time></trkpt><trkpt lat="44.6342683" lon="10.490695"><ele>151.0</ele><time>2026-04-06T08:13:11.977Z</time></trkpt><trkpt lat="44.63427" lon="10.490555"><ele>151.0</ele><time>2026-04-06T08:13:12.977Z</time></trkpt><trkpt lat="44.6342667" lon="10.4904167"><ele>151.0</ele><time>2026-04-06T08:13:13.978Z</time></trkpt><trkpt lat="44.6342667" lon="10.4902933"><ele>151.0</ele><time>2026-04-06T08:13:14.977Z</time></trkpt><trkpt lat="44.6342617" lon="10.490165"><ele>151.0</ele><time>2026-04-06T08:13:15.978Z</time></trkpt><trkpt lat="44.6342583" lon="10.490045"><ele>151.0</ele><time>2026-04-06T08:13:16.977Z</time></trkpt><trkpt lat="44.6342467" lon="10.4899033"><ele>151.0</ele><time>2026-04-06T08:13:17.978Z</time></trkpt><trkpt lat="44.6342467" lon="10.48975"><ele>151.25</ele><time>2026-04-06T08:13:18.977Z</time></trkpt><trkpt lat="44.6342367" lon="10.4895883"><ele>151.5</ele><time>2026-04-06T08:13:19.977Z</time></trkpt><trkpt lat="44.63423" lon="10.489415"><ele>151.75</ele><time>2026-04-06T08:13:20.977Z</time></trkpt><trkpt lat="44.6342167" lon="10.4892233"><ele>152.0</ele><time>2026-04-06T08:13:21.977Z</time></trkpt><trkpt lat="44.6342083" lon="10.48902"><ele>152.0</ele><time>2026-04-06T08:13:22.977Z</time></trkpt><trkpt lat="44.6341967" lon="10.4888133"><ele>152.0</ele><time>2026-04-06T08:13:23.977Z</time></trkpt><trkpt lat="44.6341883" lon="10.4885983"><ele>152.0</ele><time>2026-04-06T08:13:24.978Z</time></trkpt><trkpt lat="44.6341733" lon="10.488375"><ele>152.33333333333331</ele><time>2026-04-06T08:13:25.978Z</time></trkpt><trkpt lat="44.634165" lon="10.4881517"><ele>152.66666666666666</ele><time>2026-04-06T08:13:26.977Z</time></trkpt><trkpt lat="44.6341533" lon="10.4879083"><ele>153.0</ele><time>2026-04-06T08:13:27.977Z</time></trkpt><trkpt lat="44.634145" lon="10.48766"><ele>153.0</ele><time>2026-04-06T08:13:28.977Z</time></trkpt><trkpt lat="44.6341367" lon="10.487415"><ele>153.0</ele><time>2026-04-06T08:13:29.978Z</time></trkpt><trkpt lat="44.6341233" lon="10.4871633"><ele>153.0</ele><time>2026-04-06T08:13:30.978Z</time></trkpt><trkpt lat="44.6341083" lon="10.48691"><ele>153.66666666666666</ele><time>2026-04-06T08:13:31.978Z</time></trkpt><trkpt lat="44.6340883" lon="10.4866467"><ele>154.33333333333331</ele><time>2026-04-06T08:13:32.978Z</time></trkpt><trkpt lat="44.6340733" lon="10.4863933"><ele>155.0</ele><time>2026-04-06T08:13:33.978Z</time></trkpt><trkpt lat="44.6340667" lon="10.486135"><ele>155.66666666666666</ele><time>2026-04-06T08:13:34.977Z</time></trkpt><trkpt lat="44.6340683" lon="10.4858733"><ele>156.33333333333334</ele><time>2026-04-06T08:13:35.977Z</time></trkpt><trkpt lat="44.634095" lon="10.4856267"><ele>157.0</ele><time>2026-04-06T08:13:36.977Z</time></trkpt><trkpt lat="44.6341417" lon="10.4853833"><ele>157.66666666666669</ele><time>2026-04-06T08:13:37.978Z</time></trkpt><trkpt lat="44.63419" lon="10.4851183"><ele>158.33333333333334</ele><time>2026-04-06T08:13:38.977Z</time></trkpt><trkpt lat="44.6342417" lon="10.484855"><ele>159.0</ele><time>2026-04-06T08:13:39.977Z</time></trkpt><trkpt lat="44.6342917" lon="10.4845917"><ele>159.0</ele><time>2026-04-06T08:13:40.977Z</time></trkpt><trkpt lat="44.6343383" lon="10.4843367"><ele>159.0</ele><time>2026-04-06T08:13:41.977Z</time></trkpt><trkpt lat="44.6343717" lon="10.4840883"><ele>159.0</ele><time>2026-04-06T08:13:42.977Z</time></trkpt><trkpt lat="44.63441" lon="10.4838233"><ele>158.33333333333334</ele><time>2026-04-06T08:13:43.977Z</time></trkpt><trkpt lat="44.6344483" lon="10.483565"><ele>157.66666666666669</ele><time>2026-04-06T08:13:44.977Z</time></trkpt><trkpt lat="44.63448" lon="10.4833167"><ele>157.0</ele><time>2026-04-06T08:13:45.977Z</time></trkpt><trkpt lat="44.634505" lon="10.48305"><ele>157.66666666666669</ele><time>2026-04-06T08:13:46.978Z</time></trkpt><trkpt lat="44.6345433" lon="10.4827833"><ele>158.33333333333334</ele><time>2026-04-06T08:13:47.977Z</time></trkpt><trkpt lat="44.6345667" lon="10.48251"><ele>159.0</ele><time>2026-04-06T08:13:48.977Z</time></trkpt><trkpt lat="44.634595" lon="10.48225"><ele>159.66666666666666</ele><time>2026-04-06T08:13:49.977Z</time></trkpt><trkpt lat="44.6346233" lon="10.4819867"><ele>160.33333333333331</ele><time>2026-04-06T08:13:50.978Z</time></trkpt><trkpt lat="44.63464" lon="10.481695"><ele>161.0</ele><time>2026-04-06T08:13:51.978Z</time></trkpt><trkpt lat="44.6346633" lon="10.4814083"><ele>161.0</ele><time>2026-04-06T08:13:52.977Z</time></trkpt><trkpt lat="44.6346833" lon="10.48114"><ele>161.0</ele><time>2026-04-06T08:13:53.977Z</time></trkpt><trkpt lat="44.6347033" lon="10.4808767"><ele>161.0</ele><time>2026-04-06T08:13:54.978Z</time></trkpt><trkpt lat="44.6347267" lon="10.4806017"><ele>160.66666666666666</ele><time>2026-04-06T08:13:55.977Z</time></trkpt><trkpt lat="44.63476" lon="10.4803333"><ele>160.33333333333334</ele><time>2026-04-06T08:13:56.977Z</time></trkpt><trkpt lat="44.6348" lon="10.48006"><ele>160.0</ele><time>2026-04-06T08:13:57.977Z</time></trkpt><trkpt lat="44.634835" lon="10.4797883"><ele>159.66666666666669</ele><time>2026-04-06T08:13:58.977Z</time></trkpt><trkpt lat="44.63488" lon="10.4795083"><ele>159.33333333333334</ele><time>2026-04-06T08:13:59.978Z</time></trkpt><trkpt lat="44.634925" lon="10.4792433"><ele>159.0</ele><time>2026-04-06T08:14:00.977Z</time></trkpt><trkpt lat="44.634985" lon="10.4789817"><ele>159.66666666666666</ele><time>2026-04-06T08:14:01.977Z</time></trkpt><trkpt lat="44.635045" lon="10.4787283"><ele>160.33333333333331</ele><time>2026-04-06T08:14:02.977Z</time></trkpt><trkpt lat="44.635095" lon="10.4784817"><ele>161.0</ele><time>2026-04-06T08:14:03.978Z</time></trkpt><trkpt lat="44.6351533" lon="10.4782617"><ele>161.0</ele><time>2026-04-06T08:14:04.978Z</time></trkpt><trkpt lat="44.635215" lon="10.4780583"><ele>161.0</ele><time>2026-04-06T08:14:05.977Z</time></trkpt><trkpt lat="44.635265" lon="10.4778617"><ele>161.0</ele><time>2026-04-06T08:14:06.978Z</time></trkpt><trkpt lat="44.6353133" lon="10.47767"><ele>161.0</ele><time>2026-04-06T08:14:07.978Z</time></trkpt><trkpt lat="44.6353633" lon="10.47748"><ele>161.0</ele><time>2026-04-06T08:14:08.978Z</time></trkpt><trkpt lat="44.6354183" lon="10.4773117"><ele>161.0</ele><time>2026-04-06T08:14:09.978Z</time></trkpt><trkpt lat="44.6354633" lon="10.477155"><ele>161.0</ele><time>2026-04-06T08:14:10.978Z</time></trkpt><trkpt lat="44.6355067" lon="10.477015"><ele>161.0</ele><time>2026-04-06T08:14:11.977Z</time></trkpt><trkpt lat="44.63554" lon="10.4768783"><ele>161.0</ele><time>2026-04-06T08:14:12.977Z</time></trkpt><trkpt lat="44.63558" lon="10.4767633"><ele>161.0</ele><time>2026-04-06T08:14:13.978Z</time></trkpt><trkpt lat="44.6356117" lon="10.4766367"><ele>161.0</ele><time>2026-04-06T08:14:14.977Z</time></trkpt><trkpt lat="44.6356517" lon="10.476515"><ele>161.0</ele><time>2026-04-06T08:14:15.977Z</time></trkpt><trkpt lat="44.6356883" lon="10.476395"><ele>161.0</ele><time>2026-04-06T08:14:16.978Z</time></trkpt><trkpt lat="44.6357133" lon="10.4762767"><ele>161.0</ele><time>2026-04-06T08:14:17.977Z</time></trkpt><trkpt lat="44.6357433" lon="10.4761817"><ele>161.0</ele><time>2026-04-06T08:14:18.977Z</time></trkpt><trkpt lat="44.6357817" lon="10.4760383"><ele>161.0</ele><time>2026-04-06T08:14:20.977Z</time></trkpt><trkpt lat="44.6358033" lon="10.4759533"><ele>161.0</ele><time>2026-04-06T08:14:21.977Z</time></trkpt><trkpt lat="44.6358267" lon="10.475865"><ele>161.0</ele><time>2026-04-06T08:14:22.978Z</time></trkpt><trkpt lat="44.6358583" lon="10.4757767"><ele>161.0</ele><time>2026-04-06T08:14:23.977Z</time></trkpt><trkpt lat="44.6358983" lon="10.475665"><ele>161.0</ele><time>2026-04-06T08:14:24.977Z</time></trkpt><trkpt lat="44.6359383" lon="10.475535"><ele>161.0</ele><time>2026-04-06T08:14:25.977Z</time></trkpt><trkpt lat="44.6359683" lon="10.4753833"><ele>161.0</ele><time>2026-04-06T08:14:26.978Z</time></trkpt><trkpt lat="44.6360017" lon="10.475235"><ele>161.0</ele><time>2026-04-06T08:14:27.977Z</time></trkpt><trkpt lat="44.6360267" lon="10.4750783"><ele>161.0</ele><time>2026-04-06T08:14:28.978Z</time></trkpt><trkpt lat="44.63605" lon="10.474935"><ele>161.0</ele><time>2026-04-06T08:14:29.977Z</time></trkpt><trkpt lat="44.6360783" lon="10.474785"><ele>161.0</ele><time>2026-04-06T08:14:30.977Z</time></trkpt><trkpt lat="44.6361133" lon="10.474645"><ele>161.0</ele><time>2026-04-06T08:14:31.977Z</time></trkpt><trkpt lat="44.6361483" lon="10.47451"><ele>161.0</ele><time>2026-04-06T08:14:32.977Z</time></trkpt><trkpt lat="44.63617" lon="10.4743767"><ele>161.0</ele><time>2026-04-06T08:14:33.977Z</time></trkpt><trkpt lat="44.6361933" lon="10.4742383"><ele>161.0</ele><time>2026-04-06T08:14:34.977Z</time></trkpt><trkpt lat="44.636225" lon="10.4741"><ele>161.0</ele><time>2026-04-06T08:14:35.977Z</time></trkpt><trkpt lat="44.6362533" lon="10.4739667"><ele>161.0</ele><time>2026-04-06T08:14:36.978Z</time></trkpt><trkpt lat="44.636285" lon="10.4738333"><ele>161.0</ele><time>2026-04-06T08:14:37.977Z</time></trkpt><trkpt lat="44.6363067" lon="10.4736867"><ele>161.0</ele><time>2026-04-06T08:14:38.977Z</time></trkpt><trkpt lat="44.63632" lon="10.4735283"><ele>161.0</ele><time>2026-04-06T08:14:39.977Z</time></trkpt><trkpt lat="44.636345" lon="10.4733517"><ele>161.0</ele><time>2026-04-06T08:14:40.978Z</time></trkpt><trkpt lat="44.6363733" lon="10.4731617"><ele>161.0</ele><time>2026-04-06T08:14:41.977Z</time></trkpt><trkpt lat="44.6364017" lon="10.4729733"><ele>161.5</ele><time>2026-04-06T08:14:42.977Z</time></trkpt><trkpt lat="44.6364167" lon="10.47279"><ele>162.0</ele><time>2026-04-06T08:14:43.978Z</time></trkpt><trkpt lat="44.6364183" lon="10.472615"><ele>162.5</ele><time>2026-04-06T08:14:44.977Z</time></trkpt><trkpt lat="44.6364317" lon="10.4724517"><ele>163.0</ele><time>2026-04-06T08:14:45.977Z</time></trkpt><trkpt lat="44.6364367" lon="10.4722833"><ele>163.0</ele><time>2026-04-06T08:14:46.977Z</time></trkpt><trkpt lat="44.6364467" lon="10.4721467"><ele>163.0</ele><time>2026-04-06T08:14:47.977Z</time></trkpt><trkpt lat="44.6364583" lon="10.4720267"><ele>163.0</ele><time>2026-04-06T08:14:48.977Z</time></trkpt><trkpt lat="44.636465" lon="10.4719117"><ele>163.0</ele><time>2026-04-06T08:14:49.977Z</time></trkpt><trkpt lat="44.63648" lon="10.4718167"><ele>163.0</ele><time>2026-04-06T08:14:50.978Z</time></trkpt><trkpt lat="44.6364833" lon="10.47167"><ele>163.0</ele><time>2026-04-06T08:14:52.977Z</time></trkpt><trkpt lat="44.6365017" lon="10.471575"><ele>163.0</ele><time>2026-04-06T08:14:54.977Z</time></trkpt><trkpt lat="44.636525" lon="10.471475"><ele>163.0</ele><time>2026-04-06T08:14:56.977Z</time></trkpt><trkpt lat="44.6364883" lon="10.4713733"><ele>163.0</ele><time>2026-04-06T08:14:59.977Z</time></trkpt><trkpt lat="44.636415" lon="10.471345"><ele>163.0</ele><time>2026-04-06T08:15:01.977Z</time></trkpt><trkpt lat="44.6363017" lon="10.47127"><ele>163.0</ele><time>2026-04-06T08:15:03.978Z</time></trkpt><trkpt lat="44.63624" lon="10.4712067"><ele>163.0</ele><time>2026-04-06T08:15:04.977Z</time></trkpt><trkpt lat="44.636165" lon="10.4711383"><ele>163.75</ele><time>2026-04-06T08:15:05.977Z</time></trkpt><trkpt lat="44.6360783" lon="10.4710717"><ele>164.5</ele><time>2026-04-06T08:15:06.978Z</time></trkpt><trkpt lat="44.635995" lon="10.4709817"><ele>165.25</ele><time>2026-04-06T08:15:07.977Z</time></trkpt><trkpt lat="44.635895" lon="10.47089"><ele>166.0</ele><time>2026-04-06T08:15:08.977Z</time></trkpt><trkpt lat="44.6358" lon="10.4707667"><ele>166.0</ele><time>2026-04-06T08:15:09.977Z</time></trkpt><trkpt lat="44.63569" lon="10.4706567"><ele>166.0</ele><time>2026-04-06T08:15:10.977Z</time></trkpt><trkpt lat="44.6355817" lon="10.4705367"><ele>166.0</ele><time>2026-04-06T08:15:11.977Z</time></trkpt><trkpt lat="44.6354733" lon="10.4704117"><ele>166.0</ele><time>2026-04-06T08:15:12.977Z</time></trkpt><trkpt lat="44.635355" lon="10.4702917"><ele>167.0</ele><time>2026-04-06T08:15:13.977Z</time></trkpt><trkpt lat="44.6352383" lon="10.470165"><ele>168.0</ele><time>2026-04-06T08:15:14.977Z</time></trkpt><trkpt lat="44.6351317" lon="10.4700633"><ele>169.0</ele><time>2026-04-06T08:15:15.977Z</time></trkpt><trkpt lat="44.63503" lon="10.4699683"><ele>170.0</ele><time>2026-04-06T08:15:16.977Z</time></trkpt><trkpt lat="44.6349333" lon="10.4698833"><ele>170.0</ele><time>2026-04-06T08:15:17.977Z</time></trkpt><trkpt lat="44.634845" lon="10.4698167"><ele>170.0</ele><time>2026-04-06T08:15:18.978Z</time></trkpt><trkpt lat="44.6347483" lon="10.4697783"><ele>170.0</ele><time>2026-04-06T08:15:19.977Z</time></trkpt><trkpt lat="44.6346433" lon="10.4697667"><ele>170.0</ele><time>2026-04-06T08:15:20.977Z</time></trkpt><trkpt lat="44.6345283" lon="10.4697967"><ele>170.0</ele><time>2026-04-06T08:15:21.978Z</time></trkpt><trkpt lat="44.6344117" lon="10.46985"><ele>170.5</ele><time>2026-04-06T08:15:22.977Z</time></trkpt><trkpt lat="44.6342917" lon="10.4699117"><ele>171.0</ele><time>2026-04-06T08:15:23.978Z</time></trkpt><trkpt lat="44.6341733" lon="10.4699567"><ele>171.5</ele><time>2026-04-06T08:15:24.978Z</time></trkpt><trkpt lat="44.63405" lon="10.4699633"><ele>172.0</ele><time>2026-04-06T08:15:25.978Z</time></trkpt><trkpt lat="44.6339233" lon="10.4699467"><ele>172.0</ele><time>2026-04-06T08:15:26.977Z</time></trkpt><trkpt lat="44.6338033" lon="10.469925"><ele>172.0</ele><time>2026-04-06T08:15:27.978Z</time></trkpt><trkpt lat="44.633685" lon="10.4699033"><ele>172.0</ele><time>2026-04-06T08:15:28.977Z</time></trkpt><trkpt lat="44.6335817" lon="10.469895"><ele>172.0</ele><time>2026-04-06T08:15:29.977Z</time></trkpt><trkpt lat="44.6334717" lon="10.4699267"><ele>172.75</ele><time>2026-04-06T08:15:30.977Z</time></trkpt><trkpt lat="44.633365" lon="10.4699917"><ele>173.5</ele><time>2026-04-06T08:15:31.977Z</time></trkpt><trkpt lat="44.63326" lon="10.470075"><ele>174.25</ele><time>2026-04-06T08:15:32.977Z</time></trkpt><trkpt lat="44.6331483" lon="10.470165"><ele>175.0</ele><time>2026-04-06T08:15:33.977Z</time></trkpt><trkpt lat="44.6330317" lon="10.4702483"><ele>175.0</ele><time>2026-04-06T08:15:34.977Z</time></trkpt><trkpt lat="44.632925" lon="10.47032"><ele>175.0</ele><time>2026-04-06T08:15:35.978Z</time></trkpt><trkpt lat="44.632815" lon="10.4703983"><ele>175.0</ele><time>2026-04-06T08:15:36.977Z</time></trkpt><trkpt lat="44.63271" lon="10.4704767"><ele>175.0</ele><time>2026-04-06T08:15:37.977Z</time></trkpt><trkpt lat="44.6326067" lon="10.470555"><ele>176.4</ele><time>2026-04-06T08:15:38.977Z</time></trkpt><trkpt lat="44.6325067" lon="10.4706283"><ele>177.8</ele><time>2026-04-06T08:15:39.977Z</time></trkpt><trkpt lat="44.6324083" lon="10.470695"><ele>179.2</ele><time>2026-04-06T08:15:40.977Z</time></trkpt><trkpt lat="44.6323133" lon="10.4707617"><ele>180.6</ele><time>2026-04-06T08:15:41.977Z</time></trkpt><trkpt lat="44.63222" lon="10.4708267"><ele>182.0</ele><time>2026-04-06T08:15:42.977Z</time></trkpt><trkpt lat="44.6321233" lon="10.4708883"><ele>182.0</ele><time>2026-04-06T08:15:43.977Z</time></trkpt><trkpt lat="44.63203" lon="10.4709483"><ele>182.0</ele><time>2026-04-06T08:15:44.978Z</time></trkpt><trkpt lat="44.631935" lon="10.471"><ele>182.0</ele><time>2026-04-06T08:15:45.977Z</time></trkpt><trkpt lat="44.6318467" lon="10.47107"><ele>182.0</ele><time>2026-04-06T08:15:46.977Z</time></trkpt><trkpt lat="44.6317433" lon="10.4711567"><ele>182.0</ele><time>2026-04-06T08:15:47.977Z</time></trkpt><trkpt lat="44.631645" lon="10.4712417"><ele>183.5</ele><time>2026-04-06T08:15:48.977Z</time></trkpt><trkpt lat="44.6315417" lon="10.4713433"><ele>185.0</ele><time>2026-04-06T08:15:49.978Z</time></trkpt><trkpt lat="44.6314333" lon="10.4714417"><ele>186.5</ele><time>2026-04-06T08:15:50.977Z</time></trkpt><trkpt lat="44.6313267" lon="10.47155"><ele>188.0</ele><time>2026-04-06T08:15:51.977Z</time></trkpt><trkpt lat="44.6312133" lon="10.4716767"><ele>189.5</ele><time>2026-04-06T08:15:52.977Z</time></trkpt><trkpt lat="44.631105" lon="10.4718033"><ele>191.0</ele><time>2026-04-06T08:15:53.977Z</time></trkpt><trkpt lat="44.6309917" lon="10.47192"><ele>192.5</ele><time>2026-04-06T08:15:54.977Z</time></trkpt><trkpt lat="44.6308733" lon="10.47201"><ele>194.0</ele><time>2026-04-06T08:15:55.977Z</time></trkpt><trkpt lat="44.63074" lon="10.4720633"><ele>194.0</ele><time>2026-04-06T08:15:56.977Z</time></trkpt><trkpt lat="44.6305933" lon="10.472105"><ele>194.0</ele><time>2026-04-06T08:15:57.977Z</time></trkpt><trkpt lat="44.6304467" lon="10.4721183"><ele>194.0</ele><time>2026-04-06T08:15:58.977Z</time></trkpt><trkpt lat="44.630295" lon="10.4721267"><ele>194.0</ele><time>2026-04-06T08:15:59.978Z</time></trkpt><trkpt lat="44.6301467" lon="10.47214"><ele>198.0</ele><time>2026-04-06T08:16:00.977Z</time></trkpt><trkpt lat="44.6300133" lon="10.4721433"><ele>202.0</ele><time>2026-04-06T08:16:01.977Z</time></trkpt><trkpt lat="44.6299" lon="10.472175"><ele>206.0</ele><time>2026-04-06T08:16:02.977Z</time></trkpt><trkpt lat="44.6298017" lon="10.4722583"><ele>210.0</ele><time>2026-04-06T08:16:03.977Z</time></trkpt><trkpt lat="44.629735" lon="10.472395"><ele>210.0</ele><time>2026-04-06T08:16:04.977Z</time></trkpt><trkpt lat="44.6297" lon="10.4725783"><ele>210.0</ele><time>2026-04-06T08:16:05.978Z</time></trkpt><trkpt lat="44.6296717" lon="10.4727867"><ele>210.0</ele><time>2026-04-06T08:16:06.977Z</time></trkpt><trkpt lat="44.6296333" lon="10.47299"><ele>210.0</ele><time>2026-04-06T08:16:07.977Z</time></trkpt><trkpt lat="44.629585" lon="10.4731967"><ele>209.25</ele><time>2026-04-06T08:16:08.978Z</time></trkpt><trkpt lat="44.6295367" lon="10.4733967"><ele>208.5</ele><time>2026-04-06T08:16:09.978Z</time></trkpt><trkpt lat="44.62949" lon="10.4735917"><ele>207.75</ele><time>2026-04-06T08:16:10.978Z</time></trkpt><trkpt lat="44.6294533" lon="10.4737783"><ele>207.0</ele><time>2026-04-06T08:16:11.978Z</time></trkpt><trkpt lat="44.6294133" lon="10.47394"><ele>213.5</ele><time>2026-04-06T08:16:12.978Z</time></trkpt><trkpt lat="44.6293617" lon="10.4740767"><ele>220.0</ele><time>2026-04-06T08:16:13.978Z</time></trkpt><trkpt lat="44.6292717" lon="10.4741833"><ele>226.5</ele><time>2026-04-06T08:16:14.977Z</time></trkpt><trkpt lat="44.6291567" lon="10.4742517"><ele>233.0</ele><time>2026-04-06T08:16:15.978Z</time></trkpt><trkpt lat="44.6290267" lon="10.4742717"><ele>233.0</ele><time>2026-04-06T08:16:16.977Z</time></trkpt><trkpt lat="44.628875" lon="10.4742567"><ele>233.0</ele><time>2026-04-06T08:16:17.978Z</time></trkpt><trkpt lat="44.6287167" lon="10.4742083"><ele>233.0</ele><time>2026-04-06T08:16:18.977Z</time></trkpt><trkpt lat="44.6285617" lon="10.4741883"><ele>235.25</ele><time>2026-04-06T08:16:19.977Z</time></trkpt><trkpt lat="44.6284167" lon="10.4741567"><ele>237.5</ele><time>2026-04-06T08:16:20.978Z</time></trkpt><trkpt lat="44.6282717" lon="10.4741167"><ele>239.75</ele><time>2026-04-06T08:16:21.977Z</time></trkpt><trkpt lat="44.628125" lon="10.47408"><ele>242.0</ele><time>2026-04-06T08:16:22.978Z</time></trkpt><trkpt lat="44.627965" lon="10.47402"><ele>240.0</ele><time>2026-04-06T08:16:23.977Z</time></trkpt><trkpt lat="44.6278067" lon="10.4739517"><ele>238.0</ele><time>2026-04-06T08:16:24.977Z</time></trkpt><trkpt lat="44.6276483" lon="10.4738717"><ele>236.0</ele><time>2026-04-06T08:16:25.977Z</time></trkpt><trkpt lat="44.6274917" lon="10.47378"><ele>244.33333333333334</ele><time>2026-04-06T08:16:26.977Z</time></trkpt><trkpt lat="44.6273483" lon="10.4736917"><ele>252.66666666666669</ele><time>2026-04-06T08:16:27.977Z</time></trkpt><trkpt lat="44.6272083" lon="10.473615"><ele>261.0</ele><time>2026-04-06T08:16:28.977Z</time></trkpt><trkpt lat="44.62707" lon="10.473545"><ele>261.6666666666667</ele><time>2026-04-06T08:16:29.978Z</time></trkpt><trkpt lat="44.626915" lon="10.4735233"><ele>262.33333333333337</ele><time>2026-04-06T08:16:30.978Z</time></trkpt><trkpt lat="44.6267617" lon="10.473535"><ele>263.0</ele><time>2026-04-06T08:16:31.978Z</time></trkpt><trkpt lat="44.6266017" lon="10.473565"><ele>263.0</ele><time>2026-04-06T08:16:32.977Z</time></trkpt><trkpt lat="44.626445" lon="10.4735867"><ele>263.0</ele><time>2026-04-06T08:16:33.977Z</time></trkpt><trkpt lat="44.62628" lon="10.4736033"><ele>263.0</ele><time>2026-04-06T08:16:34.977Z</time></trkpt><trkpt lat="44.62611" lon="10.473615"><ele>264.33333333333337</ele><time>2026-04-06T08:16:35.978Z</time></trkpt><trkpt lat="44.6259433" lon="10.4736267"><ele>265.6666666666667</ele><time>2026-04-06T08:16:36.977Z</time></trkpt><trkpt lat="44.625765" lon="10.4736283"><ele>267.0</ele><time>2026-04-06T08:16:37.977Z</time></trkpt><trkpt lat="44.625585" lon="10.4736283"><ele>267.0</ele><time>2026-04-06T08:16:38.977Z</time></trkpt><trkpt lat="44.625415" lon="10.4736317"><ele>267.0</ele><time>2026-04-06T08:16:39.977Z</time></trkpt><trkpt lat="44.625235" lon="10.4736383"><ele>267.0</ele><time>2026-04-06T08:16:40.977Z</time></trkpt><trkpt lat="44.6250517" lon="10.47364"><ele>269.6666666666667</ele><time>2026-04-06T08:16:41.977Z</time></trkpt><trkpt lat="44.6248733" lon="10.4736467"><ele>272.33333333333337</ele><time>2026-04-06T08:16:42.977Z</time></trkpt><trkpt lat="44.624695" lon="10.4736583"><ele>275.0</ele><time>2026-04-06T08:16:43.977Z</time></trkpt><trkpt lat="44.624525" lon="10.473665"><ele>277.0</ele><time>2026-04-06T08:16:44.977Z</time></trkpt><trkpt lat="44.6243517" lon="10.4736617"><ele>279.0</ele><time>2026-04-06T08:16:45.977Z</time></trkpt><trkpt lat="44.6241833" lon="10.4736583"><ele>281.0</ele><time>2026-04-06T08:16:46.977Z</time></trkpt><trkpt lat="44.624015" lon="10.47366"><ele>281.0</ele><time>2026-04-06T08:16:47.977Z</time></trkpt><trkpt lat="44.6238567" lon="10.4736683"><ele>281.0</ele><time>2026-04-06T08:16:48.978Z</time></trkpt><trkpt lat="44.623715" lon="10.473675"><ele>281.0</ele><time>2026-04-06T08:16:49.978Z</time></trkpt><trkpt lat="44.6235983" lon="10.4736833"><ele>281.0</ele><time>2026-04-06T08:16:50.977Z</time></trkpt><trkpt lat="44.6234867" lon="10.473685"><ele>281.8</ele><time>2026-04-06T08:16:51.977Z</time></trkpt><trkpt lat="44.62338" lon="10.4736867"><ele>282.6</ele><time>2026-04-06T08:16:52.977Z</time></trkpt><trkpt lat="44.62328" lon="10.4736933"><ele>283.4</ele><time>2026-04-06T08:16:53.978Z</time></trkpt><trkpt lat="44.6231767" lon="10.4736967"><ele>284.2</ele><time>2026-04-06T08:16:54.977Z</time></trkpt><trkpt lat="44.6230733" lon="10.4737017"><ele>285.0</ele><time>2026-04-06T08:16:55.977Z</time></trkpt><trkpt lat="44.622975" lon="10.4737017"><ele>285.0</ele><time>2026-04-06T08:16:56.977Z</time></trkpt><trkpt lat="44.6228783" lon="10.4736967"><ele>285.0</ele><time>2026-04-06T08:16:57.978Z</time></trkpt><trkpt lat="44.62277" lon="10.473685"><ele>285.0</ele><time>2026-04-06T08:16:58.977Z</time></trkpt><trkpt lat="44.6226717" lon="10.4736633"><ele>285.0</ele><time>2026-04-06T08:16:59.977Z</time></trkpt><trkpt lat="44.6225717" lon="10.47362"><ele>285.0</ele><time>2026-04-06T08:17:00.978Z</time></trkpt><trkpt lat="44.6224833" lon="10.4735617"><ele>287.5</ele><time>2026-04-06T08:17:01.977Z</time></trkpt><trkpt lat="44.6223983" lon="10.47349"><ele>290.0</ele><time>2026-04-06T08:17:02.977Z</time></trkpt><trkpt lat="44.6223017" lon="10.473435"><ele>292.5</ele><time>2026-04-06T08:17:03.977Z</time></trkpt><trkpt lat="44.6222167" lon="10.4734083"><ele>295.0</ele><time>2026-04-06T08:17:04.978Z</time></trkpt><trkpt lat="44.6221417" lon="10.4734117"><ele>297.5</ele><time>2026-04-06T08:17:05.977Z</time></trkpt><trkpt lat="44.6220667" lon="10.4734233"><ele>300.0</ele><time>2026-04-06T08:17:06.978Z</time></trkpt><trkpt lat="44.621945" lon="10.4734367"><ele>300.0</ele><time>2026-04-06T08:17:08.977Z</time></trkpt><trkpt lat="44.6218467" lon="10.4733667"><ele>300.0</ele><time>2026-04-06T08:17:10.977Z</time></trkpt><trkpt lat="44.6218683" lon="10.4732467"><ele>300.0</ele><time>2026-04-06T08:17:12.977Z</time></trkpt><trkpt lat="44.6220017" lon="10.4731917"><ele>300.0</ele><time>2026-04-06T08:17:14.977Z</time></trkpt><trkpt lat="44.6220867" lon="10.47316"><ele>300.0</ele><time>2026-04-06T08:17:15.977Z</time></trkpt><trkpt lat="44.622155" lon="10.4731033"><ele>300.0</ele><time>2026-04-06T08:17:16.977Z</time></trkpt><trkpt lat="44.6221833" lon="10.47298"><ele>300.0</ele><time>2026-04-06T08:17:18.977Z</time></trkpt><trkpt lat="44.6220633" lon="10.4729217"><ele>300.0</ele><time>2026-04-06T08:17:20.977Z</time></trkpt><trkpt lat="44.62197" lon="10.47295"><ele>300.0</ele><time>2026-04-06T08:17:21.978Z</time></trkpt><trkpt lat="44.6218783" lon="10.4729817"><ele>300.0</ele><time>2026-04-06T08:17:22.978Z</time></trkpt><trkpt lat="44.6217933" lon="10.473005"><ele>302.3333333333333</ele><time>2026-04-06T08:17:23.977Z</time></trkpt><trkpt lat="44.6217117" lon="10.4730183"><ele>304.6666666666667</ele><time>2026-04-06T08:17:24.977Z</time></trkpt><trkpt lat="44.6216333" lon="10.4730117"><ele>307.0</ele><time>2026-04-06T08:17:25.978Z</time></trkpt><trkpt lat="44.6215517" lon="10.473"><ele>309.33333333333337</ele><time>2026-04-06T08:17:26.977Z</time></trkpt><trkpt lat="44.6214717" lon="10.4729867"><ele>311.6666666666667</ele><time>2026-04-06T08:17:27.977Z</time></trkpt><trkpt lat="44.6213833" lon="10.4729783"><ele>314.0</ele><time>2026-04-06T08:17:28.977Z</time></trkpt><trkpt lat="44.6212917" lon="10.4729883"><ele>314.0</ele><time>2026-04-06T08:17:29.977Z</time></trkpt><trkpt lat="44.6212083" lon="10.4730317"><ele>314.0</ele><time>2026-04-06T08:17:30.977Z</time></trkpt><trkpt lat="44.6211333" lon="10.4731033"><ele>314.0</ele><time>2026-04-06T08:17:31.978Z</time></trkpt><trkpt lat="44.6210733" lon="10.4732067"><ele>314.0</ele><time>2026-04-06T08:17:32.977Z</time></trkpt><trkpt lat="44.621015" lon="10.4733167"><ele>314.0</ele><time>2026-04-06T08:17:33.977Z</time></trkpt><trkpt lat="44.6209517" lon="10.4734217"><ele>317.1666666666667</ele><time>2026-04-06T08:17:34.977Z</time></trkpt><trkpt lat="44.620885" lon="10.4735283"><ele>320.33333333333337</ele><time>2026-04-06T08:17:35.978Z</time></trkpt><trkpt lat="44.6208183" lon="10.4736133"><ele>323.5</ele><time>2026-04-06T08:17:36.978Z</time></trkpt><trkpt lat="44.6207467" lon="10.4736833"><ele>326.6666666666667</ele><time>2026-04-06T08:17:37.977Z</time></trkpt><trkpt lat="44.620665" lon="10.4737267"><ele>329.8333333333333</ele><time>2026-04-06T08:17:38.977Z</time></trkpt><trkpt lat="44.620585" lon="10.4737417"><ele>333.0</ele><time>2026-04-06T08:17:39.977Z</time></trkpt><trkpt lat="44.62051" lon="10.4736983"><ele>333.0</ele><time>2026-04-06T08:17:40.978Z</time></trkpt><trkpt lat="44.6204533" lon="10.4736217"><ele>333.0</ele><time>2026-04-06T08:17:41.977Z</time></trkpt><trkpt lat="44.6204083" lon="10.47351"><ele>333.0</ele><time>2026-04-06T08:17:42.977Z</time></trkpt><trkpt lat="44.6203733" lon="10.473375"><ele>333.0</ele><time>2026-04-06T08:17:43.977Z</time></trkpt><trkpt lat="44.6203433" lon="10.4732217"><ele>333.0</ele><time>2026-04-06T08:17:44.978Z</time></trkpt><trkpt lat="44.62031" lon="10.47307"><ele>336.0</ele><time>2026-04-06T08:17:45.977Z</time></trkpt><trkpt lat="44.6202717" lon="10.472935"><ele>339.0</ele><time>2026-04-06T08:17:46.978Z</time></trkpt><trkpt lat="44.620225" lon="10.4728067"><ele>342.0</ele><time>2026-04-06T08:17:47.977Z</time></trkpt><trkpt lat="44.6201717" lon="10.4726867"><ele>345.0</ele><time>2026-04-06T08:17:48.977Z</time></trkpt><trkpt lat="44.6201217" lon="10.472575"><ele>348.0</ele><time>2026-04-06T08:17:49.977Z</time></trkpt><trkpt lat="44.6200517" lon="10.4724783"><ele>348.0</ele><time>2026-04-06T08:17:50.977Z</time></trkpt><trkpt lat="44.6199667" lon="10.472405"><ele>348.0</ele><time>2026-04-06T08:17:51.977Z</time></trkpt><trkpt lat="44.619885" lon="10.472345"><ele>348.0</ele><time>2026-04-06T08:17:52.977Z</time></trkpt><trkpt lat="44.6198067" lon="10.472305"><ele>348.0</ele><time>2026-04-06T08:17:53.977Z</time></trkpt><trkpt lat="44.6197317" lon="10.4722533"><ele>348.0</ele><time>2026-04-06T08:17:54.978Z</time></trkpt><trkpt lat="44.61966" lon="10.4722083"><ele>348.0</ele><time>2026-04-06T08:17:55.978Z</time></trkpt><trkpt lat="44.61958" lon="10.4721633"><ele>348.0</ele><time>2026-04-06T08:17:56.977Z</time></trkpt><trkpt lat="44.6195083" lon="10.47211"><ele>348.0</ele><time>2026-04-06T08:17:57.978Z</time></trkpt><trkpt lat="44.6194433" lon="10.4720533"><ele>348.0</ele><time>2026-04-06T08:17:58.977Z</time></trkpt><trkpt lat="44.619385" lon="10.47197"><ele>348.0</ele><time>2026-04-06T08:17:59.977Z</time></trkpt><trkpt lat="44.619335" lon="10.4718883"><ele>348.0</ele><time>2026-04-06T08:18:00.977Z</time></trkpt><trkpt lat="44.6192917" lon="10.47178"><ele>348.0</ele><time>2026-04-06T08:18:01.977Z</time></trkpt><trkpt lat="44.6192733" lon="10.471645"><ele>350.0</ele><time>2026-04-06T08:18:02.977Z</time></trkpt><trkpt lat="44.619275" lon="10.471505"><ele>352.0</ele><time>2026-04-06T08:18:03.977Z</time></trkpt><trkpt lat="44.6192817" lon="10.4713733"><ele>354.0</ele><time>2026-04-06T08:18:04.977Z</time></trkpt><trkpt lat="44.619285" lon="10.4712467"><ele>356.0</ele><time>2026-04-06T08:18:05.977Z</time></trkpt><trkpt lat="44.6193" lon="10.4711217"><ele>358.0</ele><time>2026-04-06T08:18:06.977Z</time></trkpt><trkpt lat="44.6193167" lon="10.470985"><ele>359.4</ele><time>2026-04-06T08:18:07.977Z</time></trkpt><trkpt lat="44.619345" lon="10.4708467"><ele>360.79999999999995</ele><time>2026-04-06T08:18:08.977Z</time></trkpt><trkpt lat="44.6193783" lon="10.47071"><ele>362.2</ele><time>2026-04-06T08:18:09.978Z</time></trkpt><trkpt lat="44.6194167" lon="10.4705767"><ele>363.6</ele><time>2026-04-06T08:18:10.977Z</time></trkpt><trkpt lat="44.61945" lon="10.470445"><ele>365.0</ele><time>2026-04-06T08:18:11.978Z</time></trkpt><trkpt lat="44.619485" lon="10.4703283"><ele>366.0</ele><time>2026-04-06T08:18:12.977Z</time></trkpt><trkpt lat="44.6195017" lon="10.470205"><ele>367.0</ele><time>2026-04-06T08:18:13.977Z</time></trkpt><trkpt lat="44.619495" lon="10.4700783"><ele>368.0</ele><time>2026-04-06T08:18:14.977Z</time></trkpt><trkpt lat="44.6194617" lon="10.4699617"><ele>369.0</ele><time>2026-04-06T08:18:15.978Z</time></trkpt><trkpt lat="44.619405" lon="10.46985"><ele>370.0</ele><time>2026-04-06T08:18:16.977Z</time></trkpt><trkpt lat="44.61933" lon="10.4697533"><ele>370.0</ele><time>2026-04-06T08:18:17.977Z</time></trkpt><trkpt lat="44.619245" lon="10.4696733"><ele>370.0</ele><time>2026-04-06T08:18:18.978Z</time></trkpt><trkpt lat="44.619155" lon="10.469595"><ele>370.0</ele><time>2026-04-06T08:18:19.977Z</time></trkpt><trkpt lat="44.619065" lon="10.4695267"><ele>370.0</ele><time>2026-04-06T08:18:20.977Z</time></trkpt><trkpt lat="44.618975" lon="10.4694467"><ele>370.0</ele><time>2026-04-06T08:18:21.977Z</time></trkpt><trkpt lat="44.6188933" lon="10.4693533"><ele>369.4</ele><time>2026-04-06T08:18:22.977Z</time></trkpt><trkpt lat="44.6188217" lon="10.46924"><ele>368.8</ele><time>2026-04-06T08:18:23.978Z</time></trkpt><trkpt lat="44.61876" lon="10.469105"><ele>368.20000000000005</ele><time>2026-04-06T08:18:24.978Z</time></trkpt><trkpt lat="44.6187067" lon="10.4689733"><ele>367.6</ele><time>2026-04-06T08:18:25.977Z</time></trkpt><trkpt lat="44.618665" lon="10.4688433"><ele>367.0</ele><time>2026-04-06T08:18:26.977Z</time></trkpt><trkpt lat="44.6186283" lon="10.4687217"><ele>369.20000000000005</ele><time>2026-04-06T08:18:27.977Z</time></trkpt><trkpt lat="44.6185967" lon="10.4686"><ele>371.4</ele><time>2026-04-06T08:18:28.977Z</time></trkpt><trkpt lat="44.6185717" lon="10.46847"><ele>373.6</ele><time>2026-04-06T08:18:29.977Z</time></trkpt><trkpt lat="44.6185583" lon="10.4683383"><ele>375.79999999999995</ele><time>2026-04-06T08:18:30.978Z</time></trkpt><trkpt lat="44.6185533" lon="10.4682"><ele>378.0</ele><time>2026-04-06T08:18:31.977Z</time></trkpt><trkpt lat="44.618555" lon="10.468075"><ele>378.0</ele><time>2026-04-06T08:18:32.978Z</time></trkpt><trkpt lat="44.61856" lon="10.467945"><ele>378.0</ele><time>2026-04-06T08:18:33.977Z</time></trkpt><trkpt lat="44.6185667" lon="10.4678267"><ele>378.0</ele><time>2026-04-06T08:18:34.978Z</time></trkpt><trkpt lat="44.618555" lon="10.467695"><ele>378.0</ele><time>2026-04-06T08:18:35.978Z</time></trkpt><trkpt lat="44.6185267" lon="10.4675533"><ele>378.0</ele><time>2026-04-06T08:18:36.977Z</time></trkpt><trkpt lat="44.61848" lon="10.4674233"><ele>377.59999999999997</ele><time>2026-04-06T08:18:37.977Z</time></trkpt><trkpt lat="44.6184183" lon="10.4673067"><ele>377.2</ele><time>2026-04-06T08:18:38.978Z</time></trkpt><trkpt lat="44.6183483" lon="10.46719"><ele>376.8</ele><time>2026-04-06T08:18:39.977Z</time></trkpt><trkpt lat="44.6182867" lon="10.4670667"><ele>376.4</ele><time>2026-04-06T08:18:40.977Z</time></trkpt><trkpt lat="44.6182267" lon="10.4669417"><ele>376.0</ele><time>2026-04-06T08:18:41.977Z</time></trkpt><trkpt lat="44.6181817" lon="10.4668033"><ele>374.6</ele><time>2026-04-06T08:18:42.978Z</time></trkpt><trkpt lat="44.618135" lon="10.4666717"><ele>373.20000000000005</ele><time>2026-04-06T08:18:43.977Z</time></trkpt><trkpt lat="44.618085" lon="10.4665467"><ele>371.79999999999995</ele><time>2026-04-06T08:18:44.977Z</time></trkpt><trkpt lat="44.618045" lon="10.4664217"><ele>370.4</ele><time>2026-04-06T08:18:45.977Z</time></trkpt><trkpt lat="44.6180017" lon="10.4662967"><ele>369.0</ele><time>2026-04-06T08:18:46.977Z</time></trkpt><trkpt lat="44.617955" lon="10.4661667"><ele>368.2</ele><time>2026-04-06T08:18:47.977Z</time></trkpt><trkpt lat="44.61793" lon="10.4660217"><ele>367.4</ele><time>2026-04-06T08:18:48.977Z</time></trkpt><trkpt lat="44.617915" lon="10.4658767"><ele>366.6</ele><time>2026-04-06T08:18:49.977Z</time></trkpt><trkpt lat="44.6179217" lon="10.4657383"><ele>365.8</ele><time>2026-04-06T08:18:50.977Z</time></trkpt><trkpt lat="44.617945" lon="10.4655967"><ele>365.0</ele><time>2026-04-06T08:18:51.978Z</time></trkpt><trkpt lat="44.61797" lon="10.4654617"><ele>364.25</ele><time>2026-04-06T08:18:52.977Z</time></trkpt><trkpt lat="44.6179917" lon="10.4653117"><ele>363.5</ele><time>2026-04-06T08:18:53.978Z</time></trkpt><trkpt lat="44.61798" lon="10.46516"><ele>362.75</ele><time>2026-04-06T08:18:54.977Z</time></trkpt><trkpt lat="44.6179383" lon="10.4649983"><ele>362.0</ele><time>2026-04-06T08:18:55.977Z</time></trkpt><trkpt lat="44.6178867" lon="10.4648417"><ele>362.0</ele><time>2026-04-06T08:18:56.977Z</time></trkpt><trkpt lat="44.6178383" lon="10.464685"><ele>362.0</ele><time>2026-04-06T08:18:57.977Z</time></trkpt><trkpt lat="44.61779" lon="10.4645283"><ele>362.0</ele><time>2026-04-06T08:18:58.977Z</time></trkpt><trkpt lat="44.6177333" lon="10.46437"><ele>362.0</ele><time>2026-04-06T08:18:59.977Z</time></trkpt><trkpt lat="44.6176717" lon="10.4642033"><ele>365.6666666666667</ele><time>2026-04-06T08:19:00.977Z</time></trkpt><trkpt lat="44.6175917" lon="10.463975"><ele>369.3333333333333</ele><time>2026-04-06T08:19:01.977Z</time></trkpt><trkpt lat="44.617525" lon="10.4637383"><ele>373.0</ele><time>2026-04-06T08:19:02.977Z</time></trkpt><trkpt lat="44.617465" lon="10.46351"><ele>373.0</ele><time>2026-04-06T08:19:03.977Z</time></trkpt><trkpt lat="44.6174033" lon="10.4633117"><ele>373.0</ele><time>2026-04-06T08:19:04.977Z</time></trkpt><trkpt lat="44.6173167" lon="10.4631317"><ele>373.0</ele><time>2026-04-06T08:19:05.977Z</time></trkpt><trkpt lat="44.6172233" lon="10.46297"><ele>372.66666666666663</ele><time>2026-04-06T08:19:06.977Z</time></trkpt><trkpt lat="44.6171" lon="10.4628117"><ele>372.3333333333333</ele><time>2026-04-06T08:19:07.977Z</time></trkpt><trkpt lat="44.616975" lon="10.462665"><ele>372.0</ele><time>2026-04-06T08:19:08.977Z</time></trkpt><trkpt lat="44.61686" lon="10.462505"><ele>372.0</ele><time>2026-04-06T08:19:09.978Z</time></trkpt><trkpt lat="44.61675" lon="10.4623567"><ele>372.0</ele><time>2026-04-06T08:19:10.977Z</time></trkpt><trkpt lat="44.616645" lon="10.4622133"><ele>372.0</ele><time>2026-04-06T08:19:11.977Z</time></trkpt><trkpt lat="44.6165483" lon="10.4620567"><ele>372.0</ele><time>2026-04-06T08:19:12.978Z</time></trkpt><trkpt lat="44.6164683" lon="10.461885"><ele>370.5</ele><time>2026-04-06T08:19:13.977Z</time></trkpt><trkpt lat="44.6163983" lon="10.46171"><ele>369.0</ele><time>2026-04-06T08:19:14.977Z</time></trkpt><trkpt lat="44.6163283" lon="10.4615517"><ele>367.5</ele><time>2026-04-06T08:19:15.978Z</time></trkpt><trkpt lat="44.61626" lon="10.4614033"><ele>366.0</ele><time>2026-04-06T08:19:16.977Z</time></trkpt><trkpt lat="44.6161917" lon="10.4612817"><ele>367.6</ele><time>2026-04-06T08:19:17.978Z</time></trkpt><trkpt lat="44.6161" lon="10.4611783"><ele>369.20000000000005</ele><time>2026-04-06T08:19:18.977Z</time></trkpt><trkpt lat="44.6159967" lon="10.4611133"><ele>370.79999999999995</ele><time>2026-04-06T08:19:19.977Z</time></trkpt><trkpt lat="44.6158967" lon="10.461065"><ele>372.4</ele><time>2026-04-06T08:19:20.978Z</time></trkpt><trkpt lat="44.6157933" lon="10.46102"><ele>374.0</ele><time>2026-04-06T08:19:21.977Z</time></trkpt><trkpt lat="44.6156967" lon="10.4609867"><ele>374.0</ele><time>2026-04-06T08:19:22.977Z</time></trkpt><trkpt lat="44.61561" lon="10.460965"><ele>374.0</ele><time>2026-04-06T08:19:23.978Z</time></trkpt><trkpt lat="44.6155367" lon="10.4609433"><ele>374.0</ele><time>2026-04-06T08:19:24.977Z</time></trkpt><trkpt lat="44.6154767" lon="10.46087"><ele>374.0</ele><time>2026-04-06T08:19:25.977Z</time></trkpt><trkpt lat="44.6154333" lon="10.460775"><ele>374.0</ele><time>2026-04-06T08:19:26.977Z</time></trkpt><trkpt lat="44.6154233" lon="10.4606533"><ele>374.0</ele><time>2026-04-06T08:19:27.977Z</time></trkpt><trkpt lat="44.61543" lon="10.4605133"><ele>371.6</ele><time>2026-04-06T08:19:28.977Z</time></trkpt><trkpt lat="44.6154417" lon="10.4603667"><ele>369.2</ele><time>2026-04-06T08:19:29.978Z</time></trkpt><trkpt lat="44.61545" lon="10.4602183"><ele>366.8</ele><time>2026-04-06T08:19:30.978Z</time></trkpt><trkpt lat="44.615445" lon="10.4600733"><ele>364.40000000000003</ele><time>2026-04-06T08:19:31.977Z</time></trkpt><trkpt lat="44.6154267" lon="10.4599333"><ele>362.0</ele><time>2026-04-06T08:19:32.978Z</time></trkpt><trkpt lat="44.6153917" lon="10.4597983"><ele>365.5</ele><time>2026-04-06T08:19:33.978Z</time></trkpt><trkpt lat="44.6153083" lon="10.45968"><ele>369.0</ele><time>2026-04-06T08:19:34.977Z</time></trkpt><trkpt lat="44.6152033" lon="10.4595767"><ele>372.5</ele><time>2026-04-06T08:19:35.977Z</time></trkpt><trkpt lat="44.61509" lon="10.4594783"><ele>376.0</ele><time>2026-04-06T08:19:36.977Z</time></trkpt><trkpt lat="44.61498" lon="10.4594017"><ele>376.0</ele><time>2026-04-06T08:19:37.977Z</time></trkpt><trkpt lat="44.6148667" lon="10.4593183"><ele>376.0</ele><time>2026-04-06T08:19:38.977Z</time></trkpt><trkpt lat="44.614775" lon="10.45923"><ele>376.0</ele><time>2026-04-06T08:19:39.977Z</time></trkpt><trkpt lat="44.6146817" lon="10.4591317"><ele>376.0</ele><time>2026-04-06T08:19:40.977Z</time></trkpt><trkpt lat="44.6145983" lon="10.459005"><ele>376.0</ele><time>2026-04-06T08:19:41.977Z</time></trkpt><trkpt lat="44.6145383" lon="10.4588717"><ele>376.0</ele><time>2026-04-06T08:19:42.977Z</time></trkpt><trkpt lat="44.6144783" lon="10.4587383"><ele>376.0</ele><time>2026-04-06T08:19:43.977Z</time></trkpt><trkpt lat="44.614415" lon="10.45861"><ele>376.0</ele><time>2026-04-06T08:19:44.977Z</time></trkpt><trkpt lat="44.614355" lon="10.4584817"><ele>376.0</ele><time>2026-04-06T08:19:45.978Z</time></trkpt><trkpt lat="44.614305" lon="10.4583417"><ele>377.0</ele><time>2026-04-06T08:19:46.977Z</time></trkpt><trkpt lat="44.61424" lon="10.4582117"><ele>378.0</ele><time>2026-04-06T08:19:47.977Z</time></trkpt><trkpt lat="44.6142083" lon="10.458065"><ele>379.0</ele><time>2026-04-06T08:19:48.977Z</time></trkpt><trkpt lat="44.61419" lon="10.45792"><ele>380.0</ele><time>2026-04-06T08:19:49.977Z</time></trkpt><trkpt lat="44.6141767" lon="10.4577683"><ele>381.0</ele><time>2026-04-06T08:19:50.977Z</time></trkpt><trkpt lat="44.6141517" lon="10.457625"><ele>378.8</ele><time>2026-04-06T08:19:51.977Z</time></trkpt><trkpt lat="44.61411" lon="10.4574917"><ele>376.6</ele><time>2026-04-06T08:19:52.977Z</time></trkpt><trkpt lat="44.614045" lon="10.4573817"><ele>374.4</ele><time>2026-04-06T08:19:53.978Z</time></trkpt><trkpt lat="44.6139583" lon="10.4572967"><ele>372.2</ele><time>2026-04-06T08:19:54.978Z</time></trkpt><trkpt lat="44.6138617" lon="10.457245"><ele>370.0</ele><time>2026-04-06T08:19:55.977Z</time></trkpt><trkpt lat="44.6137717" lon="10.457205"><ele>370.0</ele><time>2026-04-06T08:19:56.977Z</time></trkpt><trkpt lat="44.6136833" lon="10.4571583"><ele>370.0</ele><time>2026-04-06T08:19:57.977Z</time></trkpt><trkpt lat="44.613595" lon="10.4570883"><ele>370.0</ele><time>2026-04-06T08:19:58.977Z</time></trkpt><trkpt lat="44.6134983" lon="10.457015"><ele>370.0</ele><time>2026-04-06T08:19:59.977Z</time></trkpt><trkpt lat="44.6134133" lon="10.4568967"><ele>370.0</ele><time>2026-04-06T08:20:00.977Z</time></trkpt><trkpt lat="44.61335" lon="10.4567567"><ele>369.3333333333333</ele><time>2026-04-06T08:20:01.977Z</time></trkpt><trkpt lat="44.6132617" lon="10.4566083"><ele>368.6666666666667</ele><time>2026-04-06T08:20:02.977Z</time></trkpt><trkpt lat="44.613165" lon="10.4564283"><ele>368.0</ele><time>2026-04-06T08:20:03.978Z</time></trkpt><trkpt lat="44.613065" lon="10.4562483"><ele>368.0</ele><time>2026-04-06T08:20:04.978Z</time></trkpt><trkpt lat="44.6129733" lon="10.4560517"><ele>368.0</ele><time>2026-04-06T08:20:05.977Z</time></trkpt><trkpt lat="44.6128783" lon="10.45586"><ele>368.0</ele><time>2026-04-06T08:20:06.978Z</time></trkpt><trkpt lat="44.6128167" lon="10.45566"><ele>370.0</ele><time>2026-04-06T08:20:07.977Z</time></trkpt><trkpt lat="44.6127783" lon="10.455435"><ele>372.0</ele><time>2026-04-06T08:20:08.977Z</time></trkpt><trkpt lat="44.6127633" lon="10.4552183"><ele>374.0</ele><time>2026-04-06T08:20:09.977Z</time></trkpt><trkpt lat="44.61275" lon="10.45498"><ele>374.0</ele><time>2026-04-06T08:20:10.977Z</time></trkpt><trkpt lat="44.61272" lon="10.45475"><ele>374.0</ele><time>2026-04-06T08:20:11.977Z</time></trkpt><trkpt lat="44.6126617" lon="10.45451"><ele>374.0</ele><time>2026-04-06T08:20:12.977Z</time></trkpt><trkpt lat="44.6125933" lon="10.4542683"><ele>373.6666666666667</ele><time>2026-04-06T08:20:13.977Z</time></trkpt><trkpt lat="44.6125367" lon="10.4540167"><ele>373.3333333333333</ele><time>2026-04-06T08:20:14.977Z</time></trkpt><trkpt lat="44.61249" lon="10.4537633"><ele>373.0</ele><time>2026-04-06T08:20:15.978Z</time></trkpt><trkpt lat="44.61244" lon="10.4535117"><ele>376.0</ele><time>2026-04-06T08:20:16.977Z</time></trkpt><trkpt lat="44.6123783" lon="10.4532683"><ele>379.0</ele><time>2026-04-06T08:20:17.977Z</time></trkpt><trkpt lat="44.6122783" lon="10.45307"><ele>382.0</ele><time>2026-04-06T08:20:18.977Z</time></trkpt><trkpt lat="44.6121667" lon="10.4528917"><ele>382.0</ele><time>2026-04-06T08:20:19.977Z</time></trkpt><trkpt lat="44.6120383" lon="10.452725"><ele>382.0</ele><time>2026-04-06T08:20:20.977Z</time></trkpt><trkpt lat="44.6118933" lon="10.4525767"><ele>382.0</ele><time>2026-04-06T08:20:21.977Z</time></trkpt><trkpt lat="44.611735" lon="10.452465"><ele>379.0</ele><time>2026-04-06T08:20:22.977Z</time></trkpt><trkpt lat="44.61157" lon="10.4523833"><ele>376.0</ele><time>2026-04-06T08:20:23.977Z</time></trkpt><trkpt lat="44.6114033" lon="10.4523083"><ele>373.0</ele><time>2026-04-06T08:20:24.977Z</time></trkpt><trkpt lat="44.6112333" lon="10.4522383"><ele>372.0</ele><time>2026-04-06T08:20:25.977Z</time></trkpt><trkpt lat="44.61106" lon="10.4521483"><ele>371.0</ele><time>2026-04-06T08:20:26.978Z</time></trkpt><trkpt lat="44.6108983" lon="10.4520367"><ele>370.0</ele><time>2026-04-06T08:20:27.977Z</time></trkpt><trkpt lat="44.6107483" lon="10.4519283"><ele>369.75</ele><time>2026-04-06T08:20:28.977Z</time></trkpt><trkpt lat="44.6106133" lon="10.451815"><ele>369.5</ele><time>2026-04-06T08:20:29.978Z</time></trkpt><trkpt lat="44.6104867" lon="10.4517183"><ele>369.25</ele><time>2026-04-06T08:20:30.977Z</time></trkpt><trkpt lat="44.6103733" lon="10.451615"><ele>369.0</ele><time>2026-04-06T08:20:31.977Z</time></trkpt><trkpt lat="44.6102717" lon="10.4514817"><ele>369.0</ele><time>2026-04-06T08:20:32.978Z</time></trkpt><trkpt lat="44.61017" lon="10.4513333"><ele>369.0</ele><time>2026-04-06T08:20:33.978Z</time></trkpt><trkpt lat="44.61006" lon="10.4511683"><ele>369.0</ele><time>2026-04-06T08:20:34.977Z</time></trkpt><trkpt lat="44.60995" lon="10.4509833"><ele>369.6666666666667</ele><time>2026-04-06T08:20:35.978Z</time></trkpt><trkpt lat="44.6098433" lon="10.4508083"><ele>370.33333333333337</ele><time>2026-04-06T08:20:36.977Z</time></trkpt><trkpt lat="44.609755" lon="10.4506183"><ele>371.0</ele><time>2026-04-06T08:20:37.977Z</time></trkpt><trkpt lat="44.6096767" lon="10.4504183"><ele>371.0</ele><time>2026-04-06T08:20:38.977Z</time></trkpt><trkpt lat="44.6096083" lon="10.4502167"><ele>371.0</ele><time>2026-04-06T08:20:39.978Z</time></trkpt><trkpt lat="44.6095383" lon="10.4500283"><ele>371.0</ele><time>2026-04-06T08:20:40.977Z</time></trkpt><trkpt lat="44.6094683" lon="10.44986"><ele>371.0</ele><time>2026-04-06T08:20:41.977Z</time></trkpt><trkpt lat="44.6094117" lon="10.449695"><ele>372.0</ele><time>2026-04-06T08:20:42.977Z</time></trkpt><trkpt lat="44.609355" lon="10.449525"><ele>373.0</ele><time>2026-04-06T08:20:43.977Z</time></trkpt><trkpt lat="44.6093067" lon="10.4493633"><ele>374.0</ele><time>2026-04-06T08:20:44.977Z</time></trkpt><trkpt lat="44.60926" lon="10.449215"><ele>375.0</ele><time>2026-04-06T08:20:45.977Z</time></trkpt><trkpt lat="44.6092017" lon="10.449075"><ele>375.0</ele><time>2026-04-06T08:20:46.977Z</time></trkpt><trkpt lat="44.6091183" lon="10.448945"><ele>375.0</ele><time>2026-04-06T08:20:47.978Z</time></trkpt><trkpt lat="44.6090267" lon="10.4488217"><ele>375.0</ele><time>2026-04-06T08:20:48.977Z</time></trkpt><trkpt lat="44.6089167" lon="10.4487167"><ele>375.0</ele><time>2026-04-06T08:20:49.977Z</time></trkpt><trkpt lat="44.6087983" lon="10.4486133"><ele>375.75</ele><time>2026-04-06T08:20:50.977Z</time></trkpt><trkpt lat="44.60867" lon="10.44851"><ele>376.5</ele><time>2026-04-06T08:20:51.977Z</time></trkpt><trkpt lat="44.6085467" lon="10.4484117"><ele>377.25</ele><time>2026-04-06T08:20:52.978Z</time></trkpt><trkpt lat="44.6084367" lon="10.4483217"><ele>378.0</ele><time>2026-04-06T08:20:53.977Z</time></trkpt><trkpt lat="44.6083033" lon="10.4482483"><ele>378.0</ele><time>2026-04-06T08:20:54.977Z</time></trkpt><trkpt lat="44.6081617" lon="10.4481833"><ele>378.0</ele><time>2026-04-06T08:20:55.977Z</time></trkpt><trkpt lat="44.6080067" lon="10.4481383"><ele>378.0</ele><time>2026-04-06T08:20:56.977Z</time></trkpt><trkpt lat="44.6078617" lon="10.4480917"><ele>379.25</ele><time>2026-04-06T08:20:57.977Z</time></trkpt><trkpt lat="44.6077267" lon="10.4480167"><ele>380.5</ele><time>2026-04-06T08:20:58.977Z</time></trkpt><trkpt lat="44.6076017" lon="10.44793"><ele>381.75</ele><time>2026-04-06T08:20:59.977Z</time></trkpt><trkpt lat="44.6075017" lon="10.447845"><ele>383.0</ele><time>2026-04-06T08:21:00.978Z</time></trkpt><trkpt lat="44.607425" lon="10.44776"><ele>383.0</ele><time>2026-04-06T08:21:01.978Z</time></trkpt><trkpt lat="44.6073683" lon="10.4476717"><ele>383.0</ele><time>2026-04-06T08:21:02.977Z</time></trkpt><trkpt lat="44.6073433" lon="10.4475783"><ele>383.0</ele><time>2026-04-06T08:21:03.977Z</time></trkpt><trkpt lat="44.6073467" lon="10.44747"><ele>383.0</ele><time>2026-04-06T08:21:04.978Z</time></trkpt><trkpt lat="44.60738" lon="10.4473683"><ele>383.0</ele><time>2026-04-06T08:21:05.977Z</time></trkpt><trkpt lat="44.607435" lon="10.44727"><ele>383.0</ele><time>2026-04-06T08:21:06.977Z</time></trkpt><trkpt lat="44.6075217" lon="10.4471567"><ele>384.5</ele><time>2026-04-06T08:21:07.978Z</time></trkpt><trkpt lat="44.6076467" lon="10.4470167"><ele>386.0</ele><time>2026-04-06T08:21:08.977Z</time></trkpt><trkpt lat="44.60773" lon="10.4468933"><ele>387.5</ele><time>2026-04-06T08:21:09.977Z</time></trkpt><trkpt lat="44.607835" lon="10.44676"><ele>389.0</ele><time>2026-04-06T08:21:10.978Z</time></trkpt><trkpt lat="44.6079233" lon="10.4466433"><ele>389.0</ele><time>2026-04-06T08:21:11.977Z</time></trkpt><trkpt lat="44.60801" lon="10.44656"><ele>389.0</ele><time>2026-04-06T08:21:12.977Z</time></trkpt><trkpt lat="44.60811" lon="10.4464967"><ele>389.0</ele><time>2026-04-06T08:21:13.978Z</time></trkpt><trkpt lat="44.6082283" lon="10.4464717"><ele>389.0</ele><time>2026-04-06T08:21:14.977Z</time></trkpt><trkpt lat="44.60835" lon="10.4464783"><ele>388.99999999999994</ele><time>2026-04-06T08:21:15.977Z</time></trkpt><trkpt lat="44.6084583" lon="10.4464717"><ele>389.0</ele><time>2026-04-06T08:21:16.978Z</time></trkpt><trkpt lat="44.6085617" lon="10.4464333"><ele>389.0</ele><time>2026-04-06T08:21:17.977Z</time></trkpt><trkpt lat="44.6086317" lon="10.4463833"><ele>389.0</ele><time>2026-04-06T08:21:18.977Z</time></trkpt><trkpt lat="44.608675" lon="10.4462967"><ele>388.99999999999994</ele><time>2026-04-06T08:21:19.978Z</time></trkpt><trkpt lat="44.6086783" lon="10.4462017"><ele>389.0</ele><time>2026-04-06T08:21:20.977Z</time></trkpt><trkpt lat="44.6086483" lon="10.4461067"><ele>389.25</ele><time>2026-04-06T08:21:21.978Z</time></trkpt><trkpt lat="44.60858" lon="10.4460267"><ele>389.5</ele><time>2026-04-06T08:21:22.977Z</time></trkpt><trkpt lat="44.6084817" lon="10.4459817"><ele>389.75</ele><time>2026-04-06T08:21:23.977Z</time></trkpt><trkpt lat="44.6083483" lon="10.4459917"><ele>390.0</ele><time>2026-04-06T08:21:24.977Z</time></trkpt><trkpt lat="44.6082117" lon="10.44603"><ele>390.0</ele><time>2026-04-06T08:21:25.977Z</time></trkpt><trkpt lat="44.6080733" lon="10.44605"><ele>390.0</ele><time>2026-04-06T08:21:26.978Z</time></trkpt><trkpt lat="44.6079367" lon="10.4460667"><ele>390.0</ele><time>2026-04-06T08:21:27.977Z</time></trkpt><trkpt lat="44.6078" lon="10.44608"><ele>390.0</ele><time>2026-04-06T08:21:28.977Z</time></trkpt><trkpt lat="44.6076633" lon="10.4460983"><ele>393.0</ele><time>2026-04-06T08:21:29.977Z</time></trkpt><trkpt lat="44.607525" lon="10.44612"><ele>396.0</ele><time>2026-04-06T08:21:30.978Z</time></trkpt><trkpt lat="44.6073867" lon="10.446125"><ele>399.0</ele><time>2026-04-06T08:21:31.978Z</time></trkpt><trkpt lat="44.607255" lon="10.4460917"><ele>402.0</ele><time>2026-04-06T08:21:32.978Z</time></trkpt><trkpt lat="44.6071217" lon="10.4460333"><ele>402.25</ele><time>2026-04-06T08:21:33.978Z</time></trkpt><trkpt lat="44.606985" lon="10.4459667"><ele>402.5</ele><time>2026-04-06T08:21:34.977Z</time></trkpt><trkpt lat="44.6068583" lon="10.445885"><ele>402.75</ele><time>2026-04-06T08:21:35.977Z</time></trkpt><trkpt lat="44.6067283" lon="10.4457517"><ele>403.0</ele><time>2026-04-06T08:21:36.977Z</time></trkpt><trkpt lat="44.6066" lon="10.445605"><ele>402.0</ele><time>2026-04-06T08:21:37.977Z</time></trkpt><trkpt lat="44.6064517" lon="10.44546"><ele>401.0</ele><time>2026-04-06T08:21:38.977Z</time></trkpt><trkpt lat="44.6062833" lon="10.445335"><ele>400.0</ele><time>2026-04-06T08:21:39.977Z</time></trkpt><trkpt lat="44.606115" lon="10.445205"><ele>400.0</ele><time>2026-04-06T08:21:40.977Z</time></trkpt><trkpt lat="44.6059567" lon="10.44507"><ele>400.0</ele><time>2026-04-06T08:21:41.977Z</time></trkpt><trkpt lat="44.60582" lon="10.4449267"><ele>400.0</ele><time>2026-04-06T08:21:42.977Z</time></trkpt><trkpt lat="44.6056967" lon="10.4448083"><ele>400.0</ele><time>2026-04-06T08:21:43.978Z</time></trkpt><trkpt lat="44.6055883" lon="10.4447217"><ele>400.0</ele><time>2026-04-06T08:21:44.977Z</time></trkpt><trkpt lat="44.605495" lon="10.44462"><ele>400.0</ele><time>2026-04-06T08:21:45.978Z</time></trkpt><trkpt lat="44.6054133" lon="10.4445417"><ele>400.0</ele><time>2026-04-06T08:21:46.978Z</time></trkpt><trkpt lat="44.6053467" lon="10.4444733"><ele>400.0</ele><time>2026-04-06T08:21:47.977Z</time></trkpt><trkpt lat="44.6052883" lon="10.4444133"><ele>399.33333333333337</ele><time>2026-04-06T08:21:48.977Z</time></trkpt><trkpt lat="44.6052017" lon="10.4443217"><ele>398.6666666666667</ele><time>2026-04-06T08:21:50.977Z</time></trkpt><trkpt lat="44.6051367" lon="10.4442183"><ele>398.0</ele><time>2026-04-06T08:21:52.978Z</time></trkpt><trkpt lat="44.6050733" lon="10.4441367"><ele>397.33333333333337</ele><time>2026-04-06T08:21:54.977Z</time></trkpt><trkpt lat="44.6050283" lon="10.4440667"><ele>396.6666666666667</ele><time>2026-04-06T08:21:56.977Z</time></trkpt><trkpt lat="44.60497" lon="10.4440117"><ele>396.0</ele><time>2026-04-06T08:21:59.977Z</time></trkpt><trkpt lat="44.6048867" lon="10.44391"><ele>396.0</ele><time>2026-04-06T08:22:46.976Z</time></trkpt><trkpt lat="44.6047917" lon="10.4438117"><ele>396.0</ele><time>2026-04-06T08:22:48.976Z</time></trkpt><trkpt lat="44.6047183" lon="10.4437667"><ele>396.0</ele><time>2026-04-06T08:22:50.976Z</time></trkpt><trkpt lat="44.6046683" lon="10.4438267"><ele>396.0</ele><time>2026-04-06T08:22:52.976Z</time></trkpt><trkpt lat="44.6046333" lon="10.4439517"><ele>396.0</ele><time>2026-04-06T08:22:54.976Z</time></trkpt><trkpt lat="44.6045733" lon="10.4441083"><ele>396.0</ele><time>2026-04-06T08:22:56.976Z</time></trkpt><trkpt lat="44.6045333" lon="10.4441967"><ele>396.0</ele><time>2026-04-06T08:22:57.977Z</time></trkpt><trkpt lat="44.60448" lon="10.4442883"><ele>396.0</ele><time>2026-04-06T08:22:58.976Z</time></trkpt><trkpt lat="44.6044333" lon="10.4443917"><ele>396.0</ele><time>2026-04-06T08:22:59.976Z</time></trkpt><trkpt lat="44.6043817" lon="10.444505"><ele>396.0</ele><time>2026-04-06T08:23:00.976Z</time></trkpt><trkpt lat="44.6043317" lon="10.44463"><ele>396.0</ele><time>2026-04-06T08:23:01.977Z</time></trkpt><trkpt lat="44.6042817" lon="10.4447583"><ele>396.0</ele><time>2026-04-06T08:23:02.976Z</time></trkpt><trkpt lat="44.6042517" lon="10.4448967"><ele>396.0</ele><time>2026-04-06T08:23:03.976Z</time></trkpt><trkpt lat="44.6042383" lon="10.4450433"><ele>396.0</ele><time>2026-04-06T08:23:04.976Z</time></trkpt><trkpt lat="44.60422" lon="10.4451983"><ele>396.0</ele><time>2026-04-06T08:23:05.976Z</time></trkpt><trkpt lat="44.6041983" lon="10.44535"><ele>396.0</ele><time>2026-04-06T08:23:06.976Z</time></trkpt><trkpt lat="44.604155" lon="10.445495"><ele>396.5</ele><time>2026-04-06T08:23:07.976Z</time></trkpt><trkpt lat="44.6040867" lon="10.4456167"><ele>397.0</ele><time>2026-04-06T08:23:08.977Z</time></trkpt><trkpt lat="44.6040017" lon="10.4457317"><ele>397.5</ele><time>2026-04-06T08:23:09.976Z</time></trkpt><trkpt lat="44.6039033" lon="10.4458233"><ele>398.0</ele><time>2026-04-06T08:23:10.977Z</time></trkpt><trkpt lat="44.6037817" lon="10.445885"><ele>396.5</ele><time>2026-04-06T08:23:11.976Z</time></trkpt><trkpt lat="44.6036467" lon="10.4459583"><ele>395.0</ele><time>2026-04-06T08:23:12.976Z</time></trkpt><trkpt lat="44.603515" lon="10.4460383"><ele>393.5</ele><time>2026-04-06T08:23:13.976Z</time></trkpt><trkpt lat="44.60338" lon="10.446125"><ele>392.0</ele><time>2026-04-06T08:23:14.976Z</time></trkpt><trkpt lat="44.6032467" lon="10.44622"><ele>391.5</ele><time>2026-04-06T08:23:15.976Z</time></trkpt><trkpt lat="44.6031183" lon="10.4463017"><ele>391.0</ele><time>2026-04-06T08:23:16.977Z</time></trkpt><trkpt lat="44.602985" lon="10.4463717"><ele>390.5</ele><time>2026-04-06T08:23:17.976Z</time></trkpt><trkpt lat="44.6028467" lon="10.4464483"><ele>390.0</ele><time>2026-04-06T08:23:18.976Z</time></trkpt><trkpt lat="44.6027117" lon="10.44653"><ele>392.5</ele><time>2026-04-06T08:23:19.976Z</time></trkpt><trkpt lat="44.6025683" lon="10.446615"><ele>395.0</ele><time>2026-04-06T08:23:20.977Z</time></trkpt><trkpt lat="44.6024367" lon="10.4467033"><ele>397.5</ele><time>2026-04-06T08:23:21.976Z</time></trkpt><trkpt lat="44.6023167" lon="10.4467833"><ele>400.0</ele><time>2026-04-06T08:23:22.976Z</time></trkpt><trkpt lat="44.602195" lon="10.44685"><ele>400.0</ele><time>2026-04-06T08:23:23.977Z</time></trkpt><trkpt lat="44.6020983" lon="10.4468967"><ele>400.0</ele><time>2026-04-06T08:23:24.976Z</time></trkpt><trkpt lat="44.6019967" lon="10.446895"><ele>400.0</ele><time>2026-04-06T08:23:25.976Z</time></trkpt><trkpt lat="44.6018917" lon="10.446855"><ele>400.0</ele><time>2026-04-06T08:23:26.977Z</time></trkpt><trkpt lat="44.6017617" lon="10.4468017"><ele>400.0</ele><time>2026-04-06T08:23:27.976Z</time></trkpt><trkpt lat="44.60162" lon="10.4467333"><ele>401.33333333333337</ele><time>2026-04-06T08:23:28.976Z</time></trkpt><trkpt lat="44.6014717" lon="10.446655"><ele>402.66666666666663</ele><time>2026-04-06T08:23:29.976Z</time></trkpt><trkpt lat="44.60133" lon="10.446585"><ele>404.0</ele><time>2026-04-06T08:23:30.976Z</time></trkpt><trkpt lat="44.6011817" lon="10.446505"><ele>401.0</ele><time>2026-04-06T08:23:31.976Z</time></trkpt><trkpt lat="44.60103" lon="10.4464483"><ele>398.0</ele><time>2026-04-06T08:23:32.976Z</time></trkpt><trkpt lat="44.6008617" lon="10.44644"><ele>395.0</ele><time>2026-04-06T08:23:33.976Z</time></trkpt><trkpt lat="44.6007017" lon="10.4464383"><ele>395.0</ele><time>2026-04-06T08:23:34.977Z</time></trkpt><trkpt lat="44.6005567" lon="10.446445"><ele>395.0</ele><time>2026-04-06T08:23:35.976Z</time></trkpt><trkpt lat="44.6004333" lon="10.44646"><ele>395.0</ele><time>2026-04-06T08:23:36.976Z</time></trkpt><trkpt lat="44.600325" lon="10.4464917"><ele>395.0</ele><time>2026-04-06T08:23:37.976Z</time></trkpt><trkpt lat="44.600225" lon="10.4465567"><ele>393.4</ele><time>2026-04-06T08:23:38.976Z</time></trkpt><trkpt lat="44.6001417" lon="10.4466283"><ele>391.8</ele><time>2026-04-06T08:23:39.976Z</time></trkpt><trkpt lat="44.60008" lon="10.446715"><ele>390.20000000000005</ele><time>2026-04-06T08:23:40.976Z</time></trkpt><trkpt lat="44.6000317" lon="10.4468233"><ele>388.6</ele><time>2026-04-06T08:23:41.976Z</time></trkpt><trkpt lat="44.599985" lon="10.4469533"><ele>387.0</ele><time>2026-04-06T08:23:42.977Z</time></trkpt><trkpt lat="44.59994" lon="10.4471017"><ele>385.0</ele><time>2026-04-06T08:23:43.977Z</time></trkpt><trkpt lat="44.5999017" lon="10.4472483"><ele>383.0</ele><time>2026-04-06T08:23:44.976Z</time></trkpt><trkpt lat="44.5998783" lon="10.4474017"><ele>381.0</ele><time>2026-04-06T08:23:45.976Z</time></trkpt><trkpt lat="44.5998633" lon="10.4475567"><ele>379.0</ele><time>2026-04-06T08:23:46.976Z</time></trkpt><trkpt lat="44.5998483" lon="10.447705"><ele>377.0</ele><time>2026-04-06T08:23:47.976Z</time></trkpt><trkpt lat="44.5998283" lon="10.4478483"><ele>376.6</ele><time>2026-04-06T08:23:48.976Z</time></trkpt><trkpt lat="44.599805" lon="10.447995"><ele>376.20000000000005</ele><time>2026-04-06T08:23:49.977Z</time></trkpt><trkpt lat="44.5997833" lon="10.44813"><ele>375.8</ele><time>2026-04-06T08:23:50.976Z</time></trkpt><trkpt lat="44.5997517" lon="10.4482567"><ele>375.4</ele><time>2026-04-06T08:23:51.976Z</time></trkpt><trkpt lat="44.5997117" lon="10.4483933"><ele>375.0</ele><time>2026-04-06T08:23:52.977Z</time></trkpt><trkpt lat="44.5996617" lon="10.44853"><ele>375.0</ele><time>2026-04-06T08:23:53.976Z</time></trkpt><trkpt lat="44.5996033" lon="10.4486517"><ele>375.0</ele><time>2026-04-06T08:23:54.976Z</time></trkpt><trkpt lat="44.59953" lon="10.4487633"><ele>375.0</ele><time>2026-04-06T08:23:55.976Z</time></trkpt><trkpt lat="44.599435" lon="10.44886"><ele>375.0</ele><time>2026-04-06T08:23:56.977Z</time></trkpt><trkpt lat="44.5993333" lon="10.4489433"><ele>375.0</ele><time>2026-04-06T08:23:57.976Z</time></trkpt><trkpt lat="44.5992333" lon="10.4490017"><ele>375.8</ele><time>2026-04-06T08:23:58.977Z</time></trkpt><trkpt lat="44.5991383" lon="10.4490267"><ele>376.6</ele><time>2026-04-06T08:23:59.976Z</time></trkpt><trkpt lat="44.5990633" lon="10.4490017"><ele>377.4</ele><time>2026-04-06T08:24:00.977Z</time></trkpt><trkpt lat="44.59902" lon="10.4488317"><ele>378.2</ele><time>2026-04-06T08:24:02.976Z</time></trkpt><trkpt lat="44.599025" lon="10.4487233"><ele>379.0</ele><time>2026-04-06T08:24:03.977Z</time></trkpt><trkpt lat="44.5990183" lon="10.4486183"><ele>379.0</ele><time>2026-04-06T08:24:04.976Z</time></trkpt><trkpt lat="44.5989183" lon="10.44853"><ele>379.0</ele><time>2026-04-06T08:24:06.976Z</time></trkpt><trkpt lat="44.5988517" lon="10.4485617"><ele>379.0</ele><time>2026-04-06T08:24:07.976Z</time></trkpt><trkpt lat="44.598795" lon="10.448645"><ele>379.0</ele><time>2026-04-06T08:24:08.976Z</time></trkpt><trkpt lat="44.5987483" lon="10.448775"><ele>379.0</ele><time>2026-04-06T08:24:09.976Z</time></trkpt><trkpt lat="44.5987167" lon="10.44893"><ele>380.0</ele><time>2026-04-06T08:24:10.976Z</time></trkpt><trkpt lat="44.598685" lon="10.4490683"><ele>381.0</ele><time>2026-04-06T08:24:11.976Z</time></trkpt><trkpt lat="44.598645" lon="10.4491817"><ele>382.0</ele><time>2026-04-06T08:24:12.977Z</time></trkpt><trkpt lat="44.5985883" lon="10.44927"><ele>383.0</ele><time>2026-04-06T08:24:13.976Z</time></trkpt><trkpt lat="44.5985233" lon="10.4493083"><ele>384.00000000000006</ele><time>2026-04-06T08:24:14.977Z</time></trkpt><trkpt lat="44.598445" lon="10.4492917"><ele>385.0</ele><time>2026-04-06T08:24:15.976Z</time></trkpt><trkpt lat="44.5983617" lon="10.4492267"><ele>384.8</ele><time>2026-04-06T08:24:16.976Z</time></trkpt><trkpt lat="44.59828" lon="10.449115"><ele>384.6</ele><time>2026-04-06T08:24:17.977Z</time></trkpt><trkpt lat="44.5982" lon="10.448985"><ele>384.4</ele><time>2026-04-06T08:24:18.976Z</time></trkpt><trkpt lat="44.5981267" lon="10.44887"><ele>384.2</ele><time>2026-04-06T08:24:19.976Z</time></trkpt><trkpt lat="44.5980583" lon="10.4487867"><ele>384.0</ele><time>2026-04-06T08:24:20.976Z</time></trkpt><trkpt lat="44.59798" lon="10.44875"><ele>384.0</ele><time>2026-04-06T08:24:21.977Z</time></trkpt><trkpt lat="44.5979167" lon="10.4487617"><ele>384.0</ele><time>2026-04-06T08:24:22.976Z</time></trkpt><trkpt lat="44.597865" lon="10.448905"><ele>384.0</ele><time>2026-04-06T08:24:24.976Z</time></trkpt><trkpt lat="44.597905" lon="10.4490233"><ele>384.0</ele><time>2026-04-06T08:24:25.976Z</time></trkpt><trkpt lat="44.597975" lon="10.4491467"><ele>384.0</ele><time>2026-04-06T08:24:26.976Z</time></trkpt><trkpt lat="44.5980417" lon="10.449255"><ele>385.8333333333333</ele><time>2026-04-06T08:24:27.976Z</time></trkpt><trkpt lat="44.598095" lon="10.4493433"><ele>387.66666666666663</ele><time>2026-04-06T08:24:28.977Z</time></trkpt><trkpt lat="44.5981333" lon="10.4494333"><ele>389.5</ele><time>2026-04-06T08:24:29.976Z</time></trkpt><trkpt lat="44.5981517" lon="10.4495283"><ele>391.3333333333333</ele><time>2026-04-06T08:24:30.977Z</time></trkpt><trkpt lat="44.59813" lon="10.4496167"><ele>393.16666666666663</ele><time>2026-04-06T08:24:31.976Z</time></trkpt><trkpt lat="44.5980267" lon="10.44963"><ele>395.0</ele><time>2026-04-06T08:24:33.976Z</time></trkpt><trkpt lat="44.597965" lon="10.4495683"><ele>396.2</ele><time>2026-04-06T08:24:34.976Z</time></trkpt><trkpt lat="44.5978967" lon="10.4494817"><ele>397.4</ele><time>2026-04-06T08:24:35.976Z</time></trkpt><trkpt lat="44.5978067" lon="10.4494067"><ele>398.6</ele><time>2026-04-06T08:24:36.976Z</time></trkpt><trkpt lat="44.597695" lon="10.4493667"><ele>399.8</ele><time>2026-04-06T08:24:37.976Z</time></trkpt><trkpt lat="44.5975783" lon="10.4493583"><ele>401.0</ele><time>2026-04-06T08:24:38.976Z</time></trkpt><trkpt lat="44.5974617" lon="10.4493567"><ele>403.5</ele><time>2026-04-06T08:24:39.977Z</time></trkpt><trkpt lat="44.5973367" lon="10.449345"><ele>406.0</ele><time>2026-04-06T08:24:40.976Z</time></trkpt><trkpt lat="44.597205" lon="10.449325"><ele>408.5</ele><time>2026-04-06T08:24:41.976Z</time></trkpt><trkpt lat="44.5970733" lon="10.4493167"><ele>411.0</ele><time>2026-04-06T08:24:42.977Z</time></trkpt><trkpt lat="44.5969417" lon="10.449315"><ele>413.5</ele><time>2026-04-06T08:24:43.976Z</time></trkpt><trkpt lat="44.5968083" lon="10.4493033"><ele>416.0</ele><time>2026-04-06T08:24:44.976Z</time></trkpt><trkpt lat="44.5966717" lon="10.4492917"><ele>418.5</ele><time>2026-04-06T08:24:45.977Z</time></trkpt><trkpt lat="44.59654" lon="10.4492767"><ele>421.0</ele><time>2026-04-06T08:24:46.977Z</time></trkpt><trkpt lat="44.596425" lon="10.449255"><ele>421.0</ele><time>2026-04-06T08:24:47.977Z</time></trkpt><trkpt lat="44.5963317" lon="10.4491883"><ele>421.0</ele><time>2026-04-06T08:24:48.976Z</time></trkpt><trkpt lat="44.596255" lon="10.4490717"><ele>421.0</ele><time>2026-04-06T08:24:49.976Z</time></trkpt><trkpt lat="44.5961967" lon="10.44892"><ele>421.0</ele><time>2026-04-06T08:24:50.976Z</time></trkpt><trkpt lat="44.5961533" lon="10.4487467"><ele>423.8</ele><time>2026-04-06T08:24:51.976Z</time></trkpt><trkpt lat="44.5961033" lon="10.4485817"><ele>426.6</ele><time>2026-04-06T08:24:52.976Z</time></trkpt><trkpt lat="44.59606" lon="10.4484417"><ele>429.4</ele><time>2026-04-06T08:24:53.977Z</time></trkpt><trkpt lat="44.5960167" lon="10.4483433"><ele>432.2</ele><time>2026-04-06T08:24:54.977Z</time></trkpt><trkpt lat="44.59591" lon="10.4482867"><ele>435.0</ele><time>2026-04-06T08:24:56.976Z</time></trkpt><trkpt lat="44.5958667" lon="10.44836"><ele>435.0</ele><time>2026-04-06T08:24:57.976Z</time></trkpt><trkpt lat="44.59583" lon="10.4484783"><ele>435.0</ele><time>2026-04-06T08:24:58.977Z</time></trkpt><trkpt lat="44.595815" lon="10.4486333"><ele>435.0</ele><time>2026-04-06T08:24:59.976Z</time></trkpt><trkpt lat="44.59583" lon="10.44881"><ele>435.0</ele><time>2026-04-06T08:25:00.976Z</time></trkpt><trkpt lat="44.595835" lon="10.4489733"><ele>435.0</ele><time>2026-04-06T08:25:01.976Z</time></trkpt><trkpt lat="44.5958183" lon="10.4491133"><ele>435.8</ele><time>2026-04-06T08:25:02.976Z</time></trkpt><trkpt lat="44.59577" lon="10.44924"><ele>436.6</ele><time>2026-04-06T08:25:03.976Z</time></trkpt><trkpt lat="44.5957083" lon="10.4493583"><ele>437.4</ele><time>2026-04-06T08:25:04.976Z</time></trkpt><trkpt lat="44.595645" lon="10.44947"><ele>438.2</ele><time>2026-04-06T08:25:05.976Z</time></trkpt><trkpt lat="44.5955833" lon="10.4495567"><ele>439.0</ele><time>2026-04-06T08:25:06.977Z</time></trkpt><trkpt lat="44.5955133" lon="10.4496033"><ele>439.0</ele><time>2026-04-06T08:25:07.977Z</time></trkpt><trkpt lat="44.59544" lon="10.4495983"><ele>439.0</ele><time>2026-04-06T08:25:08.977Z</time></trkpt><trkpt lat="44.59537" lon="10.4495333"><ele>439.0</ele><time>2026-04-06T08:25:09.976Z</time></trkpt><trkpt lat="44.59531" lon="10.4494283"><ele>439.0</ele><time>2026-04-06T08:25:10.976Z</time></trkpt><trkpt lat="44.595275" lon="10.4492917"><ele>439.0</ele><time>2026-04-06T08:25:11.976Z</time></trkpt><trkpt lat="44.595255" lon="10.4491283"><ele>443.0</ele><time>2026-04-06T08:25:12.977Z</time></trkpt><trkpt lat="44.5952483" lon="10.4489533"><ele>447.0</ele><time>2026-04-06T08:25:13.977Z</time></trkpt><trkpt lat="44.5952433" lon="10.4487667"><ele>451.0</ele><time>2026-04-06T08:25:14.976Z</time></trkpt><trkpt lat="44.5952383" lon="10.4485867"><ele>455.0</ele><time>2026-04-06T08:25:15.977Z</time></trkpt><trkpt lat="44.5952233" lon="10.4484067"><ele>455.25</ele><time>2026-04-06T08:25:16.976Z</time></trkpt><trkpt lat="44.595195" lon="10.44824"><ele>455.5</ele><time>2026-04-06T08:25:17.977Z</time></trkpt><trkpt lat="44.59515" lon="10.448095"><ele>455.75</ele><time>2026-04-06T08:25:18.976Z</time></trkpt><trkpt lat="44.5950817" lon="10.4479567"><ele>456.0</ele><time>2026-04-06T08:25:19.977Z</time></trkpt><trkpt lat="44.5950033" lon="10.44783"><ele>456.0</ele><time>2026-04-06T08:25:20.976Z</time></trkpt><trkpt lat="44.5949367" lon="10.4477033"><ele>456.0</ele><time>2026-04-06T08:25:21.976Z</time></trkpt><trkpt lat="44.5948883" lon="10.447595"><ele>456.0</ele><time>2026-04-06T08:25:22.976Z</time></trkpt><trkpt lat="44.594835" lon="10.4475183"><ele>456.0</ele><time>2026-04-06T08:25:23.976Z</time></trkpt><trkpt lat="44.5947633" lon="10.447475"><ele>456.0</ele><time>2026-04-06T08:25:24.976Z</time></trkpt><trkpt lat="44.5946967" lon="10.4474767"><ele>456.0</ele><time>2026-04-06T08:25:25.976Z</time></trkpt><trkpt lat="44.5946367" lon="10.4475433"><ele>456.0</ele><time>2026-04-06T08:25:26.976Z</time></trkpt><trkpt lat="44.5946067" lon="10.4476417"><ele>456.0</ele><time>2026-04-06T08:25:27.977Z</time></trkpt><trkpt lat="44.59463" lon="10.4477467"><ele>456.0</ele><time>2026-04-06T08:25:28.976Z</time></trkpt><trkpt lat="44.5947017" lon="10.4478633"><ele>456.0</ele><time>2026-04-06T08:25:29.976Z</time></trkpt><trkpt lat="44.5948017" lon="10.4479983"><ele>456.0</ele><time>2026-04-06T08:25:30.976Z</time></trkpt><trkpt lat="44.5948717" lon="10.448135"><ele>456.6666666666667</ele><time>2026-04-06T08:25:31.976Z</time></trkpt><trkpt lat="44.5948817" lon="10.448275"><ele>457.33333333333337</ele><time>2026-04-06T08:25:32.977Z</time></trkpt><trkpt lat="44.5948617" lon="10.4484067"><ele>458.0</ele><time>2026-04-06T08:25:33.976Z</time></trkpt><trkpt lat="44.5948333" lon="10.4485167"><ele>458.6666666666667</ele><time>2026-04-06T08:25:34.976Z</time></trkpt><trkpt lat="44.594795" lon="10.448605"><ele>459.33333333333337</ele><time>2026-04-06T08:25:35.976Z</time></trkpt><trkpt lat="44.594755" lon="10.4486933"><ele>460.0</ele><time>2026-04-06T08:25:36.976Z</time></trkpt><trkpt lat="44.5947017" lon="10.4487667"><ele>459.0</ele><time>2026-04-06T08:25:37.976Z</time></trkpt><trkpt lat="44.5946283" lon="10.4488183"><ele>458.0</ele><time>2026-04-06T08:25:38.976Z</time></trkpt><trkpt lat="44.59453" lon="10.4488617"><ele>457.0</ele><time>2026-04-06T08:25:39.976Z</time></trkpt><trkpt lat="44.59441" lon="10.4488917"><ele>456.0</ele><time>2026-04-06T08:25:40.976Z</time></trkpt><trkpt lat="44.594285" lon="10.448925"><ele>455.0</ele><time>2026-04-06T08:25:41.977Z</time></trkpt><trkpt lat="44.5941617" lon="10.4489333"><ele>458.75</ele><time>2026-04-06T08:25:42.976Z</time></trkpt><trkpt lat="44.59403" lon="10.44892"><ele>462.5</ele><time>2026-04-06T08:25:43.976Z</time></trkpt><trkpt lat="44.593895" lon="10.4488833"><ele>466.25</ele><time>2026-04-06T08:25:44.976Z</time></trkpt><trkpt lat="44.5937667" lon="10.4488433"><ele>470.0</ele><time>2026-04-06T08:25:45.977Z</time></trkpt><trkpt lat="44.5936467" lon="10.4488383"><ele>472.25</ele><time>2026-04-06T08:25:46.976Z</time></trkpt><trkpt lat="44.5935383" lon="10.4488883"><ele>474.5</ele><time>2026-04-06T08:25:47.977Z</time></trkpt><trkpt lat="44.5934417" lon="10.4490017"><ele>476.75</ele><time>2026-04-06T08:25:48.976Z</time></trkpt><trkpt lat="44.5933617" lon="10.449145"><ele>479.0</ele><time>2026-04-06T08:25:49.976Z</time></trkpt><trkpt lat="44.59331" lon="10.4493183"><ele>479.0</ele><time>2026-04-06T08:25:50.976Z</time></trkpt><trkpt lat="44.5932783" lon="10.4495"><ele>479.0</ele><time>2026-04-06T08:25:51.976Z</time></trkpt><trkpt lat="44.5932617" lon="10.4496883"><ele>479.0</ele><time>2026-04-06T08:25:52.976Z</time></trkpt><trkpt lat="44.5932667" lon="10.449865"><ele>479.0</ele><time>2026-04-06T08:25:53.976Z</time></trkpt><trkpt lat="44.5932667" lon="10.4500283"><ele>479.2</ele><time>2026-04-06T08:25:54.976Z</time></trkpt><trkpt lat="44.5932783" lon="10.450185"><ele>479.4</ele><time>2026-04-06T08:25:55.976Z</time></trkpt><trkpt lat="44.5932817" lon="10.4503283"><ele>479.6</ele><time>2026-04-06T08:25:56.977Z</time></trkpt><trkpt lat="44.5932767" lon="10.45048"><ele>479.8</ele><time>2026-04-06T08:25:57.976Z</time></trkpt><trkpt lat="44.5932533" lon="10.4506333"><ele>480.0</ele><time>2026-04-06T08:25:58.977Z</time></trkpt><trkpt lat="44.5932183" lon="10.4507867"><ele>480.0</ele><time>2026-04-06T08:25:59.977Z</time></trkpt><trkpt lat="44.5931833" lon="10.450935"><ele>480.0</ele><time>2026-04-06T08:26:00.976Z</time></trkpt><trkpt lat="44.5931367" lon="10.4510467"><ele>480.0</ele><time>2026-04-06T08:26:01.977Z</time></trkpt><trkpt lat="44.59309" lon="10.45113"><ele>480.0</ele><time>2026-04-06T08:26:02.976Z</time></trkpt><trkpt lat="44.592975" lon="10.45121"><ele>480.0</ele><time>2026-04-06T08:26:04.976Z</time></trkpt><trkpt lat="44.5928817" lon="10.4512033"><ele>482.0</ele><time>2026-04-06T08:26:05.976Z</time></trkpt><trkpt lat="44.5927583" lon="10.4511917"><ele>484.0</ele><time>2026-04-06T08:26:06.976Z</time></trkpt><trkpt lat="44.5926033" lon="10.4511733"><ele>486.0</ele><time>2026-04-06T08:26:07.976Z</time></trkpt><trkpt lat="44.5924767" lon="10.4511633"><ele>488.0</ele><time>2026-04-06T08:26:08.976Z</time></trkpt><trkpt lat="44.5923383" lon="10.4511533"><ele>488.0</ele><time>2026-04-06T08:26:09.976Z</time></trkpt><trkpt lat="44.5921967" lon="10.4511483"><ele>488.0</ele><time>2026-04-06T08:26:10.976Z</time></trkpt><trkpt lat="44.592055" lon="10.4511617"><ele>488.0</ele><time>2026-04-06T08:26:11.977Z</time></trkpt><trkpt lat="44.5919217" lon="10.45121"><ele>488.0</ele><time>2026-04-06T08:26:12.976Z</time></trkpt><trkpt lat="44.5918067" lon="10.4512767"><ele>491.5</ele><time>2026-04-06T08:26:13.977Z</time></trkpt><trkpt lat="44.5917167" lon="10.451375"><ele>495.0</ele><time>2026-04-06T08:26:14.976Z</time></trkpt><trkpt lat="44.5916533" lon="10.4514933"><ele>498.5</ele><time>2026-04-06T08:26:15.976Z</time></trkpt><trkpt lat="44.5916233" lon="10.4516483"><ele>502.0</ele><time>2026-04-06T08:26:16.976Z</time></trkpt><trkpt lat="44.5916167" lon="10.4518217"><ele>502.0</ele><time>2026-04-06T08:26:17.977Z</time></trkpt><trkpt lat="44.59164" lon="10.4520233"><ele>502.0</ele><time>2026-04-06T08:26:18.977Z</time></trkpt><trkpt lat="44.5916883" lon="10.45221"><ele>502.0</ele><time>2026-04-06T08:26:19.976Z</time></trkpt><trkpt lat="44.59178" lon="10.4523983"><ele>502.0</ele><time>2026-04-06T08:26:20.976Z</time></trkpt><trkpt lat="44.59187" lon="10.452595"><ele>503.33333333333337</ele><time>2026-04-06T08:26:21.976Z</time></trkpt><trkpt lat="44.5919533" lon="10.4527833"><ele>504.66666666666663</ele><time>2026-04-06T08:26:22.976Z</time></trkpt><trkpt lat="44.592035" lon="10.4529733"><ele>506.0</ele><time>2026-04-06T08:26:23.976Z</time></trkpt><trkpt lat="44.592105" lon="10.45315"><ele>506.0</ele><time>2026-04-06T08:26:24.976Z</time></trkpt><trkpt lat="44.5921567" lon="10.4533117"><ele>506.0</ele><time>2026-04-06T08:26:25.976Z</time></trkpt><trkpt lat="44.5921867" lon="10.4534683"><ele>506.0</ele><time>2026-04-06T08:26:26.976Z</time></trkpt><trkpt lat="44.5921833" lon="10.4536083"><ele>506.0</ele><time>2026-04-06T08:26:27.976Z</time></trkpt><trkpt lat="44.5921533" lon="10.4537467"><ele>506.0</ele><time>2026-04-06T08:26:28.977Z</time></trkpt><trkpt lat="44.5920867" lon="10.4538783"><ele>508.0</ele><time>2026-04-06T08:26:29.976Z</time></trkpt><trkpt lat="44.591995" lon="10.4540033"><ele>510.0</ele><time>2026-04-06T08:26:30.976Z</time></trkpt><trkpt lat="44.5919067" lon="10.454135"><ele>512.0</ele><time>2026-04-06T08:26:31.976Z</time></trkpt><trkpt lat="44.5918183" lon="10.4542683"><ele>514.0</ele><time>2026-04-06T08:26:32.976Z</time></trkpt><trkpt lat="44.591735" lon="10.4544033"><ele>514.0</ele><time>2026-04-06T08:26:33.976Z</time></trkpt><trkpt lat="44.591655" lon="10.4545067"><ele>514.0</ele><time>2026-04-06T08:26:34.977Z</time></trkpt><trkpt lat="44.591555" lon="10.4545767"><ele>514.0</ele><time>2026-04-06T08:26:35.977Z</time></trkpt><trkpt lat="44.591435" lon="10.4546033"><ele>514.0</ele><time>2026-04-06T08:26:36.977Z</time></trkpt><trkpt lat="44.5913" lon="10.454595"><ele>516.0</ele><time>2026-04-06T08:26:37.977Z</time></trkpt><trkpt lat="44.5911517" lon="10.4545917"><ele>518.0</ele><time>2026-04-06T08:26:38.977Z</time></trkpt><trkpt lat="44.5910017" lon="10.4545967"><ele>520.0</ele><time>2026-04-06T08:26:39.976Z</time></trkpt><trkpt lat="44.590845" lon="10.4546183"><ele>518.25</ele><time>2026-04-06T08:26:40.976Z</time></trkpt><trkpt lat="44.5906983" lon="10.4546767"><ele>516.5</ele><time>2026-04-06T08:26:41.976Z</time></trkpt><trkpt lat="44.5905617" lon="10.4547567"><ele>514.75</ele><time>2026-04-06T08:26:42.976Z</time></trkpt><trkpt lat="44.5904283" lon="10.4548367"><ele>513.0</ele><time>2026-04-06T08:26:43.976Z</time></trkpt><trkpt lat="44.5902983" lon="10.45487"><ele>513.0</ele><time>2026-04-06T08:26:44.976Z</time></trkpt><trkpt lat="44.5901533" lon="10.4548717"><ele>513.0</ele><time>2026-04-06T08:26:45.976Z</time></trkpt><trkpt lat="44.59" lon="10.4548683"><ele>513.0</ele><time>2026-04-06T08:26:46.976Z</time></trkpt><trkpt lat="44.58985" lon="10.4548533"><ele>513.0</ele><time>2026-04-06T08:26:47.976Z</time></trkpt><trkpt lat="44.5897117" lon="10.45483"><ele>513.0</ele><time>2026-04-06T08:26:48.976Z</time></trkpt><trkpt lat="44.5895767" lon="10.4548233"><ele>513.0</ele><time>2026-04-06T08:26:49.977Z</time></trkpt><trkpt lat="44.589445" lon="10.4548117"><ele>513.0</ele><time>2026-04-06T08:26:50.976Z</time></trkpt><trkpt lat="44.58931" lon="10.4548183"><ele>513.0</ele><time>2026-04-06T08:26:51.976Z</time></trkpt><trkpt lat="44.5891867" lon="10.4548467"><ele>512.5</ele><time>2026-04-06T08:26:52.977Z</time></trkpt><trkpt lat="44.589065" lon="10.45491"><ele>512.0</ele><time>2026-04-06T08:26:53.976Z</time></trkpt><trkpt lat="44.5889467" lon="10.4549817"><ele>511.5</ele><time>2026-04-06T08:26:54.976Z</time></trkpt><trkpt lat="44.5888317" lon="10.455065"><ele>511.0</ele><time>2026-04-06T08:26:55.976Z</time></trkpt><trkpt lat="44.588725" lon="10.45517"><ele>509.0</ele><time>2026-04-06T08:26:56.976Z</time></trkpt><trkpt lat="44.58862" lon="10.4552817"><ele>507.0</ele><time>2026-04-06T08:26:57.976Z</time></trkpt><trkpt lat="44.5885383" lon="10.4554183"><ele>505.0</ele><time>2026-04-06T08:26:58.977Z</time></trkpt><trkpt lat="44.5884817" lon="10.4555867"><ele>503.0</ele><time>2026-04-06T08:26:59.976Z</time></trkpt><trkpt lat="44.5884383" lon="10.4557767"><ele>502.0</ele><time>2026-04-06T08:27:00.976Z</time></trkpt><trkpt lat="44.5884" lon="10.4559867"><ele>501.0</ele><time>2026-04-06T08:27:01.976Z</time></trkpt><trkpt lat="44.5883617" lon="10.4562017"><ele>500.0</ele><time>2026-04-06T08:27:02.976Z</time></trkpt><trkpt lat="44.5883167" lon="10.4564217"><ele>499.75</ele><time>2026-04-06T08:27:03.977Z</time></trkpt><trkpt lat="44.5882733" lon="10.4566333"><ele>499.5</ele><time>2026-04-06T08:27:04.976Z</time></trkpt><trkpt lat="44.5882283" lon="10.456835"><ele>499.25</ele><time>2026-04-06T08:27:05.976Z</time></trkpt><trkpt lat="44.5881733" lon="10.4570133"><ele>499.0</ele><time>2026-04-06T08:27:06.976Z</time></trkpt><trkpt lat="44.5881017" lon="10.457165"><ele>497.75</ele><time>2026-04-06T08:27:07.977Z</time></trkpt><trkpt lat="44.5880133" lon="10.4572967"><ele>496.5</ele><time>2026-04-06T08:27:08.976Z</time></trkpt><trkpt lat="44.5879117" lon="10.45743"><ele>495.25</ele><time>2026-04-06T08:27:09.976Z</time></trkpt><trkpt lat="44.5878067" lon="10.45758"><ele>494.0</ele><time>2026-04-06T08:27:10.977Z</time></trkpt><trkpt lat="44.5876967" lon="10.4577333"><ele>494.5</ele><time>2026-04-06T08:27:11.977Z</time></trkpt><trkpt lat="44.5875883" lon="10.4578733"><ele>495.0</ele><time>2026-04-06T08:27:12.977Z</time></trkpt><trkpt lat="44.587495" lon="10.4580283"><ele>495.5</ele><time>2026-04-06T08:27:13.976Z</time></trkpt><trkpt lat="44.587405" lon="10.458205"><ele>496.0</ele><time>2026-04-06T08:27:14.976Z</time></trkpt><trkpt lat="44.587325" lon="10.4583917"><ele>496.0</ele><time>2026-04-06T08:27:15.977Z</time></trkpt><trkpt lat="44.5872483" lon="10.4585867"><ele>496.0</ele><time>2026-04-06T08:27:16.976Z</time></trkpt><trkpt lat="44.58717" lon="10.458775"><ele>496.0</ele><time>2026-04-06T08:27:17.977Z</time></trkpt><trkpt lat="44.58709" lon="10.458945"><ele>494.75</ele><time>2026-04-06T08:27:18.977Z</time></trkpt><trkpt lat="44.58703" lon="10.4591217"><ele>493.5</ele><time>2026-04-06T08:27:19.976Z</time></trkpt><trkpt lat="44.58699" lon="10.459305"><ele>492.25</ele><time>2026-04-06T08:27:20.976Z</time></trkpt><trkpt lat="44.5869633" lon="10.4594617"><ele>491.0</ele><time>2026-04-06T08:27:21.976Z</time></trkpt><trkpt lat="44.586945" lon="10.459615"><ele>495.20000000000005</ele><time>2026-04-06T08:27:22.977Z</time></trkpt><trkpt lat="44.586905" lon="10.4597483"><ele>499.40000000000003</ele><time>2026-04-06T08:27:23.976Z</time></trkpt><trkpt lat="44.5868467" lon="10.4598783"><ele>503.6</ele><time>2026-04-06T08:27:24.977Z</time></trkpt><trkpt lat="44.5867717" lon="10.46"><ele>507.8</ele><time>2026-04-06T08:27:25.976Z</time></trkpt><trkpt lat="44.5867" lon="10.4601167"><ele>512.0</ele><time>2026-04-06T08:27:26.976Z</time></trkpt><trkpt lat="44.5866283" lon="10.4602267"><ele>512.0</ele><time>2026-04-06T08:27:27.976Z</time></trkpt><trkpt lat="44.58655" lon="10.46034"><ele>512.0</ele><time>2026-04-06T08:27:28.976Z</time></trkpt><trkpt lat="44.5864717" lon="10.4604617"><ele>512.0</ele><time>2026-04-06T08:27:29.976Z</time></trkpt><trkpt lat="44.5863967" lon="10.46058"><ele>512.0</ele><time>2026-04-06T08:27:30.976Z</time></trkpt><trkpt lat="44.5863217" lon="10.4606867"><ele>512.0</ele><time>2026-04-06T08:27:31.976Z</time></trkpt><trkpt lat="44.5862483" lon="10.4607917"><ele>510.6</ele><time>2026-04-06T08:27:32.977Z</time></trkpt><trkpt lat="44.5861817" lon="10.46089"><ele>509.20000000000005</ele><time>2026-04-06T08:27:33.977Z</time></trkpt><trkpt lat="44.5861217" lon="10.460965"><ele>507.8</ele><time>2026-04-06T08:27:34.976Z</time></trkpt><trkpt lat="44.5860583" lon="10.4609933"><ele>506.4</ele><time>2026-04-06T08:27:35.977Z</time></trkpt><trkpt lat="44.585945" lon="10.46095"><ele>505.0</ele><time>2026-04-06T08:27:37.976Z</time></trkpt><trkpt lat="44.585865" lon="10.460815"><ele>505.0</ele><time>2026-04-06T08:27:39.976Z</time></trkpt><trkpt lat="44.5858367" lon="10.460715"><ele>505.0</ele><time>2026-04-06T08:27:40.977Z</time></trkpt><trkpt lat="44.5858033" lon="10.460605"><ele>505.0</ele><time>2026-04-06T08:27:41.976Z</time></trkpt><trkpt lat="44.5857633" lon="10.46049"><ele>505.0</ele><time>2026-04-06T08:27:42.976Z</time></trkpt><trkpt lat="44.5857217" lon="10.4603533"><ele>505.0</ele><time>2026-04-06T08:27:43.977Z</time></trkpt><trkpt lat="44.5856733" lon="10.4602133"><ele>506.0</ele><time>2026-04-06T08:27:44.976Z</time></trkpt><trkpt lat="44.5856217" lon="10.46008"><ele>507.0</ele><time>2026-04-06T08:27:45.976Z</time></trkpt><trkpt lat="44.585565" lon="10.45995"><ele>508.0</ele><time>2026-04-06T08:27:46.977Z</time></trkpt><trkpt lat="44.585495" lon="10.4598267"><ele>509.0</ele><time>2026-04-06T08:27:47.977Z</time></trkpt><trkpt lat="44.5854" lon="10.4597167"><ele>505.0</ele><time>2026-04-06T08:27:48.976Z</time></trkpt><trkpt lat="44.5852867" lon="10.4596233"><ele>501.0</ele><time>2026-04-06T08:27:49.977Z</time></trkpt><trkpt lat="44.5851667" lon="10.45953"><ele>497.0</ele><time>2026-04-06T08:27:50.977Z</time></trkpt><trkpt lat="44.5850333" lon="10.4594367"><ele>493.0</ele><time>2026-04-06T08:27:51.976Z</time></trkpt><trkpt lat="44.5848833" lon="10.459345"><ele>493.0</ele><time>2026-04-06T08:27:52.977Z</time></trkpt><trkpt lat="44.5847333" lon="10.459235"><ele>493.0</ele><time>2026-04-06T08:27:53.976Z</time></trkpt><trkpt lat="44.5845783" lon="10.4591167"><ele>493.0</ele><time>2026-04-06T08:27:54.977Z</time></trkpt><trkpt lat="44.5844417" lon="10.4589867"><ele>493.0</ele><time>2026-04-06T08:27:55.977Z</time></trkpt><trkpt lat="44.58431" lon="10.45885"><ele>493.0</ele><time>2026-04-06T08:27:56.977Z</time></trkpt><trkpt lat="44.5841983" lon="10.4587267"><ele>493.0</ele><time>2026-04-06T08:27:57.976Z</time></trkpt><trkpt lat="44.5840783" lon="10.458615"><ele>493.0</ele><time>2026-04-06T08:27:58.976Z</time></trkpt><trkpt lat="44.583955" lon="10.458535"><ele>493.0</ele><time>2026-04-06T08:27:59.976Z</time></trkpt><trkpt lat="44.5838283" lon="10.4584833"><ele>493.0</ele><time>2026-04-06T08:28:00.976Z</time></trkpt><trkpt lat="44.5837133" lon="10.45845"><ele>493.0</ele><time>2026-04-06T08:28:01.976Z</time></trkpt><trkpt lat="44.5836033" lon="10.458415"><ele>493.2</ele><time>2026-04-06T08:28:02.976Z</time></trkpt><trkpt lat="44.5834983" lon="10.4583733"><ele>493.4</ele><time>2026-04-06T08:28:03.977Z</time></trkpt><trkpt lat="44.5833933" lon="10.458325"><ele>493.59999999999997</ele><time>2026-04-06T08:28:04.977Z</time></trkpt><trkpt lat="44.58329" lon="10.4582867"><ele>493.79999999999995</ele><time>2026-04-06T08:28:05.977Z</time></trkpt><trkpt lat="44.5831917" lon="10.4582633"><ele>494.0</ele><time>2026-04-06T08:28:06.976Z</time></trkpt><trkpt lat="44.5830983" lon="10.4582467"><ele>493.99999999999994</ele><time>2026-04-06T08:28:07.977Z</time></trkpt><trkpt lat="44.5830183" lon="10.4582483"><ele>494.0</ele><time>2026-04-06T08:28:08.977Z</time></trkpt><trkpt lat="44.58295" lon="10.4582583"><ele>494.0</ele><time>2026-04-06T08:28:09.977Z</time></trkpt><trkpt lat="44.5828367" lon="10.4582867"><ele>494.0</ele><time>2026-04-06T08:28:11.977Z</time></trkpt><trkpt lat="44.5827383" lon="10.4582317"><ele>493.99999999999994</ele><time>2026-04-06T08:28:13.976Z</time></trkpt><trkpt lat="44.582695" lon="10.4581567"><ele>494.0</ele><time>2026-04-06T08:28:14.976Z</time></trkpt><trkpt lat="44.5826717" lon="10.4580567"><ele>493.75</ele><time>2026-04-06T08:28:15.976Z</time></trkpt><trkpt lat="44.5826567" lon="10.4579183"><ele>493.5</ele><time>2026-04-06T08:28:16.977Z</time></trkpt><trkpt lat="44.5826417" lon="10.4577467"><ele>493.25</ele><time>2026-04-06T08:28:17.976Z</time></trkpt><trkpt lat="44.5826183" lon="10.4575667"><ele>493.0</ele><time>2026-04-06T08:28:18.977Z</time></trkpt><trkpt lat="44.58257" lon="10.4574"><ele>493.0</ele><time>2026-04-06T08:28:19.976Z</time></trkpt><trkpt lat="44.5824833" lon="10.4572383"><ele>493.0</ele><time>2026-04-06T08:28:20.976Z</time></trkpt><trkpt lat="44.5823717" lon="10.4571"><ele>493.0</ele><time>2026-04-06T08:28:21.976Z</time></trkpt><trkpt lat="44.5822433" lon="10.4569883"><ele>493.0</ele><time>2026-04-06T08:28:22.976Z</time></trkpt><trkpt lat="44.58211" lon="10.4568717"><ele>492.6666666666667</ele><time>2026-04-06T08:28:23.976Z</time></trkpt><trkpt lat="44.5820017" lon="10.4567283"><ele>492.33333333333337</ele><time>2026-04-06T08:28:24.976Z</time></trkpt><trkpt lat="44.5819033" lon="10.45656"><ele>492.0</ele><time>2026-04-06T08:28:25.977Z</time></trkpt><trkpt lat="44.58179" lon="10.4564117"><ele>492.0</ele><time>2026-04-06T08:28:26.976Z</time></trkpt><trkpt lat="44.58165" lon="10.4562933"><ele>492.0</ele><time>2026-04-06T08:28:27.976Z</time></trkpt><trkpt lat="44.5814967" lon="10.4561833"><ele>492.0</ele><time>2026-04-06T08:28:28.977Z</time></trkpt><trkpt lat="44.5813367" lon="10.4560917"><ele>493.33333333333337</ele><time>2026-04-06T08:28:29.976Z</time></trkpt><trkpt lat="44.581175" lon="10.456015"><ele>494.6666666666667</ele><time>2026-04-06T08:28:30.977Z</time></trkpt><trkpt lat="44.5810083" lon="10.4559667"><ele>496.0</ele><time>2026-04-06T08:28:31.976Z</time></trkpt><trkpt lat="44.5808417" lon="10.4559117"><ele>496.0</ele><time>2026-04-06T08:28:32.976Z</time></trkpt><trkpt lat="44.5806767" lon="10.4558533"><ele>496.0</ele><time>2026-04-06T08:28:33.976Z</time></trkpt><trkpt lat="44.5805167" lon="10.45579"><ele>496.0</ele><time>2026-04-06T08:28:34.976Z</time></trkpt><trkpt lat="44.580365" lon="10.4557333"><ele>494.33333333333337</ele><time>2026-04-06T08:28:35.976Z</time></trkpt><trkpt lat="44.5802067" lon="10.4556683"><ele>492.66666666666663</ele><time>2026-04-06T08:28:36.976Z</time></trkpt><trkpt lat="44.5800567" lon="10.4556017"><ele>491.0</ele><time>2026-04-06T08:28:37.976Z</time></trkpt><trkpt lat="44.5799167" lon="10.4555117"><ele>491.25</ele><time>2026-04-06T08:28:38.976Z</time></trkpt><trkpt lat="44.5797817" lon="10.455415"><ele>491.5</ele><time>2026-04-06T08:28:39.976Z</time></trkpt><trkpt lat="44.5796517" lon="10.45533"><ele>491.75</ele><time>2026-04-06T08:28:40.976Z</time></trkpt><trkpt lat="44.57953" lon="10.4552533"><ele>492.0</ele><time>2026-04-06T08:28:41.976Z</time></trkpt><trkpt lat="44.5794083" lon="10.4551833"><ele>493.25</ele><time>2026-04-06T08:28:42.976Z</time></trkpt><trkpt lat="44.5792817" lon="10.45514"><ele>494.5</ele><time>2026-04-06T08:28:43.976Z</time></trkpt><trkpt lat="44.5791483" lon="10.45515"><ele>495.75</ele><time>2026-04-06T08:28:44.976Z</time></trkpt><trkpt lat="44.5790233" lon="10.4552133"><ele>497.0</ele><time>2026-04-06T08:28:45.976Z</time></trkpt><trkpt lat="44.5788983" lon="10.4553017"><ele>497.0</ele><time>2026-04-06T08:28:46.976Z</time></trkpt><trkpt lat="44.5787617" lon="10.455365"><ele>497.0</ele><time>2026-04-06T08:28:47.976Z</time></trkpt><trkpt lat="44.5786133" lon="10.4553933"><ele>497.0</ele><time>2026-04-06T08:28:48.976Z</time></trkpt><trkpt lat="44.5784583" lon="10.4553917"><ele>497.0</ele><time>2026-04-06T08:28:49.976Z</time></trkpt><trkpt lat="44.5783" lon="10.4554"><ele>495.0</ele><time>2026-04-06T08:28:50.976Z</time></trkpt><trkpt lat="44.5781533" lon="10.4554533"><ele>493.0</ele><time>2026-04-06T08:28:51.977Z</time></trkpt><trkpt lat="44.57801" lon="10.4555383"><ele>491.0</ele><time>2026-04-06T08:28:52.977Z</time></trkpt><trkpt lat="44.5778683" lon="10.4556483"><ele>493.25</ele><time>2026-04-06T08:28:53.976Z</time></trkpt><trkpt lat="44.577745" lon="10.455755"><ele>495.5</ele><time>2026-04-06T08:28:54.976Z</time></trkpt><trkpt lat="44.577645" lon="10.4558783"><ele>497.75</ele><time>2026-04-06T08:28:55.977Z</time></trkpt><trkpt lat="44.5775483" lon="10.4559767"><ele>500.0</ele><time>2026-04-06T08:28:56.977Z</time></trkpt><trkpt lat="44.5774383" lon="10.4560467"><ele>500.0</ele><time>2026-04-06T08:28:57.977Z</time></trkpt><trkpt lat="44.5773083" lon="10.4560767"><ele>500.0</ele><time>2026-04-06T08:28:58.977Z</time></trkpt><trkpt lat="44.5771633" lon="10.4560917"><ele>500.0</ele><time>2026-04-06T08:28:59.977Z</time></trkpt><trkpt lat="44.5770133" lon="10.4561183"><ele>500.0</ele><time>2026-04-06T08:29:00.976Z</time></trkpt><trkpt lat="44.5768767" lon="10.4561817"><ele>501.5</ele><time>2026-04-06T08:29:01.976Z</time></trkpt><trkpt lat="44.5767433" lon="10.4562833"><ele>503.0</ele><time>2026-04-06T08:29:02.976Z</time></trkpt><trkpt lat="44.5766217" lon="10.4564117"><ele>504.5</ele><time>2026-04-06T08:29:03.976Z</time></trkpt><trkpt lat="44.5765183" lon="10.4565533"><ele>506.0</ele><time>2026-04-06T08:29:04.976Z</time></trkpt><trkpt lat="44.57644" lon="10.4567033"><ele>506.0</ele><time>2026-04-06T08:29:05.976Z</time></trkpt><trkpt lat="44.576395" lon="10.4568733"><ele>506.0</ele><time>2026-04-06T08:29:06.977Z</time></trkpt><trkpt lat="44.57636" lon="10.4570383"><ele>506.0</ele><time>2026-04-06T08:29:07.977Z</time></trkpt><trkpt lat="44.57631" lon="10.457175"><ele>506.0</ele><time>2026-04-06T08:29:08.977Z</time></trkpt><trkpt lat="44.5762617" lon="10.4572883"><ele>506.6</ele><time>2026-04-06T08:29:09.976Z</time></trkpt><trkpt lat="44.5761933" lon="10.4573683"><ele>507.20000000000005</ele><time>2026-04-06T08:29:10.977Z</time></trkpt><trkpt lat="44.5761167" lon="10.4574033"><ele>507.79999999999995</ele><time>2026-04-06T08:29:11.977Z</time></trkpt><trkpt lat="44.5760317" lon="10.457385"><ele>508.4</ele><time>2026-04-06T08:29:12.976Z</time></trkpt><trkpt lat="44.5759283" lon="10.4573483"><ele>509.0</ele><time>2026-04-06T08:29:13.976Z</time></trkpt><trkpt lat="44.5758117" lon="10.45731"><ele>509.0</ele><time>2026-04-06T08:29:14.977Z</time></trkpt><trkpt lat="44.5756983" lon="10.4572683"><ele>509.0</ele><time>2026-04-06T08:29:15.977Z</time></trkpt><trkpt lat="44.5755933" lon="10.45721"><ele>509.0</ele><time>2026-04-06T08:29:16.976Z</time></trkpt><trkpt lat="44.5754983" lon="10.4571367"><ele>509.0</ele><time>2026-04-06T08:29:17.977Z</time></trkpt><trkpt lat="44.5754067" lon="10.45704"><ele>509.0</ele><time>2026-04-06T08:29:18.976Z</time></trkpt><trkpt lat="44.5753317" lon="10.4569183"><ele>509.0</ele><time>2026-04-06T08:29:19.976Z</time></trkpt><trkpt lat="44.5752617" lon="10.45677"><ele>509.0</ele><time>2026-04-06T08:29:20.977Z</time></trkpt><trkpt lat="44.57521" lon="10.4566217"><ele>509.0</ele><time>2026-04-06T08:29:21.976Z</time></trkpt><trkpt lat="44.5751733" lon="10.4564467"><ele>512.0</ele><time>2026-04-06T08:29:22.976Z</time></trkpt><trkpt lat="44.5751433" lon="10.4562683"><ele>515.0</ele><time>2026-04-06T08:29:23.976Z</time></trkpt><trkpt lat="44.5751067" lon="10.4560867"><ele>518.0</ele><time>2026-04-06T08:29:24.976Z</time></trkpt><trkpt lat="44.575045" lon="10.4559617"><ele>521.0</ele><time>2026-04-06T08:29:25.976Z</time></trkpt><trkpt lat="44.574965" lon="10.4558717"><ele>521.0</ele><time>2026-04-06T08:29:26.977Z</time></trkpt><trkpt lat="44.5748633" lon="10.4558067"><ele>521.0</ele><time>2026-04-06T08:29:27.976Z</time></trkpt><trkpt lat="44.574745" lon="10.4557517"><ele>521.0</ele><time>2026-04-06T08:29:28.976Z</time></trkpt><trkpt lat="44.5746233" lon="10.4557017"><ele>521.0</ele><time>2026-04-06T08:29:29.977Z</time></trkpt><trkpt lat="44.5744833" lon="10.455685"><ele>517.25</ele><time>2026-04-06T08:29:30.976Z</time></trkpt><trkpt lat="44.5743417" lon="10.45568"><ele>513.5</ele><time>2026-04-06T08:29:31.976Z</time></trkpt><trkpt lat="44.574205" lon="10.4556717"><ele>509.75</ele><time>2026-04-06T08:29:32.977Z</time></trkpt><trkpt lat="44.574075" lon="10.45566"><ele>506.0</ele><time>2026-04-06T08:29:33.976Z</time></trkpt><trkpt lat="44.57396" lon="10.4556517"><ele>506.0</ele><time>2026-04-06T08:29:34.977Z</time></trkpt><trkpt lat="44.5738567" lon="10.4556217"><ele>506.0</ele><time>2026-04-06T08:29:35.976Z</time></trkpt><trkpt lat="44.5737683" lon="10.4555417"><ele>506.0</ele><time>2026-04-06T08:29:36.976Z</time></trkpt><trkpt lat="44.5736817" lon="10.45544"><ele>506.0</ele><time>2026-04-06T08:29:37.976Z</time></trkpt><trkpt lat="44.5735917" lon="10.455325"><ele>506.0</ele><time>2026-04-06T08:29:38.977Z</time></trkpt><trkpt lat="44.573505" lon="10.455215"><ele>504.6</ele><time>2026-04-06T08:29:39.976Z</time></trkpt><trkpt lat="44.5734167" lon="10.4551083"><ele>503.20000000000005</ele><time>2026-04-06T08:29:40.977Z</time></trkpt><trkpt lat="44.5733483" lon="10.4549833"><ele>501.79999999999995</ele><time>2026-04-06T08:29:41.977Z</time></trkpt><trkpt lat="44.5733033" lon="10.4548483"><ele>500.4</ele><time>2026-04-06T08:29:42.977Z</time></trkpt><trkpt lat="44.5732817" lon="10.4547"><ele>499.0</ele><time>2026-04-06T08:29:43.976Z</time></trkpt><trkpt lat="44.5732733" lon="10.4545467"><ele>499.0</ele><time>2026-04-06T08:29:44.976Z</time></trkpt><trkpt lat="44.573265" lon="10.4543883"><ele>499.0</ele><time>2026-04-06T08:29:45.976Z</time></trkpt><trkpt lat="44.5732417" lon="10.45424"><ele>499.0</ele><time>2026-04-06T08:29:46.976Z</time></trkpt><trkpt lat="44.5732" lon="10.4541033"><ele>499.0</ele><time>2026-04-06T08:29:47.976Z</time></trkpt><trkpt lat="44.5731517" lon="10.4539667"><ele>499.0</ele><time>2026-04-06T08:29:48.976Z</time></trkpt><trkpt lat="44.5730983" lon="10.45383"><ele>496.79999999999995</ele><time>2026-04-06T08:29:49.976Z</time></trkpt><trkpt lat="44.5730667" lon="10.4536917"><ele>494.59999999999997</ele><time>2026-04-06T08:29:50.977Z</time></trkpt><trkpt lat="44.57305" lon="10.4535583"><ele>492.4</ele><time>2026-04-06T08:29:51.976Z</time></trkpt><trkpt lat="44.5730233" lon="10.4534483"><ele>490.2</ele><time>2026-04-06T08:29:52.976Z</time></trkpt><trkpt lat="44.5729683" lon="10.4533533"><ele>488.0</ele><time>2026-04-06T08:29:53.977Z</time></trkpt><trkpt lat="44.5728933" lon="10.453275"><ele>489.25</ele><time>2026-04-06T08:29:54.977Z</time></trkpt><trkpt lat="44.5727983" lon="10.4531967"><ele>490.5</ele><time>2026-04-06T08:29:55.977Z</time></trkpt><trkpt lat="44.5727017" lon="10.453125"><ele>491.75</ele><time>2026-04-06T08:29:56.976Z</time></trkpt><trkpt lat="44.5726067" lon="10.45304"><ele>493.0</ele><time>2026-04-06T08:29:57.977Z</time></trkpt><trkpt lat="44.572515" lon="10.4529367"><ele>493.25</ele><time>2026-04-06T08:29:58.977Z</time></trkpt><trkpt lat="44.5724367" lon="10.4528083"><ele>493.5</ele><time>2026-04-06T08:29:59.977Z</time></trkpt><trkpt lat="44.5723683" lon="10.4526617"><ele>493.75</ele><time>2026-04-06T08:30:00.976Z</time></trkpt><trkpt lat="44.572305" lon="10.4525033"><ele>494.0</ele><time>2026-04-06T08:30:01.976Z</time></trkpt><trkpt lat="44.5722417" lon="10.4523567"><ele>494.0</ele><time>2026-04-06T08:30:02.976Z</time></trkpt><trkpt lat="44.5721617" lon="10.4522167"><ele>494.0</ele><time>2026-04-06T08:30:03.976Z</time></trkpt><trkpt lat="44.5720667" lon="10.4521017"><ele>494.0</ele><time>2026-04-06T08:30:04.976Z</time></trkpt><trkpt lat="44.571975" lon="10.452"><ele>494.0</ele><time>2026-04-06T08:30:05.976Z</time></trkpt><trkpt lat="44.5718833" lon="10.45193"><ele>499.4</ele><time>2026-04-06T08:30:06.977Z</time></trkpt><trkpt lat="44.5717933" lon="10.4518817"><ele>504.79999999999995</ele><time>2026-04-06T08:30:07.976Z</time></trkpt><trkpt lat="44.5716933" lon="10.4518667"><ele>510.20000000000005</ele><time>2026-04-06T08:30:08.976Z</time></trkpt><trkpt lat="44.5715883" lon="10.4518917"><ele>515.6</ele><time>2026-04-06T08:30:09.976Z</time></trkpt><trkpt lat="44.57148" lon="10.451945"><ele>521.0</ele><time>2026-04-06T08:30:10.976Z</time></trkpt><trkpt lat="44.5713583" lon="10.452"><ele>521.0</ele><time>2026-04-06T08:30:11.976Z</time></trkpt><trkpt lat="44.5712317" lon="10.4520617"><ele>521.0</ele><time>2026-04-06T08:30:12.976Z</time></trkpt><trkpt lat="44.5711083" lon="10.45212"><ele>521.0</ele><time>2026-04-06T08:30:13.977Z</time></trkpt><trkpt lat="44.5709867" lon="10.4521667"><ele>521.0</ele><time>2026-04-06T08:30:14.977Z</time></trkpt><trkpt lat="44.5708717" lon="10.4522167"><ele>521.0</ele><time>2026-04-06T08:30:15.976Z</time></trkpt><trkpt lat="44.5707633" lon="10.4522633"><ele>521.0</ele><time>2026-04-06T08:30:16.976Z</time></trkpt><trkpt lat="44.57065" lon="10.4522833"><ele>521.0</ele><time>2026-04-06T08:30:17.976Z</time></trkpt><trkpt lat="44.5705333" lon="10.452275"><ele>521.0</ele><time>2026-04-06T08:30:18.976Z</time></trkpt><trkpt lat="44.5704267" lon="10.452245"><ele>523.6666666666666</ele><time>2026-04-06T08:30:19.976Z</time></trkpt><trkpt lat="44.5703317" lon="10.4522033"><ele>526.3333333333333</ele><time>2026-04-06T08:30:20.977Z</time></trkpt><trkpt lat="44.57025" lon="10.452165"><ele>529.0</ele><time>2026-04-06T08:30:21.977Z</time></trkpt><trkpt lat="44.57018" lon="10.4521283"><ele>531.6666666666666</ele><time>2026-04-06T08:30:22.976Z</time></trkpt><trkpt lat="44.5701167" lon="10.4520983"><ele>534.3333333333334</ele><time>2026-04-06T08:30:23.976Z</time></trkpt><trkpt lat="44.57007" lon="10.4519867"><ele>537.0</ele><time>2026-04-06T08:30:25.977Z</time></trkpt><trkpt lat="44.5701517" lon="10.451915"><ele>536.6</ele><time>2026-04-06T08:30:27.976Z</time></trkpt><trkpt lat="44.57024" lon="10.4519133"><ele>536.2</ele><time>2026-04-06T08:30:28.976Z</time></trkpt><trkpt lat="44.5703417" lon="10.451935"><ele>535.8</ele><time>2026-04-06T08:30:29.976Z</time></trkpt><trkpt lat="44.5704583" lon="10.451955"><ele>535.4</ele><time>2026-04-06T08:30:30.976Z</time></trkpt><trkpt lat="44.57057" lon="10.4519433"><ele>535.0</ele><time>2026-04-06T08:30:31.976Z</time></trkpt><trkpt lat="44.5706683" lon="10.4518817"><ele>535.0</ele><time>2026-04-06T08:30:32.976Z</time></trkpt><trkpt lat="44.570755" lon="10.4517733"><ele>535.0</ele><time>2026-04-06T08:30:33.977Z</time></trkpt><trkpt lat="44.5708467" lon="10.4516417"><ele>535.0</ele><time>2026-04-06T08:30:34.976Z</time></trkpt><trkpt lat="44.5709433" lon="10.4515033"><ele>535.0</ele><time>2026-04-06T08:30:35.976Z</time></trkpt><trkpt lat="44.5710433" lon="10.451365"><ele>533.5</ele><time>2026-04-06T08:30:36.976Z</time></trkpt><trkpt lat="44.5711433" lon="10.4512333"><ele>532.0</ele><time>2026-04-06T08:30:37.977Z</time></trkpt><trkpt lat="44.5712283" lon="10.4511033"><ele>530.5</ele><time>2026-04-06T08:30:38.976Z</time></trkpt><trkpt lat="44.5712967" lon="10.450975"><ele>529.0</ele><time>2026-04-06T08:30:39.976Z</time></trkpt><trkpt lat="44.5713633" lon="10.4508633"><ele>529.0</ele><time>2026-04-06T08:30:40.976Z</time></trkpt><trkpt lat="44.5714117" lon="10.4507383"><ele>529.0</ele><time>2026-04-06T08:30:41.977Z</time></trkpt><trkpt lat="44.5714333" lon="10.4506117"><ele>529.0</ele><time>2026-04-06T08:30:42.977Z</time></trkpt><trkpt lat="44.5714217" lon="10.4504867"><ele>529.0</ele><time>2026-04-06T08:30:43.976Z</time></trkpt><trkpt lat="44.571375" lon="10.4503633"><ele>529.0</ele><time>2026-04-06T08:30:44.976Z</time></trkpt><trkpt lat="44.5712983" lon="10.45025"><ele>528.5</ele><time>2026-04-06T08:30:45.977Z</time></trkpt><trkpt lat="44.571215" lon="10.4501117"><ele>528.0</ele><time>2026-04-06T08:30:46.976Z</time></trkpt><trkpt lat="44.57113" lon="10.449975"><ele>527.5</ele><time>2026-04-06T08:30:47.976Z</time></trkpt><trkpt lat="44.5710517" lon="10.449845"><ele>527.0</ele><time>2026-04-06T08:30:48.976Z</time></trkpt><trkpt lat="44.5709867" lon="10.4497367"><ele>526.4</ele><time>2026-04-06T08:30:49.976Z</time></trkpt><trkpt lat="44.570925" lon="10.4496483"><ele>525.8000000000001</ele><time>2026-04-06T08:30:50.976Z</time></trkpt><trkpt lat="44.5708467" lon="10.4495883"><ele>525.2</ele><time>2026-04-06T08:30:51.977Z</time></trkpt><trkpt lat="44.5707517" lon="10.4495667"><ele>524.6</ele><time>2026-04-06T08:30:52.976Z</time></trkpt><trkpt lat="44.570645" lon="10.4495933"><ele>524.0</ele><time>2026-04-06T08:30:53.976Z</time></trkpt><trkpt lat="44.5705267" lon="10.4496333"><ele>524.0</ele><time>2026-04-06T08:30:54.976Z</time></trkpt><trkpt lat="44.570395" lon="10.4496733"><ele>524.0</ele><time>2026-04-06T08:30:55.976Z</time></trkpt><trkpt lat="44.57026" lon="10.4496783"><ele>524.0</ele><time>2026-04-06T08:30:56.977Z</time></trkpt><trkpt lat="44.5701317" lon="10.4496467"><ele>524.0</ele><time>2026-04-06T08:30:57.977Z</time></trkpt><trkpt lat="44.5700083" lon="10.4495967"><ele>524.0</ele><time>2026-04-06T08:30:58.976Z</time></trkpt><trkpt lat="44.5698967" lon="10.4495367"><ele>524.0</ele><time>2026-04-06T08:30:59.976Z</time></trkpt><trkpt lat="44.5697867" lon="10.4495017"><ele>524.0</ele><time>2026-04-06T08:31:00.976Z</time></trkpt><trkpt lat="44.5696683" lon="10.44951"><ele>524.0</ele><time>2026-04-06T08:31:01.976Z</time></trkpt><trkpt lat="44.5695467" lon="10.4495283"><ele>523.5</ele><time>2026-04-06T08:31:02.976Z</time></trkpt><trkpt lat="44.5694183" lon="10.4495517"><ele>523.0</ele><time>2026-04-06T08:31:03.976Z</time></trkpt><trkpt lat="44.5693017" lon="10.449575"><ele>522.5</ele><time>2026-04-06T08:31:04.976Z</time></trkpt><trkpt lat="44.5691783" lon="10.4496083"><ele>522.0</ele><time>2026-04-06T08:31:05.976Z</time></trkpt><trkpt lat="44.5690583" lon="10.4496383"><ele>527.0</ele><time>2026-04-06T08:31:06.977Z</time></trkpt><trkpt lat="44.5689533" lon="10.44966"><ele>532.0</ele><time>2026-04-06T08:31:07.976Z</time></trkpt><trkpt lat="44.568845" lon="10.449685"><ele>537.0</ele><time>2026-04-06T08:31:08.976Z</time></trkpt><trkpt lat="44.56874" lon="10.4497167"><ele>542.0</ele><time>2026-04-06T08:31:09.976Z</time></trkpt><trkpt lat="44.5686533" lon="10.4497433"><ele>547.0</ele><time>2026-04-06T08:31:10.976Z</time></trkpt><trkpt lat="44.5685717" lon="10.449765"><ele>547.3333333333334</ele><time>2026-04-06T08:31:11.977Z</time></trkpt><trkpt lat="44.5685017" lon="10.4497833"><ele>547.6666666666667</ele><time>2026-04-06T08:31:12.977Z</time></trkpt><trkpt lat="44.5684017" lon="10.4497933"><ele>548.0</ele><time>2026-04-06T08:31:14.976Z</time></trkpt><trkpt lat="44.5683417" lon="10.4497583"><ele>548.3333333333334</ele><time>2026-04-06T08:31:17.977Z</time></trkpt><trkpt lat="44.5682333" lon="10.4497517"><ele>548.6666666666666</ele><time>2026-04-06T08:31:19.976Z</time></trkpt><trkpt lat="44.5681617" lon="10.4497417"><ele>549.0</ele><time>2026-04-06T08:31:20.976Z</time></trkpt><trkpt lat="44.568085" lon="10.44971"><ele>549.0</ele><time>2026-04-06T08:31:21.977Z</time></trkpt><trkpt lat="44.567995" lon="10.44964"><ele>549.0</ele><time>2026-04-06T08:31:22.976Z</time></trkpt><trkpt lat="44.567905" lon="10.4495317"><ele>549.0</ele><time>2026-04-06T08:31:23.976Z</time></trkpt><trkpt lat="44.5678217" lon="10.4494117"><ele>549.0</ele><time>2026-04-06T08:31:24.976Z</time></trkpt><trkpt lat="44.5677367" lon="10.4493017"><ele>546.0</ele><time>2026-04-06T08:31:25.976Z</time></trkpt><trkpt lat="44.5676483" lon="10.44923"><ele>543.0</ele><time>2026-04-06T08:31:26.977Z</time></trkpt><trkpt lat="44.567535" lon="10.4492083"><ele>540.0</ele><time>2026-04-06T08:31:27.976Z</time></trkpt><trkpt lat="44.56741" lon="10.449215"><ele>537.0</ele><time>2026-04-06T08:31:28.977Z</time></trkpt><trkpt lat="44.56729" lon="10.4492"><ele>537.0</ele><time>2026-04-06T08:31:29.976Z</time></trkpt><trkpt lat="44.5671783" lon="10.4491367"><ele>537.0</ele><time>2026-04-06T08:31:30.976Z</time></trkpt><trkpt lat="44.5671033" lon="10.44902"><ele>537.0</ele><time>2026-04-06T08:31:31.977Z</time></trkpt><trkpt lat="44.5670483" lon="10.4488783"><ele>537.0</ele><time>2026-04-06T08:31:32.976Z</time></trkpt><trkpt lat="44.5669883" lon="10.4487517"><ele>537.2</ele><time>2026-04-06T08:31:33.976Z</time></trkpt><trkpt lat="44.56691" lon="10.448675"><ele>537.4000000000001</ele><time>2026-04-06T08:31:34.976Z</time></trkpt><trkpt lat="44.56681" lon="10.4486617"><ele>537.5999999999999</ele><time>2026-04-06T08:31:35.976Z</time></trkpt><trkpt lat="44.5667" lon="10.4486883"><ele>537.8</ele><time>2026-04-06T08:31:36.976Z</time></trkpt><trkpt lat="44.5665717" lon="10.448745"><ele>538.0</ele><time>2026-04-06T08:31:37.976Z</time></trkpt><trkpt lat="44.5664383" lon="10.4487883"><ele>538.0</ele><time>2026-04-06T08:31:38.976Z</time></trkpt><trkpt lat="44.5663117" lon="10.4487917"><ele>538.0</ele><time>2026-04-06T08:31:39.976Z</time></trkpt><trkpt lat="44.566205" lon="10.4487417"><ele>538.0</ele><time>2026-04-06T08:31:40.976Z</time></trkpt><trkpt lat="44.5661167" lon="10.4486283"><ele>538.0</ele><time>2026-04-06T08:31:41.976Z</time></trkpt><trkpt lat="44.5660383" lon="10.4484767"><ele>544.25</ele><time>2026-04-06T08:31:42.976Z</time></trkpt><trkpt lat="44.5659517" lon="10.4483383"><ele>550.5</ele><time>2026-04-06T08:31:43.976Z</time></trkpt><trkpt lat="44.56585" lon="10.4482383"><ele>556.75</ele><time>2026-04-06T08:31:44.976Z</time></trkpt><trkpt lat="44.5657217" lon="10.44818"><ele>563.0</ele><time>2026-04-06T08:31:45.976Z</time></trkpt><trkpt lat="44.565575" lon="10.448165"><ele>563.0</ele><time>2026-04-06T08:31:46.976Z</time></trkpt><trkpt lat="44.5654233" lon="10.4481717"><ele>563.0</ele><time>2026-04-06T08:31:47.977Z</time></trkpt><trkpt lat="44.5652667" lon="10.44818"><ele>563.0</ele><time>2026-04-06T08:31:48.976Z</time></trkpt><trkpt lat="44.565125" lon="10.44817"><ele>562.5</ele><time>2026-04-06T08:31:49.976Z</time></trkpt><trkpt lat="44.5650017" lon="10.4481333"><ele>562.0</ele><time>2026-04-06T08:31:50.977Z</time></trkpt><trkpt lat="44.5648967" lon="10.4480567"><ele>561.5</ele><time>2026-04-06T08:31:51.976Z</time></trkpt><trkpt lat="44.5648067" lon="10.4479283"><ele>561.0</ele><time>2026-04-06T08:31:52.976Z</time></trkpt><trkpt lat="44.564735" lon="10.4477583"><ele>561.0</ele><time>2026-04-06T08:31:53.976Z</time></trkpt><trkpt lat="44.5646667" lon="10.4475833"><ele>561.0</ele><time>2026-04-06T08:31:54.976Z</time></trkpt><trkpt lat="44.5645833" lon="10.4474167"><ele>561.0</ele><time>2026-04-06T08:31:55.976Z</time></trkpt><trkpt lat="44.5645017" lon="10.4472483"><ele>561.0</ele><time>2026-04-06T08:31:56.976Z</time></trkpt><trkpt lat="44.5644183" lon="10.4470833"><ele>563.75</ele><time>2026-04-06T08:31:57.976Z</time></trkpt><trkpt lat="44.5643367" lon="10.4469417"><ele>566.5</ele><time>2026-04-06T08:31:58.976Z</time></trkpt><trkpt lat="44.5642333" lon="10.446835"><ele>569.25</ele><time>2026-04-06T08:31:59.976Z</time></trkpt><trkpt lat="44.5641033" lon="10.4467683"><ele>572.0</ele><time>2026-04-06T08:32:00.976Z</time></trkpt><trkpt lat="44.5639717" lon="10.4467133"><ele>572.0</ele><time>2026-04-06T08:32:01.976Z</time></trkpt><trkpt lat="44.5638533" lon="10.446665"><ele>572.0</ele><time>2026-04-06T08:32:02.977Z</time></trkpt><trkpt lat="44.563745" lon="10.44662"><ele>572.0</ele><time>2026-04-06T08:32:03.976Z</time></trkpt><trkpt lat="44.5636417" lon="10.4466017"><ele>572.0</ele><time>2026-04-06T08:32:04.976Z</time></trkpt><trkpt lat="44.5635567" lon="10.4466367"><ele>572.0</ele><time>2026-04-06T08:32:05.976Z</time></trkpt><trkpt lat="44.5634817" lon="10.44671"><ele>573.25</ele><time>2026-04-06T08:32:06.977Z</time></trkpt><trkpt lat="44.5634317" lon="10.4468167"><ele>574.5</ele><time>2026-04-06T08:32:07.976Z</time></trkpt><trkpt lat="44.5634033" lon="10.4469667"><ele>575.75</ele><time>2026-04-06T08:32:08.977Z</time></trkpt><trkpt lat="44.5633767" lon="10.4471517"><ele>577.0</ele><time>2026-04-06T08:32:09.976Z</time></trkpt><trkpt lat="44.56332" lon="10.44734"><ele>579.6666666666667</ele><time>2026-04-06T08:32:10.976Z</time></trkpt><trkpt lat="44.56325" lon="10.4475233"><ele>582.3333333333334</ele><time>2026-04-06T08:32:11.976Z</time></trkpt><trkpt lat="44.5631733" lon="10.44771"><ele>585.0</ele><time>2026-04-06T08:32:12.976Z</time></trkpt><trkpt lat="44.5631083" lon="10.4478983"><ele>587.75</ele><time>2026-04-06T08:32:13.976Z</time></trkpt><trkpt lat="44.5630517" lon="10.4480733"><ele>590.5</ele><time>2026-04-06T08:32:14.976Z</time></trkpt><trkpt lat="44.5630033" lon="10.44823"><ele>593.25</ele><time>2026-04-06T08:32:15.976Z</time></trkpt><trkpt lat="44.5629833" lon="10.4483717"><ele>596.0</ele><time>2026-04-06T08:32:16.976Z</time></trkpt><trkpt lat="44.5629967" lon="10.4485033"><ele>596.0</ele><time>2026-04-06T08:32:17.977Z</time></trkpt><trkpt lat="44.563045" lon="10.44862"><ele>596.0</ele><time>2026-04-06T08:32:18.976Z</time></trkpt><trkpt lat="44.5631317" lon="10.448745"><ele>596.0</ele><time>2026-04-06T08:32:19.976Z</time></trkpt><trkpt lat="44.5632183" lon="10.44888"><ele>596.0</ele><time>2026-04-06T08:32:20.977Z</time></trkpt><trkpt lat="44.56328" lon="10.449035"><ele>594.5</ele><time>2026-04-06T08:32:21.976Z</time></trkpt><trkpt lat="44.56332" lon="10.4491967"><ele>593.0</ele><time>2026-04-06T08:32:22.976Z</time></trkpt><trkpt lat="44.5633333" lon="10.4493683"><ele>591.5</ele><time>2026-04-06T08:32:23.976Z</time></trkpt><trkpt lat="44.5633433" lon="10.44954"><ele>590.0</ele><time>2026-04-06T08:32:24.976Z</time></trkpt><trkpt lat="44.5633467" lon="10.4497017"><ele>589.6</ele><time>2026-04-06T08:32:25.977Z</time></trkpt><trkpt lat="44.56336" lon="10.44985"><ele>589.2</ele><time>2026-04-06T08:32:26.976Z</time></trkpt><trkpt lat="44.5633667" lon="10.45"><ele>588.8</ele><time>2026-04-06T08:32:27.976Z</time></trkpt><trkpt lat="44.56338" lon="10.4501367"><ele>588.4</ele><time>2026-04-06T08:32:28.976Z</time></trkpt><trkpt lat="44.5633917" lon="10.4502667"><ele>588.0</ele><time>2026-04-06T08:32:29.976Z</time></trkpt><trkpt lat="44.563385" lon="10.45038"><ele>591.1999999999999</ele><time>2026-04-06T08:32:30.976Z</time></trkpt><trkpt lat="44.563355" lon="10.4504967"><ele>594.4</ele><time>2026-04-06T08:32:31.976Z</time></trkpt><trkpt lat="44.563285" lon="10.4505717"><ele>597.5999999999999</ele><time>2026-04-06T08:32:32.976Z</time></trkpt><trkpt lat="44.5631883" lon="10.4506167"><ele>600.8</ele><time>2026-04-06T08:32:33.977Z</time></trkpt><trkpt lat="44.5630783" lon="10.4506167"><ele>604.0</ele><time>2026-04-06T08:32:34.976Z</time></trkpt><trkpt lat="44.5629667" lon="10.4505583"><ele>606.5</ele><time>2026-04-06T08:32:35.977Z</time></trkpt><trkpt lat="44.562845" lon="10.4504767"><ele>609.0</ele><time>2026-04-06T08:32:36.977Z</time></trkpt><trkpt lat="44.562725" lon="10.4504117"><ele>611.5</ele><time>2026-04-06T08:32:37.977Z</time></trkpt><trkpt lat="44.5626083" lon="10.4503583"><ele>614.0</ele><time>2026-04-06T08:32:38.976Z</time></trkpt><trkpt lat="44.5624917" lon="10.4503133"><ele>604.0</ele><time>2026-04-06T08:32:39.976Z</time></trkpt><trkpt lat="44.5623733" lon="10.450275"><ele>594.0</ele><time>2026-04-06T08:32:40.976Z</time></trkpt><trkpt lat="44.562255" lon="10.4502433"><ele>584.0</ele><time>2026-04-06T08:32:41.976Z</time></trkpt><trkpt lat="44.562125" lon="10.4502333"><ele>574.0</ele><time>2026-04-06T08:32:42.976Z</time></trkpt><trkpt lat="44.5619867" lon="10.4502383"><ele>574.0</ele><time>2026-04-06T08:32:43.976Z</time></trkpt><trkpt lat="44.561845" lon="10.4502333"><ele>574.0</ele><time>2026-04-06T08:32:44.976Z</time></trkpt><trkpt lat="44.56172" lon="10.450225"><ele>574.0</ele><time>2026-04-06T08:32:45.976Z</time></trkpt><trkpt lat="44.5616083" lon="10.4502167"><ele>574.0</ele><time>2026-04-06T08:32:46.976Z</time></trkpt><trkpt lat="44.5615" lon="10.4502317"><ele>574.0</ele><time>2026-04-06T08:32:47.976Z</time></trkpt><trkpt lat="44.5613983" lon="10.450275"><ele>574.0</ele><time>2026-04-06T08:32:48.976Z</time></trkpt><trkpt lat="44.5613" lon="10.4503333"><ele>574.0</ele><time>2026-04-06T08:32:49.977Z</time></trkpt><trkpt lat="44.5612117" lon="10.4504083"><ele>574.0</ele><time>2026-04-06T08:32:50.977Z</time></trkpt><trkpt lat="44.56112" lon="10.45047"><ele>574.0</ele><time>2026-04-06T08:32:51.976Z</time></trkpt><trkpt lat="44.5610333" lon="10.4505317"><ele>578.2</ele><time>2026-04-06T08:32:52.976Z</time></trkpt><trkpt lat="44.5609433" lon="10.4505717"><ele>582.4</ele><time>2026-04-06T08:32:53.977Z</time></trkpt><trkpt lat="44.5608467" lon="10.4505883"><ele>586.6</ele><time>2026-04-06T08:32:54.976Z</time></trkpt><trkpt lat="44.5607467" lon="10.4505867"><ele>590.8</ele><time>2026-04-06T08:32:55.976Z</time></trkpt><trkpt lat="44.5606483" lon="10.4505883"><ele>595.0</ele><time>2026-04-06T08:32:56.976Z</time></trkpt><trkpt lat="44.5605483" lon="10.4505883"><ele>595.0</ele><time>2026-04-06T08:32:57.976Z</time></trkpt><trkpt lat="44.5604433" lon="10.4506133"><ele>595.0</ele><time>2026-04-06T08:32:58.976Z</time></trkpt><trkpt lat="44.5603433" lon="10.45068"><ele>595.0</ele><time>2026-04-06T08:32:59.977Z</time></trkpt><trkpt lat="44.5602517" lon="10.4507817"><ele>595.0</ele><time>2026-04-06T08:33:00.976Z</time></trkpt><trkpt lat="44.5601667" lon="10.4509033"><ele>592.5</ele><time>2026-04-06T08:33:01.976Z</time></trkpt><trkpt lat="44.5600933" lon="10.4510417"><ele>590.0</ele><time>2026-04-06T08:33:02.976Z</time></trkpt><trkpt lat="44.5600367" lon="10.45118"><ele>587.5</ele><time>2026-04-06T08:33:03.976Z</time></trkpt><trkpt lat="44.5599917" lon="10.4513233"><ele>585.0</ele><time>2026-04-06T08:33:04.976Z</time></trkpt><trkpt lat="44.559975" lon="10.45149"><ele>585.0</ele><time>2026-04-06T08:33:05.976Z</time></trkpt><trkpt lat="44.5599717" lon="10.451655"><ele>585.0</ele><time>2026-04-06T08:33:06.976Z</time></trkpt><trkpt lat="44.559955" lon="10.4518033"><ele>585.0</ele><time>2026-04-06T08:33:07.976Z</time></trkpt><trkpt lat="44.5599267" lon="10.4519467"><ele>585.0</ele><time>2026-04-06T08:33:08.976Z</time></trkpt><trkpt lat="44.55989" lon="10.4520717"><ele>585.0</ele><time>2026-04-06T08:33:09.976Z</time></trkpt><trkpt lat="44.5598183" lon="10.4521583"><ele>586.2</ele><time>2026-04-06T08:33:10.976Z</time></trkpt><trkpt lat="44.5597317" lon="10.4522233"><ele>587.4</ele><time>2026-04-06T08:33:11.976Z</time></trkpt><trkpt lat="44.55965" lon="10.4523117"><ele>588.6</ele><time>2026-04-06T08:33:12.976Z</time></trkpt><trkpt lat="44.559595" lon="10.45244"><ele>589.8</ele><time>2026-04-06T08:33:13.976Z</time></trkpt><trkpt lat="44.559555" lon="10.45259"><ele>591.0</ele><time>2026-04-06T08:33:14.976Z</time></trkpt><trkpt lat="44.55951" lon="10.45274"><ele>588.75</ele><time>2026-04-06T08:33:15.976Z</time></trkpt><trkpt lat="44.5594667" lon="10.4528917"><ele>586.5</ele><time>2026-04-06T08:33:16.976Z</time></trkpt><trkpt lat="44.5594133" lon="10.45303"><ele>584.25</ele><time>2026-04-06T08:33:17.976Z</time></trkpt><trkpt lat="44.5593433" lon="10.4531633"><ele>582.0</ele><time>2026-04-06T08:33:18.976Z</time></trkpt><trkpt lat="44.5592483" lon="10.45326"><ele>582.0</ele><time>2026-04-06T08:33:19.976Z</time></trkpt><trkpt lat="44.559145" lon="10.4533567"><ele>582.0</ele><time>2026-04-06T08:33:20.977Z</time></trkpt><trkpt lat="44.55904" lon="10.45344"><ele>582.0</ele><time>2026-04-06T08:33:21.977Z</time></trkpt><trkpt lat="44.5589367" lon="10.453535"><ele>582.0</ele><time>2026-04-06T08:33:22.976Z</time></trkpt><trkpt lat="44.5588383" lon="10.453645"><ele>582.0</ele><time>2026-04-06T08:33:23.977Z</time></trkpt><trkpt lat="44.55875" lon="10.4537817"><ele>582.0</ele><time>2026-04-06T08:33:24.976Z</time></trkpt><trkpt lat="44.5586783" lon="10.453925"><ele>582.0</ele><time>2026-04-06T08:33:25.976Z</time></trkpt><trkpt lat="44.5586083" lon="10.4540583"><ele>582.0</ele><time>2026-04-06T08:33:26.976Z</time></trkpt><trkpt lat="44.5585367" lon="10.4541867"><ele>581.5</ele><time>2026-04-06T08:33:27.976Z</time></trkpt><trkpt lat="44.5584467" lon="10.4542983"><ele>581.0</ele><time>2026-04-06T08:33:28.977Z</time></trkpt><trkpt lat="44.5583433" lon="10.4543917"><ele>580.5</ele><time>2026-04-06T08:33:29.977Z</time></trkpt><trkpt lat="44.5582383" lon="10.4544883"><ele>580.0</ele><time>2026-04-06T08:33:30.977Z</time></trkpt><trkpt lat="44.5581467" lon="10.4545867"><ele>581.0</ele><time>2026-04-06T08:33:31.976Z</time></trkpt><trkpt lat="44.55806" lon="10.4546767"><ele>582.0</ele><time>2026-04-06T08:33:32.977Z</time></trkpt><trkpt lat="44.557975" lon="10.4547583"><ele>583.0</ele><time>2026-04-06T08:33:33.976Z</time></trkpt><trkpt lat="44.5578867" lon="10.4548333"><ele>584.0</ele><time>2026-04-06T08:33:34.976Z</time></trkpt><trkpt lat="44.55779" lon="10.4549"><ele>585.0</ele><time>2026-04-06T08:33:35.977Z</time></trkpt><trkpt lat="44.5576833" lon="10.4549567"><ele>585.0</ele><time>2026-04-06T08:33:36.976Z</time></trkpt><trkpt lat="44.5575717" lon="10.455"><ele>585.0</ele><time>2026-04-06T08:33:37.977Z</time></trkpt><trkpt lat="44.5574617" lon="10.4550317"><ele>585.0</ele><time>2026-04-06T08:33:38.976Z</time></trkpt><trkpt lat="44.5573617" lon="10.4550767"><ele>585.0</ele><time>2026-04-06T08:33:39.977Z</time></trkpt><trkpt lat="44.5572583" lon="10.4551117"><ele>585.0</ele><time>2026-04-06T08:33:40.976Z</time></trkpt><trkpt lat="44.557145" lon="10.4551417"><ele>585.0</ele><time>2026-04-06T08:33:41.976Z</time></trkpt><trkpt lat="44.5570167" lon="10.45519"><ele>585.0</ele><time>2026-04-06T08:33:42.977Z</time></trkpt><trkpt lat="44.5568917" lon="10.4552767"><ele>585.0</ele><time>2026-04-06T08:33:43.976Z</time></trkpt><trkpt lat="44.5567517" lon="10.4553733"><ele>585.0</ele><time>2026-04-06T08:33:44.976Z</time></trkpt><trkpt lat="44.5566183" lon="10.4554883"><ele>584.3333333333334</ele><time>2026-04-06T08:33:45.976Z</time></trkpt><trkpt lat="44.5564833" lon="10.4556033"><ele>583.6666666666667</ele><time>2026-04-06T08:33:46.977Z</time></trkpt><trkpt lat="44.55634" lon="10.4557267"><ele>583.0</ele><time>2026-04-06T08:33:47.976Z</time></trkpt><trkpt lat="44.55619" lon="10.455845"><ele>583.0</ele><time>2026-04-06T08:33:48.976Z</time></trkpt><trkpt lat="44.5560267" lon="10.4559667"><ele>583.0</ele><time>2026-04-06T08:33:49.976Z</time></trkpt><trkpt lat="44.5558817" lon="10.4560817"><ele>583.0</ele><time>2026-04-06T08:33:50.977Z</time></trkpt><trkpt lat="44.5557567" lon="10.4561933"><ele>584.3333333333334</ele><time>2026-04-06T08:33:51.977Z</time></trkpt><trkpt lat="44.5556433" lon="10.45635"><ele>585.6666666666666</ele><time>2026-04-06T08:33:52.977Z</time></trkpt><trkpt lat="44.555545" lon="10.4565417"><ele>587.0</ele><time>2026-04-06T08:33:53.976Z</time></trkpt><trkpt lat="44.55545" lon="10.4567383"><ele>587.6666666666666</ele><time>2026-04-06T08:33:54.977Z</time></trkpt><trkpt lat="44.5553367" lon="10.4569317"><ele>588.3333333333334</ele><time>2026-04-06T08:33:55.976Z</time></trkpt><trkpt lat="44.5552" lon="10.4571067"><ele>589.0</ele><time>2026-04-06T08:33:56.976Z</time></trkpt><trkpt lat="44.555045" lon="10.4572667"><ele>589.0</ele><time>2026-04-06T08:33:57.977Z</time></trkpt><trkpt lat="44.55487" lon="10.45742"><ele>589.0</ele><time>2026-04-06T08:33:58.976Z</time></trkpt><trkpt lat="44.554695" lon="10.4575583"><ele>589.0</ele><time>2026-04-06T08:33:59.976Z</time></trkpt><trkpt lat="44.55452" lon="10.457695"><ele>588.6666666666667</ele><time>2026-04-06T08:34:00.976Z</time></trkpt><trkpt lat="44.5543533" lon="10.4578267"><ele>588.3333333333334</ele><time>2026-04-06T08:34:01.976Z</time></trkpt><trkpt lat="44.5541717" lon="10.4579683"><ele>588.0</ele><time>2026-04-06T08:34:02.977Z</time></trkpt><trkpt lat="44.5539967" lon="10.4581167"><ele>590.0</ele><time>2026-04-06T08:34:03.977Z</time></trkpt><trkpt lat="44.553825" lon="10.458255"><ele>592.0</ele><time>2026-04-06T08:34:04.976Z</time></trkpt><trkpt lat="44.553655" lon="10.4583933"><ele>594.0</ele><time>2026-04-06T08:34:05.976Z</time></trkpt><trkpt lat="44.5534933" lon="10.4585283"><ele>594.0</ele><time>2026-04-06T08:34:06.976Z</time></trkpt><trkpt lat="44.5533333" lon="10.4586633"><ele>594.0</ele><time>2026-04-06T08:34:07.976Z</time></trkpt><trkpt lat="44.5531783" lon="10.4587917"><ele>594.0</ele><time>2026-04-06T08:34:08.977Z</time></trkpt><trkpt lat="44.5530383" lon="10.4589267"><ele>596.0</ele><time>2026-04-06T08:34:09.976Z</time></trkpt><trkpt lat="44.55291" lon="10.45907"><ele>598.0</ele><time>2026-04-06T08:34:10.976Z</time></trkpt><trkpt lat="44.5528" lon="10.4592267"><ele>600.0</ele><time>2026-04-06T08:34:11.976Z</time></trkpt><trkpt lat="44.5527033" lon="10.4593717"><ele>600.0</ele><time>2026-04-06T08:34:12.976Z</time></trkpt><trkpt lat="44.5526083" lon="10.4595"><ele>600.0</ele><time>2026-04-06T08:34:13.976Z</time></trkpt><trkpt lat="44.5525017" lon="10.4595983"><ele>600.0</ele><time>2026-04-06T08:34:14.977Z</time></trkpt><trkpt lat="44.5523833" lon="10.4596583"><ele>600.0</ele><time>2026-04-06T08:34:15.976Z</time></trkpt><trkpt lat="44.5522483" lon="10.4596633"><ele>601.5</ele><time>2026-04-06T08:34:16.976Z</time></trkpt><trkpt lat="44.5521033" lon="10.45966"><ele>603.0</ele><time>2026-04-06T08:34:17.976Z</time></trkpt><trkpt lat="44.5519633" lon="10.4596733"><ele>604.5</ele><time>2026-04-06T08:34:18.976Z</time></trkpt><trkpt lat="44.5518067" lon="10.4596767"><ele>606.0</ele><time>2026-04-06T08:34:19.976Z</time></trkpt><trkpt lat="44.5516617" lon="10.459665"><ele>609.75</ele><time>2026-04-06T08:34:20.976Z</time></trkpt><trkpt lat="44.551525" lon="10.459645"><ele>613.5</ele><time>2026-04-06T08:34:21.976Z</time></trkpt><trkpt lat="44.5513967" lon="10.4596383"><ele>617.25</ele><time>2026-04-06T08:34:22.977Z</time></trkpt><trkpt lat="44.55127" lon="10.4596667"><ele>621.0</ele><time>2026-04-06T08:34:23.976Z</time></trkpt><trkpt lat="44.55114" lon="10.4597267"><ele>622.25</ele><time>2026-04-06T08:34:24.976Z</time></trkpt><trkpt lat="44.55102" lon="10.4597967"><ele>623.5</ele><time>2026-04-06T08:34:25.976Z</time></trkpt><trkpt lat="44.5509" lon="10.4598333"><ele>624.75</ele><time>2026-04-06T08:34:26.976Z</time></trkpt><trkpt lat="44.5507783" lon="10.4598317"><ele>626.0</ele><time>2026-04-06T08:34:27.976Z</time></trkpt><trkpt lat="44.5506567" lon="10.4598"><ele>626.0</ele><time>2026-04-06T08:34:28.976Z</time></trkpt><trkpt lat="44.55053" lon="10.4597333"><ele>626.0</ele><time>2026-04-06T08:34:29.977Z</time></trkpt><trkpt lat="44.550405" lon="10.4596467"><ele>626.0</ele><time>2026-04-06T08:34:30.977Z</time></trkpt><trkpt lat="44.55029" lon="10.4595433"><ele>626.0</ele><time>2026-04-06T08:34:31.976Z</time></trkpt><trkpt lat="44.5501733" lon="10.4594167"><ele>626.3333333333333</ele><time>2026-04-06T08:34:32.976Z</time></trkpt><trkpt lat="44.5500667" lon="10.4592667"><ele>626.6666666666666</ele><time>2026-04-06T08:34:33.977Z</time></trkpt><trkpt lat="44.5499783" lon="10.459085"><ele>627.0</ele><time>2026-04-06T08:34:34.976Z</time></trkpt><trkpt lat="44.5499083" lon="10.4588733"><ele>625.3333333333334</ele><time>2026-04-06T08:34:35.976Z</time></trkpt><trkpt lat="44.5498567" lon="10.4586533"><ele>623.6666666666667</ele><time>2026-04-06T08:34:36.976Z</time></trkpt><trkpt lat="44.5498217" lon="10.4584167"><ele>622.0</ele><time>2026-04-06T08:34:37.976Z</time></trkpt><trkpt lat="44.5498067" lon="10.4581767"><ele>621.0</ele><time>2026-04-06T08:34:38.976Z</time></trkpt><trkpt lat="44.54981" lon="10.4579267"><ele>620.0</ele><time>2026-04-06T08:34:39.976Z</time></trkpt><trkpt lat="44.5497967" lon="10.4576667"><ele>619.0</ele><time>2026-04-06T08:34:40.976Z</time></trkpt><trkpt lat="44.5497833" lon="10.4574217"><ele>619.0</ele><time>2026-04-06T08:34:41.976Z</time></trkpt><trkpt lat="44.549765" lon="10.4571767"><ele>619.0</ele><time>2026-04-06T08:34:42.976Z</time></trkpt><trkpt lat="44.5497233" lon="10.4569583"><ele>619.0</ele><time>2026-04-06T08:34:43.976Z</time></trkpt><trkpt lat="44.5496733" lon="10.4567833"><ele>618.4</ele><time>2026-04-06T08:34:44.976Z</time></trkpt><trkpt lat="44.5496133" lon="10.456655"><ele>617.8</ele><time>2026-04-06T08:34:45.976Z</time></trkpt><trkpt lat="44.5495367" lon="10.4565733"><ele>617.2</ele><time>2026-04-06T08:34:46.976Z</time></trkpt><trkpt lat="44.549455" lon="10.456535"><ele>616.6</ele><time>2026-04-06T08:34:47.976Z</time></trkpt><trkpt lat="44.5493617" lon="10.456545"><ele>616.0</ele><time>2026-04-06T08:34:48.977Z</time></trkpt><trkpt lat="44.5492583" lon="10.456605"><ele>620.3333333333334</ele><time>2026-04-06T08:34:49.976Z</time></trkpt><trkpt lat="44.5491467" lon="10.4567133"><ele>624.6666666666666</ele><time>2026-04-06T08:34:50.976Z</time></trkpt><trkpt lat="44.5490333" lon="10.45687"><ele>629.0</ele><time>2026-04-06T08:34:51.977Z</time></trkpt><trkpt lat="44.5489117" lon="10.457045"><ele>630.25</ele><time>2026-04-06T08:34:52.976Z</time></trkpt><trkpt lat="44.5487983" lon="10.4572"><ele>631.5</ele><time>2026-04-06T08:34:53.976Z</time></trkpt><trkpt lat="44.5486867" lon="10.45733"><ele>632.75</ele><time>2026-04-06T08:34:54.976Z</time></trkpt><trkpt lat="44.5485683" lon="10.4574333"><ele>634.0</ele><time>2026-04-06T08:34:55.977Z</time></trkpt><trkpt lat="44.548445" lon="10.457515"><ele>634.0</ele><time>2026-04-06T08:34:56.976Z</time></trkpt><trkpt lat="44.5483167" lon="10.457545"><ele>634.0</ele><time>2026-04-06T08:34:57.977Z</time></trkpt><trkpt lat="44.5481767" lon="10.4575433"><ele>634.0</ele><time>2026-04-06T08:34:58.976Z</time></trkpt><trkpt lat="44.5480267" lon="10.4575467"><ele>634.0</ele><time>2026-04-06T08:34:59.976Z</time></trkpt><trkpt lat="44.54787" lon="10.4575733"><ele>633.3333333333334</ele><time>2026-04-06T08:35:00.976Z</time></trkpt><trkpt lat="44.5477117" lon="10.457605"><ele>632.6666666666666</ele><time>2026-04-06T08:35:01.976Z</time></trkpt><trkpt lat="44.5475517" lon="10.4576317"><ele>632.0</ele><time>2026-04-06T08:35:02.977Z</time></trkpt><trkpt lat="44.5474033" lon="10.45764"><ele>632.0</ele><time>2026-04-06T08:35:03.976Z</time></trkpt><trkpt lat="44.547265" lon="10.45763"><ele>632.0</ele><time>2026-04-06T08:35:04.976Z</time></trkpt><trkpt lat="44.5471317" lon="10.4576183"><ele>632.0</ele><time>2026-04-06T08:35:05.976Z</time></trkpt><trkpt lat="44.5470183" lon="10.457625"><ele>632.0</ele><time>2026-04-06T08:35:06.976Z</time></trkpt><trkpt lat="44.5469083" lon="10.4576867"><ele>630.75</ele><time>2026-04-06T08:35:07.976Z</time></trkpt><trkpt lat="44.5468017" lon="10.4578133"><ele>629.5</ele><time>2026-04-06T08:35:08.977Z</time></trkpt><trkpt lat="44.546695" lon="10.457955"><ele>628.25</ele><time>2026-04-06T08:35:09.977Z</time></trkpt><trkpt lat="44.54657" lon="10.4580683"><ele>627.0</ele><time>2026-04-06T08:35:10.977Z</time></trkpt><trkpt lat="44.546445" lon="10.4581383"><ele>626.0</ele><time>2026-04-06T08:35:11.976Z</time></trkpt><trkpt lat="44.546335" lon="10.458195"><ele>625.0</ele><time>2026-04-06T08:35:12.976Z</time></trkpt><trkpt lat="44.54625" lon="10.4582717"><ele>624.0</ele><time>2026-04-06T08:35:13.976Z</time></trkpt><trkpt lat="44.5461833" lon="10.4583933"><ele>623.0</ele><time>2026-04-06T08:35:14.976Z</time></trkpt><trkpt lat="44.5461783" lon="10.458555"><ele>622.0</ele><time>2026-04-06T08:35:15.976Z</time></trkpt><trkpt lat="44.5462017" lon="10.4587233"><ele>630.0</ele><time>2026-04-06T08:35:16.977Z</time></trkpt><trkpt lat="44.5462433" lon="10.4589183"><ele>638.0</ele><time>2026-04-06T08:35:17.976Z</time></trkpt><trkpt lat="44.5462733" lon="10.459125"><ele>646.0</ele><time>2026-04-06T08:35:18.977Z</time></trkpt><trkpt lat="44.54629" lon="10.4593333"><ele>654.0</ele><time>2026-04-06T08:35:19.976Z</time></trkpt><trkpt lat="44.5462917" lon="10.459545"><ele>656.5</ele><time>2026-04-06T08:35:20.976Z</time></trkpt><trkpt lat="44.5462783" lon="10.459735"><ele>659.0</ele><time>2026-04-06T08:35:21.976Z</time></trkpt><trkpt lat="44.5462483" lon="10.4599283"><ele>661.5</ele><time>2026-04-06T08:35:22.976Z</time></trkpt><trkpt lat="44.5461633" lon="10.4601083"><ele>664.0</ele><time>2026-04-06T08:35:23.976Z</time></trkpt><trkpt lat="44.5460833" lon="10.4602867"><ele>659.5</ele><time>2026-04-06T08:35:24.977Z</time></trkpt><trkpt lat="44.54601" lon="10.4604467"><ele>655.0</ele><time>2026-04-06T08:35:25.976Z</time></trkpt><trkpt lat="44.54593" lon="10.4605983"><ele>650.5</ele><time>2026-04-06T08:35:26.976Z</time></trkpt><trkpt lat="44.5458383" lon="10.46073"><ele>646.0</ele><time>2026-04-06T08:35:27.977Z</time></trkpt><trkpt lat="44.5457217" lon="10.46083"><ele>646.0</ele><time>2026-04-06T08:35:28.976Z</time></trkpt><trkpt lat="44.5455917" lon="10.4609167"><ele>646.0</ele><time>2026-04-06T08:35:29.976Z</time></trkpt><trkpt lat="44.54544" lon="10.460975"><ele>646.0</ele><time>2026-04-06T08:35:30.976Z</time></trkpt><trkpt lat="44.54529" lon="10.4609983"><ele>644.3333333333334</ele><time>2026-04-06T08:35:31.976Z</time></trkpt><trkpt lat="44.5451283" lon="10.4609817"><ele>642.6666666666666</ele><time>2026-04-06T08:35:32.976Z</time></trkpt><trkpt lat="44.5449783" lon="10.4609383"><ele>641.0</ele><time>2026-04-06T08:35:33.976Z</time></trkpt><trkpt lat="44.5448417" lon="10.4609083"><ele>641.0</ele><time>2026-04-06T08:35:34.977Z</time></trkpt><trkpt lat="44.5447333" lon="10.4609183"><ele>641.0</ele><time>2026-04-06T08:35:35.976Z</time></trkpt><trkpt lat="44.5446483" lon="10.4609617"><ele>641.0</ele><time>2026-04-06T08:35:36.976Z</time></trkpt><trkpt lat="44.5445867" lon="10.461055"><ele>641.0</ele><time>2026-04-06T08:35:37.977Z</time></trkpt><trkpt lat="44.5445333" lon="10.4611883"><ele>641.0</ele><time>2026-04-06T08:35:38.977Z</time></trkpt><trkpt lat="44.5444783" lon="10.4613433"><ele>639.25</ele><time>2026-04-06T08:35:39.976Z</time></trkpt><trkpt lat="44.5444167" lon="10.4615183"><ele>637.5</ele><time>2026-04-06T08:35:40.976Z</time></trkpt><trkpt lat="44.5443567" lon="10.4617033"><ele>635.75</ele><time>2026-04-06T08:35:41.976Z</time></trkpt><trkpt lat="44.5442983" lon="10.4618983"><ele>634.0</ele><time>2026-04-06T08:35:42.976Z</time></trkpt><trkpt lat="44.544245" lon="10.46208"><ele>636.0</ele><time>2026-04-06T08:35:43.976Z</time></trkpt><trkpt lat="44.544185" lon="10.46226"><ele>638.0</ele><time>2026-04-06T08:35:44.976Z</time></trkpt><trkpt lat="44.5441117" lon="10.4624233"><ele>640.0</ele><time>2026-04-06T08:35:45.976Z</time></trkpt><trkpt lat="44.5440283" lon="10.46258"><ele>642.0</ele><time>2026-04-06T08:35:46.977Z</time></trkpt><trkpt lat="44.5439683" lon="10.4627567"><ele>642.0</ele><time>2026-04-06T08:35:47.976Z</time></trkpt><trkpt lat="44.543935" lon="10.4629317"><ele>642.0</ele><time>2026-04-06T08:35:48.977Z</time></trkpt><trkpt lat="44.5439283" lon="10.463115"><ele>642.0</ele><time>2026-04-06T08:35:49.977Z</time></trkpt><trkpt lat="44.5439617" lon="10.4633"><ele>642.0</ele><time>2026-04-06T08:35:50.976Z</time></trkpt><trkpt lat="44.54401" lon="10.46349"><ele>642.25</ele><time>2026-04-06T08:35:51.977Z</time></trkpt><trkpt lat="44.5440667" lon="10.463675"><ele>642.5</ele><time>2026-04-06T08:35:52.976Z</time></trkpt><trkpt lat="44.5440867" lon="10.4638483"><ele>642.75</ele><time>2026-04-06T08:35:53.977Z</time></trkpt><trkpt lat="44.5440733" lon="10.4640233"><ele>643.0</ele><time>2026-04-06T08:35:54.976Z</time></trkpt><trkpt lat="44.54404" lon="10.4642067"><ele>643.25</ele><time>2026-04-06T08:35:55.976Z</time></trkpt><trkpt lat="44.5439867" lon="10.4643783"><ele>643.5</ele><time>2026-04-06T08:35:56.976Z</time></trkpt><trkpt lat="44.543925" lon="10.4645483"><ele>643.75</ele><time>2026-04-06T08:35:57.977Z</time></trkpt><trkpt lat="44.5438583" lon="10.46471"><ele>644.0</ele><time>2026-04-06T08:35:58.976Z</time></trkpt><trkpt lat="44.5437967" lon="10.46487"><ele>644.0</ele><time>2026-04-06T08:35:59.976Z</time></trkpt><trkpt lat="44.5437317" lon="10.4650283"><ele>644.0</ele><time>2026-04-06T08:36:00.976Z</time></trkpt><trkpt lat="44.5436583" lon="10.4651783"><ele>644.0</ele><time>2026-04-06T08:36:01.977Z</time></trkpt><trkpt lat="44.54356" lon="10.4653067"><ele>644.0</ele><time>2026-04-06T08:36:02.977Z</time></trkpt><trkpt lat="44.5434567" lon="10.465415"><ele>643.0</ele><time>2026-04-06T08:36:03.976Z</time></trkpt><trkpt lat="44.54334" lon="10.4655"><ele>642.0</ele><time>2026-04-06T08:36:04.977Z</time></trkpt><trkpt lat="44.5432217" lon="10.4655433"><ele>641.0</ele><time>2026-04-06T08:36:05.977Z</time></trkpt><trkpt lat="44.5431067" lon="10.46556"><ele>640.0</ele><time>2026-04-06T08:36:06.976Z</time></trkpt><trkpt lat="44.542995" lon="10.4655533"><ele>640.0</ele><time>2026-04-06T08:36:07.976Z</time></trkpt><trkpt lat="44.542885" lon="10.465575"><ele>640.0</ele><time>2026-04-06T08:36:08.976Z</time></trkpt><trkpt lat="44.542785" lon="10.4656467"><ele>640.0</ele><time>2026-04-06T08:36:09.977Z</time></trkpt><trkpt lat="44.5426933" lon="10.4657583"><ele>640.0</ele><time>2026-04-06T08:36:10.976Z</time></trkpt><trkpt lat="44.5426183" lon="10.4658817"><ele>637.8</ele><time>2026-04-06T08:36:11.976Z</time></trkpt><trkpt lat="44.54255" lon="10.46601"><ele>635.6</ele><time>2026-04-06T08:36:12.976Z</time></trkpt><trkpt lat="44.542495" lon="10.4661367"><ele>633.4</ele><time>2026-04-06T08:36:13.976Z</time></trkpt><trkpt lat="44.54246" lon="10.4662633"><ele>631.2</ele><time>2026-04-06T08:36:14.976Z</time></trkpt><trkpt lat="44.5424233" lon="10.46641"><ele>629.0</ele><time>2026-04-06T08:36:15.976Z</time></trkpt><trkpt lat="44.54239" lon="10.4665617"><ele>629.0</ele><time>2026-04-06T08:36:16.977Z</time></trkpt><trkpt lat="44.5423667" lon="10.4667167"><ele>629.0</ele><time>2026-04-06T08:36:17.976Z</time></trkpt><trkpt lat="44.5423333" lon="10.4668833"><ele>629.0</ele><time>2026-04-06T08:36:18.976Z</time></trkpt><trkpt lat="44.5423" lon="10.4670467"><ele>629.0</ele><time>2026-04-06T08:36:19.976Z</time></trkpt><trkpt lat="44.5422667" lon="10.4672067"><ele>631.25</ele><time>2026-04-06T08:36:20.976Z</time></trkpt><trkpt lat="44.5422233" lon="10.4673733"><ele>633.5</ele><time>2026-04-06T08:36:21.976Z</time></trkpt><trkpt lat="44.54217" lon="10.46754"><ele>635.75</ele><time>2026-04-06T08:36:22.976Z</time></trkpt><trkpt lat="44.542115" lon="10.46769"><ele>638.0</ele><time>2026-04-06T08:36:23.977Z</time></trkpt><trkpt lat="44.5420417" lon="10.4678117"><ele>636.25</ele><time>2026-04-06T08:36:24.976Z</time></trkpt><trkpt lat="44.54195" lon="10.4679017"><ele>634.5</ele><time>2026-04-06T08:36:25.977Z</time></trkpt><trkpt lat="44.5418267" lon="10.4679533"><ele>632.75</ele><time>2026-04-06T08:36:26.976Z</time></trkpt><trkpt lat="44.54169" lon="10.4679683"><ele>631.0</ele><time>2026-04-06T08:36:27.976Z</time></trkpt><trkpt lat="44.5415567" lon="10.4679567"><ele>625.5</ele><time>2026-04-06T08:36:28.977Z</time></trkpt><trkpt lat="44.5414233" lon="10.4679433"><ele>620.0</ele><time>2026-04-06T08:36:29.976Z</time></trkpt><trkpt lat="44.5412917" lon="10.4679167"><ele>614.5</ele><time>2026-04-06T08:36:30.976Z</time></trkpt><trkpt lat="44.541165" lon="10.46787"><ele>609.0</ele><time>2026-04-06T08:36:31.976Z</time></trkpt><trkpt lat="44.5410367" lon="10.46782"><ele>607.0</ele><time>2026-04-06T08:36:32.976Z</time></trkpt><trkpt lat="44.5409" lon="10.4677733"><ele>605.0</ele><time>2026-04-06T08:36:33.976Z</time></trkpt><trkpt lat="44.5407417" lon="10.4677367"><ele>603.0</ele><time>2026-04-06T08:36:34.976Z</time></trkpt><trkpt lat="44.5405767" lon="10.4677033"><ele>603.0</ele><time>2026-04-06T08:36:35.976Z</time></trkpt><trkpt lat="44.54041" lon="10.46768"><ele>603.0</ele><time>2026-04-06T08:36:36.976Z</time></trkpt><trkpt lat="44.5402433" lon="10.4676533"><ele>603.0</ele><time>2026-04-06T08:36:37.977Z</time></trkpt><trkpt lat="44.540085" lon="10.4676033"><ele>604.0</ele><time>2026-04-06T08:36:38.976Z</time></trkpt><trkpt lat="44.5399433" lon="10.4675467"><ele>605.0</ele><time>2026-04-06T08:36:39.976Z</time></trkpt><trkpt lat="44.539825" lon="10.467485"><ele>606.0</ele><time>2026-04-06T08:36:40.976Z</time></trkpt><trkpt lat="44.53972" lon="10.4674433"><ele>607.0</ele><time>2026-04-06T08:36:41.977Z</time></trkpt><trkpt lat="44.5396367" lon="10.46745"><ele>607.0</ele><time>2026-04-06T08:36:42.976Z</time></trkpt><trkpt lat="44.5395567" lon="10.4675117"><ele>607.0</ele><time>2026-04-06T08:36:43.976Z</time></trkpt><trkpt lat="44.5395017" lon="10.4676117"><ele>607.0</ele><time>2026-04-06T08:36:44.976Z</time></trkpt><trkpt lat="44.5395017" lon="10.4677967"><ele>607.0</ele><time>2026-04-06T08:36:45.976Z</time></trkpt><trkpt lat="44.53951" lon="10.4680133"><ele>606.25</ele><time>2026-04-06T08:36:46.976Z</time></trkpt><trkpt lat="44.5394867" lon="10.4682167"><ele>605.5</ele><time>2026-04-06T08:36:47.976Z</time></trkpt><trkpt lat="44.53941" lon="10.46839"><ele>604.75</ele><time>2026-04-06T08:36:48.976Z</time></trkpt><trkpt lat="44.5393" lon="10.4685133"><ele>604.0</ele><time>2026-04-06T08:36:49.976Z</time></trkpt><trkpt lat="44.53917" lon="10.4685983"><ele>604.0</ele><time>2026-04-06T08:36:50.976Z</time></trkpt><trkpt lat="44.53903" lon="10.468645"><ele>604.0</ele><time>2026-04-06T08:36:51.976Z</time></trkpt><trkpt lat="44.5388817" lon="10.468645"><ele>604.0</ele><time>2026-04-06T08:36:52.976Z</time></trkpt><trkpt lat="44.5387433" lon="10.468625"><ele>604.0</ele><time>2026-04-06T08:36:53.976Z</time></trkpt><trkpt lat="44.538625" lon="10.46859"><ele>601.6666666666667</ele><time>2026-04-06T08:36:54.976Z</time></trkpt><trkpt lat="44.5385267" lon="10.4685783"><ele>599.3333333333334</ele><time>2026-04-06T08:36:55.976Z</time></trkpt><trkpt lat="44.53845" lon="10.4686083"><ele>597.0</ele><time>2026-04-06T08:36:56.977Z</time></trkpt><trkpt lat="44.5383867" lon="10.4686867"><ele>594.6666666666666</ele><time>2026-04-06T08:36:57.976Z</time></trkpt><trkpt lat="44.5383583" lon="10.4687983"><ele>592.3333333333333</ele><time>2026-04-06T08:36:58.977Z</time></trkpt><trkpt lat="44.538375" lon="10.46892"><ele>590.0</ele><time>2026-04-06T08:36:59.977Z</time></trkpt><trkpt lat="44.5384317" lon="10.4690417"><ele>589.6666666666666</ele><time>2026-04-06T08:37:00.977Z</time></trkpt><trkpt lat="44.5385483" lon="10.4691917"><ele>589.3333333333334</ele><time>2026-04-06T08:37:01.977Z</time></trkpt><trkpt lat="44.5386467" lon="10.46936"><ele>589.0</ele><time>2026-04-06T08:37:02.977Z</time></trkpt><trkpt lat="44.5386933" lon="10.469555"><ele>589.75</ele><time>2026-04-06T08:37:03.976Z</time></trkpt><trkpt lat="44.538685" lon="10.4697467"><ele>590.5</ele><time>2026-04-06T08:37:04.977Z</time></trkpt><trkpt lat="44.53864" lon="10.4699333"><ele>591.25</ele><time>2026-04-06T08:37:05.976Z</time></trkpt><trkpt lat="44.5385767" lon="10.4701167"><ele>592.0</ele><time>2026-04-06T08:37:06.977Z</time></trkpt><trkpt lat="44.5384983" lon="10.4702783"><ele>592.0</ele><time>2026-04-06T08:37:07.976Z</time></trkpt><trkpt lat="44.5384083" lon="10.4704367"><ele>592.0</ele><time>2026-04-06T08:37:08.976Z</time></trkpt><trkpt lat="44.5383117" lon="10.47059"><ele>592.0</ele><time>2026-04-06T08:37:09.976Z</time></trkpt><trkpt lat="44.5381867" lon="10.4707133"><ele>592.0</ele><time>2026-04-06T08:37:10.976Z</time></trkpt><trkpt lat="44.53805" lon="10.4708283"><ele>593.25</ele><time>2026-04-06T08:37:11.976Z</time></trkpt><trkpt lat="44.53793" lon="10.47094"><ele>594.5</ele><time>2026-04-06T08:37:12.977Z</time></trkpt><trkpt lat="44.5378067" lon="10.471025"><ele>595.75</ele><time>2026-04-06T08:37:13.976Z</time></trkpt><trkpt lat="44.5377017" lon="10.4710933"><ele>597.0</ele><time>2026-04-06T08:37:14.976Z</time></trkpt><trkpt lat="44.5375883" lon="10.4711067"><ele>597.0</ele><time>2026-04-06T08:37:15.977Z</time></trkpt><trkpt lat="44.5374617" lon="10.4710533"><ele>597.0</ele><time>2026-04-06T08:37:16.977Z</time></trkpt><trkpt lat="44.5373333" lon="10.4709433"><ele>597.0</ele><time>2026-04-06T08:37:17.976Z</time></trkpt><trkpt lat="44.5372217" lon="10.4707983"><ele>597.0</ele><time>2026-04-06T08:37:18.977Z</time></trkpt><trkpt lat="44.5371183" lon="10.4706367"><ele>597.75</ele><time>2026-04-06T08:37:19.976Z</time></trkpt><trkpt lat="44.5370267" lon="10.470495"><ele>598.5</ele><time>2026-04-06T08:37:20.976Z</time></trkpt><trkpt lat="44.53694" lon="10.470365"><ele>599.25</ele><time>2026-04-06T08:37:21.977Z</time></trkpt><trkpt lat="44.53685" lon="10.4702517"><ele>600.0</ele><time>2026-04-06T08:37:22.976Z</time></trkpt><trkpt lat="44.5367483" lon="10.4701933"><ele>600.0</ele><time>2026-04-06T08:37:23.977Z</time></trkpt><trkpt lat="44.5366633" lon="10.4701833"><ele>600.0</ele><time>2026-04-06T08:37:24.976Z</time></trkpt><trkpt lat="44.5365867" lon="10.470225"><ele>600.0</ele><time>2026-04-06T08:37:25.976Z</time></trkpt><trkpt lat="44.53651" lon="10.4702983"><ele>600.0</ele><time>2026-04-06T08:37:26.976Z</time></trkpt><trkpt lat="44.5364717" lon="10.47043"><ele>600.0</ele><time>2026-04-06T08:37:27.976Z</time></trkpt><trkpt lat="44.5364583" lon="10.4706"><ele>600.0</ele><time>2026-04-06T08:37:28.976Z</time></trkpt><trkpt lat="44.5364333" lon="10.4707667"><ele>600.0</ele><time>2026-04-06T08:37:29.976Z</time></trkpt><trkpt lat="44.5364" lon="10.4709317"><ele>600.0</ele><time>2026-04-06T08:37:30.977Z</time></trkpt><trkpt lat="44.536345" lon="10.4710917"><ele>600.0</ele><time>2026-04-06T08:37:31.976Z</time></trkpt><trkpt lat="44.53627" lon="10.4712367"><ele>600.5</ele><time>2026-04-06T08:37:32.976Z</time></trkpt><trkpt lat="44.5361617" lon="10.471325"><ele>601.0</ele><time>2026-04-06T08:37:33.976Z</time></trkpt><trkpt lat="44.536035" lon="10.47136"><ele>601.5</ele><time>2026-04-06T08:37:34.976Z</time></trkpt><trkpt lat="44.5359167" lon="10.4713567"><ele>602.0</ele><time>2026-04-06T08:37:35.976Z</time></trkpt><trkpt lat="44.535795" lon="10.4713117"><ele>602.0</ele><time>2026-04-06T08:37:36.976Z</time></trkpt><trkpt lat="44.5356883" lon="10.4713"><ele>602.0</ele><time>2026-04-06T08:37:37.976Z</time></trkpt><trkpt lat="44.5356017" lon="10.471335"><ele>602.0</ele><time>2026-04-06T08:37:38.977Z</time></trkpt><trkpt lat="44.535535" lon="10.47144"><ele>602.0</ele><time>2026-04-06T08:37:39.976Z</time></trkpt><trkpt lat="44.5355067" lon="10.4715933"><ele>602.0</ele><time>2026-04-06T08:37:40.976Z</time></trkpt><trkpt lat="44.5355" lon="10.47174"><ele>602.0</ele><time>2026-04-06T08:37:41.976Z</time></trkpt><trkpt lat="44.53551" lon="10.4718833"><ele>602.0</ele><time>2026-04-06T08:37:42.977Z</time></trkpt><trkpt lat="44.5355417" lon="10.472005"><ele>602.0</ele><time>2026-04-06T08:37:43.976Z</time></trkpt><trkpt lat="44.5355983" lon="10.472105"><ele>602.0</ele><time>2026-04-06T08:37:44.976Z</time></trkpt><trkpt lat="44.535695" lon="10.4721783"><ele>602.0</ele><time>2026-04-06T08:37:45.976Z</time></trkpt><trkpt lat="44.5358117" lon="10.4722533"><ele>601.0</ele><time>2026-04-06T08:37:46.976Z</time></trkpt><trkpt lat="44.53593" lon="10.4723167"><ele>600.0</ele><time>2026-04-06T08:37:47.976Z</time></trkpt><trkpt lat="44.53604" lon="10.472385"><ele>599.0</ele><time>2026-04-06T08:37:48.976Z</time></trkpt><trkpt lat="44.536145" lon="10.4724833"><ele>598.0</ele><time>2026-04-06T08:37:49.976Z</time></trkpt><trkpt lat="44.53623" lon="10.47262"><ele>606.0</ele><time>2026-04-06T08:37:50.976Z</time></trkpt><trkpt lat="44.53628" lon="10.4727983"><ele>614.0</ele><time>2026-04-06T08:37:51.977Z</time></trkpt><trkpt lat="44.5363217" lon="10.4729883"><ele>622.0</ele><time>2026-04-06T08:37:52.977Z</time></trkpt><trkpt lat="44.5363567" lon="10.473175"><ele>630.0</ele><time>2026-04-06T08:37:53.977Z</time></trkpt><trkpt lat="44.536375" lon="10.47336"><ele>630.0</ele><time>2026-04-06T08:37:54.976Z</time></trkpt><trkpt lat="44.5363767" lon="10.4735467"><ele>630.0</ele><time>2026-04-06T08:37:55.976Z</time></trkpt><trkpt lat="44.5363667" lon="10.47371"><ele>630.0</ele><time>2026-04-06T08:37:56.977Z</time></trkpt><trkpt lat="44.5363783" lon="10.473875"><ele>630.0</ele><time>2026-04-06T08:37:57.977Z</time></trkpt><trkpt lat="44.5364167" lon="10.474025"><ele>629.6</ele><time>2026-04-06T08:37:58.976Z</time></trkpt><trkpt lat="44.5364717" lon="10.4741683"><ele>629.2</ele><time>2026-04-06T08:37:59.976Z</time></trkpt><trkpt lat="44.5365267" lon="10.4743033"><ele>628.8</ele><time>2026-04-06T08:38:00.976Z</time></trkpt><trkpt lat="44.536575" lon="10.47443"><ele>628.4</ele><time>2026-04-06T08:38:01.977Z</time></trkpt><trkpt lat="44.53662" lon="10.4745533"><ele>628.0</ele><time>2026-04-06T08:38:02.976Z</time></trkpt><trkpt lat="44.536665" lon="10.4746767"><ele>627.4</ele><time>2026-04-06T08:38:03.976Z</time></trkpt><trkpt lat="44.5367033" lon="10.4748033"><ele>626.8</ele><time>2026-04-06T08:38:04.976Z</time></trkpt><trkpt lat="44.53673" lon="10.4749267"><ele>626.2</ele><time>2026-04-06T08:38:05.976Z</time></trkpt><trkpt lat="44.53675" lon="10.4750483"><ele>625.6</ele><time>2026-04-06T08:38:06.976Z</time></trkpt><trkpt lat="44.5367583" lon="10.4751817"><ele>625.0</ele><time>2026-04-06T08:38:07.976Z</time></trkpt><trkpt lat="44.5367417" lon="10.4752983"><ele>625.0</ele><time>2026-04-06T08:38:08.977Z</time></trkpt><trkpt lat="44.536715" lon="10.47541"><ele>625.0</ele><time>2026-04-06T08:38:09.976Z</time></trkpt><trkpt lat="44.53668" lon="10.4755267"><ele>625.0</ele><time>2026-04-06T08:38:10.976Z</time></trkpt><trkpt lat="44.5366383" lon="10.4756433"><ele>625.0</ele><time>2026-04-06T08:38:11.977Z</time></trkpt><trkpt lat="44.5365967" lon="10.4757517"><ele>625.0</ele><time>2026-04-06T08:38:12.976Z</time></trkpt><trkpt lat="44.5365533" lon="10.4758717"><ele>626.8</ele><time>2026-04-06T08:38:13.976Z</time></trkpt><trkpt lat="44.536505" lon="10.4759983"><ele>628.6</ele><time>2026-04-06T08:38:14.976Z</time></trkpt><trkpt lat="44.5364483" lon="10.4761217"><ele>630.4</ele><time>2026-04-06T08:38:15.977Z</time></trkpt><trkpt lat="44.5363883" lon="10.476235"><ele>632.2</ele><time>2026-04-06T08:38:16.976Z</time></trkpt><trkpt lat="44.5363233" lon="10.4763317"><ele>634.0</ele><time>2026-04-06T08:38:17.977Z</time></trkpt><trkpt lat="44.5362417" lon="10.4763983"><ele>631.8333333333334</ele><time>2026-04-06T08:38:18.976Z</time></trkpt><trkpt lat="44.5361567" lon="10.47646"><ele>629.6666666666667</ele><time>2026-04-06T08:38:19.976Z</time></trkpt><trkpt lat="44.53606" lon="10.4764967"><ele>627.5</ele><time>2026-04-06T08:38:20.976Z</time></trkpt><trkpt lat="44.535975" lon="10.4765417"><ele>625.3333333333334</ele><time>2026-04-06T08:38:21.977Z</time></trkpt><trkpt lat="44.5359083" lon="10.476595"><ele>623.1666666666666</ele><time>2026-04-06T08:38:22.976Z</time></trkpt><trkpt lat="44.5358517" lon="10.47666"><ele>621.0</ele><time>2026-04-06T08:38:23.976Z</time></trkpt><trkpt lat="44.53582" lon="10.476745"><ele>621.0</ele><time>2026-04-06T08:38:24.977Z</time></trkpt><trkpt lat="44.5358483" lon="10.4769167"><ele>621.0</ele><time>2026-04-06T08:38:26.976Z</time></trkpt><trkpt lat="44.5358983" lon="10.4770017"><ele>621.0</ele><time>2026-04-06T08:38:27.976Z</time></trkpt><trkpt lat="44.5359667" lon="10.4770833"><ele>621.0</ele><time>2026-04-06T08:38:28.976Z</time></trkpt><trkpt lat="44.5360383" lon="10.4771533"><ele>621.0</ele><time>2026-04-06T08:38:29.976Z</time></trkpt><trkpt lat="44.5361083" lon="10.4772133"><ele>620.6666666666666</ele><time>2026-04-06T08:38:30.976Z</time></trkpt><trkpt lat="44.53618" lon="10.47727"><ele>620.3333333333334</ele><time>2026-04-06T08:38:31.976Z</time></trkpt><trkpt lat="44.53625" lon="10.4773367"><ele>620.0</ele><time>2026-04-06T08:38:32.976Z</time></trkpt><trkpt lat="44.53632" lon="10.4773967"><ele>619.6666666666667</ele><time>2026-04-06T08:38:33.977Z</time></trkpt><trkpt lat="44.5363967" lon="10.4774617"><ele>619.3333333333334</ele><time>2026-04-06T08:38:34.977Z</time></trkpt><trkpt lat="44.5364733" lon="10.4775167"><ele>619.0</ele><time>2026-04-06T08:38:35.976Z</time></trkpt><trkpt lat="44.5365533" lon="10.477575"><ele>622.5</ele><time>2026-04-06T08:38:36.977Z</time></trkpt><trkpt lat="44.5366283" lon="10.4776233"><ele>626.0</ele><time>2026-04-06T08:38:37.976Z</time></trkpt><trkpt lat="44.53671" lon="10.47767"><ele>629.5</ele><time>2026-04-06T08:38:38.976Z</time></trkpt><trkpt lat="44.5368" lon="10.4776917"><ele>633.0</ele><time>2026-04-06T08:38:39.976Z</time></trkpt><trkpt lat="44.5368917" lon="10.4777017"><ele>636.5</ele><time>2026-04-06T08:38:40.976Z</time></trkpt><trkpt lat="44.5369683" lon="10.4776833"><ele>640.0</ele><time>2026-04-06T08:38:41.976Z</time></trkpt><trkpt lat="44.5370383" lon="10.477665"><ele>639.8</ele><time>2026-04-06T08:38:42.977Z</time></trkpt><trkpt lat="44.5371017" lon="10.477675"><ele>639.6</ele><time>2026-04-06T08:38:43.976Z</time></trkpt><trkpt lat="44.5371983" lon="10.47778"><ele>639.4</ele><time>2026-04-06T08:38:45.976Z</time></trkpt><trkpt lat="44.5371767" lon="10.4779533"><ele>639.2</ele><time>2026-04-06T08:38:47.977Z</time></trkpt><trkpt lat="44.5370967" lon="10.4780083"><ele>639.0</ele><time>2026-04-06T08:38:48.976Z</time></trkpt><trkpt lat="44.537005" lon="10.4780467"><ele>639.0</ele><time>2026-04-06T08:38:49.976Z</time></trkpt><trkpt lat="44.53691" lon="10.4780883"><ele>639.0</ele><time>2026-04-06T08:38:50.977Z</time></trkpt><trkpt lat="44.5368117" lon="10.47814"><ele>639.0</ele><time>2026-04-06T08:38:51.976Z</time></trkpt><trkpt lat="44.5367267" lon="10.4782017"><ele>639.0</ele><time>2026-04-06T08:38:52.976Z</time></trkpt><trkpt lat="44.53666" lon="10.4782667"><ele>639.0</ele><time>2026-04-06T08:38:53.976Z</time></trkpt><trkpt lat="44.5365917" lon="10.4783467"><ele>639.0</ele><time>2026-04-06T08:38:54.977Z</time></trkpt><trkpt lat="44.536535" lon="10.4784367"><ele>639.0</ele><time>2026-04-06T08:38:55.976Z</time></trkpt><trkpt lat="44.5364883" lon="10.4785233"><ele>639.0</ele><time>2026-04-06T08:38:56.976Z</time></trkpt><trkpt lat="44.536455" lon="10.4786183"><ele>639.0</ele><time>2026-04-06T08:38:57.977Z</time></trkpt><trkpt lat="44.5364367" lon="10.4787133"><ele>639.0</ele><time>2026-04-06T08:38:58.977Z</time></trkpt><trkpt lat="44.5364367" lon="10.4788067"><ele>639.0</ele><time>2026-04-06T08:38:59.976Z</time></trkpt><trkpt lat="44.53646" lon="10.4789783"><ele>640.6666666666666</ele><time>2026-04-06T08:39:01.977Z</time></trkpt><trkpt lat="44.5364783" lon="10.4790817"><ele>642.3333333333334</ele><time>2026-04-06T08:39:02.977Z</time></trkpt><trkpt lat="44.536495" lon="10.4791817"><ele>644.0</ele><time>2026-04-06T08:39:03.976Z</time></trkpt><trkpt lat="44.5365167" lon="10.4792833"><ele>645.6666666666667</ele><time>2026-04-06T08:39:04.976Z</time></trkpt><trkpt lat="44.5365333" lon="10.4793867"><ele>647.3333333333334</ele><time>2026-04-06T08:39:05.976Z</time></trkpt><trkpt lat="44.5365483" lon="10.4795017"><ele>649.0</ele><time>2026-04-06T08:39:06.976Z</time></trkpt><trkpt lat="44.5365617" lon="10.479615"><ele>649.0</ele><time>2026-04-06T08:39:07.976Z</time></trkpt><trkpt lat="44.5365767" lon="10.4797283"><ele>649.0</ele><time>2026-04-06T08:39:08.976Z</time></trkpt><trkpt lat="44.5365933" lon="10.4798417"><ele>649.0</ele><time>2026-04-06T08:39:09.976Z</time></trkpt><trkpt lat="44.53661" lon="10.479955"><ele>649.0</ele><time>2026-04-06T08:39:10.977Z</time></trkpt><trkpt lat="44.5366283" lon="10.4800633"><ele>649.0</ele><time>2026-04-06T08:39:11.976Z</time></trkpt><trkpt lat="44.5366717" lon="10.4801783"><ele>649.0</ele><time>2026-04-06T08:39:12.977Z</time></trkpt><trkpt lat="44.53674" lon="10.4802983"><ele>649.0</ele><time>2026-04-06T08:39:13.976Z</time></trkpt><trkpt lat="44.5368233" lon="10.4804267"><ele>649.0</ele><time>2026-04-06T08:39:14.976Z</time></trkpt><trkpt lat="44.5369167" lon="10.48055"><ele>649.0</ele><time>2026-04-06T08:39:15.976Z</time></trkpt><trkpt lat="44.5370083" lon="10.4806833"><ele>649.0</ele><time>2026-04-06T08:39:16.976Z</time></trkpt><trkpt lat="44.5370933" lon="10.48083"><ele>649.25</ele><time>2026-04-06T08:39:17.977Z</time></trkpt><trkpt lat="44.53716" lon="10.4809917"><ele>649.5</ele><time>2026-04-06T08:39:18.977Z</time></trkpt><trkpt lat="44.5371883" lon="10.4811733"><ele>649.75</ele><time>2026-04-06T08:39:19.976Z</time></trkpt><trkpt lat="44.537205" lon="10.4813667"><ele>650.0</ele><time>2026-04-06T08:39:20.976Z</time></trkpt><trkpt lat="44.5372217" lon="10.4815633"><ele>650.25</ele><time>2026-04-06T08:39:21.977Z</time></trkpt><trkpt lat="44.5372433" lon="10.4817583"><ele>650.5</ele><time>2026-04-06T08:39:22.976Z</time></trkpt><trkpt lat="44.5372583" lon="10.4819633"><ele>650.75</ele><time>2026-04-06T08:39:23.976Z</time></trkpt><trkpt lat="44.5372517" lon="10.482165"><ele>651.0</ele><time>2026-04-06T08:39:24.976Z</time></trkpt><trkpt lat="44.537225" lon="10.4823583"><ele>652.25</ele><time>2026-04-06T08:39:25.977Z</time></trkpt><trkpt lat="44.537185" lon="10.4825433"><ele>653.5</ele><time>2026-04-06T08:39:26.976Z</time></trkpt><trkpt lat="44.5371367" lon="10.4827183"><ele>654.75</ele><time>2026-04-06T08:39:27.976Z</time></trkpt><trkpt lat="44.5370917" lon="10.48288"><ele>656.0</ele><time>2026-04-06T08:39:28.976Z</time></trkpt><trkpt lat="44.5370383" lon="10.4830233"><ele>658.5999999999999</ele><time>2026-04-06T08:39:29.977Z</time></trkpt><trkpt lat="44.536965" lon="10.48313"><ele>661.2</ele><time>2026-04-06T08:39:30.976Z</time></trkpt><trkpt lat="44.536875" lon="10.4831817"><ele>663.8</ele><time>2026-04-06T08:39:31.977Z</time></trkpt><trkpt lat="44.5367683" lon="10.4831767"><ele>666.4000000000001</ele><time>2026-04-06T08:39:32.976Z</time></trkpt><trkpt lat="44.5366633" lon="10.4831567"><ele>669.0</ele><time>2026-04-06T08:39:33.976Z</time></trkpt><trkpt lat="44.5365717" lon="10.4831533"><ele>669.0</ele><time>2026-04-06T08:39:34.976Z</time></trkpt><trkpt lat="44.5364967" lon="10.4831783"><ele>669.0</ele><time>2026-04-06T08:39:35.976Z</time></trkpt><trkpt lat="44.5364333" lon="10.4832333"><ele>669.0</ele><time>2026-04-06T08:39:36.977Z</time></trkpt><trkpt lat="44.53637" lon="10.48333"><ele>669.0</ele><time>2026-04-06T08:39:37.976Z</time></trkpt><trkpt lat="44.536325" lon="10.4834617"><ele>669.0</ele><time>2026-04-06T08:39:38.976Z</time></trkpt><trkpt lat="44.5363067" lon="10.483615"><ele>671.25</ele><time>2026-04-06T08:39:39.976Z</time></trkpt><trkpt lat="44.5363017" lon="10.483775"><ele>673.5</ele><time>2026-04-06T08:39:40.976Z</time></trkpt><trkpt lat="44.5363033" lon="10.4839367"><ele>675.75</ele><time>2026-04-06T08:39:41.976Z</time></trkpt><trkpt lat="44.5363017" lon="10.4841233"><ele>678.0</ele><time>2026-04-06T08:39:42.976Z</time></trkpt><trkpt lat="44.5363067" lon="10.4843117"><ele>678.0</ele><time>2026-04-06T08:39:43.977Z</time></trkpt><trkpt lat="44.5363133" lon="10.484495"><ele>678.0</ele><time>2026-04-06T08:39:44.976Z</time></trkpt><trkpt lat="44.53632" lon="10.4846633"><ele>678.0</ele><time>2026-04-06T08:39:45.976Z</time></trkpt><trkpt lat="44.5363117" lon="10.4848083"><ele>678.0</ele><time>2026-04-06T08:39:46.976Z</time></trkpt><trkpt lat="44.5362567" lon="10.4849217"><ele>676.25</ele><time>2026-04-06T08:39:47.976Z</time></trkpt><trkpt lat="44.5361633" lon="10.485005"><ele>674.5</ele><time>2026-04-06T08:39:48.977Z</time></trkpt><trkpt lat="44.5360617" lon="10.4850683"><ele>672.75</ele><time>2026-04-06T08:39:49.976Z</time></trkpt><trkpt lat="44.5359683" lon="10.48517"><ele>671.0</ele><time>2026-04-06T08:39:50.976Z</time></trkpt><trkpt lat="44.5359017" lon="10.4853133"><ele>673.75</ele><time>2026-04-06T08:39:51.976Z</time></trkpt><trkpt lat="44.5358783" lon="10.48549"><ele>676.5</ele><time>2026-04-06T08:39:52.977Z</time></trkpt><trkpt lat="44.5358567" lon="10.4856917"><ele>679.25</ele><time>2026-04-06T08:39:53.976Z</time></trkpt><trkpt lat="44.5358367" lon="10.4858883"><ele>682.0</ele><time>2026-04-06T08:39:54.976Z</time></trkpt><trkpt lat="44.53582" lon="10.4860983"><ele>684.3333333333334</ele><time>2026-04-06T08:39:55.976Z</time></trkpt><trkpt lat="44.5357967" lon="10.4863033"><ele>686.6666666666666</ele><time>2026-04-06T08:39:56.976Z</time></trkpt><trkpt lat="44.5357683" lon="10.4865167"><ele>689.0</ele><time>2026-04-06T08:39:57.977Z</time></trkpt><trkpt lat="44.5357467" lon="10.486725"><ele>689.0</ele><time>2026-04-06T08:39:58.977Z</time></trkpt><trkpt lat="44.53574" lon="10.486945"><ele>689.0</ele><time>2026-04-06T08:39:59.976Z</time></trkpt><trkpt lat="44.5357467" lon="10.48716"><ele>689.0</ele><time>2026-04-06T08:40:00.976Z</time></trkpt><trkpt lat="44.5357367" lon="10.4873733"><ele>691.6666666666666</ele><time>2026-04-06T08:40:01.976Z</time></trkpt><trkpt lat="44.5356933" lon="10.4875933"><ele>694.3333333333334</ele><time>2026-04-06T08:40:02.976Z</time></trkpt><trkpt lat="44.5356267" lon="10.4877933"><ele>697.0</ele><time>2026-04-06T08:40:03.976Z</time></trkpt><trkpt lat="44.5355533" lon="10.4879833"><ele>698.3333333333334</ele><time>2026-04-06T08:40:04.976Z</time></trkpt><trkpt lat="44.5354983" lon="10.4881817"><ele>699.6666666666666</ele><time>2026-04-06T08:40:05.976Z</time></trkpt><trkpt lat="44.53548" lon="10.4884017"><ele>701.0</ele><time>2026-04-06T08:40:06.976Z</time></trkpt><trkpt lat="44.5354967" lon="10.488625"><ele>701.0</ele><time>2026-04-06T08:40:07.976Z</time></trkpt><trkpt lat="44.53552" lon="10.4888567"><ele>701.0</ele><time>2026-04-06T08:40:08.977Z</time></trkpt><trkpt lat="44.535545" lon="10.4890883"><ele>701.0</ele><time>2026-04-06T08:40:09.976Z</time></trkpt><trkpt lat="44.535565" lon="10.4893183"><ele>701.0</ele><time>2026-04-06T08:40:10.976Z</time></trkpt><trkpt lat="44.535585" lon="10.4895217"><ele>701.0</ele><time>2026-04-06T08:40:11.977Z</time></trkpt><trkpt lat="44.5356033" lon="10.4897033"><ele>701.0</ele><time>2026-04-06T08:40:12.976Z</time></trkpt><trkpt lat="44.53562" lon="10.48986"><ele>701.0</ele><time>2026-04-06T08:40:13.976Z</time></trkpt><trkpt lat="44.5356333" lon="10.489995"><ele>701.0</ele><time>2026-04-06T08:40:14.976Z</time></trkpt><trkpt lat="44.53563" lon="10.49011"><ele>701.0</ele><time>2026-04-06T08:40:15.976Z</time></trkpt><trkpt lat="44.535605" lon="10.4902083"><ele>701.0</ele><time>2026-04-06T08:40:16.976Z</time></trkpt><trkpt lat="44.5355633" lon="10.49029"><ele>701.0</ele><time>2026-04-06T08:40:17.976Z</time></trkpt><trkpt lat="44.5355017" lon="10.4903817"><ele>701.0</ele><time>2026-04-06T08:40:18.977Z</time></trkpt><trkpt lat="44.5354133" lon="10.490455"><ele>701.0</ele><time>2026-04-06T08:40:19.976Z</time></trkpt><trkpt lat="44.5353067" lon="10.4905183"><ele>701.25</ele><time>2026-04-06T08:40:20.976Z</time></trkpt><trkpt lat="44.5351933" lon="10.4905817"><ele>701.5</ele><time>2026-04-06T08:40:21.976Z</time></trkpt><trkpt lat="44.5350717" lon="10.4906433"><ele>701.75</ele><time>2026-04-06T08:40:22.976Z</time></trkpt><trkpt lat="44.5349467" lon="10.4907233"><ele>702.0</ele><time>2026-04-06T08:40:23.976Z</time></trkpt><trkpt lat="44.53482" lon="10.490815"><ele>702.0</ele><time>2026-04-06T08:40:24.977Z</time></trkpt><trkpt lat="44.5347" lon="10.4909183"><ele>702.0</ele><time>2026-04-06T08:40:25.976Z</time></trkpt><trkpt lat="44.5345883" lon="10.4910467"><ele>702.0</ele><time>2026-04-06T08:40:26.976Z</time></trkpt><trkpt lat="44.53447" lon="10.49119"><ele>702.0</ele><time>2026-04-06T08:40:27.976Z</time></trkpt><trkpt lat="44.534345" lon="10.491345"><ele>699.3333333333334</ele><time>2026-04-06T08:40:28.976Z</time></trkpt><trkpt lat="44.53421" lon="10.4915"><ele>696.6666666666667</ele><time>2026-04-06T08:40:29.976Z</time></trkpt><trkpt lat="44.5340833" lon="10.4916567"><ele>694.0</ele><time>2026-04-06T08:40:30.976Z</time></trkpt><trkpt lat="44.5339667" lon="10.4918117"><ele>694.0</ele><time>2026-04-06T08:40:31.977Z</time></trkpt><trkpt lat="44.5338467" lon="10.49197"><ele>694.0</ele><time>2026-04-06T08:40:32.977Z</time></trkpt><trkpt lat="44.5337217" lon="10.492115"><ele>694.0</ele><time>2026-04-06T08:40:33.976Z</time></trkpt><trkpt lat="44.5335883" lon="10.4922367"><ele>696.0</ele><time>2026-04-06T08:40:34.976Z</time></trkpt><trkpt lat="44.53346" lon="10.4923317"><ele>698.0</ele><time>2026-04-06T08:40:35.977Z</time></trkpt><trkpt lat="44.53332" lon="10.492405"><ele>700.0</ele><time>2026-04-06T08:40:36.976Z</time></trkpt><trkpt lat="44.5331767" lon="10.4924383"><ele>702.0</ele><time>2026-04-06T08:40:37.976Z</time></trkpt><trkpt lat="44.5330317" lon="10.492445"><ele>702.0</ele><time>2026-04-06T08:40:38.976Z</time></trkpt><trkpt lat="44.5328967" lon="10.4924567"><ele>702.0</ele><time>2026-04-06T08:40:39.976Z</time></trkpt><trkpt lat="44.5327533" lon="10.4925033"><ele>702.0</ele><time>2026-04-06T08:40:40.976Z</time></trkpt><trkpt lat="44.5326133" lon="10.492575"><ele>702.0</ele><time>2026-04-06T08:40:41.976Z</time></trkpt><trkpt lat="44.53248" lon="10.49264"><ele>702.25</ele><time>2026-04-06T08:40:42.976Z</time></trkpt><trkpt lat="44.532355" lon="10.4926833"><ele>702.5</ele><time>2026-04-06T08:40:43.976Z</time></trkpt><trkpt lat="44.5322383" lon="10.4927067"><ele>702.75</ele><time>2026-04-06T08:40:44.976Z</time></trkpt><trkpt lat="44.532135" lon="10.492685"><ele>703.0</ele><time>2026-04-06T08:40:45.976Z</time></trkpt><trkpt lat="44.5320333" lon="10.4926133"><ele>702.25</ele><time>2026-04-06T08:40:46.977Z</time></trkpt><trkpt lat="44.531935" lon="10.492495"><ele>701.5</ele><time>2026-04-06T08:40:47.976Z</time></trkpt><trkpt lat="44.5318467" lon="10.4923367"><ele>700.75</ele><time>2026-04-06T08:40:48.976Z</time></trkpt><trkpt lat="44.53177" lon="10.492155"><ele>700.0</ele><time>2026-04-06T08:40:49.977Z</time></trkpt><trkpt lat="44.5317" lon="10.49195"><ele>700.0</ele><time>2026-04-06T08:40:50.976Z</time></trkpt><trkpt lat="44.5316383" lon="10.491735"><ele>700.0</ele><time>2026-04-06T08:40:51.976Z</time></trkpt><trkpt lat="44.5315567" lon="10.4915233"><ele>700.0</ele><time>2026-04-06T08:40:52.976Z</time></trkpt><trkpt lat="44.5314567" lon="10.4913167"><ele>695.6666666666667</ele><time>2026-04-06T08:40:53.977Z</time></trkpt><trkpt lat="44.5313517" lon="10.4911017"><ele>691.3333333333334</ele><time>2026-04-06T08:40:54.976Z</time></trkpt><trkpt lat="44.5312317" lon="10.4908883"><ele>687.0</ele><time>2026-04-06T08:40:55.976Z</time></trkpt><trkpt lat="44.5311033" lon="10.4906933"><ele>689.0</ele><time>2026-04-06T08:40:56.976Z</time></trkpt><trkpt lat="44.5309683" lon="10.4904917"><ele>691.0</ele><time>2026-04-06T08:40:57.976Z</time></trkpt><trkpt lat="44.5308317" lon="10.4903"><ele>693.0</ele><time>2026-04-06T08:40:58.976Z</time></trkpt><trkpt lat="44.5306933" lon="10.4901033"><ele>693.0</ele><time>2026-04-06T08:40:59.976Z</time></trkpt><trkpt lat="44.5305633" lon="10.4899333"><ele>693.0</ele><time>2026-04-06T08:41:00.977Z</time></trkpt><trkpt lat="44.5304317" lon="10.4897833"><ele>693.0</ele><time>2026-04-06T08:41:01.977Z</time></trkpt><trkpt lat="44.5303" lon="10.4896367"><ele>693.6666666666666</ele><time>2026-04-06T08:41:02.976Z</time></trkpt><trkpt lat="44.53016" lon="10.4894983"><ele>694.3333333333333</ele><time>2026-04-06T08:41:03.976Z</time></trkpt><trkpt lat="44.53001" lon="10.4893717"><ele>695.0</ele><time>2026-04-06T08:41:04.977Z</time></trkpt><trkpt lat="44.5298483" lon="10.4892717"><ele>695.0</ele><time>2026-04-06T08:41:05.976Z</time></trkpt><trkpt lat="44.5296833" lon="10.4891817"><ele>695.0</ele><time>2026-04-06T08:41:06.976Z</time></trkpt><trkpt lat="44.52952" lon="10.4891317"><ele>695.0</ele><time>2026-04-06T08:41:07.976Z</time></trkpt><trkpt lat="44.5293583" lon="10.48908"><ele>697.3333333333333</ele><time>2026-04-06T08:41:08.976Z</time></trkpt><trkpt lat="44.5291983" lon="10.4890283"><ele>699.6666666666666</ele><time>2026-04-06T08:41:09.977Z</time></trkpt><trkpt lat="44.5290417" lon="10.488985"><ele>702.0</ele><time>2026-04-06T08:41:10.976Z</time></trkpt><trkpt lat="44.5288817" lon="10.4889483"><ele>702.0</ele><time>2026-04-06T08:41:11.976Z</time></trkpt><trkpt lat="44.528725" lon="10.4889067"><ele>702.0</ele><time>2026-04-06T08:41:12.976Z</time></trkpt><trkpt lat="44.5285617" lon="10.4888733"><ele>702.0</ele><time>2026-04-06T08:41:13.976Z</time></trkpt><trkpt lat="44.5283933" lon="10.488835"><ele>702.0</ele><time>2026-04-06T08:41:14.976Z</time></trkpt><trkpt lat="44.5282433" lon="10.4887983"><ele>702.0</ele><time>2026-04-06T08:41:15.977Z</time></trkpt><trkpt lat="44.52808" lon="10.488775"><ele>702.0</ele><time>2026-04-06T08:41:16.977Z</time></trkpt><trkpt lat="44.527925" lon="10.4887917"><ele>699.6666666666666</ele><time>2026-04-06T08:41:17.976Z</time></trkpt><trkpt lat="44.52775" lon="10.4888183"><ele>697.3333333333333</ele><time>2026-04-06T08:41:18.976Z</time></trkpt><trkpt lat="44.5275767" lon="10.4888567"><ele>695.0</ele><time>2026-04-06T08:41:19.977Z</time></trkpt><trkpt lat="44.52741" lon="10.488895"><ele>695.0</ele><time>2026-04-06T08:41:20.976Z</time></trkpt><trkpt lat="44.5272417" lon="10.4888983"><ele>695.0</ele><time>2026-04-06T08:41:21.976Z</time></trkpt><trkpt lat="44.52708" lon="10.4888817"><ele>695.0</ele><time>2026-04-06T08:41:22.976Z</time></trkpt><trkpt lat="44.5269333" lon="10.4888383"><ele>694.75</ele><time>2026-04-06T08:41:23.976Z</time></trkpt><trkpt lat="44.526795" lon="10.4887817"><ele>694.5</ele><time>2026-04-06T08:41:24.976Z</time></trkpt><trkpt lat="44.526665" lon="10.4887233"><ele>694.25</ele><time>2026-04-06T08:41:25.977Z</time></trkpt><trkpt lat="44.5265383" lon="10.488675"><ele>694.0</ele><time>2026-04-06T08:41:26.977Z</time></trkpt><trkpt lat="44.526415" lon="10.488675"><ele>691.6666666666667</ele><time>2026-04-06T08:41:27.977Z</time></trkpt><trkpt lat="44.526275" lon="10.48872"><ele>689.3333333333334</ele><time>2026-04-06T08:41:28.976Z</time></trkpt><trkpt lat="44.5261317" lon="10.4888017"><ele>687.0</ele><time>2026-04-06T08:41:29.976Z</time></trkpt><trkpt lat="44.5259883" lon="10.4888733"><ele>687.0</ele><time>2026-04-06T08:41:30.976Z</time></trkpt><trkpt lat="44.5258467" lon="10.4889383"><ele>687.0</ele><time>2026-04-06T08:41:31.977Z</time></trkpt><trkpt lat="44.525695" lon="10.4889667"><ele>687.0</ele><time>2026-04-06T08:41:32.976Z</time></trkpt><trkpt lat="44.5255383" lon="10.4889517"><ele>682.3333333333334</ele><time>2026-04-06T08:41:33.977Z</time></trkpt><trkpt lat="44.5253817" lon="10.4889183"><ele>677.6666666666667</ele><time>2026-04-06T08:41:34.976Z</time></trkpt><trkpt lat="44.5252367" lon="10.4888633"><ele>673.0</ele><time>2026-04-06T08:41:35.977Z</time></trkpt><trkpt lat="44.5250933" lon="10.4887967"><ele>670.0</ele><time>2026-04-06T08:41:36.976Z</time></trkpt><trkpt lat="44.5249583" lon="10.48874"><ele>667.0</ele><time>2026-04-06T08:41:37.976Z</time></trkpt><trkpt lat="44.5248383" lon="10.4887"><ele>664.0</ele><time>2026-04-06T08:41:38.976Z</time></trkpt><trkpt lat="44.5247383" lon="10.488665"><ele>661.0</ele><time>2026-04-06T08:41:39.976Z</time></trkpt><trkpt lat="44.52465" lon="10.4886383"><ele>661.0</ele><time>2026-04-06T08:41:40.977Z</time></trkpt><trkpt lat="44.52458" lon="10.4886517"><ele>661.0</ele><time>2026-04-06T08:41:41.976Z</time></trkpt><trkpt lat="44.524515" lon="10.4887867"><ele>661.0</ele><time>2026-04-06T08:41:43.976Z</time></trkpt><trkpt lat="44.5245333" lon="10.48889"><ele>661.0</ele><time>2026-04-06T08:41:44.976Z</time></trkpt><trkpt lat="44.52459" lon="10.4890133"><ele>661.0</ele><time>2026-04-06T08:41:45.977Z</time></trkpt><trkpt lat="44.5246683" lon="10.4891567"><ele>663.0</ele><time>2026-04-06T08:41:46.976Z</time></trkpt><trkpt lat="44.524745" lon="10.48931"><ele>665.0</ele><time>2026-04-06T08:41:47.976Z</time></trkpt><trkpt lat="44.52481" lon="10.48947"><ele>667.0</ele><time>2026-04-06T08:41:48.976Z</time></trkpt><trkpt lat="44.5248433" lon="10.4896367"><ele>669.0</ele><time>2026-04-06T08:41:49.976Z</time></trkpt><trkpt lat="44.5248417" lon="10.4898133"><ele>669.0</ele><time>2026-04-06T08:41:50.977Z</time></trkpt><trkpt lat="44.5248133" lon="10.48999"><ele>669.0</ele><time>2026-04-06T08:41:51.977Z</time></trkpt><trkpt lat="44.5247717" lon="10.4901617"><ele>669.0</ele><time>2026-04-06T08:41:52.976Z</time></trkpt><trkpt lat="44.5247333" lon="10.4903233"><ele>669.0</ele><time>2026-04-06T08:41:53.976Z</time></trkpt><trkpt lat="44.52469" lon="10.490475"><ele>669.0</ele><time>2026-04-06T08:41:54.977Z</time></trkpt><trkpt lat="44.5246417" lon="10.4906083"><ele>669.0</ele><time>2026-04-06T08:41:55.976Z</time></trkpt><trkpt lat="44.5245833" lon="10.49072"><ele>669.0</ele><time>2026-04-06T08:41:56.976Z</time></trkpt><trkpt lat="44.5245133" lon="10.4908133"><ele>669.0</ele><time>2026-04-06T08:41:57.976Z</time></trkpt><trkpt lat="44.5244083" lon="10.4908517"><ele>669.0</ele><time>2026-04-06T08:41:58.976Z</time></trkpt><trkpt lat="44.52429" lon="10.4908317"><ele>665.6666666666666</ele><time>2026-04-06T08:41:59.976Z</time></trkpt><trkpt lat="44.5241567" lon="10.4907733"><ele>662.3333333333333</ele><time>2026-04-06T08:42:00.976Z</time></trkpt><trkpt lat="44.5240083" lon="10.490695"><ele>659.0</ele><time>2026-04-06T08:42:01.976Z</time></trkpt><trkpt lat="44.523845" lon="10.490625"><ele>660.0</ele><time>2026-04-06T08:42:02.976Z</time></trkpt><trkpt lat="44.523655" lon="10.490555"><ele>661.0</ele><time>2026-04-06T08:42:03.976Z</time></trkpt><trkpt lat="44.5234633" lon="10.4904883"><ele>662.0</ele><time>2026-04-06T08:42:04.976Z</time></trkpt><trkpt lat="44.5232583" lon="10.4903917"><ele>654.6666666666666</ele><time>2026-04-06T08:42:05.976Z</time></trkpt><trkpt lat="44.52306" lon="10.4902867"><ele>647.3333333333334</ele><time>2026-04-06T08:42:06.976Z</time></trkpt><trkpt lat="44.5228717" lon="10.49019"><ele>640.0</ele><time>2026-04-06T08:42:07.976Z</time></trkpt><trkpt lat="44.5226983" lon="10.4900917"><ele>639.3333333333334</ele><time>2026-04-06T08:42:08.977Z</time></trkpt><trkpt lat="44.5225317" lon="10.49001"><ele>638.6666666666666</ele><time>2026-04-06T08:42:09.976Z</time></trkpt><trkpt lat="44.522385" lon="10.4899417"><ele>638.0</ele><time>2026-04-06T08:42:10.976Z</time></trkpt><trkpt lat="44.5222517" lon="10.4898717"><ele>638.0</ele><time>2026-04-06T08:42:11.977Z</time></trkpt><trkpt lat="44.52214" lon="10.4898167"><ele>638.0</ele><time>2026-04-06T08:42:12.976Z</time></trkpt><trkpt lat="44.5220533" lon="10.4897883"><ele>638.0</ele><time>2026-04-06T08:42:13.977Z</time></trkpt><trkpt lat="44.52198" lon="10.4898083"><ele>638.0</ele><time>2026-04-06T08:42:14.976Z</time></trkpt><trkpt lat="44.5219167" lon="10.4898667"><ele>638.0</ele><time>2026-04-06T08:42:15.976Z</time></trkpt><trkpt lat="44.521865" lon="10.4899733"><ele>636.0</ele><time>2026-04-06T08:42:16.976Z</time></trkpt><trkpt lat="44.521835" lon="10.49012"><ele>634.0</ele><time>2026-04-06T08:42:17.976Z</time></trkpt><trkpt lat="44.5218283" lon="10.4903017"><ele>632.0</ele><time>2026-04-06T08:42:18.977Z</time></trkpt><trkpt lat="44.5218083" lon="10.4904667"><ele>630.0</ele><time>2026-04-06T08:42:19.976Z</time></trkpt><trkpt lat="44.5217767" lon="10.4906317"><ele>630.0</ele><time>2026-04-06T08:42:20.976Z</time></trkpt><trkpt lat="44.52173" lon="10.490785"><ele>630.0</ele><time>2026-04-06T08:42:21.976Z</time></trkpt><trkpt lat="44.521675" lon="10.4909183"><ele>630.0</ele><time>2026-04-06T08:42:22.976Z</time></trkpt><trkpt lat="44.5216083" lon="10.491045"><ele>630.0</ele><time>2026-04-06T08:42:23.976Z</time></trkpt><trkpt lat="44.521535" lon="10.49116"><ele>627.75</ele><time>2026-04-06T08:42:24.976Z</time></trkpt><trkpt lat="44.52146" lon="10.4912633"><ele>625.5</ele><time>2026-04-06T08:42:25.976Z</time></trkpt><trkpt lat="44.5213517" lon="10.49133"><ele>623.25</ele><time>2026-04-06T08:42:26.976Z</time></trkpt><trkpt lat="44.5212167" lon="10.4913767"><ele>621.0</ele><time>2026-04-06T08:42:27.976Z</time></trkpt><trkpt lat="44.5210733" lon="10.49141"><ele>619.6666666666666</ele><time>2026-04-06T08:42:28.976Z</time></trkpt><trkpt lat="44.5209133" lon="10.4914533"><ele>618.3333333333333</ele><time>2026-04-06T08:42:29.976Z</time></trkpt><trkpt lat="44.520755" lon="10.4914967"><ele>617.0</ele><time>2026-04-06T08:42:30.976Z</time></trkpt><trkpt lat="44.52061" lon="10.4915417"><ele>617.0</ele><time>2026-04-06T08:42:31.976Z</time></trkpt><trkpt lat="44.5204533" lon="10.4915867"><ele>617.0</ele><time>2026-04-06T08:42:32.977Z</time></trkpt><trkpt lat="44.5203" lon="10.4916167"><ele>617.0</ele><time>2026-04-06T08:42:33.977Z</time></trkpt><trkpt lat="44.52016" lon="10.491635"><ele>616.0</ele><time>2026-04-06T08:42:34.977Z</time></trkpt><trkpt lat="44.5200117" lon="10.4916433"><ele>615.0</ele><time>2026-04-06T08:42:35.977Z</time></trkpt><trkpt lat="44.51986" lon="10.49164"><ele>614.0</ele><time>2026-04-06T08:42:36.976Z</time></trkpt><trkpt lat="44.5197067" lon="10.4916267"><ele>615.0</ele><time>2026-04-06T08:42:37.976Z</time></trkpt><trkpt lat="44.5195617" lon="10.4916183"><ele>616.0</ele><time>2026-04-06T08:42:38.976Z</time></trkpt><trkpt lat="44.519405" lon="10.4916317"><ele>617.0</ele><time>2026-04-06T08:42:39.976Z</time></trkpt><trkpt lat="44.5192333" lon="10.4916783"><ele>617.0</ele><time>2026-04-06T08:42:40.976Z</time></trkpt><trkpt lat="44.5190583" lon="10.491735"><ele>617.0</ele><time>2026-04-06T08:42:41.976Z</time></trkpt><trkpt lat="44.518875" lon="10.4918117"><ele>617.0</ele><time>2026-04-06T08:42:42.976Z</time></trkpt><trkpt lat="44.5186883" lon="10.491905"><ele>613.3333333333333</ele><time>2026-04-06T08:42:43.977Z</time></trkpt><trkpt lat="44.518505" lon="10.4920017"><ele>609.6666666666666</ele><time>2026-04-06T08:42:44.977Z</time></trkpt><trkpt lat="44.51833" lon="10.49209"><ele>606.0</ele><time>2026-04-06T08:42:45.976Z</time></trkpt><trkpt lat="44.5181717" lon="10.49218"><ele>606.0</ele><time>2026-04-06T08:42:46.977Z</time></trkpt><trkpt lat="44.51804" lon="10.4922783"><ele>606.0</ele><time>2026-04-06T08:42:47.976Z</time></trkpt><trkpt lat="44.5179183" lon="10.492365"><ele>606.0</ele><time>2026-04-06T08:42:48.976Z</time></trkpt><trkpt lat="44.5177983" lon="10.4924483"><ele>606.0</ele><time>2026-04-06T08:42:49.976Z</time></trkpt><trkpt lat="44.5176767" lon="10.4924917"><ele>607.5</ele><time>2026-04-06T08:42:50.976Z</time></trkpt><trkpt lat="44.51755" lon="10.4924917"><ele>609.0</ele><time>2026-04-06T08:42:51.976Z</time></trkpt><trkpt lat="44.517405" lon="10.4924517"><ele>610.5</ele><time>2026-04-06T08:42:52.976Z</time></trkpt><trkpt lat="44.5172583" lon="10.4923867"><ele>612.0</ele><time>2026-04-06T08:42:53.976Z</time></trkpt><trkpt lat="44.5171133" lon="10.4923167"><ele>608.3333333333334</ele><time>2026-04-06T08:42:54.976Z</time></trkpt><trkpt lat="44.516975" lon="10.492265"><ele>604.6666666666667</ele><time>2026-04-06T08:42:55.976Z</time></trkpt><trkpt lat="44.5168233" lon="10.4922433"><ele>601.0</ele><time>2026-04-06T08:42:56.977Z</time></trkpt><trkpt lat="44.5166583" lon="10.4922467"><ele>601.0</ele><time>2026-04-06T08:42:57.976Z</time></trkpt><trkpt lat="44.5165017" lon="10.49224"><ele>601.0</ele><time>2026-04-06T08:42:58.977Z</time></trkpt><trkpt lat="44.5163483" lon="10.4922483"><ele>601.0</ele><time>2026-04-06T08:42:59.976Z</time></trkpt><trkpt lat="44.5161967" lon="10.4922733"><ele>601.0</ele><time>2026-04-06T08:43:00.976Z</time></trkpt><trkpt lat="44.516055" lon="10.4923117"><ele>601.0</ele><time>2026-04-06T08:43:01.976Z</time></trkpt><trkpt lat="44.5159183" lon="10.492345"><ele>601.0</ele><time>2026-04-06T08:43:02.977Z</time></trkpt><trkpt lat="44.5157917" lon="10.4923583"><ele>601.0</ele><time>2026-04-06T08:43:03.976Z</time></trkpt><trkpt lat="44.51568" lon="10.49238"><ele>601.0</ele><time>2026-04-06T08:43:04.977Z</time></trkpt><trkpt lat="44.51558" lon="10.4924067"><ele>601.0</ele><time>2026-04-06T08:43:05.976Z</time></trkpt><trkpt lat="44.515495" lon="10.49246"><ele>601.0</ele><time>2026-04-06T08:43:06.976Z</time></trkpt><trkpt lat="44.5154417" lon="10.4925617"><ele>601.0</ele><time>2026-04-06T08:43:07.976Z</time></trkpt><trkpt lat="44.5154117" lon="10.4926933"><ele>601.0</ele><time>2026-04-06T08:43:08.976Z</time></trkpt><trkpt lat="44.5153733" lon="10.4928417"><ele>596.5</ele><time>2026-04-06T08:43:09.977Z</time></trkpt><trkpt lat="44.5153083" lon="10.49297"><ele>592.0</ele><time>2026-04-06T08:43:10.976Z</time></trkpt><trkpt lat="44.5152117" lon="10.4930717"><ele>587.5</ele><time>2026-04-06T08:43:11.976Z</time></trkpt><trkpt lat="44.5151117" lon="10.4931567"><ele>583.0</ele><time>2026-04-06T08:43:12.976Z</time></trkpt><trkpt lat="44.5150133" lon="10.493245"><ele>583.0</ele><time>2026-04-06T08:43:13.976Z</time></trkpt><trkpt lat="44.5149167" lon="10.4933367"><ele>583.0</ele><time>2026-04-06T08:43:14.976Z</time></trkpt><trkpt lat="44.5148267" lon="10.493405"><ele>583.0</ele><time>2026-04-06T08:43:15.977Z</time></trkpt><trkpt lat="44.5147317" lon="10.4934183"><ele>583.0</ele><time>2026-04-06T08:43:16.976Z</time></trkpt><trkpt lat="44.5146483" lon="10.4933867"><ele>583.0</ele><time>2026-04-06T08:43:17.976Z</time></trkpt><trkpt lat="44.514595" lon="10.4933033"><ele>583.0</ele><time>2026-04-06T08:43:18.977Z</time></trkpt><trkpt lat="44.51456" lon="10.4931883"><ele>583.0</ele><time>2026-04-06T08:43:19.976Z</time></trkpt><trkpt lat="44.5145417" lon="10.4930617"><ele>583.0</ele><time>2026-04-06T08:43:20.976Z</time></trkpt><trkpt lat="44.5145167" lon="10.49294"><ele>583.0</ele><time>2026-04-06T08:43:21.976Z</time></trkpt><trkpt lat="44.5144867" lon="10.4928333"><ele>583.0</ele><time>2026-04-06T08:43:22.977Z</time></trkpt><trkpt lat="44.5144367" lon="10.4927483"><ele>583.0</ele><time>2026-04-06T08:43:23.976Z</time></trkpt><trkpt lat="44.5143833" lon="10.4926967"><ele>583.0</ele><time>2026-04-06T08:43:24.976Z</time></trkpt><trkpt lat="44.5142583" lon="10.4927383"><ele>583.0</ele><time>2026-04-06T08:43:26.976Z</time></trkpt><trkpt lat="44.5142" lon="10.49285"><ele>583.0</ele><time>2026-04-06T08:43:27.976Z</time></trkpt><trkpt lat="44.51415" lon="10.4930017"><ele>583.0</ele><time>2026-04-06T08:43:28.976Z</time></trkpt><trkpt lat="44.5141217" lon="10.4931617"><ele>582.1999999999999</ele><time>2026-04-06T08:43:29.976Z</time></trkpt><trkpt lat="44.5140917" lon="10.4933117"><ele>581.4</ele><time>2026-04-06T08:43:30.976Z</time></trkpt><trkpt lat="44.514055" lon="10.49346"><ele>580.5999999999999</ele><time>2026-04-06T08:43:31.976Z</time></trkpt><trkpt lat="44.51402" lon="10.493605"><ele>579.8</ele><time>2026-04-06T08:43:32.977Z</time></trkpt><trkpt lat="44.5139867" lon="10.4937517"><ele>579.0</ele><time>2026-04-06T08:43:33.976Z</time></trkpt><trkpt lat="44.5139517" lon="10.4938983"><ele>575.8</ele><time>2026-04-06T08:43:34.976Z</time></trkpt><trkpt lat="44.5139233" lon="10.4940383"><ele>572.5999999999999</ele><time>2026-04-06T08:43:35.976Z</time></trkpt><trkpt lat="44.51389" lon="10.49418"><ele>569.4</ele><time>2026-04-06T08:43:36.976Z</time></trkpt><trkpt lat="44.51386" lon="10.494315"><ele>566.1999999999999</ele><time>2026-04-06T08:43:37.976Z</time></trkpt><trkpt lat="44.513825" lon="10.4944583"><ele>563.0</ele><time>2026-04-06T08:43:38.976Z</time></trkpt><trkpt lat="44.5137933" lon="10.49461"><ele>561.6</ele><time>2026-04-06T08:43:39.976Z</time></trkpt><trkpt lat="44.513765" lon="10.494755"><ele>560.1999999999999</ele><time>2026-04-06T08:43:40.976Z</time></trkpt><trkpt lat="44.5137267" lon="10.4948967"><ele>558.8</ele><time>2026-04-06T08:43:41.977Z</time></trkpt><trkpt lat="44.5136933" lon="10.4950367"><ele>557.4</ele><time>2026-04-06T08:43:42.976Z</time></trkpt><trkpt lat="44.5136517" lon="10.4951617"><ele>556.0</ele><time>2026-04-06T08:43:43.976Z</time></trkpt><trkpt lat="44.5136067" lon="10.495265"><ele>558.3333333333334</ele><time>2026-04-06T08:43:44.976Z</time></trkpt><trkpt lat="44.51356" lon="10.4953583"><ele>560.6666666666667</ele><time>2026-04-06T08:43:45.976Z</time></trkpt><trkpt lat="44.5135083" lon="10.49544"><ele>563.0</ele><time>2026-04-06T08:43:46.975Z</time></trkpt><trkpt lat="44.5134433" lon="10.4955117"><ele>565.3333333333334</ele><time>2026-04-06T08:43:47.975Z</time></trkpt><trkpt lat="44.5133767" lon="10.4955767"><ele>567.6666666666666</ele><time>2026-04-06T08:43:48.975Z</time></trkpt><trkpt lat="44.5133117" lon="10.49563"><ele>570.0</ele><time>2026-04-06T08:43:49.975Z</time></trkpt><trkpt lat="44.5132017" lon="10.4956917"><ele>570.1666666666666</ele><time>2026-04-06T08:43:51.975Z</time></trkpt><trkpt lat="44.51309" lon="10.4956767"><ele>570.3333333333334</ele><time>2026-04-06T08:43:53.975Z</time></trkpt><trkpt lat="44.5130317" lon="10.4956417"><ele>570.5</ele><time>2026-04-06T08:43:54.975Z</time></trkpt><trkpt lat="44.51297" lon="10.495595"><ele>570.6666666666667</ele><time>2026-04-06T08:43:55.975Z</time></trkpt><trkpt lat="44.5129117" lon="10.495535"><ele>570.8333333333334</ele><time>2026-04-06T08:43:56.975Z</time></trkpt><trkpt lat="44.51283" lon="10.4954117"><ele>571.0</ele><time>2026-04-06T08:43:58.975Z</time></trkpt><trkpt lat="44.5128133" lon="10.4953233"><ele>570.1666666666667</ele><time>2026-04-06T08:43:59.975Z</time></trkpt><trkpt lat="44.512815" lon="10.495215"><ele>569.3333333333334</ele><time>2026-04-06T08:44:00.975Z</time></trkpt><trkpt lat="44.5128267" lon="10.4951"><ele>568.5</ele><time>2026-04-06T08:44:01.975Z</time></trkpt><trkpt lat="44.5128317" lon="10.4949833"><ele>567.6666666666666</ele><time>2026-04-06T08:44:02.976Z</time></trkpt><trkpt lat="44.5128217" lon="10.4948667"><ele>566.8333333333333</ele><time>2026-04-06T08:44:03.975Z</time></trkpt><trkpt lat="44.5127933" lon="10.4947467"><ele>566.0</ele><time>2026-04-06T08:44:04.975Z</time></trkpt><trkpt lat="44.5127433" lon="10.4946183"><ele>565.0</ele><time>2026-04-06T08:44:05.975Z</time></trkpt><trkpt lat="44.5126883" lon="10.49447"><ele>564.0</ele><time>2026-04-06T08:44:06.975Z</time></trkpt><trkpt lat="44.5126333" lon="10.4943017"><ele>563.0</ele><time>2026-04-06T08:44:07.975Z</time></trkpt><trkpt lat="44.51257" lon="10.4941233"><ele>562.0</ele><time>2026-04-06T08:44:08.975Z</time></trkpt><trkpt lat="44.5124983" lon="10.4939317"><ele>561.3333333333334</ele><time>2026-04-06T08:44:09.975Z</time></trkpt><trkpt lat="44.5124133" lon="10.4937433"><ele>560.6666666666666</ele><time>2026-04-06T08:44:10.975Z</time></trkpt><trkpt lat="44.5123067" lon="10.4935433"><ele>560.0</ele><time>2026-04-06T08:44:11.975Z</time></trkpt><trkpt lat="44.5121933" lon="10.4933517"><ele>557.0</ele><time>2026-04-06T08:44:12.975Z</time></trkpt><trkpt lat="44.5120717" lon="10.493165"><ele>554.0</ele><time>2026-04-06T08:44:13.976Z</time></trkpt><trkpt lat="44.5119433" lon="10.4929867"><ele>551.0</ele><time>2026-04-06T08:44:14.975Z</time></trkpt><trkpt lat="44.511815" lon="10.4928117"><ele>549.6666666666666</ele><time>2026-04-06T08:44:15.975Z</time></trkpt><trkpt lat="44.5116917" lon="10.4926467"><ele>548.3333333333334</ele><time>2026-04-06T08:44:16.976Z</time></trkpt><trkpt lat="44.51158" lon="10.492505"><ele>547.0</ele><time>2026-04-06T08:44:17.975Z</time></trkpt><trkpt lat="44.5114733" lon="10.4923717"><ele>547.0</ele><time>2026-04-06T08:44:18.976Z</time></trkpt><trkpt lat="44.5113633" lon="10.49227"><ele>547.0</ele><time>2026-04-06T08:44:19.975Z</time></trkpt><trkpt lat="44.5112533" lon="10.4922"><ele>547.0</ele><time>2026-04-06T08:44:20.975Z</time></trkpt><trkpt lat="44.51114" lon="10.492165"><ele>547.0</ele><time>2026-04-06T08:44:21.975Z</time></trkpt><trkpt lat="44.51103" lon="10.49218"><ele>545.8000000000001</ele><time>2026-04-06T08:44:22.975Z</time></trkpt><trkpt lat="44.510935" lon="10.492225"><ele>544.6</ele><time>2026-04-06T08:44:23.976Z</time></trkpt><trkpt lat="44.5108633" lon="10.492305"><ele>543.4000000000001</ele><time>2026-04-06T08:44:24.975Z</time></trkpt><trkpt lat="44.5108083" lon="10.492415"><ele>542.2</ele><time>2026-04-06T08:44:25.976Z</time></trkpt><trkpt lat="44.5107717" lon="10.492535"><ele>541.0</ele><time>2026-04-06T08:44:26.975Z</time></trkpt><trkpt lat="44.5107417" lon="10.4926633"><ele>541.0</ele><time>2026-04-06T08:44:27.975Z</time></trkpt><trkpt lat="44.5107033" lon="10.49279"><ele>541.0</ele><time>2026-04-06T08:44:28.976Z</time></trkpt><trkpt lat="44.51066" lon="10.49289"><ele>541.0</ele><time>2026-04-06T08:44:29.975Z</time></trkpt><trkpt lat="44.5106" lon="10.4929717"><ele>541.0</ele><time>2026-04-06T08:44:30.976Z</time></trkpt><trkpt lat="44.5105167" lon="10.4930283"><ele>541.0</ele><time>2026-04-06T08:44:31.975Z</time></trkpt><trkpt lat="44.5104183" lon="10.493055"><ele>540.25</ele><time>2026-04-06T08:44:32.975Z</time></trkpt><trkpt lat="44.5103067" lon="10.4930667"><ele>539.5</ele><time>2026-04-06T08:44:33.975Z</time></trkpt><trkpt lat="44.5101833" lon="10.49308"><ele>538.75</ele><time>2026-04-06T08:44:34.975Z</time></trkpt><trkpt lat="44.5100633" lon="10.493095"><ele>538.0</ele><time>2026-04-06T08:44:35.975Z</time></trkpt><trkpt lat="44.50994" lon="10.4931167"><ele>538.0</ele><time>2026-04-06T08:44:36.975Z</time></trkpt><trkpt lat="44.5098267" lon="10.4931383"><ele>538.0</ele><time>2026-04-06T08:44:37.976Z</time></trkpt><trkpt lat="44.5097033" lon="10.4931567"><ele>538.0</ele><time>2026-04-06T08:44:38.975Z</time></trkpt><trkpt lat="44.5095783" lon="10.4931717"><ele>538.0</ele><time>2026-04-06T08:44:39.975Z</time></trkpt><trkpt lat="44.50944" lon="10.4931833"><ele>538.6666666666667</ele><time>2026-04-06T08:44:40.975Z</time></trkpt><trkpt lat="44.509295" lon="10.4931917"><ele>539.3333333333334</ele><time>2026-04-06T08:44:41.976Z</time></trkpt><trkpt lat="44.5091467" lon="10.4931983"><ele>540.0</ele><time>2026-04-06T08:44:42.976Z</time></trkpt><trkpt lat="44.5089867" lon="10.4931983"><ele>540.0</ele><time>2026-04-06T08:44:43.975Z</time></trkpt><trkpt lat="44.5088283" lon="10.4932"><ele>540.0</ele><time>2026-04-06T08:44:44.975Z</time></trkpt><trkpt lat="44.50866" lon="10.4931917"><ele>540.0</ele><time>2026-04-06T08:44:45.975Z</time></trkpt><trkpt lat="44.5084917" lon="10.4931817"><ele>548.0</ele><time>2026-04-06T08:44:46.975Z</time></trkpt><trkpt lat="44.5083233" lon="10.4931683"><ele>556.0</ele><time>2026-04-06T08:44:47.976Z</time></trkpt><trkpt lat="44.5081517" lon="10.4931433"><ele>564.0</ele><time>2026-04-06T08:44:48.975Z</time></trkpt><trkpt lat="44.50798" lon="10.49312"><ele>574.6666666666666</ele><time>2026-04-06T08:44:49.975Z</time></trkpt><trkpt lat="44.5078033" lon="10.4930967"><ele>585.3333333333333</ele><time>2026-04-06T08:44:50.975Z</time></trkpt><trkpt lat="44.5076283" lon="10.49307"><ele>596.0</ele><time>2026-04-06T08:44:51.975Z</time></trkpt><trkpt lat="44.5074483" lon="10.4930483"><ele>596.0</ele><time>2026-04-06T08:44:52.975Z</time></trkpt><trkpt lat="44.5072617" lon="10.493015"><ele>596.0</ele><time>2026-04-06T08:44:53.975Z</time></trkpt><trkpt lat="44.4991417" lon="10.488335"><ele>599.0</ele><time>2026-04-06T08:45:47.992Z</time></trkpt><trkpt lat="44.4989" lon="10.4883183"><ele>602.0</ele><time>2026-04-06T08:45:48.992Z</time></trkpt><trkpt lat="44.4987" lon="10.4883267"><ele>605.0</ele><time>2026-04-06T08:45:49.992Z</time></trkpt><trkpt lat="44.49851" lon="10.4883533"><ele>605.0</ele><time>2026-04-06T08:45:50.992Z</time></trkpt><trkpt lat="44.49833" lon="10.488385"><ele>605.0</ele><time>2026-04-06T08:45:51.992Z</time></trkpt><trkpt lat="44.4981567" lon="10.4884033"><ele>605.0</ele><time>2026-04-06T08:45:52.992Z</time></trkpt><trkpt lat="44.4979867" lon="10.4884183"><ele>609.0</ele><time>2026-04-06T08:45:53.992Z</time></trkpt><trkpt lat="44.49782" lon="10.4884217"><ele>613.0</ele><time>2026-04-06T08:45:54.992Z</time></trkpt><trkpt lat="44.4976617" lon="10.4884217"><ele>617.0</ele><time>2026-04-06T08:45:55.992Z</time></trkpt><trkpt lat="44.4975033" lon="10.4884317"><ele>617.0</ele><time>2026-04-06T08:45:56.992Z</time></trkpt><trkpt lat="44.4973467" lon="10.4884383"><ele>617.0</ele><time>2026-04-06T08:45:57.992Z</time></trkpt><trkpt lat="44.4971867" lon="10.4884517"><ele>617.0</ele><time>2026-04-06T08:45:58.993Z</time></trkpt><trkpt lat="44.4970267" lon="10.488445"><ele>616.5</ele><time>2026-04-06T08:45:59.992Z</time></trkpt><trkpt lat="44.4968683" lon="10.488435"><ele>616.0</ele><time>2026-04-06T08:46:00.992Z</time></trkpt><trkpt lat="44.4967383" lon="10.4884133"><ele>615.5</ele><time>2026-04-06T08:46:01.992Z</time></trkpt><trkpt lat="44.4966483" lon="10.4883867"><ele>615.0</ele><time>2026-04-06T08:46:02.992Z</time></trkpt><trkpt lat="44.49655" lon="10.4883617"><ele>615.0</ele><time>2026-04-06T08:46:04.992Z</time></trkpt><trkpt lat="44.49656" lon="10.4884783"><ele>615.0</ele><time>2026-04-06T08:46:20.992Z</time></trkpt><trkpt lat="44.4967017" lon="10.4885167"><ele>615.0</ele><time>2026-04-06T08:46:22.992Z</time></trkpt><trkpt lat="44.49681" lon="10.4885267"><ele>615.0</ele><time>2026-04-06T08:46:23.993Z</time></trkpt><trkpt lat="44.4969283" lon="10.488535"><ele>615.0</ele><time>2026-04-06T08:46:24.992Z</time></trkpt><trkpt lat="44.4970633" lon="10.4885383"><ele>615.0</ele><time>2026-04-06T08:46:25.992Z</time></trkpt><trkpt lat="44.4971983" lon="10.48854"><ele>615.0</ele><time>2026-04-06T08:46:26.993Z</time></trkpt><trkpt lat="44.4973333" lon="10.4885417"><ele>615.0</ele><time>2026-04-06T08:46:27.992Z</time></trkpt><trkpt lat="44.49746" lon="10.4885433"><ele>615.4</ele><time>2026-04-06T08:46:28.993Z</time></trkpt><trkpt lat="44.4975733" lon="10.4885483"><ele>615.8</ele><time>2026-04-06T08:46:29.992Z</time></trkpt><trkpt lat="44.4976817" lon="10.4885667"><ele>616.2</ele><time>2026-04-06T08:46:30.992Z</time></trkpt><trkpt lat="44.4977667" lon="10.4886183"><ele>616.6</ele><time>2026-04-06T08:46:31.992Z</time></trkpt><trkpt lat="44.4978483" lon="10.4887033"><ele>617.0</ele><time>2026-04-06T08:46:32.993Z</time></trkpt><trkpt lat="44.4979133" lon="10.4888167"><ele>613.0</ele><time>2026-04-06T08:46:33.993Z</time></trkpt><trkpt lat="44.4979617" lon="10.4889467"><ele>609.0</ele><time>2026-04-06T08:46:34.992Z</time></trkpt><trkpt lat="44.498" lon="10.4890817"><ele>605.0</ele><time>2026-04-06T08:46:35.993Z</time></trkpt><trkpt lat="44.4980617" lon="10.4892033"><ele>601.0</ele><time>2026-04-06T08:46:36.992Z</time></trkpt><trkpt lat="44.49814" lon="10.4893033"><ele>597.0</ele><time>2026-04-06T08:46:37.993Z</time></trkpt><trkpt lat="44.49823" lon="10.4893767"><ele>597.0</ele><time>2026-04-06T08:46:38.992Z</time></trkpt><trkpt lat="44.4983233" lon="10.4894133"><ele>597.0</ele><time>2026-04-06T08:46:39.992Z</time></trkpt><trkpt lat="44.498415" lon="10.4894067"><ele>597.0</ele><time>2026-04-06T08:46:40.993Z</time></trkpt><trkpt lat="44.4985117" lon="10.48937"><ele>597.0</ele><time>2026-04-06T08:46:41.993Z</time></trkpt><trkpt lat="44.4986117" lon="10.4893317"><ele>597.0</ele><time>2026-04-06T08:46:42.993Z</time></trkpt><trkpt lat="44.4987183" lon="10.4893"><ele>597.0</ele><time>2026-04-06T08:46:43.992Z</time></trkpt><trkpt lat="44.4988233" lon="10.4892917"><ele>597.0</ele><time>2026-04-06T08:46:44.992Z</time></trkpt><trkpt lat="44.49893" lon="10.4893033"><ele>597.0</ele><time>2026-04-06T08:46:45.992Z</time></trkpt><trkpt lat="44.49903" lon="10.48935"><ele>597.0</ele><time>2026-04-06T08:46:46.992Z</time></trkpt><trkpt lat="44.4991267" lon="10.4894167"><ele>597.0</ele><time>2026-04-06T08:46:47.992Z</time></trkpt><trkpt lat="44.4992167" lon="10.48951"><ele>595.0</ele><time>2026-04-06T08:46:48.992Z</time></trkpt><trkpt lat="44.4993017" lon="10.4896033"><ele>593.0</ele><time>2026-04-06T08:46:49.992Z</time></trkpt><trkpt lat="44.4993883" lon="10.4897"><ele>591.0</ele><time>2026-04-06T08:46:50.993Z</time></trkpt><trkpt lat="44.4994683" lon="10.4897833"><ele>589.0</ele><time>2026-04-06T08:46:51.992Z</time></trkpt><trkpt lat="44.4995417" lon="10.48986"><ele>587.0</ele><time>2026-04-06T08:46:52.992Z</time></trkpt><trkpt lat="44.49961" lon="10.4899167"><ele>587.0</ele><time>2026-04-06T08:46:53.992Z</time></trkpt><trkpt lat="44.4996683" lon="10.4899633"><ele>587.0</ele><time>2026-04-06T08:46:54.992Z</time></trkpt><trkpt lat="44.499735" lon="10.490005"><ele>587.0</ele><time>2026-04-06T08:46:55.992Z</time></trkpt><trkpt lat="44.4998117" lon="10.4900317"><ele>587.0</ele><time>2026-04-06T08:46:56.992Z</time></trkpt><trkpt lat="44.499885" lon="10.4900283"><ele>587.0</ele><time>2026-04-06T08:46:57.992Z</time></trkpt><trkpt lat="44.499955" lon="10.4899917"><ele>587.0</ele><time>2026-04-06T08:46:58.992Z</time></trkpt><trkpt lat="44.5000317" lon="10.489945"><ele>587.0</ele><time>2026-04-06T08:46:59.992Z</time></trkpt><trkpt lat="44.5001117" lon="10.4899083"><ele>587.0</ele><time>2026-04-06T08:47:00.993Z</time></trkpt><trkpt lat="44.500205" lon="10.4898783"><ele>587.0</ele><time>2026-04-06T08:47:01.992Z</time></trkpt><trkpt lat="44.5002967" lon="10.4898633"><ele>587.0</ele><time>2026-04-06T08:47:02.992Z</time></trkpt><trkpt lat="44.5003983" lon="10.4898483"><ele>587.0</ele><time>2026-04-06T08:47:03.992Z</time></trkpt><trkpt lat="44.500505" lon="10.48984"><ele>586.4</ele><time>2026-04-06T08:47:04.992Z</time></trkpt><trkpt lat="44.5006167" lon="10.4898383"><ele>585.8000000000001</ele><time>2026-04-06T08:47:05.993Z</time></trkpt><trkpt lat="44.5007267" lon="10.48984"><ele>585.2</ele><time>2026-04-06T08:47:06.992Z</time></trkpt><trkpt lat="44.50083" lon="10.4898367"><ele>584.6</ele><time>2026-04-06T08:47:07.993Z</time></trkpt><trkpt lat="44.500915" lon="10.4898317"><ele>584.0</ele><time>2026-04-06T08:47:08.992Z</time></trkpt><trkpt lat="44.5010233" lon="10.489845"><ele>584.0</ele><time>2026-04-06T08:47:10.993Z</time></trkpt><trkpt lat="44.5011783" lon="10.4898017"><ele>584.0</ele><time>2026-04-06T08:48:23.992Z</time></trkpt><trkpt lat="44.5012483" lon="10.4898017"><ele>584.0</ele><time>2026-04-06T08:48:24.993Z</time></trkpt><trkpt lat="44.501335" lon="10.4898183"><ele>584.0</ele><time>2026-04-06T08:48:25.992Z</time></trkpt><trkpt lat="44.5014383" lon="10.4898483"><ele>584.0</ele><time>2026-04-06T08:48:26.992Z</time></trkpt><trkpt lat="44.50154" lon="10.4898917"><ele>584.75</ele><time>2026-04-06T08:48:27.992Z</time></trkpt><trkpt lat="44.50165" lon="10.4899667"><ele>585.5</ele><time>2026-04-06T08:48:28.992Z</time></trkpt><trkpt lat="44.5017633" lon="10.490065"><ele>586.25</ele><time>2026-04-06T08:48:29.992Z</time></trkpt><trkpt lat="44.5018867" lon="10.490195"><ele>587.0</ele><time>2026-04-06T08:48:30.993Z</time></trkpt><trkpt lat="44.5020167" lon="10.4903483"><ele>585.6666666666666</ele><time>2026-04-06T08:48:31.993Z</time></trkpt><trkpt lat="44.5021517" lon="10.4905067"><ele>584.3333333333334</ele><time>2026-04-06T08:48:32.993Z</time></trkpt><trkpt lat="44.5023067" lon="10.490675"><ele>583.0</ele><time>2026-04-06T08:48:33.992Z</time></trkpt><trkpt lat="44.5024617" lon="10.49084"><ele>583.0</ele><time>2026-04-06T08:48:34.993Z</time></trkpt><trkpt lat="44.5026083" lon="10.49099"><ele>583.0</ele><time>2026-04-06T08:48:35.992Z</time></trkpt><trkpt lat="44.5027467" lon="10.491145"><ele>583.0</ele><time>2026-04-06T08:48:36.993Z</time></trkpt><trkpt lat="44.5028733" lon="10.4913117"><ele>579.3333333333334</ele><time>2026-04-06T08:48:37.992Z</time></trkpt><trkpt lat="44.50299" lon="10.4914917"><ele>575.6666666666666</ele><time>2026-04-06T08:48:38.993Z</time></trkpt><trkpt lat="44.5031067" lon="10.4916467"><ele>572.0</ele><time>2026-04-06T08:48:39.992Z</time></trkpt><trkpt lat="44.50323" lon="10.491795"><ele>572.0</ele><time>2026-04-06T08:48:40.992Z</time></trkpt><trkpt lat="44.5033633" lon="10.4919133"><ele>572.0</ele><time>2026-04-06T08:48:41.992Z</time></trkpt><trkpt lat="44.50352" lon="10.4920117"><ele>572.0</ele><time>2026-04-06T08:48:42.993Z</time></trkpt><trkpt lat="44.50368" lon="10.4920817"><ele>570.6666666666666</ele><time>2026-04-06T08:48:43.992Z</time></trkpt><trkpt lat="44.5038517" lon="10.492155"><ele>569.3333333333334</ele><time>2026-04-06T08:48:44.992Z</time></trkpt><trkpt lat="44.5040167" lon="10.4922517"><ele>568.0</ele><time>2026-04-06T08:48:45.992Z</time></trkpt><trkpt lat="44.50418" lon="10.49236"><ele>568.0</ele><time>2026-04-06T08:48:46.992Z</time></trkpt><trkpt lat="44.5043383" lon="10.4924767"><ele>568.0</ele><time>2026-04-06T08:48:47.992Z</time></trkpt><trkpt lat="44.5044883" lon="10.4926"><ele>568.0</ele><time>2026-04-06T08:48:48.992Z</time></trkpt><trkpt lat="44.5046333" lon="10.4927167"><ele>567.3333333333334</ele><time>2026-04-06T08:48:49.992Z</time></trkpt><trkpt lat="44.504755" lon="10.4928433"><ele>566.6666666666666</ele><time>2026-04-06T08:48:50.993Z</time></trkpt><trkpt lat="44.5048667" lon="10.4929833"><ele>566.0</ele><time>2026-04-06T08:48:51.993Z</time></trkpt><trkpt lat="44.5049783" lon="10.4931267"><ele>566.0</ele><time>2026-04-06T08:48:52.992Z</time></trkpt><trkpt lat="44.5050817" lon="10.4932617"><ele>566.0</ele><time>2026-04-06T08:48:53.993Z</time></trkpt><trkpt lat="44.5051733" lon="10.4933933"><ele>566.0</ele><time>2026-04-06T08:48:54.993Z</time></trkpt><trkpt lat="44.5052583" lon="10.4935017"><ele>566.0</ele><time>2026-04-06T08:48:55.992Z</time></trkpt><trkpt lat="44.505345" lon="10.493605"><ele>565.0</ele><time>2026-04-06T08:48:56.993Z</time></trkpt><trkpt lat="44.50543" lon="10.49373"><ele>564.0</ele><time>2026-04-06T08:48:57.992Z</time></trkpt><trkpt lat="44.5055217" lon="10.4938583"><ele>563.0</ele><time>2026-04-06T08:48:58.992Z</time></trkpt><trkpt lat="44.5056083" lon="10.4939867"><ele>562.0</ele><time>2026-04-06T08:48:59.993Z</time></trkpt><trkpt lat="44.5057067" lon="10.4941067"><ele>562.0</ele><time>2026-04-06T08:49:00.992Z</time></trkpt><trkpt lat="44.5057967" lon="10.494245"><ele>562.0</ele><time>2026-04-06T08:49:01.992Z</time></trkpt><trkpt lat="44.505885" lon="10.494385"><ele>562.0</ele><time>2026-04-06T08:49:02.992Z</time></trkpt><trkpt lat="44.5059733" lon="10.4945233"><ele>562.0</ele><time>2026-04-06T08:49:03.992Z</time></trkpt><trkpt lat="44.5060583" lon="10.4946567"><ele>560.5</ele><time>2026-04-06T08:49:04.993Z</time></trkpt><trkpt lat="44.5061367" lon="10.4947967"><ele>559.0</ele><time>2026-04-06T08:49:05.992Z</time></trkpt><trkpt lat="44.5061983" lon="10.494965"><ele>557.5</ele><time>2026-04-06T08:49:06.992Z</time></trkpt><trkpt lat="44.5062383" lon="10.4951383"><ele>556.0</ele><time>2026-04-06T08:49:07.993Z</time></trkpt><trkpt lat="44.5062733" lon="10.4953183"><ele>556.5</ele><time>2026-04-06T08:49:08.993Z</time></trkpt><trkpt lat="44.5063267" lon="10.4954933"><ele>557.0</ele><time>2026-04-06T08:49:09.993Z</time></trkpt><trkpt lat="44.5063933" lon="10.4956733"><ele>557.5</ele><time>2026-04-06T08:49:10.992Z</time></trkpt><trkpt lat="44.5064683" lon="10.49584"><ele>558.0</ele><time>2026-04-06T08:49:11.992Z</time></trkpt><trkpt lat="44.5065533" lon="10.4959933"><ele>558.0</ele><time>2026-04-06T08:49:12.992Z</time></trkpt><trkpt lat="44.506635" lon="10.49614"><ele>558.0</ele><time>2026-04-06T08:49:13.993Z</time></trkpt><trkpt lat="44.5067133" lon="10.4962767"><ele>558.0</ele><time>2026-04-06T08:49:14.992Z</time></trkpt><trkpt lat="44.5067817" lon="10.4964167"><ele>558.0</ele><time>2026-04-06T08:49:15.992Z</time></trkpt><trkpt lat="44.5068567" lon="10.4965483"><ele>555.75</ele><time>2026-04-06T08:49:16.992Z</time></trkpt><trkpt lat="44.5069317" lon="10.4966817"><ele>553.5</ele><time>2026-04-06T08:49:17.992Z</time></trkpt><trkpt lat="44.50701" lon="10.4968183"><ele>551.25</ele><time>2026-04-06T08:49:18.993Z</time></trkpt><trkpt lat="44.5070917" lon="10.4969483"><ele>549.0</ele><time>2026-04-06T08:49:19.992Z</time></trkpt><trkpt lat="44.5071883" lon="10.49706"><ele>548.75</ele><time>2026-04-06T08:49:20.993Z</time></trkpt><trkpt lat="44.5072867" lon="10.4971617"><ele>548.5</ele><time>2026-04-06T08:49:21.993Z</time></trkpt><trkpt lat="44.50739" lon="10.4972467"><ele>548.25</ele><time>2026-04-06T08:49:22.992Z</time></trkpt><trkpt lat="44.50749" lon="10.497315"><ele>548.0</ele><time>2026-04-06T08:49:23.992Z</time></trkpt><trkpt lat="44.5075833" lon="10.4973583"><ele>548.0</ele><time>2026-04-06T08:49:24.992Z</time></trkpt><trkpt lat="44.5076733" lon="10.4974083"><ele>548.0</ele><time>2026-04-06T08:49:25.992Z</time></trkpt><trkpt lat="44.5077567" lon="10.4974533"><ele>548.0</ele><time>2026-04-06T08:49:26.993Z</time></trkpt><trkpt lat="44.5078283" lon="10.49749"><ele>548.0</ele><time>2026-04-06T08:49:27.992Z</time></trkpt><trkpt lat="44.5079017" lon="10.4975383"><ele>548.0</ele><time>2026-04-06T08:49:28.992Z</time></trkpt><trkpt lat="44.507985" lon="10.4975883"><ele>548.0</ele><time>2026-04-06T08:49:29.992Z</time></trkpt><trkpt lat="44.5080683" lon="10.4976533"><ele>547.8</ele><time>2026-04-06T08:49:30.992Z</time></trkpt><trkpt lat="44.50816" lon="10.4976883"><ele>547.5999999999999</ele><time>2026-04-06T08:49:31.992Z</time></trkpt><trkpt lat="44.50825" lon="10.4976883"><ele>547.4000000000001</ele><time>2026-04-06T08:49:32.993Z</time></trkpt><trkpt lat="44.508335" lon="10.4976433"><ele>547.2</ele><time>2026-04-06T08:49:33.992Z</time></trkpt><trkpt lat="44.5084233" lon="10.4975883"><ele>547.0</ele><time>2026-04-06T08:49:34.992Z</time></trkpt><trkpt lat="44.5085217" lon="10.4975283"><ele>547.0</ele><time>2026-04-06T08:49:35.992Z</time></trkpt><trkpt lat="44.50863" lon="10.4974967"><ele>547.0</ele><time>2026-04-06T08:49:36.993Z</time></trkpt><trkpt lat="44.5087383" lon="10.4974967"><ele>547.0</ele><time>2026-04-06T08:49:37.992Z</time></trkpt><trkpt lat="44.5088433" lon="10.4975417"><ele>547.0</ele><time>2026-04-06T08:49:38.993Z</time></trkpt><trkpt lat="44.508945" lon="10.4976217"><ele>547.0</ele><time>2026-04-06T08:49:39.992Z</time></trkpt><trkpt lat="44.5090467" lon="10.497705"><ele>548.0</ele><time>2026-04-06T08:49:40.992Z</time></trkpt><trkpt lat="44.5091467" lon="10.4977733"><ele>549.0</ele><time>2026-04-06T08:49:41.993Z</time></trkpt><trkpt lat="44.5092367" lon="10.4978383"><ele>550.0</ele><time>2026-04-06T08:49:42.992Z</time></trkpt><trkpt lat="44.509315" lon="10.497885"><ele>551.0</ele><time>2026-04-06T08:49:43.993Z</time></trkpt><trkpt lat="44.5093817" lon="10.4978967"><ele>552.0</ele><time>2026-04-06T08:49:44.993Z</time></trkpt><trkpt lat="44.50945" lon="10.49787"><ele>553.0</ele><time>2026-04-06T08:49:45.993Z</time></trkpt><trkpt lat="44.5095017" lon="10.4977967"><ele>553.0</ele><time>2026-04-06T08:49:46.992Z</time></trkpt><trkpt lat="44.5095417" lon="10.4976967"><ele>553.0</ele><time>2026-04-06T08:49:47.992Z</time></trkpt><trkpt lat="44.5096" lon="10.4975483"><ele>553.0</ele><time>2026-04-06T08:49:48.993Z</time></trkpt><trkpt lat="44.5096483" lon="10.4973617"><ele>553.0</ele><time>2026-04-06T08:49:49.992Z</time></trkpt><trkpt lat="44.5097067" lon="10.4971717"><ele>553.75</ele><time>2026-04-06T08:49:50.992Z</time></trkpt><trkpt lat="44.5097767" lon="10.4970133"><ele>554.5</ele><time>2026-04-06T08:49:51.992Z</time></trkpt><trkpt lat="44.5098633" lon="10.4968933"><ele>555.25</ele><time>2026-04-06T08:49:52.992Z</time></trkpt><trkpt lat="44.5099417" lon="10.49677"><ele>556.0</ele><time>2026-04-06T08:49:53.992Z</time></trkpt><trkpt lat="44.51001" lon="10.49665"><ele>556.0</ele><time>2026-04-06T08:49:54.992Z</time></trkpt><trkpt lat="44.510045" lon="10.4964867"><ele>556.0</ele><time>2026-04-06T08:49:55.992Z</time></trkpt><trkpt lat="44.5100583" lon="10.49631"><ele>556.0</ele><time>2026-04-06T08:49:56.992Z</time></trkpt><trkpt lat="44.5100633" lon="10.49613"><ele>556.0</ele><time>2026-04-06T08:49:57.992Z</time></trkpt><trkpt lat="44.510075" lon="10.4959517"><ele>554.75</ele><time>2026-04-06T08:49:58.992Z</time></trkpt><trkpt lat="44.510085" lon="10.4957667"><ele>553.5</ele><time>2026-04-06T08:49:59.992Z</time></trkpt><trkpt lat="44.5101017" lon="10.49558"><ele>552.25</ele><time>2026-04-06T08:50:00.992Z</time></trkpt><trkpt lat="44.5101333" lon="10.4954083"><ele>551.0</ele><time>2026-04-06T08:50:01.992Z</time></trkpt><trkpt lat="44.510175" lon="10.4952283"><ele>552.0</ele><time>2026-04-06T08:50:02.992Z</time></trkpt><trkpt lat="44.51024" lon="10.49507"><ele>553.0</ele><time>2026-04-06T08:50:03.993Z</time></trkpt><trkpt lat="44.5103267" lon="10.4949333"><ele>554.0</ele><time>2026-04-06T08:50:04.992Z</time></trkpt><trkpt lat="44.5104233" lon="10.4947883"><ele>555.0</ele><time>2026-04-06T08:50:05.992Z</time></trkpt><trkpt lat="44.5105233" lon="10.494655"><ele>553.6</ele><time>2026-04-06T08:50:06.992Z</time></trkpt><trkpt lat="44.510615" lon="10.49453"><ele>552.2</ele><time>2026-04-06T08:50:07.993Z</time></trkpt><trkpt lat="44.51071" lon="10.4944367"><ele>550.8</ele><time>2026-04-06T08:50:08.992Z</time></trkpt><trkpt lat="44.5107983" lon="10.4943567"><ele>549.4</ele><time>2026-04-06T08:50:09.993Z</time></trkpt><trkpt lat="44.51089" lon="10.4943117"><ele>548.0</ele><time>2026-04-06T08:50:10.993Z</time></trkpt><trkpt lat="44.5109633" lon="10.4942817"><ele>548.0</ele><time>2026-04-06T08:50:11.992Z</time></trkpt><trkpt lat="44.5110367" lon="10.4942717"><ele>548.0</ele><time>2026-04-06T08:50:12.993Z</time></trkpt><trkpt lat="44.51112" lon="10.4942717"><ele>548.0</ele><time>2026-04-06T08:50:13.992Z</time></trkpt><trkpt lat="44.5112217" lon="10.4942917"><ele>548.0</ele><time>2026-04-06T08:50:14.993Z</time></trkpt><trkpt lat="44.5113267" lon="10.4943317"><ele>548.0</ele><time>2026-04-06T08:50:15.993Z</time></trkpt><trkpt lat="44.5114267" lon="10.494395"><ele>549.5</ele><time>2026-04-06T08:50:16.992Z</time></trkpt><trkpt lat="44.5115217" lon="10.494475"><ele>551.0</ele><time>2026-04-06T08:50:17.992Z</time></trkpt><trkpt lat="44.51161" lon="10.49457"><ele>552.5</ele><time>2026-04-06T08:50:18.992Z</time></trkpt><trkpt lat="44.51171" lon="10.494655"><ele>554.0</ele><time>2026-04-06T08:50:19.992Z</time></trkpt><trkpt lat="44.511815" lon="10.49473"><ele>556.25</ele><time>2026-04-06T08:50:20.993Z</time></trkpt><trkpt lat="44.5119283" lon="10.49479"><ele>558.5</ele><time>2026-04-06T08:50:21.993Z</time></trkpt><trkpt lat="44.51204" lon="10.4948467"><ele>560.75</ele><time>2026-04-06T08:50:22.992Z</time></trkpt><trkpt lat="44.5121533" lon="10.4948883"><ele>563.0</ele><time>2026-04-06T08:50:23.992Z</time></trkpt><trkpt lat="44.5122633" lon="10.494935"><ele>563.6</ele><time>2026-04-06T08:50:24.992Z</time></trkpt><trkpt lat="44.5123633" lon="10.4949867"><ele>564.1999999999999</ele><time>2026-04-06T08:50:25.992Z</time></trkpt><trkpt lat="44.51245" lon="10.4950383"><ele>564.8</ele><time>2026-04-06T08:50:26.992Z</time></trkpt><trkpt lat="44.5125283" lon="10.4951133"><ele>565.4</ele><time>2026-04-06T08:50:27.992Z</time></trkpt><trkpt lat="44.5126017" lon="10.49519"><ele>566.0</ele><time>2026-04-06T08:50:28.992Z</time></trkpt><trkpt lat="44.512665" lon="10.4952483"><ele>566.0</ele><time>2026-04-06T08:50:29.992Z</time></trkpt><trkpt lat="44.5127283" lon="10.4952683"><ele>566.0</ele><time>2026-04-06T08:50:30.993Z</time></trkpt><trkpt lat="44.51281" lon="10.4951783"><ele>566.0</ele><time>2026-04-06T08:50:32.992Z</time></trkpt><trkpt lat="44.5128183" lon="10.4950867"><ele>566.0</ele><time>2026-04-06T08:50:33.993Z</time></trkpt><trkpt lat="44.512815" lon="10.49497"><ele>566.0</ele><time>2026-04-06T08:50:34.992Z</time></trkpt><trkpt lat="44.512795" lon="10.4948467"><ele>566.0</ele><time>2026-04-06T08:50:35.992Z</time></trkpt><trkpt lat="44.512755" lon="10.4947117"><ele>565.0</ele><time>2026-04-06T08:50:36.992Z</time></trkpt><trkpt lat="44.512705" lon="10.4945567"><ele>564.0</ele><time>2026-04-06T08:50:37.992Z</time></trkpt><trkpt lat="44.5126467" lon="10.4943933"><ele>563.0</ele><time>2026-04-06T08:50:38.992Z</time></trkpt><trkpt lat="44.5125833" lon="10.49421"><ele>562.0</ele><time>2026-04-06T08:50:39.992Z</time></trkpt><trkpt lat="44.5125183" lon="10.49402"><ele>562.0</ele><time>2026-04-06T08:50:40.992Z</time></trkpt><trkpt lat="44.5124417" lon="10.4938183"><ele>562.0</ele><time>2026-04-06T08:50:41.992Z</time></trkpt><trkpt lat="44.5123467" lon="10.49361"><ele>562.0</ele><time>2026-04-06T08:50:42.993Z</time></trkpt><trkpt lat="44.51223" lon="10.49341"><ele>561.3333333333334</ele><time>2026-04-06T08:50:43.993Z</time></trkpt><trkpt lat="44.5121017" lon="10.4932183"><ele>560.6666666666666</ele><time>2026-04-06T08:50:44.993Z</time></trkpt><trkpt lat="44.5119633" lon="10.4930317"><ele>560.0</ele><time>2026-04-06T08:50:45.993Z</time></trkpt><trkpt lat="44.5118233" lon="10.4928517"><ele>555.6666666666666</ele><time>2026-04-06T08:50:46.992Z</time></trkpt><trkpt lat="44.5116833" lon="10.49267"><ele>551.3333333333334</ele><time>2026-04-06T08:50:47.992Z</time></trkpt><trkpt lat="44.5115517" lon="10.4925"><ele>547.0</ele><time>2026-04-06T08:50:48.992Z</time></trkpt><trkpt lat="44.51142" lon="10.4923517"><ele>547.0</ele><time>2026-04-06T08:50:49.992Z</time></trkpt><trkpt lat="44.5112917" lon="10.4922367"><ele>547.0</ele><time>2026-04-06T08:50:50.992Z</time></trkpt><trkpt lat="44.5111633" lon="10.4921883"><ele>547.0</ele><time>2026-04-06T08:50:51.992Z</time></trkpt><trkpt lat="44.51104" lon="10.4921917"><ele>547.0</ele><time>2026-04-06T08:50:52.992Z</time></trkpt><trkpt lat="44.5109333" lon="10.4922467"><ele>545.5</ele><time>2026-04-06T08:50:53.993Z</time></trkpt><trkpt lat="44.5108483" lon="10.49235"><ele>544.0</ele><time>2026-04-06T08:50:54.992Z</time></trkpt><trkpt lat="44.5107767" lon="10.492485"><ele>542.5</ele><time>2026-04-06T08:50:55.992Z</time></trkpt><trkpt lat="44.5107317" lon="10.49263"><ele>541.0</ele><time>2026-04-06T08:50:56.992Z</time></trkpt><trkpt lat="44.5106983" lon="10.492775"><ele>541.0</ele><time>2026-04-06T08:50:57.992Z</time></trkpt><trkpt lat="44.510635" lon="10.492905"><ele>541.0</ele><time>2026-04-06T08:50:58.992Z</time></trkpt><trkpt lat="44.5105517" lon="10.492995"><ele>541.0</ele><time>2026-04-06T08:50:59.992Z</time></trkpt><trkpt lat="44.5104567" lon="10.4930433"><ele>541.0</ele><time>2026-04-06T08:51:00.992Z</time></trkpt><trkpt lat="44.510355" lon="10.493055"><ele>541.0</ele><time>2026-04-06T08:51:01.992Z</time></trkpt><trkpt lat="44.5102483" lon="10.493065"><ele>540.25</ele><time>2026-04-06T08:51:02.992Z</time></trkpt><trkpt lat="44.5101317" lon="10.493085"><ele>539.5</ele><time>2026-04-06T08:51:03.992Z</time></trkpt><trkpt lat="44.5100067" lon="10.4931083"><ele>538.75</ele><time>2026-04-06T08:51:04.993Z</time></trkpt><trkpt lat="44.5098733" lon="10.4931383"><ele>538.0</ele><time>2026-04-06T08:51:05.992Z</time></trkpt><trkpt lat="44.509735" lon="10.49316"><ele>538.0</ele><time>2026-04-06T08:51:06.992Z</time></trkpt><trkpt lat="44.5095933" lon="10.4931733"><ele>538.0</ele><time>2026-04-06T08:51:07.992Z</time></trkpt><trkpt lat="44.5094417" lon="10.4931833"><ele>538.0</ele><time>2026-04-06T08:51:08.992Z</time></trkpt><trkpt lat="44.5092783" lon="10.4931933"><ele>538.6666666666667</ele><time>2026-04-06T08:51:09.993Z</time></trkpt><trkpt lat="44.5091083" lon="10.4931967"><ele>539.3333333333334</ele><time>2026-04-06T08:51:10.993Z</time></trkpt><trkpt lat="44.508935" lon="10.493205"><ele>540.0</ele><time>2026-04-06T08:51:11.992Z</time></trkpt><trkpt lat="44.5087517" lon="10.4932"><ele>548.0</ele><time>2026-04-06T08:51:12.992Z</time></trkpt><trkpt lat="44.50857" lon="10.4931883"><ele>556.0</ele><time>2026-04-06T08:51:13.992Z</time></trkpt><trkpt lat="44.508385" lon="10.4931667"><ele>564.0</ele><time>2026-04-06T08:51:14.993Z</time></trkpt><trkpt lat="44.508195" lon="10.49315"><ele>564.0</ele><time>2026-04-06T08:51:15.992Z</time></trkpt><trkpt lat="44.5079883" lon="10.4931333"><ele>564.0</ele><time>2026-04-06T08:51:16.992Z</time></trkpt><trkpt lat="44.5077883" lon="10.4931483"><ele>564.0</ele><time>2026-04-06T08:51:17.993Z</time></trkpt><trkpt lat="44.507595" lon="10.4931317"><ele>573.6666666666666</ele><time>2026-04-06T08:51:18.992Z</time></trkpt><trkpt lat="44.50741" lon="10.49312"><ele>583.3333333333333</ele><time>2026-04-06T08:51:19.992Z</time></trkpt><trkpt lat="44.5072167" lon="10.4931067"><ele>593.0</ele><time>2026-04-06T08:51:20.993Z</time></trkpt><trkpt lat="44.507015" lon="10.49309"><ele>593.0</ele><time>2026-04-06T08:51:21.992Z</time></trkpt><trkpt lat="44.5068217" lon="10.493075"><ele>593.0</ele><time>2026-04-06T08:51:22.992Z</time></trkpt><trkpt lat="44.5066283" lon="10.4930617"><ele>593.0</ele><time>2026-04-06T08:51:23.992Z</time></trkpt><trkpt lat="44.506435" lon="10.4930467"><ele>605.0</ele><time>2026-04-06T08:51:24.992Z</time></trkpt><trkpt lat="44.49913" lon="10.4882867"><ele>605.0</ele><time>2026-04-06T08:52:10.993Z</time></trkpt><trkpt lat="44.4989983" lon="10.48829"><ele>605.0</ele><time>2026-04-06T08:52:11.993Z</time></trkpt><trkpt lat="44.498885" lon="10.488295"><ele>605.0</ele><time>2026-04-06T08:52:12.993Z</time></trkpt><trkpt lat="44.4987783" lon="10.4883117"><ele>605.0</ele><time>2026-04-06T08:52:13.993Z</time></trkpt><trkpt lat="44.4986883" lon="10.4883133"><ele>605.0</ele><time>2026-04-06T08:52:14.994Z</time></trkpt><trkpt lat="44.4985967" lon="10.4883033"><ele>605.0</ele><time>2026-04-06T08:52:15.993Z</time></trkpt><trkpt lat="44.4985" lon="10.48826"><ele>605.0</ele><time>2026-04-06T08:52:16.993Z</time></trkpt><trkpt lat="44.4984283" lon="10.4881733"><ele>605.0</ele><time>2026-04-06T08:52:17.993Z</time></trkpt><trkpt lat="44.498375" lon="10.4880467"><ele>605.0</ele><time>2026-04-06T08:52:18.994Z</time></trkpt><trkpt lat="44.498355" lon="10.487895"><ele>605.0</ele><time>2026-04-06T08:52:19.994Z</time></trkpt><trkpt lat="44.4983733" lon="10.487735"><ele>607.5</ele><time>2026-04-06T08:52:20.993Z</time></trkpt><trkpt lat="44.4984417" lon="10.4875933"><ele>610.0</ele><time>2026-04-06T08:52:21.993Z</time></trkpt><trkpt lat="44.49854" lon="10.4875"><ele>612.5</ele><time>2026-04-06T08:52:22.993Z</time></trkpt><trkpt lat="44.498655" lon="10.4874767"><ele>615.0</ele><time>2026-04-06T08:52:23.994Z</time></trkpt><trkpt lat="44.49877" lon="10.4874967"><ele>615.0</ele><time>2026-04-06T08:52:24.993Z</time></trkpt><trkpt lat="44.4989" lon="10.48754"><ele>615.0</ele><time>2026-04-06T08:52:25.994Z</time></trkpt><trkpt lat="44.49903" lon="10.4875783"><ele>615.0</ele><time>2026-04-06T08:52:26.994Z</time></trkpt><trkpt lat="44.4991583" lon="10.48761"><ele>615.0</ele><time>2026-04-06T08:52:27.994Z</time></trkpt><trkpt lat="44.4992717" lon="10.4876417"><ele>615.0</ele><time>2026-04-06T08:52:28.993Z</time></trkpt><trkpt lat="44.4993683" lon="10.4876683"><ele>615.0</ele><time>2026-04-06T08:52:29.993Z</time></trkpt><trkpt lat="44.4994533" lon="10.4876817"><ele>615.0</ele><time>2026-04-06T08:52:30.993Z</time></trkpt><trkpt lat="44.4995183" lon="10.48768"><ele>615.0</ele><time>2026-04-06T08:52:31.993Z</time></trkpt><trkpt lat="44.499595" lon="10.487635"><ele>615.0</ele><time>2026-04-06T08:52:33.993Z</time></trkpt><trkpt lat="44.4996217" lon="10.4875517"><ele>615.0</ele><time>2026-04-06T08:52:36.993Z</time></trkpt><trkpt lat="44.4996" lon="10.487395"><ele>615.0</ele><time>2026-04-06T08:52:38.993Z</time></trkpt><trkpt lat="44.4995483" lon="10.4873"><ele>615.0</ele><time>2026-04-06T08:52:39.994Z</time></trkpt><trkpt lat="44.499475" lon="10.4872033"><ele>615.0</ele><time>2026-04-06T08:52:40.993Z</time></trkpt><trkpt lat="44.4993867" lon="10.487105"><ele>615.0</ele><time>2026-04-06T08:52:41.993Z</time></trkpt><trkpt lat="44.4992833" lon="10.487015"><ele>615.0</ele><time>2026-04-06T08:52:42.993Z</time></trkpt><trkpt lat="44.499175" lon="10.48693"><ele>618.25</ele><time>2026-04-06T08:52:43.994Z</time></trkpt><trkpt lat="44.499055" lon="10.4868367"><ele>621.5</ele><time>2026-04-06T08:52:44.994Z</time></trkpt><trkpt lat="44.498925" lon="10.48675"><ele>624.75</ele><time>2026-04-06T08:52:45.993Z</time></trkpt><trkpt lat="44.4988" lon="10.4866683"><ele>628.0</ele><time>2026-04-06T08:52:46.993Z</time></trkpt><trkpt lat="44.4986933" lon="10.4865767"><ele>629.0</ele><time>2026-04-06T08:52:47.993Z</time></trkpt><trkpt lat="44.4986017" lon="10.4864717"><ele>630.0</ele><time>2026-04-06T08:52:48.993Z</time></trkpt><trkpt lat="44.4985417" lon="10.4863283"><ele>631.0</ele><time>2026-04-06T08:52:49.993Z</time></trkpt><trkpt lat="44.4985117" lon="10.4861683"><ele>632.0</ele><time>2026-04-06T08:52:50.993Z</time></trkpt><trkpt lat="44.4985183" lon="10.4860117"><ele>634.25</ele><time>2026-04-06T08:52:51.993Z</time></trkpt><trkpt lat="44.4985433" lon="10.485855"><ele>636.5</ele><time>2026-04-06T08:52:52.993Z</time></trkpt><trkpt lat="44.4985667" lon="10.4857017"><ele>638.75</ele><time>2026-04-06T08:52:53.993Z</time></trkpt><trkpt lat="44.498585" lon="10.4855317"><ele>641.0</ele><time>2026-04-06T08:52:54.994Z</time></trkpt><trkpt lat="44.4986017" lon="10.485315"><ele>641.25</ele><time>2026-04-06T08:52:55.994Z</time></trkpt><trkpt lat="44.4986083" lon="10.4851117"><ele>641.5</ele><time>2026-04-06T08:52:56.993Z</time></trkpt><trkpt lat="44.4986283" lon="10.48493"><ele>641.75</ele><time>2026-04-06T08:52:57.993Z</time></trkpt><trkpt lat="44.4986517" lon="10.4847483"><ele>642.0</ele><time>2026-04-06T08:52:58.993Z</time></trkpt><trkpt lat="44.4986683" lon="10.4845567"><ele>640.5</ele><time>2026-04-06T08:52:59.993Z</time></trkpt><trkpt lat="44.4986883" lon="10.48437"><ele>639.0</ele><time>2026-04-06T08:53:00.993Z</time></trkpt><trkpt lat="44.498675" lon="10.4842217"><ele>637.5</ele><time>2026-04-06T08:53:01.993Z</time></trkpt><trkpt lat="44.4986233" lon="10.4840883"><ele>636.0</ele><time>2026-04-06T08:53:02.993Z</time></trkpt><trkpt lat="44.4985433" lon="10.4839867"><ele>636.0</ele><time>2026-04-06T08:53:03.993Z</time></trkpt><trkpt lat="44.498445" lon="10.483905"><ele>636.0</ele><time>2026-04-06T08:53:04.993Z</time></trkpt><trkpt lat="44.4983317" lon="10.4838367"><ele>636.0</ele><time>2026-04-06T08:53:05.993Z</time></trkpt><trkpt lat="44.4982183" lon="10.4837483"><ele>636.0</ele><time>2026-04-06T08:53:06.993Z</time></trkpt><trkpt lat="44.4981133" lon="10.4836567"><ele>634.5</ele><time>2026-04-06T08:53:07.994Z</time></trkpt><trkpt lat="44.4980167" lon="10.4835283"><ele>633.0</ele><time>2026-04-06T08:53:08.993Z</time></trkpt><trkpt lat="44.4979433" lon="10.4833883"><ele>631.5</ele><time>2026-04-06T08:53:09.994Z</time></trkpt><trkpt lat="44.4978967" lon="10.483235"><ele>630.0</ele><time>2026-04-06T08:53:10.993Z</time></trkpt><trkpt lat="44.4978467" lon="10.4831083"><ele>633.5</ele><time>2026-04-06T08:53:11.993Z</time></trkpt><trkpt lat="44.4977717" lon="10.4830017"><ele>637.0</ele><time>2026-04-06T08:53:12.994Z</time></trkpt><trkpt lat="44.4976767" lon="10.482915"><ele>640.5</ele><time>2026-04-06T08:53:13.993Z</time></trkpt><trkpt lat="44.4975633" lon="10.48284"><ele>644.0</ele><time>2026-04-06T08:53:14.994Z</time></trkpt><trkpt lat="44.497455" lon="10.4827233"><ele>644.0</ele><time>2026-04-06T08:53:15.994Z</time></trkpt><trkpt lat="44.4973583" lon="10.4825883"><ele>644.0</ele><time>2026-04-06T08:53:16.993Z</time></trkpt><trkpt lat="44.4972833" lon="10.4824367"><ele>644.0</ele><time>2026-04-06T08:53:17.993Z</time></trkpt><trkpt lat="44.4972283" lon="10.4822617"><ele>644.0</ele><time>2026-04-06T08:53:18.993Z</time></trkpt><trkpt lat="44.4971867" lon="10.4820633"><ele>643.0</ele><time>2026-04-06T08:53:19.993Z</time></trkpt><trkpt lat="44.4971417" lon="10.48186"><ele>642.0</ele><time>2026-04-06T08:53:20.994Z</time></trkpt><trkpt lat="44.4970833" lon="10.48166"><ele>641.0</ele><time>2026-04-06T08:53:21.994Z</time></trkpt><trkpt lat="44.4970317" lon="10.4814567"><ele>648.6666666666666</ele><time>2026-04-06T08:53:22.993Z</time></trkpt><trkpt lat="44.4969817" lon="10.481235"><ele>656.3333333333334</ele><time>2026-04-06T08:53:23.994Z</time></trkpt><trkpt lat="44.4969233" lon="10.4810217"><ele>664.0</ele><time>2026-04-06T08:53:24.994Z</time></trkpt><trkpt lat="44.4968467" lon="10.4808283"><ele>664.0</ele><time>2026-04-06T08:53:25.994Z</time></trkpt><trkpt lat="44.4967517" lon="10.4806383"><ele>664.0</ele><time>2026-04-06T08:53:26.994Z</time></trkpt><trkpt lat="44.4966683" lon="10.4804617"><ele>664.0</ele><time>2026-04-06T08:53:27.993Z</time></trkpt><trkpt lat="44.496595" lon="10.4803017"><ele>662.0</ele><time>2026-04-06T08:53:28.993Z</time></trkpt><trkpt lat="44.4965233" lon="10.4801533"><ele>660.0</ele><time>2026-04-06T08:53:29.993Z</time></trkpt><trkpt lat="44.49646" lon="10.480035"><ele>658.0</ele><time>2026-04-06T08:53:30.993Z</time></trkpt><trkpt lat="44.4963917" lon="10.4799383"><ele>656.0</ele><time>2026-04-06T08:53:31.993Z</time></trkpt><trkpt lat="44.496325" lon="10.4798683"><ele>654.0</ele><time>2026-04-06T08:53:32.993Z</time></trkpt><trkpt lat="44.49626" lon="10.4798183"><ele>654.0</ele><time>2026-04-06T08:53:33.993Z</time></trkpt><trkpt lat="44.4961483" lon="10.47982"><ele>654.0</ele><time>2026-04-06T08:53:35.993Z</time></trkpt><trkpt lat="44.496105" lon="10.4799333"><ele>654.0</ele><time>2026-04-06T08:53:37.993Z</time></trkpt><trkpt lat="44.49614" lon="10.4800083"><ele>654.0</ele><time>2026-04-06T08:53:38.994Z</time></trkpt><trkpt lat="44.496205" lon="10.48012"><ele>654.0</ele><time>2026-04-06T08:53:39.993Z</time></trkpt><trkpt lat="44.4962883" lon="10.4802783"><ele>656.5</ele><time>2026-04-06T08:53:40.994Z</time></trkpt><trkpt lat="44.4963583" lon="10.48046"><ele>659.0</ele><time>2026-04-06T08:53:41.993Z</time></trkpt><trkpt lat="44.49642" lon="10.4806417"><ele>661.5</ele><time>2026-04-06T08:53:42.993Z</time></trkpt><trkpt lat="44.4964717" lon="10.4808183"><ele>664.0</ele><time>2026-04-06T08:53:43.993Z</time></trkpt><trkpt lat="44.4965083" lon="10.4809983"><ele>664.0</ele><time>2026-04-06T08:53:44.994Z</time></trkpt><trkpt lat="44.4965283" lon="10.4811783"><ele>664.0</ele><time>2026-04-06T08:53:45.994Z</time></trkpt><trkpt lat="44.49653" lon="10.481335"><ele>664.0</ele><time>2026-04-06T08:53:46.994Z</time></trkpt><trkpt lat="44.4965283" lon="10.4814633"><ele>664.0</ele><time>2026-04-06T08:53:47.993Z</time></trkpt><trkpt lat="44.49651" lon="10.4815583"><ele>664.0</ele><time>2026-04-06T08:53:48.994Z</time></trkpt><trkpt lat="44.496415" lon="10.4816183"><ele>664.4000000000001</ele><time>2026-04-06T08:53:50.993Z</time></trkpt><trkpt lat="44.4963633" lon="10.481565"><ele>664.8</ele><time>2026-04-06T08:53:51.993Z</time></trkpt><trkpt lat="44.49632" lon="10.48145"><ele>665.2</ele><time>2026-04-06T08:53:52.993Z</time></trkpt><trkpt lat="44.4962783" lon="10.4812933"><ele>665.5999999999999</ele><time>2026-04-06T08:53:53.994Z</time></trkpt><trkpt lat="44.4962167" lon="10.481145"><ele>666.0</ele><time>2026-04-06T08:53:54.994Z</time></trkpt><trkpt lat="44.4961267" lon="10.4810317"><ele>670.25</ele><time>2026-04-06T08:53:55.993Z</time></trkpt><trkpt lat="44.4960183" lon="10.4809617"><ele>674.5</ele><time>2026-04-06T08:53:56.993Z</time></trkpt><trkpt lat="44.49589" lon="10.4809233"><ele>678.75</ele><time>2026-04-06T08:53:57.994Z</time></trkpt><trkpt lat="44.495755" lon="10.48089"><ele>683.0</ele><time>2026-04-06T08:53:58.993Z</time></trkpt><trkpt lat="44.49562" lon="10.4808567"><ele>683.0</ele><time>2026-04-06T08:53:59.994Z</time></trkpt><trkpt lat="44.4954767" lon="10.4808233"><ele>683.0</ele><time>2026-04-06T08:54:00.993Z</time></trkpt><trkpt lat="44.4953333" lon="10.48079"><ele>683.0</ele><time>2026-04-06T08:54:01.993Z</time></trkpt><trkpt lat="44.4951867" lon="10.4807667"><ele>683.0</ele><time>2026-04-06T08:54:02.993Z</time></trkpt><trkpt lat="44.4950517" lon="10.48075"><ele>684.75</ele><time>2026-04-06T08:54:03.993Z</time></trkpt><trkpt lat="44.49493" lon="10.480755"><ele>686.5</ele><time>2026-04-06T08:54:04.993Z</time></trkpt><trkpt lat="44.4948117" lon="10.480795"><ele>688.25</ele><time>2026-04-06T08:54:05.994Z</time></trkpt><trkpt lat="44.4946967" lon="10.48088"><ele>690.0</ele><time>2026-04-06T08:54:06.993Z</time></trkpt><trkpt lat="44.4945883" lon="10.4810033"><ele>688.6666666666666</ele><time>2026-04-06T08:54:07.993Z</time></trkpt><trkpt lat="44.49447" lon="10.48114"><ele>687.3333333333333</ele><time>2026-04-06T08:54:08.993Z</time></trkpt><trkpt lat="44.4943517" lon="10.4812733"><ele>686.0</ele><time>2026-04-06T08:54:09.993Z</time></trkpt><trkpt lat="44.4942217" lon="10.4814067"><ele>686.0</ele><time>2026-04-06T08:54:10.994Z</time></trkpt><trkpt lat="44.4940733" lon="10.4815167"><ele>686.0</ele><time>2026-04-06T08:54:11.993Z</time></trkpt><trkpt lat="44.493915" lon="10.4815983"><ele>686.0</ele><time>2026-04-06T08:54:12.993Z</time></trkpt><trkpt lat="44.4937483" lon="10.481665"><ele>690.0</ele><time>2026-04-06T08:54:13.993Z</time></trkpt><trkpt lat="44.4935867" lon="10.4817233"><ele>694.0</ele><time>2026-04-06T08:54:14.993Z</time></trkpt><trkpt lat="44.493425" lon="10.4817583"><ele>698.0</ele><time>2026-04-06T08:54:15.993Z</time></trkpt><trkpt lat="44.49327" lon="10.4817667"><ele>698.0</ele><time>2026-04-06T08:54:16.993Z</time></trkpt><trkpt lat="44.4931167" lon="10.4817433"><ele>698.0</ele><time>2026-04-06T08:54:17.993Z</time></trkpt><trkpt lat="44.4929683" lon="10.48171"><ele>698.0</ele><time>2026-04-06T08:54:18.993Z</time></trkpt><trkpt lat="44.492835" lon="10.4816883"><ele>698.0</ele><time>2026-04-06T08:54:19.993Z</time></trkpt><trkpt lat="44.49271" lon="10.48173"><ele>698.0</ele><time>2026-04-06T08:54:20.993Z</time></trkpt><trkpt lat="44.4926117" lon="10.4818217"><ele>698.0</ele><time>2026-04-06T08:54:21.993Z</time></trkpt><trkpt lat="44.4925267" lon="10.4819583"><ele>698.0</ele><time>2026-04-06T08:54:22.993Z</time></trkpt><trkpt lat="44.4924567" lon="10.4821367"><ele>698.0</ele><time>2026-04-06T08:54:23.993Z</time></trkpt><trkpt lat="44.49239" lon="10.4823167"><ele>698.0</ele><time>2026-04-06T08:54:24.993Z</time></trkpt><trkpt lat="44.4923183" lon="10.482495"><ele>698.0</ele><time>2026-04-06T08:54:25.994Z</time></trkpt><trkpt lat="44.49223" lon="10.4826567"><ele>698.0</ele><time>2026-04-06T08:54:26.993Z</time></trkpt><trkpt lat="44.4921317" lon="10.4827867"><ele>698.0</ele><time>2026-04-06T08:54:27.993Z</time></trkpt><trkpt lat="44.4920433" lon="10.4829017"><ele>703.0</ele><time>2026-04-06T08:54:28.993Z</time></trkpt><trkpt lat="44.4919817" lon="10.4830567"><ele>708.0</ele><time>2026-04-06T08:54:29.994Z</time></trkpt><trkpt lat="44.4919217" lon="10.48323"><ele>713.0</ele><time>2026-04-06T08:54:30.994Z</time></trkpt><trkpt lat="44.4918417" lon="10.4833917"><ele>718.0</ele><time>2026-04-06T08:54:31.993Z</time></trkpt><trkpt lat="44.491735" lon="10.4835183"><ele>718.0</ele><time>2026-04-06T08:54:32.993Z</time></trkpt><trkpt lat="44.4916" lon="10.4836033"><ele>718.0</ele><time>2026-04-06T08:54:33.993Z</time></trkpt><trkpt lat="44.4914583" lon="10.4836417"><ele>718.0</ele><time>2026-04-06T08:54:34.993Z</time></trkpt><trkpt lat="44.49131" lon="10.4836417"><ele>718.0</ele><time>2026-04-06T08:54:35.993Z</time></trkpt><trkpt lat="44.49116" lon="10.4836183"><ele>718.5</ele><time>2026-04-06T08:54:36.993Z</time></trkpt><trkpt lat="44.4910183" lon="10.4835933"><ele>719.0</ele><time>2026-04-06T08:54:37.993Z</time></trkpt><trkpt lat="44.4908767" lon="10.4835917"><ele>719.5</ele><time>2026-04-06T08:54:38.993Z</time></trkpt><trkpt lat="44.4907483" lon="10.483625"><ele>720.0</ele><time>2026-04-06T08:54:39.993Z</time></trkpt><trkpt lat="44.4906333" lon="10.48365"><ele>720.0</ele><time>2026-04-06T08:54:40.993Z</time></trkpt><trkpt lat="44.49053" lon="10.4836617"><ele>720.0</ele><time>2026-04-06T08:54:41.994Z</time></trkpt><trkpt lat="44.49044" lon="10.4836633"><ele>720.0</ele><time>2026-04-06T08:54:42.993Z</time></trkpt><trkpt lat="44.4903717" lon="10.48366"><ele>720.0</ele><time>2026-04-06T08:54:43.993Z</time></trkpt><trkpt lat="44.4903017" lon="10.4837433"><ele>720.0</ele><time>2026-04-06T08:54:45.993Z</time></trkpt><trkpt lat="44.4904" lon="10.4838667"><ele>725.5</ele><time>2026-04-06T08:54:47.994Z</time></trkpt><trkpt lat="44.4905133" lon="10.4839083"><ele>731.0</ele><time>2026-04-06T08:54:48.993Z</time></trkpt><trkpt lat="44.4906617" lon="10.4839417"><ele>736.5</ele><time>2026-04-06T08:54:49.994Z</time></trkpt><trkpt lat="44.49081" lon="10.4839617"><ele>742.0</ele><time>2026-04-06T08:54:50.993Z</time></trkpt><trkpt lat="44.4909433" lon="10.4839817"><ele>742.0</ele><time>2026-04-06T08:54:51.994Z</time></trkpt><trkpt lat="44.4910717" lon="10.484005"><ele>742.0</ele><time>2026-04-06T08:54:52.993Z</time></trkpt><trkpt lat="44.4911767" lon="10.48404"><ele>742.0</ele><time>2026-04-06T08:54:53.993Z</time></trkpt><trkpt lat="44.4912683" lon="10.4840883"><ele>742.0</ele><time>2026-04-06T08:54:54.993Z</time></trkpt><trkpt lat="44.4913467" lon="10.4841333"><ele>742.0</ele><time>2026-04-06T08:54:55.993Z</time></trkpt><trkpt lat="44.4914033" lon="10.4841783"><ele>742.0</ele><time>2026-04-06T08:54:56.993Z</time></trkpt><trkpt lat="44.4914233" lon="10.48429"><ele>742.0</ele><time>2026-04-06T08:54:58.994Z</time></trkpt><trkpt lat="44.4913283" lon="10.4843483"><ele>742.0</ele><time>2026-04-06T08:55:00.994Z</time></trkpt><trkpt lat="44.491235" lon="10.484335"><ele>742.0</ele><time>2026-04-06T08:55:01.993Z</time></trkpt><trkpt lat="44.4911267" lon="10.4843317"><ele>742.0</ele><time>2026-04-06T08:55:02.993Z</time></trkpt><trkpt lat="44.49101" lon="10.48437"><ele>742.0</ele><time>2026-04-06T08:55:03.994Z</time></trkpt><trkpt lat="44.4908883" lon="10.4844383"><ele>742.0</ele><time>2026-04-06T08:55:04.993Z</time></trkpt><trkpt lat="44.49077" lon="10.48452"><ele>742.0</ele><time>2026-04-06T08:55:05.993Z</time></trkpt><trkpt lat="44.4906533" lon="10.4846083"><ele>742.0</ele><time>2026-04-06T08:55:06.993Z</time></trkpt><trkpt lat="44.490525" lon="10.4846833"><ele>746.25</ele><time>2026-04-06T08:55:07.994Z</time></trkpt><trkpt lat="44.4904" lon="10.4847667"><ele>750.5</ele><time>2026-04-06T08:55:08.993Z</time></trkpt><trkpt lat="44.490295" lon="10.484875"><ele>754.75</ele><time>2026-04-06T08:55:09.993Z</time></trkpt><trkpt lat="44.4902067" lon="10.4850133"><ele>759.0</ele><time>2026-04-06T08:55:10.994Z</time></trkpt><trkpt lat="44.490135" lon="10.4851433"><ele>759.0</ele><time>2026-04-06T08:55:11.994Z</time></trkpt><trkpt lat="44.4900583" lon="10.4852683"><ele>759.0</ele><time>2026-04-06T08:55:12.994Z</time></trkpt><trkpt lat="44.4899717" lon="10.4853783"><ele>759.0</ele><time>2026-04-06T08:55:13.993Z</time></trkpt><trkpt lat="44.4898783" lon="10.485425"><ele>759.0</ele><time>2026-04-06T08:55:14.993Z</time></trkpt><trkpt lat="44.48979" lon="10.4853883"><ele>759.0</ele><time>2026-04-06T08:55:15.993Z</time></trkpt><trkpt lat="44.48972" lon="10.4853017"><ele>759.0</ele><time>2026-04-06T08:55:16.993Z</time></trkpt><trkpt lat="44.48967" lon="10.4851717"><ele>759.0</ele><time>2026-04-06T08:55:17.994Z</time></trkpt><trkpt lat="44.489625" lon="10.485005"><ele>759.0</ele><time>2026-04-06T08:55:18.994Z</time></trkpt><trkpt lat="44.489575" lon="10.4848483"><ele>759.0</ele><time>2026-04-06T08:55:19.993Z</time></trkpt><trkpt lat="44.4895117" lon="10.4847033"><ele>759.0</ele><time>2026-04-06T08:55:20.993Z</time></trkpt><trkpt lat="44.48942" lon="10.4845983"><ele>759.0</ele><time>2026-04-06T08:55:21.993Z</time></trkpt><trkpt lat="44.4893033" lon="10.48453"><ele>759.0</ele><time>2026-04-06T08:55:22.994Z</time></trkpt><trkpt lat="44.48917" lon="10.4845017"><ele>759.0</ele><time>2026-04-06T08:55:23.993Z</time></trkpt><trkpt lat="44.4890183" lon="10.4844867"><ele>762.6666666666667</ele><time>2026-04-06T08:55:24.994Z</time></trkpt><trkpt lat="44.48886" lon="10.4844617"><ele>766.3333333333334</ele><time>2026-04-06T08:55:25.993Z</time></trkpt><trkpt lat="44.4887" lon="10.4844383"><ele>770.0</ele><time>2026-04-06T08:55:26.994Z</time></trkpt><trkpt lat="44.4885467" lon="10.4844067"><ele>773.3333333333334</ele><time>2026-04-06T08:55:27.993Z</time></trkpt><trkpt lat="44.488395" lon="10.4843933"><ele>776.6666666666667</ele><time>2026-04-06T08:55:28.993Z</time></trkpt><trkpt lat="44.488245" lon="10.4843983"><ele>780.0</ele><time>2026-04-06T08:55:29.993Z</time></trkpt><trkpt lat="44.4880933" lon="10.48444"><ele>780.0</ele><time>2026-04-06T08:55:30.994Z</time></trkpt><trkpt lat="44.4879567" lon="10.4844933"><ele>780.0</ele><time>2026-04-06T08:55:31.994Z</time></trkpt><trkpt lat="44.487815" lon="10.4845667"><ele>780.0</ele><time>2026-04-06T08:55:32.994Z</time></trkpt><trkpt lat="44.4876817" lon="10.4846467"><ele>780.0</ele><time>2026-04-06T08:55:33.994Z</time></trkpt><trkpt lat="44.4875533" lon="10.4847267"><ele>779.5</ele><time>2026-04-06T08:55:34.994Z</time></trkpt><trkpt lat="44.487435" lon="10.4848083"><ele>779.0</ele><time>2026-04-06T08:55:35.993Z</time></trkpt><trkpt lat="44.4873183" lon="10.48488"><ele>778.5</ele><time>2026-04-06T08:55:36.993Z</time></trkpt><trkpt lat="44.4872017" lon="10.48493"><ele>778.0</ele><time>2026-04-06T08:55:37.993Z</time></trkpt><trkpt lat="44.4870867" lon="10.4849617"><ele>778.0</ele><time>2026-04-06T08:55:38.993Z</time></trkpt><trkpt lat="44.486955" lon="10.484985"><ele>778.0</ele><time>2026-04-06T08:55:39.994Z</time></trkpt><trkpt lat="44.4868233" lon="10.4849883"><ele>778.0</ele><time>2026-04-06T08:55:40.994Z</time></trkpt><trkpt lat="44.4866883" lon="10.4849933"><ele>778.0</ele><time>2026-04-06T08:55:41.993Z</time></trkpt><trkpt lat="44.48655" lon="10.485"><ele>778.0</ele><time>2026-04-06T08:55:42.993Z</time></trkpt><trkpt lat="44.4864133" lon="10.4850117"><ele>778.0</ele><time>2026-04-06T08:55:43.993Z</time></trkpt><trkpt lat="44.486285" lon="10.485025"><ele>778.0</ele><time>2026-04-06T08:55:44.993Z</time></trkpt><trkpt lat="44.4861533" lon="10.4850317"><ele>778.0</ele><time>2026-04-06T08:55:45.993Z</time></trkpt><trkpt lat="44.48602" lon="10.4850417"><ele>777.25</ele><time>2026-04-06T08:55:46.994Z</time></trkpt><trkpt lat="44.4858967" lon="10.4850733"><ele>776.5</ele><time>2026-04-06T08:55:47.993Z</time></trkpt><trkpt lat="44.4857617" lon="10.4850867"><ele>775.75</ele><time>2026-04-06T08:55:48.994Z</time></trkpt><trkpt lat="44.4856317" lon="10.4851033"><ele>775.0</ele><time>2026-04-06T08:55:49.993Z</time></trkpt><trkpt lat="44.4854933" lon="10.4851217"><ele>774.5</ele><time>2026-04-06T08:55:50.993Z</time></trkpt><trkpt lat="44.4853583" lon="10.4851367"><ele>774.0</ele><time>2026-04-06T08:55:51.993Z</time></trkpt><trkpt lat="44.4852267" lon="10.48515"><ele>773.5</ele><time>2026-04-06T08:55:52.993Z</time></trkpt><trkpt lat="44.4851" lon="10.485165"><ele>773.0</ele><time>2026-04-06T08:55:53.993Z</time></trkpt><trkpt lat="44.4849683" lon="10.4851883"><ele>773.0</ele><time>2026-04-06T08:55:54.993Z</time></trkpt><trkpt lat="44.4848333" lon="10.4852017"><ele>773.0</ele><time>2026-04-06T08:55:55.993Z</time></trkpt><trkpt lat="44.4847067" lon="10.485215"><ele>773.0</ele><time>2026-04-06T08:55:56.993Z</time></trkpt><trkpt lat="44.484585" lon="10.4852267"><ele>773.0</ele><time>2026-04-06T08:55:57.993Z</time></trkpt><trkpt lat="44.4844633" lon="10.485245"><ele>774.5</ele><time>2026-04-06T08:55:58.993Z</time></trkpt><trkpt lat="44.4843333" lon="10.4852767"><ele>776.0</ele><time>2026-04-06T08:55:59.994Z</time></trkpt><trkpt lat="44.4842" lon="10.48531"><ele>777.5</ele><time>2026-04-06T08:56:00.994Z</time></trkpt><trkpt lat="44.4840717" lon="10.4853367"><ele>779.0</ele><time>2026-04-06T08:56:01.993Z</time></trkpt><trkpt lat="44.4839533" lon="10.4853717"><ele>779.0</ele><time>2026-04-06T08:56:02.993Z</time></trkpt><trkpt lat="44.48383" lon="10.4854083"><ele>779.0</ele><time>2026-04-06T08:56:03.994Z</time></trkpt><trkpt lat="44.4837083" lon="10.4854467"><ele>779.0</ele><time>2026-04-06T08:56:04.993Z</time></trkpt><trkpt lat="44.4835917" lon="10.485485"><ele>779.0</ele><time>2026-04-06T08:56:05.993Z</time></trkpt><trkpt lat="44.48348" lon="10.4855133"><ele>779.0</ele><time>2026-04-06T08:56:06.993Z</time></trkpt><trkpt lat="44.4833833" lon="10.4855533"><ele>779.0</ele><time>2026-04-06T08:56:07.994Z</time></trkpt><trkpt lat="44.48329" lon="10.4856"><ele>779.0</ele><time>2026-04-06T08:56:08.994Z</time></trkpt><trkpt lat="44.4831917" lon="10.4856467"><ele>779.0</ele><time>2026-04-06T08:56:09.994Z</time></trkpt><trkpt lat="44.483095" lon="10.4856933"><ele>779.0</ele><time>2026-04-06T08:56:10.994Z</time></trkpt><trkpt lat="44.4830033" lon="10.485735"><ele>780.0000000000001</ele><time>2026-04-06T08:56:11.994Z</time></trkpt><trkpt lat="44.4829133" lon="10.4857867"><ele>781.0</ele><time>2026-04-06T08:56:12.993Z</time></trkpt><trkpt lat="44.4828183" lon="10.4858467"><ele>782.0</ele><time>2026-04-06T08:56:13.992Z</time></trkpt><trkpt lat="44.482735" lon="10.4858883"><ele>783.0</ele><time>2026-04-06T08:56:14.992Z</time></trkpt><trkpt lat="44.48266" lon="10.485935"><ele>784.0000000000001</ele><time>2026-04-06T08:56:15.992Z</time></trkpt><trkpt lat="44.4825933" lon="10.4859733"><ele>785.0</ele><time>2026-04-06T08:56:16.992Z</time></trkpt><trkpt lat="44.4824817" lon="10.4860367"><ele>785.0</ele><time>2026-04-06T08:56:18.992Z</time></trkpt><trkpt lat="44.4823667" lon="10.4860967"><ele>785.0</ele><time>2026-04-06T08:56:20.992Z</time></trkpt><trkpt lat="44.48226" lon="10.4861617"><ele>785.0</ele><time>2026-04-06T08:56:22.993Z</time></trkpt><trkpt lat="44.4821967" lon="10.4862017"><ele>785.0</ele><time>2026-04-06T08:56:23.992Z</time></trkpt><trkpt lat="44.48212" lon="10.4862417"><ele>785.0</ele><time>2026-04-06T08:56:24.992Z</time></trkpt><trkpt lat="44.482035" lon="10.486295"><ele>783.5</ele><time>2026-04-06T08:56:25.992Z</time></trkpt><trkpt lat="44.4819417" lon="10.4863567"><ele>782.0</ele><time>2026-04-06T08:56:26.992Z</time></trkpt><trkpt lat="44.4818367" lon="10.486445"><ele>780.5</ele><time>2026-04-06T08:56:27.992Z</time></trkpt><trkpt lat="44.48172" lon="10.4865483"><ele>779.0</ele><time>2026-04-06T08:56:28.992Z</time></trkpt><trkpt lat="44.481595" lon="10.4866717"><ele>779.0</ele><time>2026-04-06T08:56:29.993Z</time></trkpt><trkpt lat="44.4814583" lon="10.4867983"><ele>779.0</ele><time>2026-04-06T08:56:30.992Z</time></trkpt><trkpt lat="44.4813283" lon="10.4869267"><ele>779.0</ele><time>2026-04-06T08:56:31.992Z</time></trkpt><trkpt lat="44.481195" lon="10.4870283"><ele>778.5</ele><time>2026-04-06T08:56:32.992Z</time></trkpt><trkpt lat="44.48106" lon="10.4871317"><ele>778.0</ele><time>2026-04-06T08:56:33.992Z</time></trkpt><trkpt lat="44.48094" lon="10.487215"><ele>777.5</ele><time>2026-04-06T08:56:34.992Z</time></trkpt><trkpt lat="44.4808333" lon="10.4872917"><ele>777.0</ele><time>2026-04-06T08:56:35.993Z</time></trkpt><trkpt lat="44.480735" lon="10.48736"><ele>777.0</ele><time>2026-04-06T08:56:36.993Z</time></trkpt><trkpt lat="44.4806417" lon="10.4874283"><ele>777.0</ele><time>2026-04-06T08:56:37.992Z</time></trkpt><trkpt lat="44.4805383" lon="10.4874933"><ele>777.0</ele><time>2026-04-06T08:56:38.992Z</time></trkpt><trkpt lat="44.480425" lon="10.48755"><ele>777.0</ele><time>2026-04-06T08:56:39.992Z</time></trkpt><trkpt lat="44.4803017" lon="10.487605"><ele>778.75</ele><time>2026-04-06T08:56:40.992Z</time></trkpt><trkpt lat="44.480165" lon="10.4876533"><ele>780.5</ele><time>2026-04-06T08:56:41.993Z</time></trkpt><trkpt lat="44.48003" lon="10.4876783"><ele>782.25</ele><time>2026-04-06T08:56:42.992Z</time></trkpt><trkpt lat="44.4798867" lon="10.4876967"><ele>784.0</ele><time>2026-04-06T08:56:43.993Z</time></trkpt><trkpt lat="44.4797533" lon="10.48771"><ele>784.0</ele><time>2026-04-06T08:56:44.992Z</time></trkpt><trkpt lat="44.47962" lon="10.48774"><ele>784.0</ele><time>2026-04-06T08:56:45.992Z</time></trkpt><trkpt lat="44.479485" lon="10.4877967"><ele>784.0</ele><time>2026-04-06T08:56:46.992Z</time></trkpt><trkpt lat="44.479355" lon="10.48789"><ele>784.0</ele><time>2026-04-06T08:56:47.992Z</time></trkpt><trkpt lat="44.47923" lon="10.488015"><ele>783.0</ele><time>2026-04-06T08:56:48.992Z</time></trkpt><trkpt lat="44.4791083" lon="10.4881433"><ele>782.0</ele><time>2026-04-06T08:56:49.993Z</time></trkpt><trkpt lat="44.478985" lon="10.4882583"><ele>781.0</ele><time>2026-04-06T08:56:50.992Z</time></trkpt><trkpt lat="44.47886" lon="10.488345"><ele>780.0</ele><time>2026-04-06T08:56:51.993Z</time></trkpt><trkpt lat="44.4787133" lon="10.488405"><ele>780.0</ele><time>2026-04-06T08:56:52.992Z</time></trkpt><trkpt lat="44.4785683" lon="10.488475"><ele>780.0</ele><time>2026-04-06T08:56:53.992Z</time></trkpt><trkpt lat="44.478435" lon="10.4885383"><ele>780.0</ele><time>2026-04-06T08:56:54.993Z</time></trkpt><trkpt lat="44.4783167" lon="10.48862"><ele>780.0</ele><time>2026-04-06T08:56:55.992Z</time></trkpt><trkpt lat="44.4782067" lon="10.4887183"><ele>778.25</ele><time>2026-04-06T08:56:56.992Z</time></trkpt><trkpt lat="44.4781" lon="10.48882"><ele>776.5</ele><time>2026-04-06T08:56:57.992Z</time></trkpt><trkpt lat="44.4780017" lon="10.4889183"><ele>774.75</ele><time>2026-04-06T08:56:58.993Z</time></trkpt><trkpt lat="44.4779133" lon="10.4890117"><ele>773.0</ele><time>2026-04-06T08:56:59.993Z</time></trkpt><trkpt lat="44.4778267" lon="10.48909"><ele>773.0</ele><time>2026-04-06T08:57:00.992Z</time></trkpt><trkpt lat="44.4777383" lon="10.4891633"><ele>773.0</ele><time>2026-04-06T08:57:01.992Z</time></trkpt><trkpt lat="44.4776583" lon="10.4892367"><ele>773.0</ele><time>2026-04-06T08:57:02.992Z</time></trkpt><trkpt lat="44.4775817" lon="10.4893083"><ele>773.0</ele><time>2026-04-06T08:57:03.993Z</time></trkpt><trkpt lat="44.4775167" lon="10.4893817"><ele>773.0</ele><time>2026-04-06T08:57:04.992Z</time></trkpt><trkpt lat="44.477455" lon="10.4894483"><ele>773.0000000000001</ele><time>2026-04-06T08:57:05.992Z</time></trkpt><trkpt lat="44.4774" lon="10.48951"><ele>773.0</ele><time>2026-04-06T08:57:06.992Z</time></trkpt><trkpt lat="44.4773533" lon="10.4895783"><ele>773.0</ele><time>2026-04-06T08:57:07.992Z</time></trkpt><trkpt lat="44.47727" lon="10.4896883"><ele>773.0</ele><time>2026-04-06T08:57:09.993Z</time></trkpt><trkpt lat="44.4771867" lon="10.489795"><ele>773.0000000000001</ele><time>2026-04-06T08:57:11.993Z</time></trkpt><trkpt lat="44.4771367" lon="10.4898583"><ele>773.0</ele><time>2026-04-06T08:57:12.992Z</time></trkpt><trkpt lat="44.4770783" lon="10.48991"><ele>771.1666666666667</ele><time>2026-04-06T08:57:13.992Z</time></trkpt><trkpt lat="44.4770067" lon="10.4899417"><ele>769.3333333333334</ele><time>2026-04-06T08:57:14.992Z</time></trkpt><trkpt lat="44.4769333" lon="10.4899517"><ele>767.5</ele><time>2026-04-06T08:57:15.992Z</time></trkpt><trkpt lat="44.4768517" lon="10.48994"><ele>765.6666666666667</ele><time>2026-04-06T08:57:16.993Z</time></trkpt><trkpt lat="44.476775" lon="10.4899483"><ele>763.8333333333334</ele><time>2026-04-06T08:57:17.992Z</time></trkpt><trkpt lat="44.4767083" lon="10.4900033"><ele>762.0</ele><time>2026-04-06T08:57:18.993Z</time></trkpt><trkpt lat="44.4766567" lon="10.490085"><ele>762.0</ele><time>2026-04-06T08:57:19.993Z</time></trkpt><trkpt lat="44.476615" lon="10.4901817"><ele>762.0</ele><time>2026-04-06T08:57:20.992Z</time></trkpt><trkpt lat="44.4765783" lon="10.4902817"><ele>762.0</ele><time>2026-04-06T08:57:21.993Z</time></trkpt><trkpt lat="44.4765367" lon="10.49037"><ele>762.0</ele><time>2026-04-06T08:57:22.993Z</time></trkpt><trkpt lat="44.476485" lon="10.4904533"><ele>762.0</ele><time>2026-04-06T08:57:23.993Z</time></trkpt><trkpt lat="44.4764183" lon="10.4905167"><ele>762.0</ele><time>2026-04-06T08:57:24.993Z</time></trkpt><trkpt lat="44.4763383" lon="10.4905417"><ele>759.8</ele><time>2026-04-06T08:57:25.993Z</time></trkpt><trkpt lat="44.47625" lon="10.4905283"><ele>757.6</ele><time>2026-04-06T08:57:26.992Z</time></trkpt><trkpt lat="44.4761617" lon="10.49049"><ele>755.4</ele><time>2026-04-06T08:57:27.992Z</time></trkpt><trkpt lat="44.4760717" lon="10.4904483"><ele>753.1999999999999</ele><time>2026-04-06T08:57:28.992Z</time></trkpt><trkpt lat="44.4759733" lon="10.4904083"><ele>751.0</ele><time>2026-04-06T08:57:29.992Z</time></trkpt><trkpt lat="44.4758717" lon="10.4904"><ele>751.0</ele><time>2026-04-06T08:57:30.992Z</time></trkpt><trkpt lat="44.4757783" lon="10.4904133"><ele>751.0</ele><time>2026-04-06T08:57:31.992Z</time></trkpt><trkpt lat="44.475685" lon="10.4904333"><ele>751.0</ele><time>2026-04-06T08:57:32.992Z</time></trkpt><trkpt lat="44.4755983" lon="10.4904633"><ele>751.0</ele><time>2026-04-06T08:57:33.992Z</time></trkpt><trkpt lat="44.4755033" lon="10.4904967"><ele>751.0</ele><time>2026-04-06T08:57:34.992Z</time></trkpt><trkpt lat="44.47541" lon="10.4905167"><ele>747.5999999999999</ele><time>2026-04-06T08:57:35.992Z</time></trkpt><trkpt lat="44.4753067" lon="10.4905167"><ele>744.2</ele><time>2026-04-06T08:57:36.992Z</time></trkpt><trkpt lat="44.4752117" lon="10.4905133"><ele>740.8</ele><time>2026-04-06T08:57:37.992Z</time></trkpt><trkpt lat="44.475125" lon="10.4905133"><ele>737.4000000000001</ele><time>2026-04-06T08:57:38.992Z</time></trkpt><trkpt lat="44.4750367" lon="10.4905183"><ele>734.0</ele><time>2026-04-06T08:57:39.993Z</time></trkpt><trkpt lat="44.4749467" lon="10.4905033"><ele>734.0</ele><time>2026-04-06T08:57:40.992Z</time></trkpt><trkpt lat="44.47486" lon="10.4904883"><ele>734.0</ele><time>2026-04-06T08:57:41.992Z</time></trkpt><trkpt lat="44.4747667" lon="10.490455"><ele>734.0</ele><time>2026-04-06T08:57:42.993Z</time></trkpt><trkpt lat="44.47468" lon="10.490395"><ele>734.0</ele><time>2026-04-06T08:57:43.992Z</time></trkpt><trkpt lat="44.4745867" lon="10.4903267"><ele>734.0</ele><time>2026-04-06T08:57:44.993Z</time></trkpt><trkpt lat="44.4744833" lon="10.4902517"><ele>734.5</ele><time>2026-04-06T08:57:45.992Z</time></trkpt><trkpt lat="44.4743783" lon="10.4901833"><ele>735.0</ele><time>2026-04-06T08:57:46.993Z</time></trkpt><trkpt lat="44.4742717" lon="10.4901267"><ele>735.5</ele><time>2026-04-06T08:57:47.993Z</time></trkpt><trkpt lat="44.4741633" lon="10.490075"><ele>736.0</ele><time>2026-04-06T08:57:48.993Z</time></trkpt><trkpt lat="44.4740617" lon="10.4900317"><ele>736.0</ele><time>2026-04-06T08:57:49.992Z</time></trkpt><trkpt lat="44.47396" lon="10.4900083"><ele>736.0</ele><time>2026-04-06T08:57:50.992Z</time></trkpt><trkpt lat="44.473865" lon="10.4899817"><ele>736.0</ele><time>2026-04-06T08:57:51.993Z</time></trkpt><trkpt lat="44.4737717" lon="10.4899817"><ele>736.0</ele><time>2026-04-06T08:57:52.992Z</time></trkpt><trkpt lat="44.4736817" lon="10.489965"><ele>736.0</ele><time>2026-04-06T08:57:53.992Z</time></trkpt><trkpt lat="44.4735883" lon="10.4899283"><ele>734.0</ele><time>2026-04-06T08:57:54.992Z</time></trkpt><trkpt lat="44.4734983" lon="10.4898717"><ele>732.0</ele><time>2026-04-06T08:57:55.992Z</time></trkpt><trkpt lat="44.4734033" lon="10.48982"><ele>730.0</ele><time>2026-04-06T08:57:56.992Z</time></trkpt><trkpt lat="44.4733083" lon="10.48975"><ele>728.0</ele><time>2026-04-06T08:57:57.992Z</time></trkpt><trkpt lat="44.473225" lon="10.4896933"><ele>726.0</ele><time>2026-04-06T08:57:58.993Z</time></trkpt><trkpt lat="44.4731567" lon="10.489645"><ele>727.5</ele><time>2026-04-06T08:57:59.992Z</time></trkpt><trkpt lat="44.4730783" lon="10.4895383"><ele>729.0</ele><time>2026-04-06T08:58:01.992Z</time></trkpt><trkpt lat="44.473035" lon="10.4893633"><ele>730.5</ele><time>2026-04-06T08:58:03.992Z</time></trkpt><trkpt lat="44.4730267" lon="10.4892267"><ele>732.0</ele><time>2026-04-06T08:58:04.992Z</time></trkpt><trkpt lat="44.4730417" lon="10.4890417"><ele>732.0</ele><time>2026-04-06T08:58:05.992Z</time></trkpt><trkpt lat="44.4730667" lon="10.48884"><ele>732.0</ele><time>2026-04-06T08:58:06.992Z</time></trkpt><trkpt lat="44.473085" lon="10.4886267"><ele>732.0</ele><time>2026-04-06T08:58:07.992Z</time></trkpt><trkpt lat="44.4730833" lon="10.4884167"><ele>732.0</ele><time>2026-04-06T08:58:08.992Z</time></trkpt><trkpt lat="44.4730733" lon="10.4882183"><ele>732.25</ele><time>2026-04-06T08:58:09.992Z</time></trkpt><trkpt lat="44.4730433" lon="10.4880233"><ele>732.5</ele><time>2026-04-06T08:58:10.992Z</time></trkpt><trkpt lat="44.4730033" lon="10.48784"><ele>732.75</ele><time>2026-04-06T08:58:11.992Z</time></trkpt><trkpt lat="44.47297" lon="10.4876967"><ele>733.0</ele><time>2026-04-06T08:58:12.992Z</time></trkpt><trkpt lat="44.47293" lon="10.4875883"><ele>730.8</ele><time>2026-04-06T08:58:13.993Z</time></trkpt><trkpt lat="44.472875" lon="10.4875317"><ele>728.5999999999999</ele><time>2026-04-06T08:58:14.992Z</time></trkpt><trkpt lat="44.47276" lon="10.4875567"><ele>726.4000000000001</ele><time>2026-04-06T08:58:16.992Z</time></trkpt><trkpt lat="44.4726933" lon="10.48764"><ele>724.2</ele><time>2026-04-06T08:58:17.993Z</time></trkpt><trkpt lat="44.4726067" lon="10.4877617"><ele>722.0</ele><time>2026-04-06T08:58:18.993Z</time></trkpt><trkpt lat="44.472505" lon="10.487915"><ele>719.6666666666666</ele><time>2026-04-06T08:58:19.992Z</time></trkpt><trkpt lat="44.4723883" lon="10.4880817"><ele>717.3333333333334</ele><time>2026-04-06T08:58:20.992Z</time></trkpt><trkpt lat="44.4722717" lon="10.4882417"><ele>715.0</ele><time>2026-04-06T08:58:21.992Z</time></trkpt><trkpt lat="44.47217" lon="10.48838"><ele>716.0</ele><time>2026-04-06T08:58:22.992Z</time></trkpt><trkpt lat="44.4720833" lon="10.4884933"><ele>717.0</ele><time>2026-04-06T08:58:23.992Z</time></trkpt><trkpt lat="44.472" lon="10.4886117"><ele>718.0</ele><time>2026-04-06T08:58:24.992Z</time></trkpt><trkpt lat="44.471925" lon="10.4887183"><ele>719.0</ele><time>2026-04-06T08:58:25.992Z</time></trkpt><trkpt lat="44.4718583" lon="10.488805"><ele>720.0</ele><time>2026-04-06T08:58:26.992Z</time></trkpt><trkpt lat="44.4718067" lon="10.4888767"><ele>720.0</ele><time>2026-04-06T08:58:27.993Z</time></trkpt><trkpt lat="44.4717383" lon="10.488965"><ele>720.0</ele><time>2026-04-06T08:58:29.992Z</time></trkpt><trkpt lat="44.4718167" lon="10.488965"><ele>720.0</ele><time>2026-04-06T08:58:43.992Z</time></trkpt><trkpt lat="44.4718633" lon="10.4888767"><ele>720.0</ele><time>2026-04-06T08:58:44.993Z</time></trkpt><trkpt lat="44.4719183" lon="10.4887783"><ele>720.0</ele><time>2026-04-06T08:58:45.992Z</time></trkpt><trkpt lat="44.4719867" lon="10.4886683"><ele>720.0</ele><time>2026-04-06T08:58:46.992Z</time></trkpt><trkpt lat="44.4720717" lon="10.4885533"><ele>718.75</ele><time>2026-04-06T08:58:47.992Z</time></trkpt><trkpt lat="44.472155" lon="10.488435"><ele>717.5</ele><time>2026-04-06T08:58:48.992Z</time></trkpt><trkpt lat="44.4722433" lon="10.48831"><ele>716.25</ele><time>2026-04-06T08:58:49.992Z</time></trkpt><trkpt lat="44.4723367" lon="10.4881783"><ele>715.0</ele><time>2026-04-06T08:58:50.992Z</time></trkpt><trkpt lat="44.4724283" lon="10.48805"><ele>715.0</ele><time>2026-04-06T08:58:51.992Z</time></trkpt><trkpt lat="44.4725117" lon="10.4879333"><ele>715.0</ele><time>2026-04-06T08:58:52.992Z</time></trkpt><trkpt lat="44.472595" lon="10.4878283"><ele>715.0</ele><time>2026-04-06T08:58:53.992Z</time></trkpt><trkpt lat="44.47267" lon="10.4877433"><ele>715.0</ele><time>2026-04-06T08:58:54.992Z</time></trkpt><trkpt lat="44.472735" lon="10.4876633"><ele>715.0</ele><time>2026-04-06T08:58:55.992Z</time></trkpt><trkpt lat="44.4727967" lon="10.4875933"><ele>716.4</ele><time>2026-04-06T08:58:56.992Z</time></trkpt><trkpt lat="44.4728483" lon="10.4875283"><ele>717.8</ele><time>2026-04-06T08:58:57.993Z</time></trkpt><trkpt lat="44.47288" lon="10.4874483"><ele>719.2</ele><time>2026-04-06T08:58:58.992Z</time></trkpt><trkpt lat="44.472825" lon="10.4872783"><ele>720.6</ele><time>2026-04-06T08:59:00.992Z</time></trkpt><trkpt lat="44.4727533" lon="10.487205"><ele>722.0</ele><time>2026-04-06T08:59:01.993Z</time></trkpt><trkpt lat="44.4726583" lon="10.48717"><ele>722.0</ele><time>2026-04-06T08:59:02.993Z</time></trkpt><trkpt lat="44.472555" lon="10.4871767"><ele>722.0</ele><time>2026-04-06T08:59:03.993Z</time></trkpt><trkpt lat="44.47245" lon="10.4872283"><ele>722.0</ele><time>2026-04-06T08:59:04.992Z</time></trkpt><trkpt lat="44.4723467" lon="10.4873117"><ele>722.0</ele><time>2026-04-06T08:59:05.992Z</time></trkpt><trkpt lat="44.4722567" lon="10.4874033"><ele>722.0</ele><time>2026-04-06T08:59:06.993Z</time></trkpt><trkpt lat="44.4721767" lon="10.4874833"><ele>723.6</ele><time>2026-04-06T08:59:07.992Z</time></trkpt><trkpt lat="44.47208" lon="10.48756"><ele>725.2</ele><time>2026-04-06T08:59:08.992Z</time></trkpt><trkpt lat="44.47198" lon="10.4876133"><ele>726.8</ele><time>2026-04-06T08:59:09.992Z</time></trkpt><trkpt lat="44.47188" lon="10.487645"><ele>728.4</ele><time>2026-04-06T08:59:10.993Z</time></trkpt><trkpt lat="44.4717717" lon="10.4876683"><ele>730.0</ele><time>2026-04-06T08:59:11.992Z</time></trkpt><trkpt lat="44.4716633" lon="10.48769"><ele>730.0</ele><time>2026-04-06T08:59:12.992Z</time></trkpt><trkpt lat="44.4715583" lon="10.48771"><ele>730.0</ele><time>2026-04-06T08:59:13.993Z</time></trkpt><trkpt lat="44.4714683" lon="10.4877167"><ele>730.0</ele><time>2026-04-06T08:59:14.992Z</time></trkpt><trkpt lat="44.4713967" lon="10.4877033"><ele>730.0</ele><time>2026-04-06T08:59:15.993Z</time></trkpt><trkpt lat="44.4713417" lon="10.4876483"><ele>730.0</ele><time>2026-04-06T08:59:16.992Z</time></trkpt><trkpt lat="44.4713267" lon="10.4875317"><ele>730.0</ele><time>2026-04-06T08:59:17.993Z</time></trkpt><trkpt lat="44.47133" lon="10.4873933"><ele>730.0</ele><time>2026-04-06T08:59:18.993Z</time></trkpt><trkpt lat="44.4713483" lon="10.4872433"><ele>730.0</ele><time>2026-04-06T08:59:19.992Z</time></trkpt><trkpt lat="44.4713617" lon="10.48708"><ele>730.0</ele><time>2026-04-06T08:59:20.992Z</time></trkpt><trkpt lat="44.4713783" lon="10.4869133"><ele>730.0</ele><time>2026-04-06T08:59:21.992Z</time></trkpt><trkpt lat="44.4713917" lon="10.4867533"><ele>731.2</ele><time>2026-04-06T08:59:22.992Z</time></trkpt><trkpt lat="44.4713933" lon="10.486595"><ele>732.4</ele><time>2026-04-06T08:59:23.992Z</time></trkpt><trkpt lat="44.47139" lon="10.4864333"><ele>733.5999999999999</ele><time>2026-04-06T08:59:24.993Z</time></trkpt><trkpt lat="44.47136" lon="10.486305"><ele>734.8</ele><time>2026-04-06T08:59:25.992Z</time></trkpt><trkpt lat="44.47128" lon="10.4862083"><ele>736.0</ele><time>2026-04-06T08:59:26.992Z</time></trkpt><trkpt lat="44.47116" lon="10.4861267"><ele>738.25</ele><time>2026-04-06T08:59:27.992Z</time></trkpt><trkpt lat="44.471025" lon="10.4860533"><ele>740.5</ele><time>2026-04-06T08:59:28.992Z</time></trkpt><trkpt lat="44.4708817" lon="10.4859867"><ele>742.75</ele><time>2026-04-06T08:59:29.993Z</time></trkpt><trkpt lat="44.4707383" lon="10.4859367"><ele>745.0</ele><time>2026-04-06T08:59:30.993Z</time></trkpt><trkpt lat="44.4706067" lon="10.4858933"><ele>745.0</ele><time>2026-04-06T08:59:31.992Z</time></trkpt><trkpt lat="44.4704933" lon="10.4858417"><ele>745.0</ele><time>2026-04-06T08:59:32.992Z</time></trkpt><trkpt lat="44.4703783" lon="10.48577"><ele>745.0</ele><time>2026-04-06T08:59:33.992Z</time></trkpt><trkpt lat="44.4702633" lon="10.485685"><ele>745.0</ele><time>2026-04-06T08:59:34.992Z</time></trkpt><trkpt lat="44.470165" lon="10.4855767"><ele>744.0</ele><time>2026-04-06T08:59:35.993Z</time></trkpt><trkpt lat="44.4700617" lon="10.4854533"><ele>743.0</ele><time>2026-04-06T08:59:36.992Z</time></trkpt><trkpt lat="44.4699533" lon="10.4853417"><ele>742.0</ele><time>2026-04-06T08:59:37.992Z</time></trkpt><trkpt lat="44.46984" lon="10.48523"><ele>741.0</ele><time>2026-04-06T08:59:38.992Z</time></trkpt><trkpt lat="44.4697317" lon="10.4851317"><ele>742.5</ele><time>2026-04-06T08:59:39.993Z</time></trkpt><trkpt lat="44.4696367" lon="10.48503"><ele>744.0</ele><time>2026-04-06T08:59:40.993Z</time></trkpt><trkpt lat="44.469555" lon="10.4849183"><ele>745.5</ele><time>2026-04-06T08:59:41.992Z</time></trkpt><trkpt lat="44.4694833" lon="10.4847917"><ele>747.0</ele><time>2026-04-06T08:59:42.993Z</time></trkpt><trkpt lat="44.4694333" lon="10.4846433"><ele>750.0</ele><time>2026-04-06T08:59:43.993Z</time></trkpt><trkpt lat="44.4693833" lon="10.48449"><ele>753.0</ele><time>2026-04-06T08:59:44.992Z</time></trkpt><trkpt lat="44.4693267" lon="10.4843517"><ele>756.0</ele><time>2026-04-06T08:59:45.993Z</time></trkpt><trkpt lat="44.46924" lon="10.48423"><ele>759.0</ele><time>2026-04-06T08:59:46.992Z</time></trkpt><trkpt lat="44.4691367" lon="10.4841133"><ele>759.0</ele><time>2026-04-06T08:59:47.993Z</time></trkpt><trkpt lat="44.4690233" lon="10.4840017"><ele>759.0</ele><time>2026-04-06T08:59:48.993Z</time></trkpt><trkpt lat="44.4689017" lon="10.4838917"><ele>759.0</ele><time>2026-04-06T08:59:49.992Z</time></trkpt><trkpt lat="44.4687733" lon="10.4837917"><ele>759.0</ele><time>2026-04-06T08:59:50.993Z</time></trkpt><trkpt lat="44.4686533" lon="10.4837067"><ele>759.8000000000001</ele><time>2026-04-06T08:59:51.992Z</time></trkpt><trkpt lat="44.468545" lon="10.483625"><ele>760.6</ele><time>2026-04-06T08:59:52.992Z</time></trkpt><trkpt lat="44.4684567" lon="10.4835483"><ele>761.4</ele><time>2026-04-06T08:59:53.992Z</time></trkpt><trkpt lat="44.4683933" lon="10.483465"><ele>762.2</ele><time>2026-04-06T08:59:54.993Z</time></trkpt><trkpt lat="44.4683483" lon="10.4833717"><ele>763.0</ele><time>2026-04-06T08:59:55.993Z</time></trkpt><trkpt lat="44.468335" lon="10.4832617"><ele>763.0</ele><time>2026-04-06T08:59:56.993Z</time></trkpt><trkpt lat="44.4683417" lon="10.4831367"><ele>763.0</ele><time>2026-04-06T08:59:57.992Z</time></trkpt><trkpt lat="44.4683583" lon="10.4829933"><ele>763.0</ele><time>2026-04-06T08:59:58.993Z</time></trkpt><trkpt lat="44.4683467" lon="10.482835"><ele>763.0</ele><time>2026-04-06T08:59:59.993Z</time></trkpt><trkpt lat="44.4683033" lon="10.48268"><ele>763.0</ele><time>2026-04-06T09:00:00.992Z</time></trkpt><trkpt lat="44.46825" lon="10.482515"><ele>763.8</ele><time>2026-04-06T09:00:01.993Z</time></trkpt><trkpt lat="44.4681967" lon="10.48236"><ele>764.5999999999999</ele><time>2026-04-06T09:00:02.992Z</time></trkpt><trkpt lat="44.468165" lon="10.4822217"><ele>765.4000000000001</ele><time>2026-04-06T09:00:03.993Z</time></trkpt><trkpt lat="44.4681517" lon="10.48208"><ele>766.2</ele><time>2026-04-06T09:00:04.992Z</time></trkpt><trkpt lat="44.46817" lon="10.4819233"><ele>767.0</ele><time>2026-04-06T09:00:05.993Z</time></trkpt><trkpt lat="44.4681817" lon="10.4817617"><ele>767.0</ele><time>2026-04-06T09:00:06.992Z</time></trkpt><trkpt lat="44.4681817" lon="10.4816217"><ele>767.0</ele><time>2026-04-06T09:00:07.992Z</time></trkpt><trkpt lat="44.4681883" lon="10.4815033"><ele>767.0</ele><time>2026-04-06T09:00:08.992Z</time></trkpt><trkpt lat="44.4682183" lon="10.48139"><ele>767.0</ele><time>2026-04-06T09:00:09.992Z</time></trkpt><trkpt lat="44.468265" lon="10.4812883"><ele>767.0</ele><time>2026-04-06T09:00:10.992Z</time></trkpt><trkpt lat="44.46834" lon="10.4812117"><ele>766.8</ele><time>2026-04-06T09:00:11.992Z</time></trkpt><trkpt lat="44.4684067" lon="10.4811167"><ele>766.6</ele><time>2026-04-06T09:00:12.993Z</time></trkpt><trkpt lat="44.4684433" lon="10.4810283"><ele>766.4</ele><time>2026-04-06T09:00:13.992Z</time></trkpt><trkpt lat="44.4684467" lon="10.4809133"><ele>766.1999999999999</ele><time>2026-04-06T09:00:14.992Z</time></trkpt><trkpt lat="44.4684033" lon="10.4807933"><ele>766.0</ele><time>2026-04-06T09:00:15.992Z</time></trkpt><trkpt lat="44.4683117" lon="10.4806833"><ele>766.0</ele><time>2026-04-06T09:00:16.992Z</time></trkpt><trkpt lat="44.468185" lon="10.4805833"><ele>766.0</ele><time>2026-04-06T09:00:17.993Z</time></trkpt><trkpt lat="44.4680733" lon="10.4804817"><ele>766.0</ele><time>2026-04-06T09:00:18.992Z</time></trkpt><trkpt lat="44.4679583" lon="10.4803767"><ele>766.0</ele><time>2026-04-06T09:00:19.993Z</time></trkpt><trkpt lat="44.4678567" lon="10.48026"><ele>764.75</ele><time>2026-04-06T09:00:20.992Z</time></trkpt><trkpt lat="44.46774" lon="10.4801583"><ele>763.5</ele><time>2026-04-06T09:00:21.993Z</time></trkpt><trkpt lat="44.4676133" lon="10.4800633"><ele>762.25</ele><time>2026-04-06T09:00:22.992Z</time></trkpt><trkpt lat="44.4674783" lon="10.4799667"><ele>761.0</ele><time>2026-04-06T09:00:23.992Z</time></trkpt><trkpt lat="44.467345" lon="10.4798717"><ele>761.0</ele><time>2026-04-06T09:00:24.993Z</time></trkpt><trkpt lat="44.467215" lon="10.479795"><ele>761.0</ele><time>2026-04-06T09:00:25.992Z</time></trkpt><trkpt lat="44.4670817" lon="10.4797333"><ele>761.0</ele><time>2026-04-06T09:00:26.992Z</time></trkpt><trkpt lat="44.4669417" lon="10.47969"><ele>761.0</ele><time>2026-04-06T09:00:27.992Z</time></trkpt><trkpt lat="44.466795" lon="10.479665"><ele>761.75</ele><time>2026-04-06T09:00:28.992Z</time></trkpt><trkpt lat="44.46665" lon="10.47964"><ele>762.5</ele><time>2026-04-06T09:00:29.993Z</time></trkpt><trkpt lat="44.46651" lon="10.4796133"><ele>763.25</ele><time>2026-04-06T09:00:30.992Z</time></trkpt><trkpt lat="44.4663783" lon="10.47955"><ele>764.0</ele><time>2026-04-06T09:00:31.992Z</time></trkpt><trkpt lat="44.4662467" lon="10.4795"><ele>764.0</ele><time>2026-04-06T09:00:32.992Z</time></trkpt><trkpt lat="44.4661183" lon="10.47949"><ele>764.0</ele><time>2026-04-06T09:00:33.993Z</time></trkpt><trkpt lat="44.4659983" lon="10.47951"><ele>764.0</ele><time>2026-04-06T09:00:34.992Z</time></trkpt><trkpt lat="44.4658817" lon="10.4795317"><ele>764.0</ele><time>2026-04-06T09:00:35.993Z</time></trkpt><trkpt lat="44.46577" lon="10.4795533"><ele>764.0</ele><time>2026-04-06T09:00:36.992Z</time></trkpt><trkpt lat="44.4656617" lon="10.47955"><ele>764.0</ele><time>2026-04-06T09:00:37.993Z</time></trkpt><trkpt lat="44.4655617" lon="10.4795217"><ele>764.0</ele><time>2026-04-06T09:00:38.993Z</time></trkpt><trkpt lat="44.4654583" lon="10.4794917"><ele>764.0</ele><time>2026-04-06T09:00:39.992Z</time></trkpt><trkpt lat="44.465345" lon="10.4794583"><ele>764.0</ele><time>2026-04-06T09:00:40.992Z</time></trkpt><trkpt lat="44.4652417" lon="10.47941"><ele>762.3333333333333</ele><time>2026-04-06T09:00:41.992Z</time></trkpt><trkpt lat="44.4651383" lon="10.4793633"><ele>760.6666666666666</ele><time>2026-04-06T09:00:42.992Z</time></trkpt><trkpt lat="44.4650433" lon="10.479325"><ele>759.0</ele><time>2026-04-06T09:00:43.992Z</time></trkpt><trkpt lat="44.4649567" lon="10.479275"><ele>757.3333333333334</ele><time>2026-04-06T09:00:44.992Z</time></trkpt><trkpt lat="44.46489" lon="10.4792267"><ele>755.6666666666667</ele><time>2026-04-06T09:00:45.992Z</time></trkpt><trkpt lat="44.4648233" lon="10.4791883"><ele>754.0</ele><time>2026-04-06T09:00:46.993Z</time></trkpt><trkpt lat="44.4647833" lon="10.4791133"><ele>754.0</ele><time>2026-04-06T09:00:47.992Z</time></trkpt><trkpt lat="44.4647683" lon="10.4790067"><ele>754.0</ele><time>2026-04-06T09:00:48.993Z</time></trkpt><trkpt lat="44.4647667" lon="10.4788767"><ele>754.0</ele><time>2026-04-06T09:00:49.993Z</time></trkpt><trkpt lat="44.4647733" lon="10.4787417"><ele>754.0</ele><time>2026-04-06T09:00:50.992Z</time></trkpt><trkpt lat="44.4647733" lon="10.4785983"><ele>754.0</ele><time>2026-04-06T09:00:51.992Z</time></trkpt><trkpt lat="44.4647583" lon="10.4784583"><ele>754.6666666666667</ele><time>2026-04-06T09:00:52.992Z</time></trkpt><trkpt lat="44.4647333" lon="10.4783217"><ele>755.3333333333334</ele><time>2026-04-06T09:00:53.992Z</time></trkpt><trkpt lat="44.4647033" lon="10.4782083"><ele>756.0</ele><time>2026-04-06T09:00:54.992Z</time></trkpt><trkpt lat="44.4646783" lon="10.478095"><ele>756.6666666666666</ele><time>2026-04-06T09:00:55.993Z</time></trkpt><trkpt lat="44.464655" lon="10.4779933"><ele>757.3333333333333</ele><time>2026-04-06T09:00:56.993Z</time></trkpt><trkpt lat="44.4646333" lon="10.477905"><ele>758.0</ele><time>2026-04-06T09:00:57.992Z</time></trkpt><trkpt lat="44.464605" lon="10.4777383"><ele>758.0</ele><time>2026-04-06T09:00:59.992Z</time></trkpt><trkpt lat="44.46459" lon="10.4775767"><ele>758.0</ele><time>2026-04-06T09:01:01.992Z</time></trkpt><trkpt lat="44.4645917" lon="10.47748"><ele>758.0</ele><time>2026-04-06T09:01:02.992Z</time></trkpt><trkpt lat="44.464605" lon="10.47737"><ele>758.0</ele><time>2026-04-06T09:01:03.992Z</time></trkpt><trkpt lat="44.4646283" lon="10.4772583"><ele>758.0</ele><time>2026-04-06T09:01:04.992Z</time></trkpt><trkpt lat="44.4646583" lon="10.4771317"><ele>758.0</ele><time>2026-04-06T09:01:05.992Z</time></trkpt><trkpt lat="44.4646967" lon="10.477005"><ele>755.5999999999999</ele><time>2026-04-06T09:01:06.992Z</time></trkpt><trkpt lat="44.4647383" lon="10.476875"><ele>753.1999999999999</ele><time>2026-04-06T09:01:07.993Z</time></trkpt><trkpt lat="44.4647833" lon="10.47677"><ele>750.8</ele><time>2026-04-06T09:01:08.992Z</time></trkpt><trkpt lat="44.4648467" lon="10.476675"><ele>748.4</ele><time>2026-04-06T09:01:09.992Z</time></trkpt><trkpt lat="44.464935" lon="10.4765983"><ele>746.0</ele><time>2026-04-06T09:01:10.992Z</time></trkpt><trkpt lat="44.4650467" lon="10.4765383"><ele>746.0</ele><time>2026-04-06T09:01:11.993Z</time></trkpt><trkpt lat="44.4651683" lon="10.4764933"><ele>746.0</ele><time>2026-04-06T09:01:12.992Z</time></trkpt><trkpt lat="44.4653083" lon="10.47645"><ele>746.0</ele><time>2026-04-06T09:01:13.993Z</time></trkpt><trkpt lat="44.4654383" lon="10.4764083"><ele>746.0</ele><time>2026-04-06T09:01:14.992Z</time></trkpt><trkpt lat="44.465555" lon="10.4763567"><ele>744.0</ele><time>2026-04-06T09:01:15.993Z</time></trkpt><trkpt lat="44.46567" lon="10.4762967"><ele>742.0</ele><time>2026-04-06T09:01:16.992Z</time></trkpt><trkpt lat="44.46577" lon="10.47622"><ele>740.0</ele><time>2026-04-06T09:01:17.993Z</time></trkpt><trkpt lat="44.465865" lon="10.476125"><ele>738.0</ele><time>2026-04-06T09:01:18.993Z</time></trkpt><trkpt lat="44.4659533" lon="10.4760317"><ele>738.0</ele><time>2026-04-06T09:01:19.992Z</time></trkpt><trkpt lat="44.46604" lon="10.4759267"><ele>738.0</ele><time>2026-04-06T09:01:20.993Z</time></trkpt><trkpt lat="44.4661233" lon="10.47583"><ele>738.0</ele><time>2026-04-06T09:01:21.993Z</time></trkpt><trkpt lat="44.466195" lon="10.47573"><ele>738.0</ele><time>2026-04-06T09:01:22.992Z</time></trkpt><trkpt lat="44.4662717" lon="10.4756567"><ele>738.0</ele><time>2026-04-06T09:01:23.992Z</time></trkpt><trkpt lat="44.4663583" lon="10.4755883"><ele>739.3333333333334</ele><time>2026-04-06T09:01:24.992Z</time></trkpt><trkpt lat="44.46644" lon="10.4755517"><ele>740.6666666666666</ele><time>2026-04-06T09:01:25.993Z</time></trkpt><trkpt lat="44.46651" lon="10.4755083"><ele>742.0</ele><time>2026-04-06T09:01:26.993Z</time></trkpt><trkpt lat="44.4665617" lon="10.4754533"><ele>743.3333333333333</ele><time>2026-04-06T09:01:27.992Z</time></trkpt><trkpt lat="44.466585" lon="10.4753067"><ele>744.6666666666666</ele><time>2026-04-06T09:01:29.992Z</time></trkpt><trkpt lat="44.4665417" lon="10.47524"><ele>746.0</ele><time>2026-04-06T09:01:30.992Z</time></trkpt><trkpt lat="44.46647" lon="10.4751767"><ele>746.0</ele><time>2026-04-06T09:01:31.992Z</time></trkpt><trkpt lat="44.4663567" lon="10.4751317"><ele>746.0</ele><time>2026-04-06T09:01:32.993Z</time></trkpt><trkpt lat="44.4662267" lon="10.4750783"><ele>746.0</ele><time>2026-04-06T09:01:33.992Z</time></trkpt><trkpt lat="44.466095" lon="10.4750333"><ele>746.0</ele><time>2026-04-06T09:01:34.992Z</time></trkpt><trkpt lat="44.4659733" lon="10.474985"><ele>746.1666666666666</ele><time>2026-04-06T09:01:35.992Z</time></trkpt><trkpt lat="44.4658683" lon="10.474925"><ele>746.3333333333333</ele><time>2026-04-06T09:01:36.992Z</time></trkpt><trkpt lat="44.4657867" lon="10.4748533"><ele>746.5</ele><time>2026-04-06T09:01:37.992Z</time></trkpt><trkpt lat="44.465735" lon="10.4747767"><ele>746.6666666666666</ele><time>2026-04-06T09:01:38.992Z</time></trkpt><trkpt lat="44.465715" lon="10.4746783"><ele>746.8333333333334</ele><time>2026-04-06T09:01:39.992Z</time></trkpt><trkpt lat="44.4657233" lon="10.47459"><ele>747.0</ele><time>2026-04-06T09:01:40.992Z</time></trkpt><trkpt lat="44.4657683" lon="10.4745017"><ele>747.0</ele><time>2026-04-06T09:01:41.992Z</time></trkpt><trkpt lat="44.4658283" lon="10.4744117"><ele>747.0</ele><time>2026-04-06T09:01:42.992Z</time></trkpt><trkpt lat="44.4658783" lon="10.4743267"><ele>747.0</ele><time>2026-04-06T09:01:43.992Z</time></trkpt><trkpt lat="44.4659133" lon="10.47425"><ele>747.0</ele><time>2026-04-06T09:01:44.992Z</time></trkpt><trkpt lat="44.465945" lon="10.4741233"><ele>747.0</ele><time>2026-04-06T09:01:46.993Z</time></trkpt><trkpt lat="44.46591" lon="10.4740267"><ele>747.0</ele><time>2026-04-06T09:01:48.992Z</time></trkpt><trkpt lat="44.4658017" lon="10.473995"><ele>747.0</ele><time>2026-04-06T09:01:50.992Z</time></trkpt><trkpt lat="44.46572" lon="10.474005"><ele>747.0</ele><time>2026-04-06T09:01:51.992Z</time></trkpt><trkpt lat="44.4656317" lon="10.4740167"><ele>747.0</ele><time>2026-04-06T09:01:52.992Z</time></trkpt><trkpt lat="44.46554" lon="10.4740167"><ele>747.0</ele><time>2026-04-06T09:01:53.993Z</time></trkpt><trkpt lat="44.4654483" lon="10.474005"><ele>747.0</ele><time>2026-04-06T09:01:54.992Z</time></trkpt><trkpt lat="44.4653617" lon="10.4739933"><ele>747.0</ele><time>2026-04-06T09:01:55.992Z</time></trkpt><trkpt lat="44.46528" lon="10.4739917"><ele>745.5</ele><time>2026-04-06T09:01:56.993Z</time></trkpt><trkpt lat="44.4652083" lon="10.4739833"><ele>744.0</ele><time>2026-04-06T09:01:57.993Z</time></trkpt><trkpt lat="44.46509" lon="10.4739683"><ele>742.5</ele><time>2026-04-06T09:01:59.993Z</time></trkpt><trkpt lat="44.46499" lon="10.47392"><ele>741.0</ele><time>2026-04-06T09:02:01.992Z</time></trkpt><trkpt lat="44.4649317" lon="10.4738867"><ele>739.5</ele><time>2026-04-06T09:02:02.992Z</time></trkpt><trkpt lat="44.4648633" lon="10.4738583"><ele>738.0</ele><time>2026-04-06T09:02:03.992Z</time></trkpt><trkpt lat="44.4647983" lon="10.473825"><ele>738.0</ele><time>2026-04-06T09:02:04.992Z</time></trkpt><trkpt lat="44.4647317" lon="10.4737833"><ele>738.0</ele><time>2026-04-06T09:02:05.992Z</time></trkpt><trkpt lat="44.4646633" lon="10.4737533"><ele>738.0</ele><time>2026-04-06T09:02:06.992Z</time></trkpt><trkpt lat="44.464595" lon="10.47372"><ele>738.0</ele><time>2026-04-06T09:02:07.993Z</time></trkpt><trkpt lat="44.46453" lon="10.4736833"><ele>738.0</ele><time>2026-04-06T09:02:08.992Z</time></trkpt><trkpt lat="44.4644683" lon="10.4736467"><ele>738.0</ele><time>2026-04-06T09:02:09.993Z</time></trkpt><trkpt lat="44.4644083" lon="10.47361"><ele>738.0</ele><time>2026-04-06T09:02:10.992Z</time></trkpt><trkpt lat="44.46435" lon="10.4735633"><ele>737.0</ele><time>2026-04-06T09:02:11.992Z</time></trkpt><trkpt lat="44.4642917" lon="10.47352"><ele>736.0</ele><time>2026-04-06T09:02:12.992Z</time></trkpt><trkpt lat="44.46418" lon="10.4734383"><ele>735.0</ele><time>2026-04-06T09:02:14.992Z</time></trkpt><trkpt lat="44.4641267" lon="10.473385"><ele>734.0</ele><time>2026-04-06T09:02:15.992Z</time></trkpt><trkpt lat="44.4640783" lon="10.4733167"><ele>733.0</ele><time>2026-04-06T09:02:16.993Z</time></trkpt><trkpt lat="44.4640283" lon="10.4732267"><ele>732.0</ele><time>2026-04-06T09:02:17.992Z</time></trkpt><trkpt lat="44.463985" lon="10.4731233"><ele>732.0</ele><time>2026-04-06T09:02:18.992Z</time></trkpt><trkpt lat="44.4639567" lon="10.4730183"><ele>732.0</ele><time>2026-04-06T09:02:19.993Z</time></trkpt><trkpt lat="44.4639367" lon="10.47292"><ele>732.0</ele><time>2026-04-06T09:02:20.992Z</time></trkpt><trkpt lat="44.4639133" lon="10.4728117"><ele>732.0</ele><time>2026-04-06T09:02:21.993Z</time></trkpt><trkpt lat="44.4638833" lon="10.4727133"><ele>732.0</ele><time>2026-04-06T09:02:22.992Z</time></trkpt><trkpt lat="44.4638467" lon="10.4726183"><ele>732.0</ele><time>2026-04-06T09:02:23.993Z</time></trkpt><trkpt lat="44.46381" lon="10.472525"><ele>730.2</ele><time>2026-04-06T09:02:24.993Z</time></trkpt><trkpt lat="44.4637633" lon="10.472455"><ele>728.4000000000001</ele><time>2026-04-06T09:02:25.993Z</time></trkpt><trkpt lat="44.4636733" lon="10.4723517"><ele>726.5999999999999</ele><time>2026-04-06T09:02:27.992Z</time></trkpt><trkpt lat="44.4635967" lon="10.47227"><ele>724.8</ele><time>2026-04-06T09:02:29.992Z</time></trkpt><trkpt lat="44.4635283" lon="10.4721767"><ele>723.0</ele><time>2026-04-06T09:02:31.993Z</time></trkpt><trkpt lat="44.4634967" lon="10.4720433"><ele>722.1666666666666</ele><time>2026-04-06T09:02:33.992Z</time></trkpt><trkpt lat="44.463535" lon="10.471875"><ele>721.3333333333334</ele><time>2026-04-06T09:02:35.992Z</time></trkpt><trkpt lat="44.46357" lon="10.4717933"><ele>720.5</ele><time>2026-04-06T09:02:36.992Z</time></trkpt><trkpt lat="44.46361" lon="10.4717233"><ele>719.6666666666667</ele><time>2026-04-06T09:02:37.992Z</time></trkpt><trkpt lat="44.463695" lon="10.4716"><ele>718.8333333333334</ele><time>2026-04-06T09:02:39.993Z</time></trkpt><trkpt lat="44.4637383" lon="10.471535"><ele>718.0</ele><time>2026-04-06T09:02:40.993Z</time></trkpt><trkpt lat="44.4638183" lon="10.4714083"><ele>718.8</ele><time>2026-04-06T09:02:42.993Z</time></trkpt><trkpt lat="44.46387" lon="10.471355"><ele>719.5999999999999</ele><time>2026-04-06T09:02:43.992Z</time></trkpt><trkpt lat="44.4639667" lon="10.471275"><ele>720.4000000000001</ele><time>2026-04-06T09:02:45.992Z</time></trkpt><trkpt lat="44.46407" lon="10.4712383"><ele>721.2</ele><time>2026-04-06T09:02:47.992Z</time></trkpt><trkpt lat="44.46419" lon="10.4711983"><ele>722.0</ele><time>2026-04-06T09:02:49.992Z</time></trkpt><trkpt lat="44.4643017" lon="10.47112"><ele>722.0</ele><time>2026-04-06T09:02:51.992Z</time></trkpt><trkpt lat="44.464395" lon="10.4710017"><ele>722.0</ele><time>2026-04-06T09:02:53.992Z</time></trkpt><trkpt lat="44.46444" lon="10.4709283"><ele>722.0</ele><time>2026-04-06T09:02:54.992Z</time></trkpt><trkpt lat="44.4644867" lon="10.4708583"><ele>722.0</ele><time>2026-04-06T09:02:55.992Z</time></trkpt><trkpt lat="44.464525" lon="10.4707717"><ele>722.0</ele><time>2026-04-06T09:02:56.992Z</time></trkpt><trkpt lat="44.4645667" lon="10.4706817"><ele>722.0</ele><time>2026-04-06T09:02:57.992Z</time></trkpt><trkpt lat="44.4646017" lon="10.470595"><ele>723.8333333333333</ele><time>2026-04-06T09:02:58.992Z</time></trkpt><trkpt lat="44.464645" lon="10.4705133"><ele>725.6666666666666</ele><time>2026-04-06T09:02:59.992Z</time></trkpt><trkpt lat="44.4646833" lon="10.4704283"><ele>727.5</ele><time>2026-04-06T09:03:00.992Z</time></trkpt><trkpt lat="44.4647183" lon="10.4703517"><ele>729.3333333333334</ele><time>2026-04-06T09:03:01.992Z</time></trkpt><trkpt lat="44.4647483" lon="10.4702733"><ele>731.1666666666667</ele><time>2026-04-06T09:03:02.992Z</time></trkpt><trkpt lat="44.4647883" lon="10.4701467"><ele>733.0</ele><time>2026-04-06T09:03:04.992Z</time></trkpt><trkpt lat="44.4648733" lon="10.4700417"><ele>733.0</ele><time>2026-04-06T09:03:06.993Z</time></trkpt><trkpt lat="44.46493" lon="10.4700017"><ele>733.0</ele><time>2026-04-06T09:03:07.992Z</time></trkpt><trkpt lat="44.4649933" lon="10.469975"><ele>733.0</ele><time>2026-04-06T09:03:08.992Z</time></trkpt><trkpt lat="44.4650567" lon="10.4699583"><ele>733.0</ele><time>2026-04-06T09:03:09.992Z</time></trkpt><trkpt lat="44.4651567" lon="10.4698833"><ele>733.0</ele><time>2026-04-06T09:03:11.992Z</time></trkpt><trkpt lat="44.4652183" lon="10.4697633"><ele>733.0</ele><time>2026-04-06T09:03:13.993Z</time></trkpt><trkpt lat="44.465225" lon="10.4696017"><ele>731.1666666666667</ele><time>2026-04-06T09:03:15.992Z</time></trkpt><trkpt lat="44.4652267" lon="10.4695117"><ele>729.3333333333334</ele><time>2026-04-06T09:03:16.992Z</time></trkpt><trkpt lat="44.4652317" lon="10.4694033"><ele>727.5</ele><time>2026-04-06T09:03:17.993Z</time></trkpt><trkpt lat="44.4652383" lon="10.4692967"><ele>725.6666666666666</ele><time>2026-04-06T09:03:18.992Z</time></trkpt><trkpt lat="44.4652433" lon="10.4691967"><ele>723.8333333333333</ele><time>2026-04-06T09:03:19.992Z</time></trkpt><trkpt lat="44.465265" lon="10.4690117"><ele>722.0</ele><time>2026-04-06T09:03:21.992Z</time></trkpt><trkpt lat="44.4652817" lon="10.4689067"><ele>722.0</ele><time>2026-04-06T09:03:22.992Z</time></trkpt><trkpt lat="44.4653" lon="10.468795"><ele>722.0</ele><time>2026-04-06T09:03:23.992Z</time></trkpt><trkpt lat="44.4653117" lon="10.4686767"><ele>722.0</ele><time>2026-04-06T09:03:24.992Z</time></trkpt><trkpt lat="44.465315" lon="10.468555"><ele>722.0</ele><time>2026-04-06T09:03:25.992Z</time></trkpt><trkpt lat="44.46531" lon="10.4684367"><ele>722.0</ele><time>2026-04-06T09:03:26.992Z</time></trkpt><trkpt lat="44.4652933" lon="10.46833"><ele>722.0</ele><time>2026-04-06T09:03:27.992Z</time></trkpt><trkpt lat="44.465285" lon="10.46823"><ele>720.3333333333333</ele><time>2026-04-06T09:03:28.992Z</time></trkpt><trkpt lat="44.4652833" lon="10.46813"><ele>718.6666666666666</ele><time>2026-04-06T09:03:29.993Z</time></trkpt><trkpt lat="44.4652867" lon="10.4680267"><ele>717.0</ele><time>2026-04-06T09:03:30.992Z</time></trkpt><trkpt lat="44.4652967" lon="10.4679117"><ele>715.3333333333334</ele><time>2026-04-06T09:03:31.993Z</time></trkpt><trkpt lat="44.4653167" lon="10.4677767"><ele>713.6666666666667</ele><time>2026-04-06T09:03:32.992Z</time></trkpt><trkpt lat="44.4653433" lon="10.4676167"><ele>712.0</ele><time>2026-04-06T09:03:33.992Z</time></trkpt><trkpt lat="44.46537" lon="10.46744"><ele>710.25</ele><time>2026-04-06T09:03:34.993Z</time></trkpt><trkpt lat="44.4654033" lon="10.46728"><ele>708.5</ele><time>2026-04-06T09:03:35.993Z</time></trkpt><trkpt lat="44.4654367" lon="10.4671167"><ele>706.75</ele><time>2026-04-06T09:03:36.993Z</time></trkpt><trkpt lat="44.46546" lon="10.4669583"><ele>705.0</ele><time>2026-04-06T09:03:37.992Z</time></trkpt><trkpt lat="44.4654983" lon="10.4668183"><ele>705.0</ele><time>2026-04-06T09:03:38.992Z</time></trkpt><trkpt lat="44.465545" lon="10.4667133"><ele>705.0</ele><time>2026-04-06T09:03:39.993Z</time></trkpt><trkpt lat="44.4656083" lon="10.4666267"><ele>705.0</ele><time>2026-04-06T09:03:40.992Z</time></trkpt><trkpt lat="44.4656867" lon="10.4665633"><ele>705.0</ele><time>2026-04-06T09:03:41.992Z</time></trkpt><trkpt lat="44.465785" lon="10.4665333"><ele>705.0</ele><time>2026-04-06T09:03:42.992Z</time></trkpt><trkpt lat="44.4659317" lon="10.4665333"><ele>705.0</ele><time>2026-04-06T09:03:43.992Z</time></trkpt><trkpt lat="44.4660833" lon="10.4665583"><ele>705.0</ele><time>2026-04-06T09:03:44.993Z</time></trkpt><trkpt lat="44.4662317" lon="10.4665933"><ele>705.0</ele><time>2026-04-06T09:03:45.993Z</time></trkpt><trkpt lat="44.46636" lon="10.466605"><ele>705.0</ele><time>2026-04-06T09:03:46.993Z</time></trkpt><trkpt lat="44.46647" lon="10.4666083"><ele>705.2</ele><time>2026-04-06T09:03:47.992Z</time></trkpt><trkpt lat="44.46656" lon="10.46661"><ele>705.4</ele><time>2026-04-06T09:03:48.993Z</time></trkpt><trkpt lat="44.4666333" lon="10.466605"><ele>705.5999999999999</ele><time>2026-04-06T09:03:49.992Z</time></trkpt><trkpt lat="44.46673" lon="10.4665633"><ele>705.8</ele><time>2026-04-06T09:03:51.993Z</time></trkpt><trkpt lat="44.46671" lon="10.4664583"><ele>706.0</ele><time>2026-04-06T09:03:53.992Z</time></trkpt><trkpt lat="44.466545" lon="10.4664033"><ele>706.0</ele><time>2026-04-06T09:03:55.992Z</time></trkpt><trkpt lat="44.46641" lon="10.4664"><ele>706.0</ele><time>2026-04-06T09:03:56.992Z</time></trkpt><trkpt lat="44.4662717" lon="10.46638"><ele>706.0</ele><time>2026-04-06T09:03:57.992Z</time></trkpt><trkpt lat="44.46614" lon="10.4663183"><ele>706.0</ele><time>2026-04-06T09:03:58.992Z</time></trkpt><trkpt lat="44.46602" lon="10.4662433"><ele>702.5</ele><time>2026-04-06T09:03:59.992Z</time></trkpt><trkpt lat="44.4659017" lon="10.4661767"><ele>699.0</ele><time>2026-04-06T09:04:00.993Z</time></trkpt><trkpt lat="44.4657883" lon="10.4661183"><ele>695.5</ele><time>2026-04-06T09:04:01.992Z</time></trkpt><trkpt lat="44.4656817" lon="10.4660783"><ele>692.0</ele><time>2026-04-06T09:04:02.992Z</time></trkpt><trkpt lat="44.4655733" lon="10.4660683"><ele>692.0</ele><time>2026-04-06T09:04:03.992Z</time></trkpt><trkpt lat="44.4654733" lon="10.4660733"><ele>692.0</ele><time>2026-04-06T09:04:04.992Z</time></trkpt><trkpt lat="44.4653717" lon="10.466085"><ele>692.0</ele><time>2026-04-06T09:04:05.992Z</time></trkpt><trkpt lat="44.4652633" lon="10.4660983"><ele>692.0</ele><time>2026-04-06T09:04:06.992Z</time></trkpt><trkpt lat="44.4651667" lon="10.4661183"><ele>692.0</ele><time>2026-04-06T09:04:07.992Z</time></trkpt><trkpt lat="44.4650767" lon="10.46613"><ele>691.3333333333333</ele><time>2026-04-06T09:04:08.992Z</time></trkpt><trkpt lat="44.464985" lon="10.46615"><ele>690.6666666666666</ele><time>2026-04-06T09:04:09.992Z</time></trkpt><trkpt lat="44.4649183" lon="10.466155"><ele>690.0</ele><time>2026-04-06T09:04:10.992Z</time></trkpt><trkpt lat="44.4648517" lon="10.46615"><ele>689.3333333333334</ele><time>2026-04-06T09:04:11.992Z</time></trkpt><trkpt lat="44.4647817" lon="10.4661317"><ele>688.6666666666667</ele><time>2026-04-06T09:04:12.992Z</time></trkpt><trkpt lat="44.4647017" lon="10.4661083"><ele>688.0</ele><time>2026-04-06T09:04:13.992Z</time></trkpt><trkpt lat="44.4646067" lon="10.46607"><ele>687.5999999999999</ele><time>2026-04-06T09:04:14.992Z</time></trkpt><trkpt lat="44.4644983" lon="10.4660233"><ele>687.1999999999999</ele><time>2026-04-06T09:04:15.993Z</time></trkpt><trkpt lat="44.4643933" lon="10.4659733"><ele>686.8</ele><time>2026-04-06T09:04:16.992Z</time></trkpt><trkpt lat="44.4642883" lon="10.46592"><ele>686.4</ele><time>2026-04-06T09:04:17.992Z</time></trkpt><trkpt lat="44.4641783" lon="10.4658817"><ele>686.0</ele><time>2026-04-06T09:04:18.993Z</time></trkpt><trkpt lat="44.4640617" lon="10.4658583"><ele>686.0</ele><time>2026-04-06T09:04:19.992Z</time></trkpt><trkpt lat="44.4639367" lon="10.4658517"><ele>686.0</ele><time>2026-04-06T09:04:20.992Z</time></trkpt><trkpt lat="44.46381" lon="10.4658467"><ele>686.0</ele><time>2026-04-06T09:04:21.993Z</time></trkpt><trkpt lat="44.4636767" lon="10.4658467"><ele>686.0</ele><time>2026-04-06T09:04:22.992Z</time></trkpt><trkpt lat="44.46354" lon="10.4658267"><ele>684.5</ele><time>2026-04-06T09:04:23.992Z</time></trkpt><trkpt lat="44.46341" lon="10.4658017"><ele>683.0</ele><time>2026-04-06T09:04:24.992Z</time></trkpt><trkpt lat="44.4632817" lon="10.4657667"><ele>681.5</ele><time>2026-04-06T09:04:25.992Z</time></trkpt><trkpt lat="44.463155" lon="10.4657167"><ele>680.0</ele><time>2026-04-06T09:04:26.992Z</time></trkpt><trkpt lat="44.4630317" lon="10.465665"><ele>678.0</ele><time>2026-04-06T09:04:27.993Z</time></trkpt><trkpt lat="44.462915" lon="10.46559"><ele>676.0</ele><time>2026-04-06T09:04:28.992Z</time></trkpt><trkpt lat="44.4628217" lon="10.465485"><ele>674.0</ele><time>2026-04-06T09:04:29.992Z</time></trkpt><trkpt lat="44.4627433" lon="10.46536"><ele>672.0</ele><time>2026-04-06T09:04:30.992Z</time></trkpt><trkpt lat="44.462675" lon="10.4652133"><ele>672.0</ele><time>2026-04-06T09:04:31.993Z</time></trkpt><trkpt lat="44.46262" lon="10.4650517"><ele>672.0</ele><time>2026-04-06T09:04:32.992Z</time></trkpt><trkpt lat="44.4625633" lon="10.4648933"><ele>672.0</ele><time>2026-04-06T09:04:33.992Z</time></trkpt><trkpt lat="44.4625167" lon="10.46475"><ele>672.0</ele><time>2026-04-06T09:04:34.992Z</time></trkpt><trkpt lat="44.46247" lon="10.464635"><ele>672.3333333333334</ele><time>2026-04-06T09:04:35.992Z</time></trkpt><trkpt lat="44.46242" lon="10.4645417"><ele>672.6666666666666</ele><time>2026-04-06T09:04:36.992Z</time></trkpt><trkpt lat="44.4623683" lon="10.4644767"><ele>673.0</ele><time>2026-04-06T09:04:37.992Z</time></trkpt><trkpt lat="44.462245" lon="10.4644367"><ele>673.3333333333333</ele><time>2026-04-06T09:04:39.992Z</time></trkpt><trkpt lat="44.46217" lon="10.4644767"><ele>673.6666666666666</ele><time>2026-04-06T09:04:40.993Z</time></trkpt><trkpt lat="44.4620983" lon="10.4645183"><ele>674.0</ele><time>2026-04-06T09:04:41.993Z</time></trkpt><trkpt lat="44.46202" lon="10.4645317"><ele>672.4000000000001</ele><time>2026-04-06T09:04:42.992Z</time></trkpt><trkpt lat="44.4619483" lon="10.464505"><ele>670.8</ele><time>2026-04-06T09:04:43.992Z</time></trkpt><trkpt lat="44.461875" lon="10.4644333"><ele>669.2</ele><time>2026-04-06T09:04:44.993Z</time></trkpt><trkpt lat="44.461795" lon="10.4643217"><ele>667.5999999999999</ele><time>2026-04-06T09:04:45.992Z</time></trkpt><trkpt lat="44.4617133" lon="10.4641683"><ele>666.0</ele><time>2026-04-06T09:04:46.992Z</time></trkpt><trkpt lat="44.46162" lon="10.4640133"><ele>666.0</ele><time>2026-04-06T09:04:47.992Z</time></trkpt><trkpt lat="44.461535" lon="10.46384"><ele>666.0</ele><time>2026-04-06T09:04:48.992Z</time></trkpt><trkpt lat="44.4614483" lon="10.463655"><ele>666.0</ele><time>2026-04-06T09:04:49.992Z</time></trkpt><trkpt lat="44.4613617" lon="10.463455"><ele>666.0</ele><time>2026-04-06T09:04:50.992Z</time></trkpt><trkpt lat="44.4612633" lon="10.4632383"><ele>666.0</ele><time>2026-04-06T09:04:51.992Z</time></trkpt><trkpt lat="44.4611683" lon="10.463015"><ele>666.0</ele><time>2026-04-06T09:04:52.992Z</time></trkpt><trkpt lat="44.4610683" lon="10.4627883"><ele>666.0</ele><time>2026-04-06T09:04:53.993Z</time></trkpt><trkpt lat="44.4609617" lon="10.4625567"><ele>666.0</ele><time>2026-04-06T09:04:54.992Z</time></trkpt><trkpt lat="44.460855" lon="10.4623167"><ele>666.0</ele><time>2026-04-06T09:04:55.992Z</time></trkpt><trkpt lat="44.46074" lon="10.4620683"><ele>666.0</ele><time>2026-04-06T09:04:56.992Z</time></trkpt><trkpt lat="44.4606167" lon="10.4618117"><ele>666.0</ele><time>2026-04-06T09:04:57.992Z</time></trkpt><trkpt lat="44.4605083" lon="10.4615483"><ele>666.0</ele><time>2026-04-06T09:04:58.992Z</time></trkpt><trkpt lat="44.4604033" lon="10.4612967"><ele>664.0</ele><time>2026-04-06T09:04:59.992Z</time></trkpt><trkpt lat="44.4602917" lon="10.4610483"><ele>662.0</ele><time>2026-04-06T09:05:00.992Z</time></trkpt><trkpt lat="44.4601783" lon="10.46079"><ele>660.0</ele><time>2026-04-06T09:05:01.992Z</time></trkpt><trkpt lat="44.4600567" lon="10.46055"><ele>660.3333333333334</ele><time>2026-04-06T09:05:02.992Z</time></trkpt><trkpt lat="44.4599267" lon="10.4603267"><ele>660.6666666666667</ele><time>2026-04-06T09:05:03.992Z</time></trkpt><trkpt lat="44.4597633" lon="10.46013"><ele>661.0</ele><time>2026-04-06T09:05:04.993Z</time></trkpt><trkpt lat="44.459585" lon="10.459965"><ele>660.0</ele><time>2026-04-06T09:05:05.992Z</time></trkpt><trkpt lat="44.4593933" lon="10.4598267"><ele>659.0</ele><time>2026-04-06T09:05:06.992Z</time></trkpt><trkpt lat="44.4591983" lon="10.4597183"><ele>658.0</ele><time>2026-04-06T09:05:07.992Z</time></trkpt><trkpt lat="44.4589967" lon="10.4596433"><ele>657.3333333333334</ele><time>2026-04-06T09:05:08.992Z</time></trkpt><trkpt lat="44.458795" lon="10.4595667"><ele>656.6666666666666</ele><time>2026-04-06T09:05:09.992Z</time></trkpt><trkpt lat="44.4585933" lon="10.4595067"><ele>656.0</ele><time>2026-04-06T09:05:10.993Z</time></trkpt><trkpt lat="44.458385" lon="10.4594367"><ele>655.6666666666666</ele><time>2026-04-06T09:05:11.992Z</time></trkpt><trkpt lat="44.45819" lon="10.4593617"><ele>655.3333333333334</ele><time>2026-04-06T09:05:12.992Z</time></trkpt><trkpt lat="44.457995" lon="10.4592883"><ele>655.0</ele><time>2026-04-06T09:05:13.992Z</time></trkpt><trkpt lat="44.4577983" lon="10.4592183"><ele>654.6666666666667</ele><time>2026-04-06T09:05:14.992Z</time></trkpt><trkpt lat="44.4576183" lon="10.4591367"><ele>654.3333333333334</ele><time>2026-04-06T09:05:15.992Z</time></trkpt><trkpt lat="44.457435" lon="10.4590583"><ele>654.0</ele><time>2026-04-06T09:05:16.992Z</time></trkpt><trkpt lat="44.4572617" lon="10.45897"><ele>653.6666666666666</ele><time>2026-04-06T09:05:17.992Z</time></trkpt><trkpt lat="44.4570933" lon="10.4588667"><ele>653.3333333333333</ele><time>2026-04-06T09:05:18.992Z</time></trkpt><trkpt lat="44.4569217" lon="10.4587583"><ele>653.0</ele><time>2026-04-06T09:05:19.992Z</time></trkpt><trkpt lat="44.456765" lon="10.45864"><ele>652.3333333333333</ele><time>2026-04-06T09:05:20.992Z</time></trkpt><trkpt lat="44.456625" lon="10.4585333"><ele>651.6666666666666</ele><time>2026-04-06T09:05:21.993Z</time></trkpt><trkpt lat="44.4564917" lon="10.45843"><ele>651.0</ele><time>2026-04-06T09:05:22.992Z</time></trkpt><trkpt lat="44.45635" lon="10.4583133"><ele>651.3333333333334</ele><time>2026-04-06T09:05:23.992Z</time></trkpt><trkpt lat="44.4561883" lon="10.4581983"><ele>651.6666666666667</ele><time>2026-04-06T09:05:24.992Z</time></trkpt><trkpt lat="44.4560317" lon="10.4580817"><ele>652.0</ele><time>2026-04-06T09:05:25.993Z</time></trkpt><trkpt lat="44.4558683" lon="10.457955"><ele>652.0</ele><time>2026-04-06T09:05:26.993Z</time></trkpt><trkpt lat="44.4556983" lon="10.4578267"><ele>652.0</ele><time>2026-04-06T09:05:27.992Z</time></trkpt><trkpt lat="44.4555217" lon="10.4576917"><ele>652.0</ele><time>2026-04-06T09:05:28.992Z</time></trkpt><trkpt lat="44.45535" lon="10.4575533"><ele>652.0</ele><time>2026-04-06T09:05:29.992Z</time></trkpt><trkpt lat="44.4551667" lon="10.4574217"><ele>652.0</ele><time>2026-04-06T09:05:30.992Z</time></trkpt><trkpt lat="44.454985" lon="10.4572783"><ele>652.0</ele><time>2026-04-06T09:05:31.992Z</time></trkpt><trkpt lat="44.45481" lon="10.4571467"><ele>651.0</ele><time>2026-04-06T09:05:32.992Z</time></trkpt><trkpt lat="44.4546333" lon="10.45701"><ele>650.0</ele><time>2026-04-06T09:05:33.992Z</time></trkpt><trkpt lat="44.4544683" lon="10.4568667"><ele>649.0</ele><time>2026-04-06T09:05:34.993Z</time></trkpt><trkpt lat="44.4543067" lon="10.45673"><ele>648.3333333333334</ele><time>2026-04-06T09:05:35.992Z</time></trkpt><trkpt lat="44.4541567" lon="10.456605"><ele>647.6666666666666</ele><time>2026-04-06T09:05:36.993Z</time></trkpt><trkpt lat="44.4540233" lon="10.4564833"><ele>647.0</ele><time>2026-04-06T09:05:37.993Z</time></trkpt><trkpt lat="44.453895" lon="10.4563583"><ele>647.0</ele><time>2026-04-06T09:05:38.992Z</time></trkpt><trkpt lat="44.4537883" lon="10.4562483"><ele>647.0</ele><time>2026-04-06T09:05:39.992Z</time></trkpt><trkpt lat="44.4536983" lon="10.4561183"><ele>647.0</ele><time>2026-04-06T09:05:40.993Z</time></trkpt><trkpt lat="44.4536117" lon="10.4560283"><ele>647.0</ele><time>2026-04-06T09:05:41.993Z</time></trkpt><trkpt lat="44.45354" lon="10.45595"><ele>647.0</ele><time>2026-04-06T09:05:42.993Z</time></trkpt><trkpt lat="44.4534833" lon="10.4558617"><ele>647.0</ele><time>2026-04-06T09:05:43.992Z</time></trkpt><trkpt lat="44.4534517" lon="10.455765"><ele>647.0</ele><time>2026-04-06T09:05:44.992Z</time></trkpt><trkpt lat="44.45344" lon="10.45567"><ele>647.0</ele><time>2026-04-06T09:05:45.993Z</time></trkpt><trkpt lat="44.4534433" lon="10.45557"><ele>647.0</ele><time>2026-04-06T09:05:46.992Z</time></trkpt><trkpt lat="44.45345" lon="10.4554417"><ele>647.0</ele><time>2026-04-06T09:05:48.993Z</time></trkpt><trkpt lat="44.453345" lon="10.4554433"><ele>647.0</ele><time>2026-04-06T09:05:51.993Z</time></trkpt><trkpt lat="44.45327" lon="10.45547"><ele>647.0</ele><time>2026-04-06T09:05:52.992Z</time></trkpt><trkpt lat="44.45319" lon="10.45547"><ele>647.0</ele><time>2026-04-06T09:05:53.992Z</time></trkpt><trkpt lat="44.453105" lon="10.4554433"><ele>647.0</ele><time>2026-04-06T09:05:54.993Z</time></trkpt><trkpt lat="44.453005" lon="10.4553767"><ele>647.0</ele><time>2026-04-06T09:05:55.992Z</time></trkpt><trkpt lat="44.4529183" lon="10.45526"><ele>646.5</ele><time>2026-04-06T09:05:56.993Z</time></trkpt><trkpt lat="44.4528317" lon="10.45513"><ele>646.0</ele><time>2026-04-06T09:05:57.992Z</time></trkpt><trkpt lat="44.4527333" lon="10.4549933"><ele>645.5</ele><time>2026-04-06T09:05:58.992Z</time></trkpt><trkpt lat="44.4526283" lon="10.45485"><ele>645.0</ele><time>2026-04-06T09:05:59.992Z</time></trkpt><trkpt lat="44.4525317" lon="10.45469"><ele>643.6666666666666</ele><time>2026-04-06T09:06:00.992Z</time></trkpt><trkpt lat="44.4524333" lon="10.4544967"><ele>642.3333333333333</ele><time>2026-04-06T09:06:01.993Z</time></trkpt><trkpt lat="44.452335" lon="10.45429"><ele>641.0</ele><time>2026-04-06T09:06:02.993Z</time></trkpt><trkpt lat="44.4522383" lon="10.4540783"><ele>641.0</ele><time>2026-04-06T09:06:03.992Z</time></trkpt><trkpt lat="44.45213" lon="10.4538533"><ele>641.0</ele><time>2026-04-06T09:06:04.992Z</time></trkpt><trkpt lat="44.4520233" lon="10.4536317"><ele>641.0</ele><time>2026-04-06T09:06:05.992Z</time></trkpt><trkpt lat="44.451915" lon="10.4534017"><ele>641.0</ele><time>2026-04-06T09:06:06.992Z</time></trkpt><trkpt lat="44.451805" lon="10.4531783"><ele>641.0</ele><time>2026-04-06T09:06:07.992Z</time></trkpt><trkpt lat="44.4516967" lon="10.45294"><ele>641.0</ele><time>2026-04-06T09:06:08.992Z</time></trkpt><trkpt lat="44.4515883" lon="10.4526933"><ele>643.0</ele><time>2026-04-06T09:06:09.992Z</time></trkpt><trkpt lat="44.4514717" lon="10.4524517"><ele>645.0</ele><time>2026-04-06T09:06:10.992Z</time></trkpt><trkpt lat="44.4513667" lon="10.4521967"><ele>647.0</ele><time>2026-04-06T09:06:11.992Z</time></trkpt><trkpt lat="44.4512467" lon="10.4519383"><ele>647.0</ele><time>2026-04-06T09:06:12.992Z</time></trkpt><trkpt lat="44.4511233" lon="10.4516883"><ele>647.0</ele><time>2026-04-06T09:06:13.992Z</time></trkpt><trkpt lat="44.4509833" lon="10.451465"><ele>647.0</ele><time>2026-04-06T09:06:14.992Z</time></trkpt><trkpt lat="44.45085" lon="10.451235"><ele>648.0</ele><time>2026-04-06T09:06:15.992Z</time></trkpt><trkpt lat="44.4507" lon="10.4510217"><ele>649.0</ele><time>2026-04-06T09:06:16.992Z</time></trkpt><trkpt lat="44.4505417" lon="10.450815"><ele>650.0</ele><time>2026-04-06T09:06:17.993Z</time></trkpt><trkpt lat="44.4503833" lon="10.4506233"><ele>647.0</ele><time>2026-04-06T09:06:18.993Z</time></trkpt><trkpt lat="44.4502267" lon="10.4504483"><ele>644.0</ele><time>2026-04-06T09:06:19.993Z</time></trkpt><trkpt lat="44.4500833" lon="10.4503133"><ele>641.0</ele><time>2026-04-06T09:06:20.992Z</time></trkpt><trkpt lat="44.4499567" lon="10.4501933"><ele>641.0</ele><time>2026-04-06T09:06:21.993Z</time></trkpt><trkpt lat="44.4498317" lon="10.4500767"><ele>641.0</ele><time>2026-04-06T09:06:22.992Z</time></trkpt><trkpt lat="44.449695" lon="10.4499633"><ele>641.0</ele><time>2026-04-06T09:06:23.992Z</time></trkpt><trkpt lat="44.449545" lon="10.449855"><ele>640.3333333333333</ele><time>2026-04-06T09:06:24.992Z</time></trkpt><trkpt lat="44.4493867" lon="10.4497383"><ele>639.6666666666666</ele><time>2026-04-06T09:06:25.992Z</time></trkpt><trkpt lat="44.4492217" lon="10.4496117"><ele>639.0</ele><time>2026-04-06T09:06:26.992Z</time></trkpt><trkpt lat="44.4490483" lon="10.44948"><ele>639.0</ele><time>2026-04-06T09:06:27.992Z</time></trkpt><trkpt lat="44.4488667" lon="10.4493467"><ele>639.0</ele><time>2026-04-06T09:06:28.992Z</time></trkpt><trkpt lat="44.4486833" lon="10.449215"><ele>639.0</ele><time>2026-04-06T09:06:29.993Z</time></trkpt><trkpt lat="44.4484933" lon="10.4490917"><ele>641.6666666666666</ele><time>2026-04-06T09:06:30.992Z</time></trkpt><trkpt lat="44.448315" lon="10.4489717"><ele>644.3333333333333</ele><time>2026-04-06T09:06:31.992Z</time></trkpt><trkpt lat="44.4481317" lon="10.4488483"><ele>647.0</ele><time>2026-04-06T09:06:32.993Z</time></trkpt><trkpt lat="44.4479667" lon="10.4487367"><ele>639.3333333333333</ele><time>2026-04-06T09:06:33.993Z</time></trkpt><trkpt lat="44.44781" lon="10.44863"><ele>631.6666666666666</ele><time>2026-04-06T09:06:34.993Z</time></trkpt><trkpt lat="44.4476567" lon="10.4485317"><ele>624.0</ele><time>2026-04-06T09:06:35.993Z</time></trkpt><trkpt lat="44.4475117" lon="10.448435"><ele>624.0</ele><time>2026-04-06T09:06:36.993Z</time></trkpt><trkpt lat="44.44738" lon="10.448345"><ele>624.0</ele><time>2026-04-06T09:06:37.992Z</time></trkpt><trkpt lat="44.44726" lon="10.4482617"><ele>624.0</ele><time>2026-04-06T09:06:38.993Z</time></trkpt><trkpt lat="44.447155" lon="10.4481917"><ele>624.0</ele><time>2026-04-06T09:06:39.993Z</time></trkpt><trkpt lat="44.4470683" lon="10.4481167"><ele>624.8333333333334</ele><time>2026-04-06T09:06:40.993Z</time></trkpt><trkpt lat="44.4469967" lon="10.448045"><ele>625.6666666666666</ele><time>2026-04-06T09:06:41.992Z</time></trkpt><trkpt lat="44.4469433" lon="10.4479617"><ele>626.5</ele><time>2026-04-06T09:06:42.992Z</time></trkpt><trkpt lat="44.446905" lon="10.4478583"><ele>627.3333333333333</ele><time>2026-04-06T09:06:43.992Z</time></trkpt><trkpt lat="44.4468683" lon="10.4477817"><ele>628.1666666666666</ele><time>2026-04-06T09:06:44.992Z</time></trkpt><trkpt lat="44.4468117" lon="10.44774"><ele>629.0</ele><time>2026-04-06T09:06:45.993Z</time></trkpt><trkpt lat="44.4467267" lon="10.4477133"><ele>629.0</ele><time>2026-04-06T09:06:46.992Z</time></trkpt><trkpt lat="44.4466117" lon="10.4477033"><ele>629.0</ele><time>2026-04-06T09:06:47.992Z</time></trkpt><trkpt lat="44.4464883" lon="10.4476683"><ele>629.0</ele><time>2026-04-06T09:06:48.992Z</time></trkpt><trkpt lat="44.4463617" lon="10.4476033"><ele>629.0</ele><time>2026-04-06T09:06:49.992Z</time></trkpt><trkpt lat="44.44622" lon="10.447505"><ele>626.3333333333333</ele><time>2026-04-06T09:06:50.993Z</time></trkpt><trkpt lat="44.446075" lon="10.4474133"><ele>623.6666666666666</ele><time>2026-04-06T09:06:51.992Z</time></trkpt><trkpt lat="44.4459267" lon="10.4473133"><ele>621.0</ele><time>2026-04-06T09:06:52.993Z</time></trkpt><trkpt lat="44.44578" lon="10.4472183"><ele>623.6666666666666</ele><time>2026-04-06T09:06:53.992Z</time></trkpt><trkpt lat="44.445645" lon="10.447115"><ele>626.3333333333333</ele><time>2026-04-06T09:06:54.992Z</time></trkpt><trkpt lat="44.4455133" lon="10.4470167"><ele>629.0</ele><time>2026-04-06T09:06:55.992Z</time></trkpt><trkpt lat="44.4453817" lon="10.446925"><ele>629.0</ele><time>2026-04-06T09:06:56.992Z</time></trkpt><trkpt lat="44.4452517" lon="10.4468233"><ele>629.0</ele><time>2026-04-06T09:06:57.992Z</time></trkpt><trkpt lat="44.4451267" lon="10.4467017"><ele>629.0</ele><time>2026-04-06T09:06:58.992Z</time></trkpt><trkpt lat="44.44501" lon="10.4465633"><ele>629.0</ele><time>2026-04-06T09:06:59.992Z</time></trkpt><trkpt lat="44.4448983" lon="10.4464033"><ele>629.0</ele><time>2026-04-06T09:07:00.992Z</time></trkpt><trkpt lat="44.4447867" lon="10.4462367"><ele>629.0</ele><time>2026-04-06T09:07:01.992Z</time></trkpt><trkpt lat="44.4446817" lon="10.4460717"><ele>629.25</ele><time>2026-04-06T09:07:02.992Z</time></trkpt><trkpt lat="44.4445817" lon="10.4459117"><ele>629.5</ele><time>2026-04-06T09:07:03.993Z</time></trkpt><trkpt lat="44.4444833" lon="10.4457683"><ele>629.75</ele><time>2026-04-06T09:07:04.993Z</time></trkpt><trkpt lat="44.4443783" lon="10.4456367"><ele>630.0</ele><time>2026-04-06T09:07:05.992Z</time></trkpt><trkpt lat="44.44428" lon="10.4454883"><ele>631.3333333333334</ele><time>2026-04-06T09:07:06.992Z</time></trkpt><trkpt lat="44.44418" lon="10.445335"><ele>632.6666666666667</ele><time>2026-04-06T09:07:07.991Z</time></trkpt><trkpt lat="44.444075" lon="10.4451867"><ele>634.0</ele><time>2026-04-06T09:07:08.991Z</time></trkpt><trkpt lat="44.443965" lon="10.445035"><ele>634.0</ele><time>2026-04-06T09:07:09.992Z</time></trkpt><trkpt lat="44.443855" lon="10.4448717"><ele>634.0</ele><time>2026-04-06T09:07:10.991Z</time></trkpt><trkpt lat="44.443745" lon="10.4447033"><ele>634.0</ele><time>2026-04-06T09:07:11.991Z</time></trkpt><trkpt lat="44.4436267" lon="10.444535"><ele>633.6666666666667</ele><time>2026-04-06T09:07:12.991Z</time></trkpt><trkpt lat="44.4435017" lon="10.4443617"><ele>633.3333333333334</ele><time>2026-04-06T09:07:13.991Z</time></trkpt><trkpt lat="44.44338" lon="10.4441883"><ele>633.0</ele><time>2026-04-06T09:07:14.991Z</time></trkpt><trkpt lat="44.4432617" lon="10.4440133"><ele>633.0</ele><time>2026-04-06T09:07:15.991Z</time></trkpt><trkpt lat="44.4431433" lon="10.4438367"><ele>633.0</ele><time>2026-04-06T09:07:16.991Z</time></trkpt><trkpt lat="44.4430367" lon="10.4436683"><ele>633.0</ele><time>2026-04-06T09:07:17.991Z</time></trkpt><trkpt lat="44.442935" lon="10.4435067"><ele>632.75</ele><time>2026-04-06T09:07:18.991Z</time></trkpt><trkpt lat="44.44283" lon="10.4433633"><ele>632.5</ele><time>2026-04-06T09:07:19.992Z</time></trkpt><trkpt lat="44.4427183" lon="10.443245"><ele>632.25</ele><time>2026-04-06T09:07:20.991Z</time></trkpt><trkpt lat="44.4426" lon="10.4431383"><ele>632.0</ele><time>2026-04-06T09:07:21.991Z</time></trkpt><trkpt lat="44.44248" lon="10.4430417"><ele>632.0</ele><time>2026-04-06T09:07:22.992Z</time></trkpt><trkpt lat="44.4423617" lon="10.442965"><ele>632.0</ele><time>2026-04-06T09:07:23.991Z</time></trkpt><trkpt lat="44.44225" lon="10.44289"><ele>632.0</ele><time>2026-04-06T09:07:24.991Z</time></trkpt><trkpt lat="44.4421467" lon="10.4427933"><ele>632.0</ele><time>2026-04-06T09:07:25.991Z</time></trkpt><trkpt lat="44.442055" lon="10.4426817"><ele>632.75</ele><time>2026-04-06T09:07:26.991Z</time></trkpt><trkpt lat="44.44198" lon="10.4425333"><ele>633.5</ele><time>2026-04-06T09:07:27.992Z</time></trkpt><trkpt lat="44.4419217" lon="10.44237"><ele>634.25</ele><time>2026-04-06T09:07:28.991Z</time></trkpt><trkpt lat="44.441885" lon="10.44218"><ele>635.0</ele><time>2026-04-06T09:07:29.992Z</time></trkpt><trkpt lat="44.4418583" lon="10.441995"><ele>635.0</ele><time>2026-04-06T09:07:30.991Z</time></trkpt><trkpt lat="44.4418417" lon="10.4418167"><ele>635.0</ele><time>2026-04-06T09:07:31.992Z</time></trkpt><trkpt lat="44.4418133" lon="10.4416417"><ele>635.0</ele><time>2026-04-06T09:07:32.992Z</time></trkpt><trkpt lat="44.4417683" lon="10.441465"><ele>635.0</ele><time>2026-04-06T09:07:33.991Z</time></trkpt><trkpt lat="44.4416983" lon="10.4412883"><ele>637.0</ele><time>2026-04-06T09:07:34.991Z</time></trkpt><trkpt lat="44.4416083" lon="10.4411067"><ele>639.0</ele><time>2026-04-06T09:07:35.991Z</time></trkpt><trkpt lat="44.4415167" lon="10.44092"><ele>641.0</ele><time>2026-04-06T09:07:36.991Z</time></trkpt><trkpt lat="44.4414317" lon="10.44074"><ele>641.0</ele><time>2026-04-06T09:07:37.991Z</time></trkpt><trkpt lat="44.4413567" lon="10.44057"><ele>641.0</ele><time>2026-04-06T09:07:38.991Z</time></trkpt><trkpt lat="44.4412917" lon="10.4403867"><ele>641.0</ele><time>2026-04-06T09:07:39.991Z</time></trkpt><trkpt lat="44.4412383" lon="10.4401933"><ele>641.0</ele><time>2026-04-06T09:07:40.992Z</time></trkpt><trkpt lat="44.441205" lon="10.4399917"><ele>640.25</ele><time>2026-04-06T09:07:41.992Z</time></trkpt><trkpt lat="44.4411667" lon="10.439795"><ele>639.5</ele><time>2026-04-06T09:07:42.992Z</time></trkpt><trkpt lat="44.4411167" lon="10.4396117"><ele>638.75</ele><time>2026-04-06T09:07:43.991Z</time></trkpt><trkpt lat="44.44106" lon="10.4394467"><ele>638.0</ele><time>2026-04-06T09:07:44.992Z</time></trkpt><trkpt lat="44.4409983" lon="10.4392767"><ele>638.0</ele><time>2026-04-06T09:07:45.991Z</time></trkpt><trkpt lat="44.440925" lon="10.4391117"><ele>638.0</ele><time>2026-04-06T09:07:46.991Z</time></trkpt><trkpt lat="44.44084" lon="10.43893"><ele>638.0</ele><time>2026-04-06T09:07:47.991Z</time></trkpt><trkpt lat="44.44075" lon="10.43876"><ele>638.0</ele><time>2026-04-06T09:07:48.991Z</time></trkpt><trkpt lat="44.440665" lon="10.4385833"><ele>638.3333333333333</ele><time>2026-04-06T09:07:49.991Z</time></trkpt><trkpt lat="44.4405617" lon="10.4384217"><ele>638.6666666666666</ele><time>2026-04-06T09:07:50.991Z</time></trkpt><trkpt lat="44.4404517" lon="10.4382667"><ele>639.0</ele><time>2026-04-06T09:07:51.991Z</time></trkpt><trkpt lat="44.4403367" lon="10.4381217"><ele>639.0</ele><time>2026-04-06T09:07:52.991Z</time></trkpt><trkpt lat="44.440225" lon="10.4379817"><ele>639.0</ele><time>2026-04-06T09:07:53.991Z</time></trkpt><trkpt lat="44.4401083" lon="10.4378383"><ele>639.0</ele><time>2026-04-06T09:07:54.992Z</time></trkpt><trkpt lat="44.4399883" lon="10.437685"><ele>644.6666666666666</ele><time>2026-04-06T09:07:55.991Z</time></trkpt><trkpt lat="44.4398767" lon="10.4375383"><ele>650.3333333333333</ele><time>2026-04-06T09:07:56.991Z</time></trkpt><trkpt lat="44.4397717" lon="10.4373883"><ele>656.0</ele><time>2026-04-06T09:07:57.991Z</time></trkpt><trkpt lat="44.4396733" lon="10.437235"><ele>659.3333333333333</ele><time>2026-04-06T09:07:58.992Z</time></trkpt><trkpt lat="44.4395683" lon="10.4370883"><ele>662.6666666666666</ele><time>2026-04-06T09:07:59.991Z</time></trkpt><trkpt lat="44.4394633" lon="10.436945"><ele>666.0</ele><time>2026-04-06T09:08:00.992Z</time></trkpt><trkpt lat="44.4372083" lon="10.433495"><ele>667.25</ele><time>2026-04-06T09:08:23.992Z</time></trkpt><trkpt lat="44.4371583" lon="10.43333"><ele>668.5</ele><time>2026-04-06T09:08:24.992Z</time></trkpt><trkpt lat="44.4370983" lon="10.4331633"><ele>669.75</ele><time>2026-04-06T09:08:25.992Z</time></trkpt><trkpt lat="44.43706" lon="10.4329833"><ele>671.0</ele><time>2026-04-06T09:08:26.992Z</time></trkpt><trkpt lat="44.4370233" lon="10.4328117"><ele>668.8</ele><time>2026-04-06T09:08:27.992Z</time></trkpt><trkpt lat="44.4369967" lon="10.4326333"><ele>666.5999999999999</ele><time>2026-04-06T09:08:28.993Z</time></trkpt><trkpt lat="44.4369783" lon="10.4324667"><ele>664.4</ele><time>2026-04-06T09:08:29.992Z</time></trkpt><trkpt lat="44.4369633" lon="10.432325"><ele>662.2</ele><time>2026-04-06T09:08:30.993Z</time></trkpt><trkpt lat="44.4369567" lon="10.4322167"><ele>660.0</ele><time>2026-04-06T09:08:31.992Z</time></trkpt><trkpt lat="44.43694" lon="10.4320883"><ele>660.0</ele><time>2026-04-06T09:08:33.992Z</time></trkpt><trkpt lat="44.4369267" lon="10.431975"><ele>660.0</ele><time>2026-04-06T09:08:36.992Z</time></trkpt><trkpt lat="44.43693" lon="10.4318517"><ele>660.0</ele><time>2026-04-06T09:08:40.993Z</time></trkpt><trkpt lat="44.4369267" lon="10.4317417"><ele>660.0</ele><time>2026-04-06T09:08:42.992Z</time></trkpt><trkpt lat="44.4369133" lon="10.4315933"><ele>660.0</ele><time>2026-04-06T09:08:44.993Z</time></trkpt><trkpt lat="44.4369083" lon="10.431445"><ele>660.0</ele><time>2026-04-06T09:08:46.992Z</time></trkpt><trkpt lat="44.4369267" lon="10.4313167"><ele>660.0</ele><time>2026-04-06T09:08:48.992Z</time></trkpt><trkpt lat="44.436985" lon="10.43125"><ele>660.0</ele><time>2026-04-06T09:08:51.992Z</time></trkpt><trkpt lat="44.43707" lon="10.4312917"><ele>660.0</ele><time>2026-04-06T09:08:53.992Z</time></trkpt><trkpt lat="44.4371583" lon="10.4313367"><ele>660.0</ele><time>2026-04-06T09:09:03.992Z</time></trkpt><trkpt lat="44.43724" lon="10.4313967"><ele>660.0</ele><time>2026-04-06T09:09:05.992Z</time></trkpt><trkpt lat="44.4373467" lon="10.4314067"><ele>662.3333333333334</ele><time>2026-04-06T09:09:07.992Z</time></trkpt><trkpt lat="44.437425" lon="10.4313817"><ele>664.6666666666666</ele><time>2026-04-06T09:09:09.992Z</time></trkpt><trkpt lat="44.437455" lon="10.43127"><ele>667.0</ele><time>2026-04-06T09:09:13.993Z</time></trkpt><trkpt lat="44.437435" lon="10.431115"><ele>669.3333333333333</ele><time>2026-04-06T09:09:15.992Z</time></trkpt><trkpt lat="44.4374283" lon="10.4310167"><ele>671.6666666666666</ele><time>2026-04-06T09:09:16.992Z</time></trkpt><trkpt lat="44.43741" lon="10.4308783"><ele>674.0</ele><time>2026-04-06T09:09:18.992Z</time></trkpt><trkpt lat="44.437395" lon="10.4307917"><ele>674.0</ele><time>2026-04-06T09:09:20.993Z</time></trkpt><trkpt lat="44.4373733" lon="10.4307"><ele>674.0</ele><time>2026-04-06T09:09:22.992Z</time></trkpt><trkpt lat="44.4373267" lon="10.4305483"><ele>674.0</ele><time>2026-04-06T09:09:24.992Z</time></trkpt><trkpt lat="44.4372917" lon="10.4304433"><ele>674.0</ele><time>2026-04-06T09:09:25.992Z</time></trkpt><trkpt lat="44.437255" lon="10.4303383"><ele>674.0</ele><time>2026-04-06T09:09:26.992Z</time></trkpt><trkpt lat="44.4372117" lon="10.430225"><ele>674.0</ele><time>2026-04-06T09:09:27.992Z</time></trkpt><trkpt lat="44.4371567" lon="10.4301017"><ele>673.0</ele><time>2026-04-06T09:09:28.993Z</time></trkpt><trkpt lat="44.4371" lon="10.429975"><ele>672.0</ele><time>2026-04-06T09:09:29.992Z</time></trkpt><trkpt lat="44.4370483" lon="10.4298533"><ele>671.0</ele><time>2026-04-06T09:09:30.993Z</time></trkpt><trkpt lat="44.4370067" lon="10.4297267"><ele>670.0</ele><time>2026-04-06T09:09:31.992Z</time></trkpt><trkpt lat="44.4369633" lon="10.4296017"><ele>669.0</ele><time>2026-04-06T09:09:32.993Z</time></trkpt><trkpt lat="44.43693" lon="10.429475"><ele>669.0</ele><time>2026-04-06T09:09:33.992Z</time></trkpt><trkpt lat="44.4369067" lon="10.4293517"><ele>669.0</ele><time>2026-04-06T09:09:34.992Z</time></trkpt><trkpt lat="44.4368917" lon="10.429235"><ele>669.0</ele><time>2026-04-06T09:09:35.992Z</time></trkpt><trkpt lat="44.4368817" lon="10.4291133"><ele>669.0</ele><time>2026-04-06T09:09:36.993Z</time></trkpt><trkpt lat="44.4368733" lon="10.4289917"><ele>669.0</ele><time>2026-04-06T09:09:37.993Z</time></trkpt><trkpt lat="44.4368683" lon="10.4288733"><ele>669.0</ele><time>2026-04-06T09:09:38.992Z</time></trkpt><trkpt lat="44.4368683" lon="10.42876"><ele>669.0</ele><time>2026-04-06T09:09:39.992Z</time></trkpt><trkpt lat="44.4368683" lon="10.4286483"><ele>669.0</ele><time>2026-04-06T09:09:40.992Z</time></trkpt><trkpt lat="44.4368717" lon="10.4285383"><ele>669.0</ele><time>2026-04-06T09:09:41.992Z</time></trkpt><trkpt lat="44.4368717" lon="10.4284183"><ele>669.0</ele><time>2026-04-06T09:09:42.993Z</time></trkpt><trkpt lat="44.436875" lon="10.4282867"><ele>669.0</ele><time>2026-04-06T09:09:43.992Z</time></trkpt><trkpt lat="44.4368617" lon="10.4281567"><ele>669.0</ele><time>2026-04-06T09:09:44.992Z</time></trkpt><trkpt lat="44.4368467" lon="10.4280217"><ele>668.4000000000001</ele><time>2026-04-06T09:09:45.992Z</time></trkpt><trkpt lat="44.4368383" lon="10.4278783"><ele>667.8</ele><time>2026-04-06T09:09:46.992Z</time></trkpt><trkpt lat="44.4368283" lon="10.4277317"><ele>667.2</ele><time>2026-04-06T09:09:47.992Z</time></trkpt><trkpt lat="44.4368167" lon="10.42759"><ele>666.5999999999999</ele><time>2026-04-06T09:09:48.992Z</time></trkpt><trkpt lat="44.4368033" lon="10.42744"><ele>666.0</ele><time>2026-04-06T09:09:49.993Z</time></trkpt><trkpt lat="44.4367733" lon="10.427305"><ele>666.0</ele><time>2026-04-06T09:09:50.992Z</time></trkpt><trkpt lat="44.4367417" lon="10.4271667"><ele>666.0</ele><time>2026-04-06T09:09:51.992Z</time></trkpt><trkpt lat="44.436705" lon="10.4270217"><ele>666.0</ele><time>2026-04-06T09:09:52.992Z</time></trkpt><trkpt lat="44.43667" lon="10.42688"><ele>666.0</ele><time>2026-04-06T09:09:53.992Z</time></trkpt><trkpt lat="44.436635" lon="10.426745"><ele>666.0</ele><time>2026-04-06T09:09:54.992Z</time></trkpt><trkpt lat="44.4366017" lon="10.4266017"><ele>665.1999999999999</ele><time>2026-04-06T09:09:55.992Z</time></trkpt><trkpt lat="44.43657" lon="10.4264633"><ele>664.4</ele><time>2026-04-06T09:09:56.992Z</time></trkpt><trkpt lat="44.4365317" lon="10.4263367"><ele>663.6</ele><time>2026-04-06T09:09:57.992Z</time></trkpt><trkpt lat="44.4364883" lon="10.4262133"><ele>662.8</ele><time>2026-04-06T09:09:58.992Z</time></trkpt><trkpt lat="44.4364333" lon="10.4261133"><ele>662.0</ele><time>2026-04-06T09:09:59.992Z</time></trkpt><trkpt lat="44.43635" lon="10.42603"><ele>661.6666666666666</ele><time>2026-04-06T09:10:00.992Z</time></trkpt><trkpt lat="44.436255" lon="10.425985"><ele>661.3333333333333</ele><time>2026-04-06T09:10:01.993Z</time></trkpt><trkpt lat="44.4361683" lon="10.4259583"><ele>661.0</ele><time>2026-04-06T09:10:02.992Z</time></trkpt><trkpt lat="44.4360917" lon="10.42593"><ele>660.6666666666666</ele><time>2026-04-06T09:10:03.992Z</time></trkpt><trkpt lat="44.4360167" lon="10.4258967"><ele>660.3333333333334</ele><time>2026-04-06T09:10:04.992Z</time></trkpt><trkpt lat="44.4359467" lon="10.425875"><ele>660.0</ele><time>2026-04-06T09:10:05.992Z</time></trkpt><trkpt lat="44.4358533" lon="10.4258417"><ele>660.0</ele><time>2026-04-06T09:10:07.992Z</time></trkpt><trkpt lat="44.4357883" lon="10.4258083"><ele>660.0</ele><time>2026-04-06T09:10:11.992Z</time></trkpt><trkpt lat="44.43569" lon="10.42572"><ele>660.0</ele><time>2026-04-06T09:10:13.993Z</time></trkpt><trkpt lat="44.4356383" lon="10.42564"><ele>660.0</ele><time>2026-04-06T09:10:14.992Z</time></trkpt><trkpt lat="44.4355867" lon="10.425565"><ele>660.0</ele><time>2026-04-06T09:10:15.993Z</time></trkpt><trkpt lat="44.435535" lon="10.42548"><ele>660.0</ele><time>2026-04-06T09:10:16.992Z</time></trkpt><trkpt lat="44.435495" lon="10.4253867"><ele>660.8571428571429</ele><time>2026-04-06T09:10:17.992Z</time></trkpt><trkpt lat="44.43547" lon="10.42529"><ele>661.7142857142858</ele><time>2026-04-06T09:10:18.992Z</time></trkpt><trkpt lat="44.43546" lon="10.4251967"><ele>662.5714285714287</ele><time>2026-04-06T09:10:19.992Z</time></trkpt><trkpt lat="44.4354533" lon="10.4251033"><ele>663.4285714285714</ele><time>2026-04-06T09:10:20.992Z</time></trkpt><trkpt lat="44.43544" lon="10.4250067"><ele>664.2857142857142</ele><time>2026-04-06T09:10:21.992Z</time></trkpt><trkpt lat="44.4354" lon="10.4249283"><ele>665.1428571428572</ele><time>2026-04-06T09:10:22.992Z</time></trkpt><trkpt lat="44.4353417" lon="10.424875"><ele>666.0</ele><time>2026-04-06T09:10:23.992Z</time></trkpt><trkpt lat="44.4352767" lon="10.424815"><ele>666.0</ele><time>2026-04-06T09:10:24.993Z</time></trkpt><trkpt lat="44.4352233" lon="10.4247383"><ele>666.0</ele><time>2026-04-06T09:10:25.992Z</time></trkpt><trkpt lat="44.4351983" lon="10.4246517"><ele>666.0</ele><time>2026-04-06T09:10:26.992Z</time></trkpt><trkpt lat="44.435205" lon="10.42455"><ele>666.0</ele><time>2026-04-06T09:10:27.992Z</time></trkpt><trkpt lat="44.4352367" lon="10.4244183"><ele>666.0</ele><time>2026-04-06T09:10:28.992Z</time></trkpt><trkpt lat="44.4352617" lon="10.4242833"><ele>666.0</ele><time>2026-04-06T09:10:29.992Z</time></trkpt><trkpt lat="44.4352417" lon="10.4241383"><ele>668.0</ele><time>2026-04-06T09:10:30.992Z</time></trkpt><trkpt lat="44.4352083" lon="10.423975"><ele>670.0</ele><time>2026-04-06T09:10:31.993Z</time></trkpt><trkpt lat="44.4351583" lon="10.423805"><ele>672.0</ele><time>2026-04-06T09:10:32.992Z</time></trkpt><trkpt lat="44.43511" lon="10.42363"><ele>674.0</ele><time>2026-04-06T09:10:33.993Z</time></trkpt><trkpt lat="44.435065" lon="10.423455"><ele>674.0</ele><time>2026-04-06T09:10:34.993Z</time></trkpt><trkpt lat="44.435015" lon="10.4232783"><ele>674.0</ele><time>2026-04-06T09:10:35.993Z</time></trkpt><trkpt lat="44.43496" lon="10.4230833"><ele>674.0</ele><time>2026-04-06T09:10:36.992Z</time></trkpt><trkpt lat="44.4349067" lon="10.4229117"><ele>674.0</ele><time>2026-04-06T09:10:37.992Z</time></trkpt><trkpt lat="44.4348383" lon="10.4227617"><ele>673.0</ele><time>2026-04-06T09:10:38.992Z</time></trkpt><trkpt lat="44.4347517" lon="10.4226233"><ele>672.0</ele><time>2026-04-06T09:10:39.992Z</time></trkpt><trkpt lat="44.4346433" lon="10.4225067"><ele>671.0</ele><time>2026-04-06T09:10:40.992Z</time></trkpt><trkpt lat="44.434515" lon="10.4224117"><ele>670.0</ele><time>2026-04-06T09:10:41.992Z</time></trkpt><trkpt lat="44.434395" lon="10.4223083"><ele>672.5</ele><time>2026-04-06T09:10:42.992Z</time></trkpt><trkpt lat="44.434275" lon="10.4222083"><ele>675.0</ele><time>2026-04-06T09:10:43.992Z</time></trkpt><trkpt lat="44.4341617" lon="10.42212"><ele>677.5</ele><time>2026-04-06T09:10:44.992Z</time></trkpt><trkpt lat="44.4340733" lon="10.422025"><ele>680.0</ele><time>2026-04-06T09:10:45.993Z</time></trkpt><trkpt lat="44.43401" lon="10.4219233"><ele>680.0</ele><time>2026-04-06T09:10:46.992Z</time></trkpt><trkpt lat="44.43397" lon="10.421795"><ele>680.0</ele><time>2026-04-06T09:10:47.992Z</time></trkpt><trkpt lat="44.433975" lon="10.421655"><ele>680.0</ele><time>2026-04-06T09:10:48.993Z</time></trkpt><trkpt lat="44.4340333" lon="10.421515"><ele>680.0</ele><time>2026-04-06T09:10:49.992Z</time></trkpt><trkpt lat="44.4341167" lon="10.42141"><ele>680.0</ele><time>2026-04-06T09:10:50.992Z</time></trkpt><trkpt lat="44.434195" lon="10.4213133"><ele>680.5</ele><time>2026-04-06T09:10:51.993Z</time></trkpt><trkpt lat="44.4342517" lon="10.4212183"><ele>681.0</ele><time>2026-04-06T09:10:52.992Z</time></trkpt><trkpt lat="44.4342833" lon="10.4211233"><ele>681.5</ele><time>2026-04-06T09:10:53.993Z</time></trkpt><trkpt lat="44.4342883" lon="10.4210183"><ele>682.0</ele><time>2026-04-06T09:10:54.993Z</time></trkpt><trkpt lat="44.4342583" lon="10.4209317"><ele>682.5</ele><time>2026-04-06T09:10:55.992Z</time></trkpt><trkpt lat="44.4341867" lon="10.4208867"><ele>683.0</ele><time>2026-04-06T09:10:56.992Z</time></trkpt><trkpt lat="44.4341033" lon="10.4209033"><ele>683.0</ele><time>2026-04-06T09:10:57.992Z</time></trkpt><trkpt lat="44.43401" lon="10.4209717"><ele>683.0</ele><time>2026-04-06T09:10:58.993Z</time></trkpt><trkpt lat="44.4339" lon="10.4210733"><ele>683.0</ele><time>2026-04-06T09:10:59.992Z</time></trkpt><trkpt lat="44.433795" lon="10.421175"><ele>683.0</ele><time>2026-04-06T09:11:00.993Z</time></trkpt><trkpt lat="44.4336933" lon="10.4212517"><ele>686.4</ele><time>2026-04-06T09:11:01.992Z</time></trkpt><trkpt lat="44.4336" lon="10.4212817"><ele>689.8</ele><time>2026-04-06T09:11:02.993Z</time></trkpt><trkpt lat="44.4335117" lon="10.4212483"><ele>693.2</ele><time>2026-04-06T09:11:03.992Z</time></trkpt><trkpt lat="44.4334517" lon="10.4211433"><ele>696.6</ele><time>2026-04-06T09:11:04.993Z</time></trkpt><trkpt lat="44.4334267" lon="10.420985"><ele>700.0</ele><time>2026-04-06T09:11:05.993Z</time></trkpt><trkpt lat="44.4334" lon="10.420805"><ele>700.0</ele><time>2026-04-06T09:11:06.992Z</time></trkpt><trkpt lat="44.4333733" lon="10.420635"><ele>700.0</ele><time>2026-04-06T09:11:07.992Z</time></trkpt><trkpt lat="44.4333383" lon="10.420455"><ele>700.0</ele><time>2026-04-06T09:11:08.992Z</time></trkpt><trkpt lat="44.4333" lon="10.4202767"><ele>700.0</ele><time>2026-04-06T09:11:09.993Z</time></trkpt><trkpt lat="44.4332567" lon="10.4200967"><ele>700.3333333333334</ele><time>2026-04-06T09:11:10.992Z</time></trkpt><trkpt lat="44.4332217" lon="10.4198983"><ele>700.6666666666666</ele><time>2026-04-06T09:11:11.992Z</time></trkpt><trkpt lat="44.433195" lon="10.4196933"><ele>701.0</ele><time>2026-04-06T09:11:12.993Z</time></trkpt><trkpt lat="44.4331817" lon="10.419475"><ele>701.6666666666666</ele><time>2026-04-06T09:11:13.992Z</time></trkpt><trkpt lat="44.4331533" lon="10.41927"><ele>702.3333333333334</ele><time>2026-04-06T09:11:14.993Z</time></trkpt><trkpt lat="44.4331183" lon="10.4190617"><ele>703.0</ele><time>2026-04-06T09:11:15.992Z</time></trkpt><trkpt lat="44.433055" lon="10.4188567"><ele>702.6666666666667</ele><time>2026-04-06T09:11:16.992Z</time></trkpt><trkpt lat="44.4329767" lon="10.41866"><ele>702.3333333333334</ele><time>2026-04-06T09:11:17.992Z</time></trkpt><trkpt lat="44.432895" lon="10.4184667"><ele>702.0</ele><time>2026-04-06T09:11:18.992Z</time></trkpt><trkpt lat="44.4328167" lon="10.418265"><ele>706.6666666666666</ele><time>2026-04-06T09:11:19.992Z</time></trkpt><trkpt lat="44.4327267" lon="10.41807"><ele>711.3333333333333</ele><time>2026-04-06T09:11:20.992Z</time></trkpt><trkpt lat="44.432635" lon="10.41789"><ele>716.0</ele><time>2026-04-06T09:11:21.992Z</time></trkpt><trkpt lat="44.4325317" lon="10.4177117"><ele>716.0</ele><time>2026-04-06T09:11:22.992Z</time></trkpt><trkpt lat="44.4324033" lon="10.417555"><ele>716.0</ele><time>2026-04-06T09:11:23.992Z</time></trkpt><trkpt lat="44.4322633" lon="10.41743"><ele>716.0</ele><time>2026-04-06T09:11:24.993Z</time></trkpt><trkpt lat="44.4321283" lon="10.417315"><ele>718.5</ele><time>2026-04-06T09:11:25.993Z</time></trkpt><trkpt lat="44.4320133" lon="10.4172017"><ele>721.0</ele><time>2026-04-06T09:11:26.992Z</time></trkpt><trkpt lat="44.431925" lon="10.417075"><ele>723.5</ele><time>2026-04-06T09:11:27.993Z</time></trkpt><trkpt lat="44.4318567" lon="10.4169333"><ele>726.0</ele><time>2026-04-06T09:11:28.992Z</time></trkpt><trkpt lat="44.431825" lon="10.4167667"><ele>726.5</ele><time>2026-04-06T09:11:29.992Z</time></trkpt><trkpt lat="44.4318183" lon="10.41657"><ele>727.0</ele><time>2026-04-06T09:11:30.992Z</time></trkpt><trkpt lat="44.4318217" lon="10.4163683"><ele>727.5</ele><time>2026-04-06T09:11:31.992Z</time></trkpt><trkpt lat="44.4318233" lon="10.41617"><ele>728.0</ele><time>2026-04-06T09:11:32.992Z</time></trkpt><trkpt lat="44.4318333" lon="10.4159733"><ele>728.5</ele><time>2026-04-06T09:11:33.992Z</time></trkpt><trkpt lat="44.4318317" lon="10.4157683"><ele>729.0</ele><time>2026-04-06T09:11:34.992Z</time></trkpt><trkpt lat="44.431835" lon="10.4155633"><ele>729.5</ele><time>2026-04-06T09:11:35.992Z</time></trkpt><trkpt lat="44.4318367" lon="10.4153583"><ele>730.0</ele><time>2026-04-06T09:11:36.992Z</time></trkpt><trkpt lat="44.43183" lon="10.415145"><ele>730.25</ele><time>2026-04-06T09:11:37.993Z</time></trkpt><trkpt lat="44.4318283" lon="10.4149383"><ele>730.5</ele><time>2026-04-06T09:11:38.992Z</time></trkpt><trkpt lat="44.4318283" lon="10.4147383"><ele>730.75</ele><time>2026-04-06T09:11:39.992Z</time></trkpt><trkpt lat="44.4318283" lon="10.41454"><ele>731.0</ele><time>2026-04-06T09:11:40.992Z</time></trkpt><trkpt lat="44.4318267" lon="10.4143317"><ele>731.0</ele><time>2026-04-06T09:11:41.993Z</time></trkpt><trkpt lat="44.4318317" lon="10.4141183"><ele>731.0</ele><time>2026-04-06T09:11:42.992Z</time></trkpt><trkpt lat="44.4318283" lon="10.413905"><ele>731.0</ele><time>2026-04-06T09:11:43.992Z</time></trkpt><trkpt lat="44.4318333" lon="10.4136867"><ele>730.3333333333333</ele><time>2026-04-06T09:11:44.993Z</time></trkpt><trkpt lat="44.4318367" lon="10.4134633"><ele>729.6666666666666</ele><time>2026-04-06T09:11:45.992Z</time></trkpt><trkpt lat="44.4318417" lon="10.413245"><ele>729.0</ele><time>2026-04-06T09:11:46.992Z</time></trkpt><trkpt lat="44.4318517" lon="10.4130217"><ele>728.6666666666666</ele><time>2026-04-06T09:11:47.992Z</time></trkpt><trkpt lat="44.43186" lon="10.41281"><ele>728.3333333333333</ele><time>2026-04-06T09:11:48.993Z</time></trkpt><trkpt lat="44.431875" lon="10.4125983"><ele>728.0</ele><time>2026-04-06T09:11:49.993Z</time></trkpt><trkpt lat="44.4318983" lon="10.4123867"><ele>728.0</ele><time>2026-04-06T09:11:50.992Z</time></trkpt><trkpt lat="44.43193" lon="10.4121867"><ele>728.0</ele><time>2026-04-06T09:11:51.992Z</time></trkpt><trkpt lat="44.4319683" lon="10.4119883"><ele>728.0</ele><time>2026-04-06T09:11:52.992Z</time></trkpt><trkpt lat="44.4320083" lon="10.4118017"><ele>728.0</ele><time>2026-04-06T09:11:53.992Z</time></trkpt><trkpt lat="44.432055" lon="10.411625"><ele>728.0</ele><time>2026-04-06T09:11:54.992Z</time></trkpt><trkpt lat="44.432095" lon="10.4114617"><ele>728.0</ele><time>2026-04-06T09:11:55.992Z</time></trkpt><trkpt lat="44.43213" lon="10.411315"><ele>728.0</ele><time>2026-04-06T09:11:56.993Z</time></trkpt><trkpt lat="44.4321633" lon="10.4111833"><ele>728.0</ele><time>2026-04-06T09:11:57.992Z</time></trkpt><trkpt lat="44.4322" lon="10.411075"><ele>728.0</ele><time>2026-04-06T09:11:58.992Z</time></trkpt><trkpt lat="44.4322283" lon="10.410995"><ele>726.4</ele><time>2026-04-06T09:11:59.992Z</time></trkpt><trkpt lat="44.43229" lon="10.4108983"><ele>724.8</ele><time>2026-04-06T09:12:01.992Z</time></trkpt><trkpt lat="44.4323633" lon="10.4108167"><ele>723.2</ele><time>2026-04-06T09:12:03.993Z</time></trkpt><trkpt lat="44.4324283" lon="10.4107533"><ele>721.6</ele><time>2026-04-06T09:12:05.993Z</time></trkpt><trkpt lat="44.4324533" lon="10.41064"><ele>720.0</ele><time>2026-04-06T09:12:07.992Z</time></trkpt><trkpt lat="44.43245" lon="10.41048"><ele>720.0</ele><time>2026-04-06T09:12:09.992Z</time></trkpt><trkpt lat="44.432455" lon="10.4103817"><ele>720.0</ele><time>2026-04-06T09:12:10.992Z</time></trkpt><trkpt lat="44.4324667" lon="10.410275"><ele>720.0</ele><time>2026-04-06T09:12:11.993Z</time></trkpt><trkpt lat="44.432485" lon="10.4101767"><ele>720.0</ele><time>2026-04-06T09:12:12.992Z</time></trkpt><trkpt lat="44.4325033" lon="10.41007"><ele>720.0</ele><time>2026-04-06T09:12:13.992Z</time></trkpt><trkpt lat="44.4325317" lon="10.4099583"><ele>720.0</ele><time>2026-04-06T09:12:14.992Z</time></trkpt><trkpt lat="44.432555" lon="10.4098433"><ele>720.0</ele><time>2026-04-06T09:12:15.993Z</time></trkpt><trkpt lat="44.4325833" lon="10.4097233"><ele>720.0</ele><time>2026-04-06T09:12:16.992Z</time></trkpt><trkpt lat="44.432615" lon="10.4096067"><ele>720.0</ele><time>2026-04-06T09:12:17.992Z</time></trkpt><trkpt lat="44.432645" lon="10.4094933"><ele>720.0</ele><time>2026-04-06T09:12:18.992Z</time></trkpt><trkpt lat="44.4326783" lon="10.4093733"><ele>720.0</ele><time>2026-04-06T09:12:19.992Z</time></trkpt><trkpt lat="44.4327067" lon="10.4092583"><ele>720.0</ele><time>2026-04-06T09:12:20.992Z</time></trkpt><trkpt lat="44.4327383" lon="10.4091383"><ele>719.6</ele><time>2026-04-06T09:12:21.992Z</time></trkpt><trkpt lat="44.432775" lon="10.4090183"><ele>719.2</ele><time>2026-04-06T09:12:22.992Z</time></trkpt><trkpt lat="44.43281" lon="10.4088983"><ele>718.8</ele><time>2026-04-06T09:12:23.993Z</time></trkpt><trkpt lat="44.43285" lon="10.40878"><ele>718.4</ele><time>2026-04-06T09:12:24.992Z</time></trkpt><trkpt lat="44.4328933" lon="10.408665"><ele>718.0</ele><time>2026-04-06T09:12:25.992Z</time></trkpt><trkpt lat="44.432935" lon="10.4085667"><ele>715.8333333333334</ele><time>2026-04-06T09:12:26.992Z</time></trkpt><trkpt lat="44.4329783" lon="10.40848"><ele>713.6666666666667</ele><time>2026-04-06T09:12:27.992Z</time></trkpt><trkpt lat="44.4330167" lon="10.408405"><ele>711.5</ele><time>2026-04-06T09:12:28.993Z</time></trkpt><trkpt lat="44.4330633" lon="10.40834"><ele>709.3333333333334</ele><time>2026-04-06T09:12:29.992Z</time></trkpt><trkpt lat="44.43312" lon="10.4082867"><ele>707.1666666666666</ele><time>2026-04-06T09:12:30.993Z</time></trkpt><trkpt lat="44.43318" lon="10.4082383"><ele>705.0</ele><time>2026-04-06T09:12:31.992Z</time></trkpt><trkpt lat="44.4332867" lon="10.4081683"><ele>705.0</ele><time>2026-04-06T09:12:33.992Z</time></trkpt><trkpt lat="44.4333733" lon="10.4081133"><ele>705.0</ele><time>2026-04-06T09:12:35.993Z</time></trkpt><trkpt lat="44.43346" lon="10.4080667"><ele>705.0</ele><time>2026-04-06T09:12:38.992Z</time></trkpt><trkpt lat="44.4335217" lon="10.4080367"><ele>705.0</ele><time>2026-04-06T09:12:40.992Z</time></trkpt><trkpt lat="44.4336033" lon="10.4080117"><ele>705.0</ele><time>2026-04-06T09:12:42.992Z</time></trkpt><trkpt lat="44.4336667" lon="10.408"><ele>705.0</ele><time>2026-04-06T09:12:43.992Z</time></trkpt><trkpt lat="44.4337417" lon="10.4079867"><ele>704.3333333333334</ele><time>2026-04-06T09:12:44.992Z</time></trkpt><trkpt lat="44.4338217" lon="10.40796"><ele>703.6666666666666</ele><time>2026-04-06T09:12:45.992Z</time></trkpt><trkpt lat="44.4339" lon="10.40792"><ele>703.0</ele><time>2026-04-06T09:12:46.992Z</time></trkpt><trkpt lat="44.4339717" lon="10.4078717"><ele>702.3333333333333</ele><time>2026-04-06T09:12:47.993Z</time></trkpt><trkpt lat="44.434045" lon="10.407825"><ele>701.6666666666666</ele><time>2026-04-06T09:12:48.992Z</time></trkpt><trkpt lat="44.4341133" lon="10.407775"><ele>701.0</ele><time>2026-04-06T09:12:49.992Z</time></trkpt><trkpt lat="44.4341883" lon="10.4077317"><ele>701.0</ele><time>2026-04-06T09:12:50.992Z</time></trkpt><trkpt lat="44.434255" lon="10.40767"><ele>701.0</ele><time>2026-04-06T09:12:51.993Z</time></trkpt><trkpt lat="44.434305" lon="10.407585"><ele>701.0</ele><time>2026-04-06T09:12:52.992Z</time></trkpt><trkpt lat="44.4343433" lon="10.407495"><ele>701.0</ele><time>2026-04-06T09:12:53.992Z</time></trkpt><trkpt lat="44.43438" lon="10.407415"><ele>701.0</ele><time>2026-04-06T09:12:54.992Z</time></trkpt><trkpt lat="44.43442" lon="10.40733"><ele>701.0</ele><time>2026-04-06T09:12:55.992Z</time></trkpt><trkpt lat="44.4344567" lon="10.407255"><ele>701.0</ele><time>2026-04-06T09:12:56.993Z</time></trkpt><trkpt lat="44.4345133" lon="10.4071233"><ele>700.6666666666666</ele><time>2026-04-06T09:12:58.992Z</time></trkpt><trkpt lat="44.4345667" lon="10.4070467"><ele>700.3333333333333</ele><time>2026-04-06T09:13:07.992Z</time></trkpt><trkpt lat="44.434615" lon="10.4069517"><ele>700.0</ele><time>2026-04-06T09:13:10.993Z</time></trkpt><trkpt lat="44.4346767" lon="10.4068333"><ele>699.6666666666666</ele><time>2026-04-06T09:13:12.992Z</time></trkpt><trkpt lat="44.4347117" lon="10.4067583"><ele>699.3333333333334</ele><time>2026-04-06T09:13:13.993Z</time></trkpt><trkpt lat="44.4347583" lon="10.4066733"><ele>699.0</ele><time>2026-04-06T09:13:14.992Z</time></trkpt><trkpt lat="44.4348017" lon="10.4065883"><ele>699.0</ele><time>2026-04-06T09:13:15.992Z</time></trkpt><trkpt lat="44.4348433" lon="10.4065"><ele>699.0</ele><time>2026-04-06T09:13:16.992Z</time></trkpt><trkpt lat="44.4348783" lon="10.40641"><ele>699.0</ele><time>2026-04-06T09:13:17.992Z</time></trkpt><trkpt lat="44.43492" lon="10.4063333"><ele>699.0</ele><time>2026-04-06T09:13:18.992Z</time></trkpt><trkpt lat="44.4349867" lon="10.4062"><ele>699.0</ele><time>2026-04-06T09:13:20.992Z</time></trkpt><trkpt lat="44.4350533" lon="10.4060817"><ele>699.0</ele><time>2026-04-06T09:13:22.992Z</time></trkpt><trkpt lat="44.4351167" lon="10.4059933"><ele>699.0</ele><time>2026-04-06T09:13:24.992Z</time></trkpt><trkpt lat="44.43517" lon="10.4059233"><ele>699.0</ele><time>2026-04-06T09:13:26.992Z</time></trkpt><trkpt lat="44.4352283" lon="10.4058417"><ele>699.0</ele><time>2026-04-06T09:13:28.992Z</time></trkpt><trkpt lat="44.4353017" lon="10.4057567"><ele>699.0</ele><time>2026-04-06T09:13:30.993Z</time></trkpt><trkpt lat="44.4353733" lon="10.4056417"><ele>699.0</ele><time>2026-04-06T09:13:32.993Z</time></trkpt><trkpt lat="44.4354383" lon="10.4055533"><ele>699.0</ele><time>2026-04-06T09:13:34.992Z</time></trkpt><trkpt lat="44.4354983" lon="10.4054617"><ele>699.0</ele><time>2026-04-06T09:13:36.992Z</time></trkpt><trkpt lat="44.4355717" lon="10.40536"><ele>699.0</ele><time>2026-04-06T09:13:38.993Z</time></trkpt><trkpt lat="44.4356433" lon="10.40527"><ele>699.0</ele><time>2026-04-06T09:13:40.993Z</time></trkpt><trkpt lat="44.435705" lon="10.40516"><ele>699.0</ele><time>2026-04-06T09:13:42.992Z</time></trkpt><trkpt lat="44.435765" lon="10.4050317"><ele>699.0</ele><time>2026-04-06T09:13:44.992Z</time></trkpt><trkpt lat="44.4358367" lon="10.4049067"><ele>699.0</ele><time>2026-04-06T09:13:46.993Z</time></trkpt><trkpt lat="44.435895" lon="10.4047717"><ele>699.0</ele><time>2026-04-06T09:13:48.992Z</time></trkpt><trkpt lat="44.4359483" lon="10.4046483"><ele>699.0</ele><time>2026-04-06T09:13:50.993Z</time></trkpt><trkpt lat="44.436" lon="10.4045433"><ele>699.0</ele><time>2026-04-06T09:13:52.992Z</time></trkpt><trkpt lat="44.4360583" lon="10.4044417"><ele>700.6</ele><time>2026-04-06T09:14:32.992Z</time></trkpt><trkpt lat="44.436125" lon="10.4043317"><ele>702.2</ele><time>2026-04-06T09:14:35.993Z</time></trkpt><trkpt lat="44.4361933" lon="10.4042317"><ele>703.8000000000001</ele><time>2026-04-06T09:14:37.992Z</time></trkpt><trkpt lat="44.43625" lon="10.4040933"><ele>705.4000000000001</ele><time>2026-04-06T09:14:39.992Z</time></trkpt><trkpt lat="44.4362767" lon="10.4040083"><ele>707.0</ele><time>2026-04-06T09:14:40.993Z</time></trkpt><trkpt lat="44.436305" lon="10.403915"><ele>705.2</ele><time>2026-04-06T09:14:41.993Z</time></trkpt><trkpt lat="44.4363267" lon="10.4038233"><ele>703.4000000000001</ele><time>2026-04-06T09:14:42.992Z</time></trkpt><trkpt lat="44.4363383" lon="10.4036517"><ele>701.5999999999999</ele><time>2026-04-06T09:14:44.993Z</time></trkpt><trkpt lat="44.4363417" lon="10.4035633"><ele>699.8</ele><time>2026-04-06T09:14:45.992Z</time></trkpt><trkpt lat="44.4363517" lon="10.4034083"><ele>698.0</ele><time>2026-04-06T09:14:47.992Z</time></trkpt><trkpt lat="44.4363633" lon="10.4032567"><ele>698.0</ele><time>2026-04-06T09:14:49.992Z</time></trkpt><trkpt lat="44.4363817" lon="10.4031083"><ele>698.0</ele><time>2026-04-06T09:14:51.992Z</time></trkpt><trkpt lat="44.4363767" lon="10.402955"><ele>698.0</ele><time>2026-04-06T09:14:53.991Z</time></trkpt><trkpt lat="44.4363667" lon="10.4028383"><ele>698.0</ele><time>2026-04-06T09:14:55.991Z</time></trkpt><trkpt lat="44.4363233" lon="10.40272"><ele>698.0</ele><time>2026-04-06T09:15:03.991Z</time></trkpt><trkpt lat="44.4363033" lon="10.402635"><ele>699.3333333333333</ele><time>2026-04-06T09:15:06.992Z</time></trkpt><trkpt lat="44.4362917" lon="10.4025233"><ele>700.6666666666666</ele><time>2026-04-06T09:15:14.991Z</time></trkpt><trkpt lat="44.43627" lon="10.40242"><ele>702.0</ele><time>2026-04-06T09:15:16.992Z</time></trkpt><trkpt lat="44.4362467" lon="10.4023033"><ele>703.3333333333334</ele><time>2026-04-06T09:15:18.992Z</time></trkpt><trkpt lat="44.436205" lon="10.40222"><ele>704.6666666666667</ele><time>2026-04-06T09:15:20.991Z</time></trkpt><trkpt lat="44.4361683" lon="10.40214"><ele>706.0</ele><time>2026-04-06T09:15:22.992Z</time></trkpt><trkpt lat="44.436115" lon="10.4020283"><ele>706.0</ele><time>2026-04-06T09:15:25.991Z</time></trkpt><trkpt lat="44.4360717" lon="10.40194"><ele>706.0</ele><time>2026-04-06T09:15:27.991Z</time></trkpt><trkpt lat="44.4359967" lon="10.4018567"><ele>706.0</ele><time>2026-04-06T09:15:29.992Z</time></trkpt><trkpt lat="44.4359067" lon="10.401755"><ele>706.0</ele><time>2026-04-06T09:15:31.991Z</time></trkpt><trkpt lat="44.4358233" lon="10.4016767"><ele>706.0</ele><time>2026-04-06T09:15:33.991Z</time></trkpt><trkpt lat="44.43574" lon="10.401575"><ele>706.0</ele><time>2026-04-06T09:15:35.991Z</time></trkpt><trkpt lat="44.43569" lon="10.40152"><ele>706.0</ele><time>2026-04-06T09:15:36.991Z</time></trkpt><trkpt lat="44.4356217" lon="10.401425"><ele>706.0</ele><time>2026-04-06T09:15:38.992Z</time></trkpt><trkpt lat="44.4355733" lon="10.4013617"><ele>706.0</ele><time>2026-04-06T09:15:40.992Z</time></trkpt><trkpt lat="44.43548" lon="10.4012733"><ele>706.0</ele><time>2026-04-06T09:15:42.991Z</time></trkpt><trkpt lat="44.43536" lon="10.4012233"><ele>706.5</ele><time>2026-04-06T09:15:44.991Z</time></trkpt><trkpt lat="44.435295" lon="10.40122"><ele>707.0</ele><time>2026-04-06T09:15:45.991Z</time></trkpt><trkpt lat="44.4351783" lon="10.4012167"><ele>707.5</ele><time>2026-04-06T09:15:47.991Z</time></trkpt><trkpt lat="44.435055" lon="10.4012133"><ele>708.0</ele><time>2026-04-06T09:15:49.991Z</time></trkpt><trkpt lat="44.4349883" lon="10.401205"><ele>708.5</ele><time>2026-04-06T09:15:50.992Z</time></trkpt><trkpt lat="44.4349217" lon="10.40119"><ele>709.0</ele><time>2026-04-06T09:15:51.991Z</time></trkpt><trkpt lat="44.4348167" lon="10.4011717"><ele>709.0</ele><time>2026-04-06T09:15:53.991Z</time></trkpt><trkpt lat="44.4347167" lon="10.40116"><ele>709.0</ele><time>2026-04-06T09:15:55.991Z</time></trkpt><trkpt lat="44.4346317" lon="10.4011433"><ele>709.0</ele><time>2026-04-06T09:15:57.991Z</time></trkpt><trkpt lat="44.4345383" lon="10.4011217"><ele>709.0</ele><time>2026-04-06T09:15:59.992Z</time></trkpt><trkpt lat="44.4344617" lon="10.401085"><ele>709.0</ele><time>2026-04-06T09:16:01.992Z</time></trkpt><trkpt lat="44.4343967" lon="10.4010567"><ele>709.0</ele><time>2026-04-06T09:16:03.991Z</time></trkpt><trkpt lat="44.43433" lon="10.4010233"><ele>709.6666666666667</ele><time>2026-04-06T09:16:05.991Z</time></trkpt><trkpt lat="44.4342433" lon="10.4009833"><ele>710.3333333333334</ele><time>2026-04-06T09:16:07.992Z</time></trkpt><trkpt lat="44.434155" lon="10.40093"><ele>711.0</ele><time>2026-04-06T09:16:09.991Z</time></trkpt><trkpt lat="44.434085" lon="10.4008767"><ele>711.6666666666666</ele><time>2026-04-06T09:16:11.992Z</time></trkpt><trkpt lat="44.4340167" lon="10.4008067"><ele>712.3333333333333</ele><time>2026-04-06T09:16:14.991Z</time></trkpt><trkpt lat="44.433945" lon="10.40072"><ele>713.0</ele><time>2026-04-06T09:16:17.991Z</time></trkpt><trkpt lat="44.43388" lon="10.4006433"><ele>712.8</ele><time>2026-04-06T09:16:19.991Z</time></trkpt><trkpt lat="44.43379" lon="10.40066"><ele>712.5999999999999</ele><time>2026-04-06T09:16:22.991Z</time></trkpt><trkpt lat="44.4337233" lon="10.400745"><ele>712.4000000000001</ele><time>2026-04-06T09:16:24.991Z</time></trkpt><trkpt lat="44.43365" lon="10.4008283"><ele>712.2</ele><time>2026-04-06T09:16:26.991Z</time></trkpt><trkpt lat="44.4335867" lon="10.40095"><ele>712.0</ele><time>2026-04-06T09:16:28.991Z</time></trkpt><trkpt lat="44.433545" lon="10.4010617"><ele>712.0</ele><time>2026-04-06T09:16:30.991Z</time></trkpt><trkpt lat="44.433515" lon="10.4011467"><ele>712.0</ele><time>2026-04-06T09:16:32.991Z</time></trkpt><trkpt lat="44.43351" lon="10.4012817"><ele>712.0</ele><time>2026-04-06T09:16:34.992Z</time></trkpt><trkpt lat="44.4335067" lon="10.40137"><ele>712.0</ele><time>2026-04-06T09:16:35.991Z</time></trkpt><trkpt lat="44.4335067" lon="10.40147"><ele>712.0</ele><time>2026-04-06T09:16:36.992Z</time></trkpt><trkpt lat="44.4335033" lon="10.4015867"><ele>712.0</ele><time>2026-04-06T09:16:37.991Z</time></trkpt><trkpt lat="44.4335033" lon="10.4017067"><ele>712.0</ele><time>2026-04-06T09:16:38.991Z</time></trkpt><trkpt lat="44.4335033" lon="10.4018133"><ele>712.0</ele><time>2026-04-06T09:16:39.991Z</time></trkpt><trkpt lat="44.4335017" lon="10.401905"><ele>712.0</ele><time>2026-04-06T09:16:40.991Z</time></trkpt><trkpt lat="44.4335083" lon="10.4020683"><ele>712.0</ele><time>2026-04-06T09:16:42.992Z</time></trkpt><trkpt lat="44.4335167" lon="10.4022033"><ele>712.0</ele><time>2026-04-06T09:16:44.991Z</time></trkpt><trkpt lat="44.4335233" lon="10.4023233"><ele>712.0</ele><time>2026-04-06T09:16:46.992Z</time></trkpt><trkpt lat="44.4335267" lon="10.4024217"><ele>712.0</ele><time>2026-04-06T09:16:48.992Z</time></trkpt><trkpt lat="44.4335083" lon="10.4025333"><ele>712.0</ele><time>2026-04-06T09:16:51.991Z</time></trkpt><trkpt lat="44.4334467" lon="10.4025533"><ele>712.0</ele><time>2026-04-06T09:16:53.992Z</time></trkpt><trkpt lat="44.4333867" lon="10.402475"><ele>712.0</ele><time>2026-04-06T09:16:55.991Z</time></trkpt><trkpt lat="44.4333633" lon="10.4022817"><ele>712.0</ele><time>2026-04-06T09:16:57.991Z</time></trkpt><trkpt lat="44.4333567" lon="10.4021583"><ele>712.0</ele><time>2026-04-06T09:16:58.991Z</time></trkpt><trkpt lat="44.4333533" lon="10.4020333"><ele>712.0</ele><time>2026-04-06T09:16:59.992Z</time></trkpt><trkpt lat="44.4333567" lon="10.4019167"><ele>712.0</ele><time>2026-04-06T09:17:00.992Z</time></trkpt><trkpt lat="44.433365" lon="10.401805"><ele>712.0</ele><time>2026-04-06T09:17:01.991Z</time></trkpt><trkpt lat="44.4333683" lon="10.40171"><ele>712.0</ele><time>2026-04-06T09:17:02.991Z</time></trkpt><trkpt lat="44.4333767" lon="10.4015417"><ele>712.0</ele><time>2026-04-06T09:17:04.991Z</time></trkpt><trkpt lat="44.4333933" lon="10.4013967"><ele>712.0</ele><time>2026-04-06T09:17:06.991Z</time></trkpt><trkpt lat="44.4334317" lon="10.40128"><ele>712.0</ele><time>2026-04-06T09:17:08.991Z</time></trkpt><trkpt lat="44.4334883" lon="10.4012067"><ele>712.0</ele><time>2026-04-06T09:17:10.991Z</time></trkpt><trkpt lat="44.4335467" lon="10.4011567"><ele>712.0</ele><time>2026-04-06T09:17:12.991Z</time></trkpt><trkpt lat="44.433615" lon="10.4010783"><ele>712.0</ele><time>2026-04-06T09:17:15.992Z</time></trkpt><trkpt lat="44.4336017" lon="10.40098"><ele>712.0</ele><time>2026-04-06T09:17:18.991Z</time></trkpt></trkseg></trk></gpx>